<?xml version='1.0' encoding='UTF-8'?><gpx version="1.1" creator="JPX - https://github.com/jenetics/jpx" xmlns="http://www.topografix.com/GPX/1/1"><trk><trkseg><trkpt lat="43.3790721" lon="11.1767319"><ele>257.0</ele><time>2026-04-04T13:09:31.834Z</time></trkpt><trkpt lat="43.379154" lon="11.1767828"><ele>257.0</ele><time>2026-04-04T13:09:34.836Z</time></trkpt><trkpt lat="43.3791759" lon="11.1769002"><ele>257.0</ele><time>2026-04-04T13:09:35.835Z</time></trkpt><trkpt lat="43.3792096" lon="11.1769833"><ele>257.0</ele><time>2026-04-04T13:09:36.836Z</time></trkpt><trkpt lat="43.3792663" lon="11.1771261"><ele>257.0</ele><time>2026-04-04T13:09:38.835Z</time></trkpt><trkpt lat="43.3792652" lon="11.1772167"><ele>257.0</ele><time>2026-04-04T13:09:40.836Z</time></trkpt><trkpt lat="43.3792528" lon="11.1773396"><ele>258.0</ele><time>2026-04-04T13:09:43.834Z</time></trkpt><trkpt lat="43.3792278" lon="11.17743"><ele>259.0</ele><time>2026-04-04T13:09:45.835Z</time></trkpt><trkpt lat="43.3792053" lon="11.1775437"><ele>260.0</ele><time>2026-04-04T13:09:49.836Z</time></trkpt><trkpt lat="43.3791752" lon="11.1776356"><ele>261.0</ele><time>2026-04-04T13:09:51.835Z</time></trkpt><trkpt lat="43.3791784" lon="11.1777226"><ele>262.0</ele><time>2026-04-04T13:09:52.835Z</time></trkpt><trkpt lat="43.3791397" lon="11.177879"><ele>263.0</ele><time>2026-04-04T13:09:54.836Z</time></trkpt><trkpt lat="43.3791068" lon="11.1780293"><ele>263.0</ele><time>2026-04-04T13:09:56.834Z</time></trkpt><trkpt lat="43.3790781" lon="11.1781495"><ele>263.0</ele><time>2026-04-04T13:09:58.835Z</time></trkpt><trkpt lat="43.3790442" lon="11.1782263"><ele>263.0</ele><time>2026-04-04T13:10:00.835Z</time></trkpt><trkpt lat="43.3789574" lon="11.1782775"><ele>263.0</ele><time>2026-04-04T13:10:03.836Z</time></trkpt><trkpt lat="43.3788696" lon="11.1782659"><ele>263.0</ele><time>2026-04-04T13:10:05.835Z</time></trkpt><trkpt lat="43.3787615" lon="11.1781942"><ele>264.1666666666667</ele><time>2026-04-04T13:10:07.835Z</time></trkpt><trkpt lat="43.3786943" lon="11.178185"><ele>265.33333333333337</ele><time>2026-04-04T13:10:08.836Z</time></trkpt><trkpt lat="43.3786249" lon="11.1781757"><ele>266.5</ele><time>2026-04-04T13:10:09.836Z</time></trkpt><trkpt lat="43.3785507" lon="11.17817"><ele>267.6666666666667</ele><time>2026-04-04T13:10:10.835Z</time></trkpt><trkpt lat="43.3784661" lon="11.1781757"><ele>268.8333333333333</ele><time>2026-04-04T13:10:11.835Z</time></trkpt><trkpt lat="43.3783762" lon="11.1781736"><ele>270.0</ele><time>2026-04-04T13:10:12.835Z</time></trkpt><trkpt lat="43.3782892" lon="11.1781715"><ele>270.0</ele><time>2026-04-04T13:10:13.836Z</time></trkpt><trkpt lat="43.3782135" lon="11.1781722"><ele>270.0</ele><time>2026-04-04T13:10:14.836Z</time></trkpt><trkpt lat="43.3781472" lon="11.1781784"><ele>270.0</ele><time>2026-04-04T13:10:15.835Z</time></trkpt><trkpt lat="43.3780772" lon="11.1781858"><ele>270.0</ele><time>2026-04-04T13:10:16.836Z</time></trkpt><trkpt lat="43.3779963" lon="11.1782054"><ele>270.0</ele><time>2026-04-04T13:10:17.835Z</time></trkpt><trkpt lat="43.3779158" lon="11.1782397"><ele>270.0</ele><time>2026-04-04T13:10:18.834Z</time></trkpt><trkpt lat="43.3778257" lon="11.1782712"><ele>272.8</ele><time>2026-04-04T13:10:19.836Z</time></trkpt><trkpt lat="43.3777404" lon="11.1783017"><ele>275.6</ele><time>2026-04-04T13:10:20.835Z</time></trkpt><trkpt lat="43.3776513" lon="11.178332"><ele>278.4</ele><time>2026-04-04T13:10:21.835Z</time></trkpt><trkpt lat="43.3775615" lon="11.178359"><ele>281.2</ele><time>2026-04-04T13:10:22.834Z</time></trkpt><trkpt lat="43.3774777" lon="11.1783866"><ele>284.0</ele><time>2026-04-04T13:10:23.834Z</time></trkpt><trkpt lat="43.3773822" lon="11.1784264"><ele>284.0</ele><time>2026-04-04T13:10:24.836Z</time></trkpt><trkpt lat="43.3773041" lon="11.1784491"><ele>284.0</ele><time>2026-04-04T13:10:25.835Z</time></trkpt><trkpt lat="43.377216" lon="11.1784801"><ele>284.0</ele><time>2026-04-04T13:10:26.835Z</time></trkpt><trkpt lat="43.3771335" lon="11.1784732"><ele>284.0</ele><time>2026-04-04T13:10:27.836Z</time></trkpt><trkpt lat="43.3770426" lon="11.178463"><ele>284.0</ele><time>2026-04-04T13:10:28.835Z</time></trkpt><trkpt lat="43.3769416" lon="11.1784373"><ele>284.0</ele><time>2026-04-04T13:10:29.835Z</time></trkpt><trkpt lat="43.3768445" lon="11.1783836"><ele>285.75</ele><time>2026-04-04T13:10:30.834Z</time></trkpt><trkpt lat="43.3767367" lon="11.1783552"><ele>287.5</ele><time>2026-04-04T13:10:31.836Z</time></trkpt><trkpt lat="43.3766153" lon="11.178343"><ele>289.25</ele><time>2026-04-04T13:10:32.836Z</time></trkpt><trkpt lat="43.3764943" lon="11.1783315"><ele>291.0</ele><time>2026-04-04T13:10:33.835Z</time></trkpt><trkpt lat="43.3763746" lon="11.1783218"><ele>292.5</ele><time>2026-04-04T13:10:34.835Z</time></trkpt><trkpt lat="43.3762521" lon="11.1783505"><ele>294.0</ele><time>2026-04-04T13:10:35.834Z</time></trkpt><trkpt lat="43.3761257" lon="11.1783547"><ele>295.5</ele><time>2026-04-04T13:10:36.836Z</time></trkpt><trkpt lat="43.3759925" lon="11.1783586"><ele>297.0</ele><time>2026-04-04T13:10:37.836Z</time></trkpt><trkpt lat="43.3758726" lon="11.1783591"><ele>297.0</ele><time>2026-04-04T13:10:38.834Z</time></trkpt><trkpt lat="43.3757562" lon="11.1783706"><ele>297.0</ele><time>2026-04-04T13:10:39.835Z</time></trkpt><trkpt lat="43.3756401" lon="11.178378"><ele>297.0</ele><time>2026-04-04T13:10:40.836Z</time></trkpt><trkpt lat="43.3755281" lon="11.1783879"><ele>297.0</ele><time>2026-04-04T13:10:41.836Z</time></trkpt><trkpt lat="43.3754181" lon="11.1783942"><ele>298.25</ele><time>2026-04-04T13:10:42.836Z</time></trkpt><trkpt lat="43.3752998" lon="11.1784077"><ele>299.5</ele><time>2026-04-04T13:10:43.834Z</time></trkpt><trkpt lat="43.3751879" lon="11.1784125"><ele>300.75</ele><time>2026-04-04T13:10:44.835Z</time></trkpt><trkpt lat="43.3750829" lon="11.1784328"><ele>302.0</ele><time>2026-04-04T13:10:45.835Z</time></trkpt><trkpt lat="43.3749678" lon="11.1784499"><ele>302.0</ele><time>2026-04-04T13:10:46.836Z</time></trkpt><trkpt lat="43.3748633" lon="11.1784674"><ele>302.0</ele><time>2026-04-04T13:10:47.835Z</time></trkpt><trkpt lat="43.3747706" lon="11.1784707"><ele>302.0</ele><time>2026-04-04T13:10:48.835Z</time></trkpt><trkpt lat="43.374678" lon="11.1784573"><ele>302.0</ele><time>2026-04-04T13:10:49.835Z</time></trkpt><trkpt lat="43.3745944" lon="11.1784389"><ele>302.0</ele><time>2026-04-04T13:10:50.834Z</time></trkpt><trkpt lat="43.3745199" lon="11.1784214"><ele>302.6666666666667</ele><time>2026-04-04T13:10:51.834Z</time></trkpt><trkpt lat="43.3744444" lon="11.1784315"><ele>303.33333333333337</ele><time>2026-04-04T13:10:52.835Z</time></trkpt><trkpt lat="43.3743605" lon="11.1784665"><ele>304.0</ele><time>2026-04-04T13:10:53.835Z</time></trkpt><trkpt lat="43.3742885" lon="11.1785292"><ele>304.6666666666667</ele><time>2026-04-04T13:10:54.836Z</time></trkpt><trkpt lat="43.3742247" lon="11.1786201"><ele>305.3333333333333</ele><time>2026-04-04T13:10:55.835Z</time></trkpt><trkpt lat="43.3741618" lon="11.1787323"><ele>306.0</ele><time>2026-04-04T13:10:56.835Z</time></trkpt><trkpt lat="43.3740954" lon="11.1788545"><ele>306.0</ele><time>2026-04-04T13:10:57.834Z</time></trkpt><trkpt lat="43.374032" lon="11.1789689"><ele>306.0</ele><time>2026-04-04T13:10:58.834Z</time></trkpt><trkpt lat="43.3739726" lon="11.179077"><ele>306.0</ele><time>2026-04-04T13:10:59.835Z</time></trkpt><trkpt lat="43.3739132" lon="11.1791635"><ele>306.0</ele><time>2026-04-04T13:11:00.836Z</time></trkpt><trkpt lat="43.3738296" lon="11.1792432"><ele>306.0</ele><time>2026-04-04T13:11:01.835Z</time></trkpt><trkpt lat="43.373736" lon="11.1793254"><ele>307.8</ele><time>2026-04-04T13:11:02.835Z</time></trkpt><trkpt lat="43.3736354" lon="11.1794165"><ele>309.6</ele><time>2026-04-04T13:11:03.836Z</time></trkpt><trkpt lat="43.3735447" lon="11.1795039"><ele>311.4</ele><time>2026-04-04T13:11:04.836Z</time></trkpt><trkpt lat="43.3734634" lon="11.1795907"><ele>313.2</ele><time>2026-04-04T13:11:05.835Z</time></trkpt><trkpt lat="43.3733879" lon="11.1796588"><ele>315.0</ele><time>2026-04-04T13:11:06.836Z</time></trkpt><trkpt lat="43.3733062" lon="11.1797053"><ele>315.0</ele><time>2026-04-04T13:11:07.835Z</time></trkpt><trkpt lat="43.3732204" lon="11.1797264"><ele>315.0</ele><time>2026-04-04T13:11:08.836Z</time></trkpt><trkpt lat="43.3731343" lon="11.1797347"><ele>315.0</ele><time>2026-04-04T13:11:09.834Z</time></trkpt><trkpt lat="43.3730362" lon="11.1797084"><ele>315.0</ele><time>2026-04-04T13:11:10.836Z</time></trkpt><trkpt lat="43.3729409" lon="11.1796559"><ele>315.0</ele><time>2026-04-04T13:11:11.836Z</time></trkpt><trkpt lat="43.3728447" lon="11.1795758"><ele>315.75</ele><time>2026-04-04T13:11:12.835Z</time></trkpt><trkpt lat="43.372751" lon="11.1794897"><ele>316.5</ele><time>2026-04-04T13:11:13.836Z</time></trkpt><trkpt lat="43.3726413" lon="11.1794066"><ele>317.25</ele><time>2026-04-04T13:11:14.836Z</time></trkpt><trkpt lat="43.372528" lon="11.1793224"><ele>318.0</ele><time>2026-04-04T13:11:15.836Z</time></trkpt><trkpt lat="43.3724136" lon="11.1792354"><ele>318.0</ele><time>2026-04-04T13:11:16.836Z</time></trkpt><trkpt lat="43.3722989" lon="11.179148"><ele>318.0</ele><time>2026-04-04T13:11:17.836Z</time></trkpt><trkpt lat="43.3721832" lon="11.1790622"><ele>318.0</ele><time>2026-04-04T13:11:18.834Z</time></trkpt><trkpt lat="43.3720617" lon="11.1789742"><ele>318.0</ele><time>2026-04-04T13:11:19.835Z</time></trkpt><trkpt lat="43.3719438" lon="11.178887"><ele>317.25</ele><time>2026-04-04T13:11:20.835Z</time></trkpt><trkpt lat="43.3718344" lon="11.1788022"><ele>316.5</ele><time>2026-04-04T13:11:21.834Z</time></trkpt><trkpt lat="43.3717296" lon="11.1787206"><ele>315.75</ele><time>2026-04-04T13:11:22.835Z</time></trkpt><trkpt lat="43.3716245" lon="11.1786525"><ele>315.0</ele><time>2026-04-04T13:11:23.835Z</time></trkpt><trkpt lat="43.3715179" lon="11.1786023"><ele>315.0</ele><time>2026-04-04T13:11:24.835Z</time></trkpt><trkpt lat="43.3714258" lon="11.1785613"><ele>315.0</ele><time>2026-04-04T13:11:25.834Z</time></trkpt><trkpt lat="43.3713408" lon="11.1785276"><ele>315.0</ele><time>2026-04-04T13:11:26.834Z</time></trkpt><trkpt lat="43.3712457" lon="11.1785192"><ele>315.0</ele><time>2026-04-04T13:11:27.835Z</time></trkpt><trkpt lat="43.3711562" lon="11.1784692"><ele>315.0</ele><time>2026-04-04T13:11:28.834Z</time></trkpt><trkpt lat="43.3710845" lon="11.1784374"><ele>314.8</ele><time>2026-04-04T13:11:29.835Z</time></trkpt><trkpt lat="43.3709822" lon="11.1783827"><ele>314.6</ele><time>2026-04-04T13:11:30.836Z</time></trkpt><trkpt lat="43.3708962" lon="11.1782865"><ele>314.4</ele><time>2026-04-04T13:11:31.834Z</time></trkpt><trkpt lat="43.3707988" lon="11.1782074"><ele>314.2</ele><time>2026-04-04T13:11:32.834Z</time></trkpt><trkpt lat="43.3707042" lon="11.178127"><ele>314.0</ele><time>2026-04-04T13:11:33.835Z</time></trkpt><trkpt lat="43.3706142" lon="11.1780478"><ele>315.6</ele><time>2026-04-04T13:11:34.835Z</time></trkpt><trkpt lat="43.3705193" lon="11.177981"><ele>317.2</ele><time>2026-04-04T13:11:35.835Z</time></trkpt><trkpt lat="43.3704169" lon="11.1779284"><ele>318.8</ele><time>2026-04-04T13:11:36.835Z</time></trkpt><trkpt lat="43.3703113" lon="11.177879"><ele>320.40000000000003</ele><time>2026-04-04T13:11:37.835Z</time></trkpt><trkpt lat="43.3702146" lon="11.1778292"><ele>322.0</ele><time>2026-04-04T13:11:38.836Z</time></trkpt><trkpt lat="43.3701244" lon="11.1777929"><ele>322.0</ele><time>2026-04-04T13:11:39.835Z</time></trkpt><trkpt lat="43.3700339" lon="11.1777771"><ele>322.0</ele><time>2026-04-04T13:11:40.836Z</time></trkpt><trkpt lat="43.3699438" lon="11.1777691"><ele>322.0</ele><time>2026-04-04T13:11:41.835Z</time></trkpt><trkpt lat="43.3698521" lon="11.1777685"><ele>322.0</ele><time>2026-04-04T13:11:42.835Z</time></trkpt><trkpt lat="43.3697414" lon="11.1778262"><ele>322.0</ele><time>2026-04-04T13:11:43.834Z</time></trkpt><trkpt lat="43.3696379" lon="11.1778656"><ele>324.66666666666663</ele><time>2026-04-04T13:11:44.836Z</time></trkpt><trkpt lat="43.3695271" lon="11.1779213"><ele>327.3333333333333</ele><time>2026-04-04T13:11:45.836Z</time></trkpt><trkpt lat="43.3693357" lon="11.1780514"><ele>330.0</ele><time>2026-04-04T13:11:47.835Z</time></trkpt><trkpt lat="43.3692279" lon="11.1781371"><ele>331.25</ele><time>2026-04-04T13:11:48.835Z</time></trkpt><trkpt lat="43.3691199" lon="11.1782204"><ele>332.5</ele><time>2026-04-04T13:11:49.835Z</time></trkpt><trkpt lat="43.3690132" lon="11.1782969"><ele>333.75</ele><time>2026-04-04T13:11:50.834Z</time></trkpt><trkpt lat="43.368915" lon="11.1783726"><ele>335.0</ele><time>2026-04-04T13:11:51.835Z</time></trkpt><trkpt lat="43.3688093" lon="11.1784467"><ele>336.75</ele><time>2026-04-04T13:11:52.835Z</time></trkpt><trkpt lat="43.3687073" lon="11.1785184"><ele>338.5</ele><time>2026-04-04T13:11:53.835Z</time></trkpt><trkpt lat="43.3685958" lon="11.1786027"><ele>340.25</ele><time>2026-04-04T13:11:54.835Z</time></trkpt><trkpt lat="43.3684813" lon="11.1786892"><ele>342.0</ele><time>2026-04-04T13:11:55.836Z</time></trkpt><trkpt lat="43.3683771" lon="11.1787695"><ele>342.0</ele><time>2026-04-04T13:11:56.835Z</time></trkpt><trkpt lat="43.3682847" lon="11.1788445"><ele>342.0</ele><time>2026-04-04T13:11:57.835Z</time></trkpt><trkpt lat="43.3681858" lon="11.1789235"><ele>342.0</ele><time>2026-04-04T13:11:58.834Z</time></trkpt><trkpt lat="43.3680868" lon="11.1789816"><ele>342.0</ele><time>2026-04-04T13:11:59.835Z</time></trkpt><trkpt lat="43.3679851" lon="11.1790624"><ele>342.0</ele><time>2026-04-04T13:12:00.836Z</time></trkpt><trkpt lat="43.3678764" lon="11.17913"><ele>344.0</ele><time>2026-04-04T13:12:01.836Z</time></trkpt><trkpt lat="43.3677764" lon="11.1791907"><ele>346.0</ele><time>2026-04-04T13:12:02.836Z</time></trkpt><trkpt lat="43.3676733" lon="11.1792609"><ele>348.0</ele><time>2026-04-04T13:12:03.835Z</time></trkpt><trkpt lat="43.3676083" lon="11.1793012"><ele>350.0</ele><time>2026-04-04T13:12:04.836Z</time></trkpt><trkpt lat="43.3675441" lon="11.1793452"><ele>352.0</ele><time>2026-04-04T13:12:05.835Z</time></trkpt><trkpt lat="43.3674744" lon="11.1793545"><ele>354.0</ele><time>2026-04-04T13:12:06.834Z</time></trkpt><trkpt lat="43.3673958" lon="11.1793634"><ele>354.0</ele><time>2026-04-04T13:12:07.835Z</time></trkpt><trkpt lat="43.3673106" lon="11.1793414"><ele>354.0</ele><time>2026-04-04T13:12:08.835Z</time></trkpt><trkpt lat="43.3671919" lon="11.1792795"><ele>354.0</ele><time>2026-04-04T13:12:09.835Z</time></trkpt><trkpt lat="43.3670748" lon="11.1792507"><ele>354.0</ele><time>2026-04-04T13:12:10.835Z</time></trkpt><trkpt lat="43.3669678" lon="11.1792157"><ele>354.0</ele><time>2026-04-04T13:12:11.835Z</time></trkpt><trkpt lat="43.3668716" lon="11.1792033"><ele>354.79999999999995</ele><time>2026-04-04T13:12:12.835Z</time></trkpt><trkpt lat="43.3667632" lon="11.1792136"><ele>355.59999999999997</ele><time>2026-04-04T13:12:13.836Z</time></trkpt><trkpt lat="43.3666399" lon="11.179128"><ele>356.4</ele><time>2026-04-04T13:12:15.836Z</time></trkpt><trkpt lat="43.366574" lon="11.1790508"><ele>357.2</ele><time>2026-04-04T13:12:16.835Z</time></trkpt><trkpt lat="43.3665174" lon="11.1789988"><ele>358.0</ele><time>2026-04-04T13:12:17.836Z</time></trkpt><trkpt lat="43.366458" lon="11.1789582"><ele>358.0</ele><time>2026-04-04T13:12:18.836Z</time></trkpt><trkpt lat="43.3663765" lon="11.1789372"><ele>358.0</ele><time>2026-04-04T13:12:19.834Z</time></trkpt><trkpt lat="43.3662714" lon="11.1789287"><ele>358.0</ele><time>2026-04-04T13:12:20.835Z</time></trkpt><trkpt lat="43.3661717" lon="11.1789292"><ele>358.0</ele><time>2026-04-04T13:12:21.836Z</time></trkpt><trkpt lat="43.3660382" lon="11.1789153"><ele>358.0</ele><time>2026-04-04T13:12:22.835Z</time></trkpt><trkpt lat="43.3659143" lon="11.1789117"><ele>358.75</ele><time>2026-04-04T13:12:23.835Z</time></trkpt><trkpt lat="43.3657822" lon="11.1789123"><ele>359.5</ele><time>2026-04-04T13:12:24.836Z</time></trkpt><trkpt lat="43.3656473" lon="11.178896"><ele>360.25</ele><time>2026-04-04T13:12:25.835Z</time></trkpt><trkpt lat="43.3655292" lon="11.1789039"><ele>361.0</ele><time>2026-04-04T13:12:26.835Z</time></trkpt><trkpt lat="43.3653968" lon="11.1788998"><ele>361.25</ele><time>2026-04-04T13:12:27.835Z</time></trkpt><trkpt lat="43.3652661" lon="11.1788938"><ele>361.5</ele><time>2026-04-04T13:12:28.835Z</time></trkpt><trkpt lat="43.3651393" lon="11.1788899"><ele>361.75</ele><time>2026-04-04T13:12:29.835Z</time></trkpt><trkpt lat="43.3650331" lon="11.1789004"><ele>362.0</ele><time>2026-04-04T13:12:30.835Z</time></trkpt><trkpt lat="43.3649387" lon="11.1788958"><ele>362.0</ele><time>2026-04-04T13:12:31.835Z</time></trkpt><trkpt lat="43.3648378" lon="11.1788647"><ele>362.0</ele><time>2026-04-04T13:12:32.834Z</time></trkpt><trkpt lat="43.3647318" lon="11.1788138"><ele>362.0</ele><time>2026-04-04T13:12:33.836Z</time></trkpt><trkpt lat="43.3646241" lon="11.1787663"><ele>362.0</ele><time>2026-04-04T13:12:34.835Z</time></trkpt><trkpt lat="43.364509" lon="11.1787491"><ele>362.0</ele><time>2026-04-04T13:12:35.835Z</time></trkpt><trkpt lat="43.3644075" lon="11.1787396"><ele>363.0</ele><time>2026-04-04T13:12:36.835Z</time></trkpt><trkpt lat="43.3643012" lon="11.1787518"><ele>364.0</ele><time>2026-04-04T13:12:37.835Z</time></trkpt><trkpt lat="43.3641869" lon="11.1787765"><ele>365.0</ele><time>2026-04-04T13:12:38.835Z</time></trkpt><trkpt lat="43.364069" lon="11.1788056"><ele>366.0</ele><time>2026-04-04T13:12:39.835Z</time></trkpt><trkpt lat="43.3639707" lon="11.1788354"><ele>367.0</ele><time>2026-04-04T13:12:40.836Z</time></trkpt><trkpt lat="43.3638638" lon="11.1788405"><ele>367.75</ele><time>2026-04-04T13:12:41.835Z</time></trkpt><trkpt lat="43.3637557" lon="11.1788551"><ele>368.5</ele><time>2026-04-04T13:12:42.834Z</time></trkpt><trkpt lat="43.3636375" lon="11.1788785"><ele>369.25</ele><time>2026-04-04T13:12:43.835Z</time></trkpt><trkpt lat="43.3635171" lon="11.1788991"><ele>370.0</ele><time>2026-04-04T13:12:44.835Z</time></trkpt><trkpt lat="43.3633984" lon="11.1789552"><ele>370.0</ele><time>2026-04-04T13:12:45.835Z</time></trkpt><trkpt lat="43.3632986" lon="11.1790157"><ele>370.0</ele><time>2026-04-04T13:12:46.835Z</time></trkpt><trkpt lat="43.3632222" lon="11.1790693"><ele>370.0</ele><time>2026-04-04T13:12:47.835Z</time></trkpt><trkpt lat="43.3631227" lon="11.1791194"><ele>370.0</ele><time>2026-04-04T13:12:48.834Z</time></trkpt><trkpt lat="43.3630513" lon="11.1791724"><ele>370.0</ele><time>2026-04-04T13:12:49.835Z</time></trkpt><trkpt lat="43.3629543" lon="11.1792804"><ele>371.5</ele><time>2026-04-04T13:12:51.836Z</time></trkpt><trkpt lat="43.3629159" lon="11.1793547"><ele>373.0</ele><time>2026-04-04T13:12:52.835Z</time></trkpt><trkpt lat="43.3628948" lon="11.1794517"><ele>374.5</ele><time>2026-04-04T13:12:53.836Z</time></trkpt><trkpt lat="43.3628662" lon="11.1795663"><ele>376.0</ele><time>2026-04-04T13:12:54.835Z</time></trkpt><trkpt lat="43.3628371" lon="11.1796785"><ele>377.5</ele><time>2026-04-04T13:12:55.835Z</time></trkpt><trkpt lat="43.3628076" lon="11.179797"><ele>379.0</ele><time>2026-04-04T13:12:56.836Z</time></trkpt><trkpt lat="43.3627756" lon="11.1799165"><ele>381.0</ele><time>2026-04-04T13:12:57.835Z</time></trkpt><trkpt lat="43.3627458" lon="11.180043"><ele>383.0</ele><time>2026-04-04T13:12:58.835Z</time></trkpt><trkpt lat="43.3627102" lon="11.1801688"><ele>385.0</ele><time>2026-04-04T13:12:59.836Z</time></trkpt><trkpt lat="43.3626786" lon="11.1802927"><ele>387.0</ele><time>2026-04-04T13:13:00.834Z</time></trkpt><trkpt lat="43.3626489" lon="11.1804211"><ele>389.0</ele><time>2026-04-04T13:13:01.836Z</time></trkpt><trkpt lat="43.3626286" lon="11.180548"><ele>388.99999999999994</ele><time>2026-04-04T13:13:02.836Z</time></trkpt><trkpt lat="43.3626197" lon="11.1806592"><ele>389.0</ele><time>2026-04-04T13:13:03.835Z</time></trkpt><trkpt lat="43.3626181" lon="11.18076"><ele>389.0</ele><time>2026-04-04T13:13:04.834Z</time></trkpt><trkpt lat="43.3626298" lon="11.1808676"><ele>389.0</ele><time>2026-04-04T13:13:05.835Z</time></trkpt><trkpt lat="43.362649" lon="11.1809775"><ele>388.99999999999994</ele><time>2026-04-04T13:13:06.835Z</time></trkpt><trkpt lat="43.3626766" lon="11.1810895"><ele>389.0</ele><time>2026-04-04T13:13:07.836Z</time></trkpt><trkpt lat="43.3627131" lon="11.1811961"><ele>390.49999999999994</ele><time>2026-04-04T13:13:08.835Z</time></trkpt><trkpt lat="43.3627524" lon="11.1812881"><ele>392.0</ele><time>2026-04-04T13:13:09.834Z</time></trkpt><trkpt lat="43.3628005" lon="11.1813633"><ele>393.5</ele><time>2026-04-04T13:13:10.836Z</time></trkpt><trkpt lat="43.3628534" lon="11.1814419"><ele>395.0</ele><time>2026-04-04T13:13:11.836Z</time></trkpt><trkpt lat="43.362907" lon="11.1815092"><ele>396.49999999999994</ele><time>2026-04-04T13:13:12.836Z</time></trkpt><trkpt lat="43.3629615" lon="11.1815904"><ele>398.0</ele><time>2026-04-04T13:13:13.835Z</time></trkpt><trkpt lat="43.3630008" lon="11.1816927"><ele>401.4</ele><time>2026-04-04T13:13:14.835Z</time></trkpt><trkpt lat="43.3630442" lon="11.1818"><ele>404.79999999999995</ele><time>2026-04-04T13:13:15.835Z</time></trkpt><trkpt lat="43.363073" lon="11.1819515"><ele>408.2</ele><time>2026-04-04T13:13:16.835Z</time></trkpt><trkpt lat="43.3631123" lon="11.1820665"><ele>411.6</ele><time>2026-04-04T13:13:17.835Z</time></trkpt><trkpt lat="43.3631525" lon="11.1821866"><ele>415.0</ele><time>2026-04-04T13:13:18.834Z</time></trkpt><trkpt lat="43.36318" lon="11.1822831"><ele>415.50000000000006</ele><time>2026-04-04T13:13:19.835Z</time></trkpt><trkpt lat="43.3631887" lon="11.182376"><ele>416.0</ele><time>2026-04-04T13:13:20.835Z</time></trkpt><trkpt lat="43.3631595" lon="11.1825049"><ele>416.5</ele><time>2026-04-04T13:13:22.835Z</time></trkpt><trkpt lat="43.3631043" lon="11.1825725"><ele>417.0</ele><time>2026-04-04T13:13:23.834Z</time></trkpt><trkpt lat="43.3630417" lon="11.1826249"><ele>417.50000000000006</ele><time>2026-04-04T13:13:24.835Z</time></trkpt><trkpt lat="43.3629807" lon="11.182673"><ele>418.0</ele><time>2026-04-04T13:13:25.835Z</time></trkpt><trkpt lat="43.3629204" lon="11.1827534"><ele>418.0</ele><time>2026-04-04T13:13:26.836Z</time></trkpt><trkpt lat="43.3627989" lon="11.182926"><ele>418.0</ele><time>2026-04-04T13:13:28.836Z</time></trkpt><trkpt lat="43.3627399" lon="11.1830647"><ele>418.0</ele><time>2026-04-04T13:13:30.836Z</time></trkpt><trkpt lat="43.3627706" lon="11.1832062"><ele>418.0</ele><time>2026-04-04T13:13:32.835Z</time></trkpt><trkpt lat="43.3628012" lon="11.1832834"><ele>419.59999999999997</ele><time>2026-04-04T13:13:33.836Z</time></trkpt><trkpt lat="43.3628977" lon="11.1833491"><ele>421.2</ele><time>2026-04-04T13:13:34.835Z</time></trkpt><trkpt lat="43.362967" lon="11.1834221"><ele>422.8</ele><time>2026-04-04T13:13:35.836Z</time></trkpt><trkpt lat="43.363037" lon="11.183505"><ele>424.4</ele><time>2026-04-04T13:13:36.834Z</time></trkpt><trkpt lat="43.3631249" lon="11.1835957"><ele>426.0</ele><time>2026-04-04T13:13:37.835Z</time></trkpt><trkpt lat="43.3632025" lon="11.1836837"><ele>425.99999999999994</ele><time>2026-04-04T13:13:38.836Z</time></trkpt><trkpt lat="43.3632674" lon="11.1837558"><ele>426.0</ele><time>2026-04-04T13:13:39.836Z</time></trkpt><trkpt lat="43.3633206" lon="11.1838046"><ele>426.0</ele><time>2026-04-04T13:13:41.834Z</time></trkpt><trkpt lat="43.3633695" lon="11.1838697"><ele>426.0</ele><time>2026-04-04T13:13:45.834Z</time></trkpt><trkpt lat="43.3633273" lon="11.1838046"><ele>426.0</ele><time>2026-04-04T13:13:53.835Z</time></trkpt><trkpt lat="43.3632508" lon="11.18381"><ele>425.99999999999994</ele><time>2026-04-04T13:13:56.836Z</time></trkpt><trkpt lat="43.3631853" lon="11.1838809"><ele>426.0</ele><time>2026-04-04T13:13:58.835Z</time></trkpt><trkpt lat="43.3630948" lon="11.1839111"><ele>426.1666666666667</ele><time>2026-04-04T13:14:00.835Z</time></trkpt><trkpt lat="43.3630243" lon="11.1839129"><ele>426.33333333333337</ele><time>2026-04-04T13:14:01.835Z</time></trkpt><trkpt lat="43.3629581" lon="11.1839264"><ele>426.5</ele><time>2026-04-04T13:14:02.835Z</time></trkpt><trkpt lat="43.3628728" lon="11.1839472"><ele>426.6666666666667</ele><time>2026-04-04T13:14:03.834Z</time></trkpt><trkpt lat="43.3627897" lon="11.18396"><ele>426.83333333333337</ele><time>2026-04-04T13:14:04.834Z</time></trkpt><trkpt lat="43.3627187" lon="11.1839692"><ele>427.0</ele><time>2026-04-04T13:14:05.835Z</time></trkpt><trkpt lat="43.362646" lon="11.1839564"><ele>427.0</ele><time>2026-04-04T13:14:06.836Z</time></trkpt><trkpt lat="43.3625676" lon="11.1839319"><ele>427.00000000000006</ele><time>2026-04-04T13:14:07.835Z</time></trkpt><trkpt lat="43.3624785" lon="11.1838999"><ele>427.00000000000006</ele><time>2026-04-04T13:14:08.835Z</time></trkpt><trkpt lat="43.3623656" lon="11.1838292"><ele>427.0</ele><time>2026-04-04T13:14:09.836Z</time></trkpt><trkpt lat="43.3622735" lon="11.1837921"><ele>427.0</ele><time>2026-04-04T13:14:10.836Z</time></trkpt><trkpt lat="43.362195" lon="11.1837588"><ele>428.6</ele><time>2026-04-04T13:14:11.835Z</time></trkpt><trkpt lat="43.3621204" lon="11.1837321"><ele>430.20000000000005</ele><time>2026-04-04T13:14:12.835Z</time></trkpt><trkpt lat="43.3620465" lon="11.1837045"><ele>431.8</ele><time>2026-04-04T13:14:13.836Z</time></trkpt><trkpt lat="43.3619221" lon="11.1836782"><ele>433.4</ele><time>2026-04-04T13:14:15.835Z</time></trkpt><trkpt lat="43.3617964" lon="11.1836935"><ele>435.0</ele><time>2026-04-04T13:14:17.835Z</time></trkpt><trkpt lat="43.3617322" lon="11.1836952"><ele>435.0</ele><time>2026-04-04T13:14:18.834Z</time></trkpt><trkpt lat="43.361613" lon="11.1837125"><ele>435.0</ele><time>2026-04-04T13:14:20.835Z</time></trkpt><trkpt lat="43.3615397" lon="11.1838092"><ele>435.0</ele><time>2026-04-04T13:14:22.835Z</time></trkpt><trkpt lat="43.3615189" lon="11.1839205"><ele>435.0</ele><time>2026-04-04T13:14:23.835Z</time></trkpt><trkpt lat="43.3615064" lon="11.184014"><ele>435.0</ele><time>2026-04-04T13:14:24.836Z</time></trkpt><trkpt lat="43.3614583" lon="11.184124"><ele>435.8</ele><time>2026-04-04T13:14:26.835Z</time></trkpt><trkpt lat="43.3613669" lon="11.1842366"><ele>436.6</ele><time>2026-04-04T13:14:28.835Z</time></trkpt><trkpt lat="43.3612993" lon="11.1843119"><ele>437.4</ele><time>2026-04-04T13:14:29.836Z</time></trkpt><trkpt lat="43.3612179" lon="11.1843922"><ele>438.2</ele><time>2026-04-04T13:14:30.835Z</time></trkpt><trkpt lat="43.3611414" lon="11.1844675"><ele>439.0</ele><time>2026-04-04T13:14:31.834Z</time></trkpt><trkpt lat="43.3610664" lon="11.1845355"><ele>439.0</ele><time>2026-04-04T13:14:32.835Z</time></trkpt><trkpt lat="43.3609964" lon="11.1845972"><ele>439.0</ele><time>2026-04-04T13:14:33.835Z</time></trkpt><trkpt lat="43.3609321" lon="11.1846627"><ele>439.0</ele><time>2026-04-04T13:14:34.835Z</time></trkpt><trkpt lat="43.3608772" lon="11.1847281"><ele>439.0</ele><time>2026-04-04T13:14:35.834Z</time></trkpt><trkpt lat="43.3608176" lon="11.1848667"><ele>439.0</ele><time>2026-04-04T13:14:37.834Z</time></trkpt><trkpt lat="43.3607695" lon="11.1850171"><ele>439.00000000000006</ele><time>2026-04-04T13:14:39.835Z</time></trkpt><trkpt lat="43.3607291" lon="11.1851026"><ele>439.0</ele><time>2026-04-04T13:14:40.834Z</time></trkpt><trkpt lat="43.3606871" lon="11.1851871"><ele>439.0</ele><time>2026-04-04T13:14:41.836Z</time></trkpt><trkpt lat="43.360635" lon="11.1853002"><ele>439.0</ele><time>2026-04-04T13:14:42.835Z</time></trkpt><trkpt lat="43.3605907" lon="11.1854288"><ele>439.00000000000006</ele><time>2026-04-04T13:14:43.836Z</time></trkpt><trkpt lat="43.3605445" lon="11.1855463"><ele>439.0</ele><time>2026-04-04T13:14:44.836Z</time></trkpt><trkpt lat="43.3604911" lon="11.1856658"><ele>440.0</ele><time>2026-04-04T13:14:45.835Z</time></trkpt><trkpt lat="43.3604381" lon="11.1857618"><ele>441.0</ele><time>2026-04-04T13:14:46.835Z</time></trkpt><trkpt lat="43.3603733" lon="11.185851"><ele>442.0</ele><time>2026-04-04T13:14:47.835Z</time></trkpt><trkpt lat="43.3603133" lon="11.1859449"><ele>443.0</ele><time>2026-04-04T13:14:48.835Z</time></trkpt><trkpt lat="43.3602561" lon="11.1860502"><ele>444.0</ele><time>2026-04-04T13:14:49.834Z</time></trkpt><trkpt lat="43.3602017" lon="11.1861586"><ele>444.0</ele><time>2026-04-04T13:14:50.835Z</time></trkpt><trkpt lat="43.3601436" lon="11.1862719"><ele>444.0</ele><time>2026-04-04T13:14:51.835Z</time></trkpt><trkpt lat="43.3600897" lon="11.1863788"><ele>444.0</ele><time>2026-04-04T13:14:52.833Z</time></trkpt><trkpt lat="43.3600336" lon="11.1864925"><ele>444.0</ele><time>2026-04-04T13:14:53.835Z</time></trkpt><trkpt lat="43.3599878" lon="11.1866076"><ele>444.0</ele><time>2026-04-04T13:14:54.833Z</time></trkpt><trkpt lat="43.3599377" lon="11.1867119"><ele>443.6666666666667</ele><time>2026-04-04T13:14:55.835Z</time></trkpt><trkpt lat="43.359886" lon="11.186812"><ele>443.33333333333337</ele><time>2026-04-04T13:14:56.834Z</time></trkpt><trkpt lat="43.3598351" lon="11.1869028"><ele>443.0</ele><time>2026-04-04T13:14:57.834Z</time></trkpt><trkpt lat="43.3597819" lon="11.1869869"><ele>442.6666666666667</ele><time>2026-04-04T13:14:58.834Z</time></trkpt><trkpt lat="43.359728" lon="11.1870959"><ele>442.33333333333337</ele><time>2026-04-04T13:15:00.833Z</time></trkpt><trkpt lat="43.3596812" lon="11.1871837"><ele>442.0</ele><time>2026-04-04T13:15:12.835Z</time></trkpt><trkpt lat="43.3596154" lon="11.1872693"><ele>444.0</ele><time>2026-04-04T13:15:14.834Z</time></trkpt><trkpt lat="43.3595487" lon="11.1873768"><ele>446.00000000000006</ele><time>2026-04-04T13:15:16.834Z</time></trkpt><trkpt lat="43.3594727" lon="11.187473"><ele>448.00000000000006</ele><time>2026-04-04T13:15:18.834Z</time></trkpt><trkpt lat="43.3594086" lon="11.1875199"><ele>450.0</ele><time>2026-04-04T13:15:19.835Z</time></trkpt><trkpt lat="43.3593179" lon="11.1876236"><ele>452.0</ele><time>2026-04-04T13:15:21.833Z</time></trkpt><trkpt lat="43.3592837" lon="11.187707"><ele>452.0</ele><time>2026-04-04T13:15:22.834Z</time></trkpt><trkpt lat="43.3592571" lon="11.1878016"><ele>452.00000000000006</ele><time>2026-04-04T13:15:23.835Z</time></trkpt><trkpt lat="43.3591891" lon="11.1879498"><ele>452.00000000000006</ele><time>2026-04-04T13:15:25.834Z</time></trkpt><trkpt lat="43.3591328" lon="11.1880358"><ele>452.0</ele><time>2026-04-04T13:15:26.834Z</time></trkpt><trkpt lat="43.3590447" lon="11.1881637"><ele>452.0</ele><time>2026-04-04T13:15:28.833Z</time></trkpt><trkpt lat="43.3589951" lon="11.188245"><ele>453.16666666666663</ele><time>2026-04-04T13:15:29.834Z</time></trkpt><trkpt lat="43.3589391" lon="11.1883284"><ele>454.3333333333333</ele><time>2026-04-04T13:15:30.834Z</time></trkpt><trkpt lat="43.3588905" lon="11.1883892"><ele>455.5</ele><time>2026-04-04T13:15:31.835Z</time></trkpt><trkpt lat="43.3588315" lon="11.188459"><ele>456.66666666666663</ele><time>2026-04-04T13:15:32.835Z</time></trkpt><trkpt lat="43.358769" lon="11.1885386"><ele>457.8333333333333</ele><time>2026-04-04T13:15:33.834Z</time></trkpt><trkpt lat="43.358706" lon="11.1886245"><ele>459.0</ele><time>2026-04-04T13:15:34.834Z</time></trkpt><trkpt lat="43.3586538" lon="11.1887043"><ele>459.0</ele><time>2026-04-04T13:15:35.835Z</time></trkpt><trkpt lat="43.3585953" lon="11.1887894"><ele>459.0</ele><time>2026-04-04T13:15:36.835Z</time></trkpt><trkpt lat="43.3585402" lon="11.1888626"><ele>459.0</ele><time>2026-04-04T13:15:37.834Z</time></trkpt><trkpt lat="43.3584795" lon="11.1889423"><ele>459.0</ele><time>2026-04-04T13:15:38.835Z</time></trkpt><trkpt lat="43.3584123" lon="11.1890211"><ele>459.0</ele><time>2026-04-04T13:15:39.835Z</time></trkpt><trkpt lat="43.3583572" lon="11.1890893"><ele>459.0</ele><time>2026-04-04T13:15:40.834Z</time></trkpt><trkpt lat="43.3583084" lon="11.1891584"><ele>459.3333333333333</ele><time>2026-04-04T13:15:41.835Z</time></trkpt><trkpt lat="43.3582612" lon="11.1892347"><ele>459.66666666666663</ele><time>2026-04-04T13:15:42.835Z</time></trkpt><trkpt lat="43.3582221" lon="11.1893166"><ele>460.0</ele><time>2026-04-04T13:15:43.835Z</time></trkpt><trkpt lat="43.358185" lon="11.1893992"><ele>460.3333333333333</ele><time>2026-04-04T13:15:44.833Z</time></trkpt><trkpt lat="43.3581433" lon="11.189494"><ele>460.66666666666663</ele><time>2026-04-04T13:15:45.834Z</time></trkpt><trkpt lat="43.3580795" lon="11.189581"><ele>461.0</ele><time>2026-04-04T13:15:46.834Z</time></trkpt><trkpt lat="43.3580017" lon="11.189673"><ele>461.0</ele><time>2026-04-04T13:15:47.833Z</time></trkpt><trkpt lat="43.3579125" lon="11.1897728"><ele>461.0</ele><time>2026-04-04T13:15:48.834Z</time></trkpt><trkpt lat="43.3578281" lon="11.1898636"><ele>461.0</ele><time>2026-04-04T13:15:49.833Z</time></trkpt><trkpt lat="43.3577489" lon="11.189948"><ele>461.0</ele><time>2026-04-04T13:15:50.834Z</time></trkpt><trkpt lat="43.3576695" lon="11.1900233"><ele>461.0</ele><time>2026-04-04T13:15:51.834Z</time></trkpt><trkpt lat="43.3575987" lon="11.1900999"><ele>462.49999999999994</ele><time>2026-04-04T13:15:52.835Z</time></trkpt><trkpt lat="43.3575357" lon="11.190178"><ele>464.0</ele><time>2026-04-04T13:15:53.834Z</time></trkpt><trkpt lat="43.3574835" lon="11.190271"><ele>465.5</ele><time>2026-04-04T13:15:54.834Z</time></trkpt><trkpt lat="43.3574453" lon="11.1903771"><ele>467.0</ele><time>2026-04-04T13:15:55.833Z</time></trkpt><trkpt lat="43.3574072" lon="11.1904935"><ele>468.49999999999994</ele><time>2026-04-04T13:15:56.834Z</time></trkpt><trkpt lat="43.3573594" lon="11.1906033"><ele>470.0</ele><time>2026-04-04T13:15:57.834Z</time></trkpt><trkpt lat="43.3573072" lon="11.1907074"><ele>469.49999999999994</ele><time>2026-04-04T13:15:58.834Z</time></trkpt><trkpt lat="43.3572623" lon="11.1908073"><ele>469.0</ele><time>2026-04-04T13:15:59.834Z</time></trkpt><trkpt lat="43.3572166" lon="11.1909047"><ele>468.5</ele><time>2026-04-04T13:16:00.834Z</time></trkpt><trkpt lat="43.3571707" lon="11.1909932"><ele>468.0</ele><time>2026-04-04T13:16:01.833Z</time></trkpt><trkpt lat="43.357109" lon="11.1910723"><ele>467.49999999999994</ele><time>2026-04-04T13:16:02.835Z</time></trkpt><trkpt lat="43.3570417" lon="11.1911465"><ele>467.0</ele><time>2026-04-04T13:16:03.834Z</time></trkpt><trkpt lat="43.3569677" lon="11.1912222"><ele>466.99999999999994</ele><time>2026-04-04T13:16:04.835Z</time></trkpt><trkpt lat="43.3568947" lon="11.1913019"><ele>467.0</ele><time>2026-04-04T13:16:05.833Z</time></trkpt><trkpt lat="43.3568362" lon="11.1913755"><ele>467.0</ele><time>2026-04-04T13:16:06.834Z</time></trkpt><trkpt lat="43.356801" lon="11.1914779"><ele>467.0</ele><time>2026-04-04T13:16:07.834Z</time></trkpt><trkpt lat="43.3567696" lon="11.1915706"><ele>466.99999999999994</ele><time>2026-04-04T13:16:08.833Z</time></trkpt><trkpt lat="43.3567582" lon="11.1916576"><ele>467.0</ele><time>2026-04-04T13:16:09.834Z</time></trkpt><trkpt lat="43.3567548" lon="11.1917577"><ele>467.66666666666663</ele><time>2026-04-04T13:16:10.834Z</time></trkpt><trkpt lat="43.3567487" lon="11.1918525"><ele>468.3333333333333</ele><time>2026-04-04T13:16:11.834Z</time></trkpt><trkpt lat="43.3567369" lon="11.1919431"><ele>469.0</ele><time>2026-04-04T13:16:12.833Z</time></trkpt><trkpt lat="43.3567181" lon="11.1920549"><ele>469.66666666666663</ele><time>2026-04-04T13:16:13.833Z</time></trkpt><trkpt lat="43.3566819" lon="11.1921832"><ele>470.3333333333333</ele><time>2026-04-04T13:16:14.834Z</time></trkpt><trkpt lat="43.3566491" lon="11.1922989"><ele>471.0</ele><time>2026-04-04T13:16:15.833Z</time></trkpt><trkpt lat="43.3566252" lon="11.1924019"><ele>472.1666666666667</ele><time>2026-04-04T13:16:16.835Z</time></trkpt><trkpt lat="43.3566072" lon="11.1925021"><ele>473.33333333333337</ele><time>2026-04-04T13:16:17.835Z</time></trkpt><trkpt lat="43.3565996" lon="11.1926235"><ele>474.5</ele><time>2026-04-04T13:16:18.834Z</time></trkpt><trkpt lat="43.3565939" lon="11.1927268"><ele>475.6666666666667</ele><time>2026-04-04T13:16:19.833Z</time></trkpt><trkpt lat="43.356596" lon="11.1928233"><ele>476.83333333333337</ele><time>2026-04-04T13:16:20.834Z</time></trkpt><trkpt lat="43.3565992" lon="11.192934"><ele>478.0</ele><time>2026-04-04T13:16:21.834Z</time></trkpt><trkpt lat="43.3566011" lon="11.1930528"><ele>478.00000000000006</ele><time>2026-04-04T13:16:22.834Z</time></trkpt><trkpt lat="43.3565982" lon="11.1931617"><ele>478.0</ele><time>2026-04-04T13:16:23.834Z</time></trkpt><trkpt lat="43.3565831" lon="11.1932816"><ele>478.0</ele><time>2026-04-04T13:16:24.835Z</time></trkpt><trkpt lat="43.3565761" lon="11.1933823"><ele>478.0</ele><time>2026-04-04T13:16:25.834Z</time></trkpt><trkpt lat="43.3565761" lon="11.1934737"><ele>478.00000000000006</ele><time>2026-04-04T13:16:26.835Z</time></trkpt><trkpt lat="43.3565876" lon="11.1935816"><ele>478.0</ele><time>2026-04-04T13:16:27.833Z</time></trkpt><trkpt lat="43.3566091" lon="11.1937346"><ele>479.4</ele><time>2026-04-04T13:16:29.835Z</time></trkpt><trkpt lat="43.3566258" lon="11.1938464"><ele>480.79999999999995</ele><time>2026-04-04T13:16:33.834Z</time></trkpt><trkpt lat="43.3566797" lon="11.1939305"><ele>482.2</ele><time>2026-04-04T13:16:35.835Z</time></trkpt><trkpt lat="43.3567408" lon="11.1940287"><ele>483.6</ele><time>2026-04-04T13:16:37.834Z</time></trkpt><trkpt lat="43.356819" lon="11.1941192"><ele>485.0</ele><time>2026-04-04T13:16:39.834Z</time></trkpt><trkpt lat="43.3569079" lon="11.1941823"><ele>487.4</ele><time>2026-04-04T13:16:41.834Z</time></trkpt><trkpt lat="43.3569808" lon="11.1942852"><ele>489.8</ele><time>2026-04-04T13:16:43.833Z</time></trkpt><trkpt lat="43.3570489" lon="11.1943765"><ele>492.20000000000005</ele><time>2026-04-04T13:16:45.835Z</time></trkpt><trkpt lat="43.357092" lon="11.1945033"><ele>494.6</ele><time>2026-04-04T13:16:47.834Z</time></trkpt><trkpt lat="43.3571104" lon="11.1945881"><ele>497.0</ele><time>2026-04-04T13:16:48.835Z</time></trkpt><trkpt lat="43.357156" lon="11.1947359"><ele>496.99999999999994</ele><time>2026-04-04T13:16:50.833Z</time></trkpt><trkpt lat="43.3571885" lon="11.1948145"><ele>497.0</ele><time>2026-04-04T13:16:51.835Z</time></trkpt><trkpt lat="43.3572213" lon="11.1948904"><ele>497.0</ele><time>2026-04-04T13:16:52.834Z</time></trkpt><trkpt lat="43.3572864" lon="11.19502"><ele>497.0</ele><time>2026-04-04T13:16:54.834Z</time></trkpt><trkpt lat="43.3573528" lon="11.1951672"><ele>496.99999999999994</ele><time>2026-04-04T13:16:56.833Z</time></trkpt><trkpt lat="43.3573973" lon="11.19524"><ele>497.0</ele><time>2026-04-04T13:16:57.835Z</time></trkpt><trkpt lat="43.35746" lon="11.1953495"><ele>501.6</ele><time>2026-04-04T13:16:59.834Z</time></trkpt><trkpt lat="43.357544" lon="11.195399"><ele>506.20000000000005</ele><time>2026-04-04T13:17:01.833Z</time></trkpt><trkpt lat="43.3576038" lon="11.1954758"><ele>510.8</ele><time>2026-04-04T13:17:03.834Z</time></trkpt><trkpt lat="43.3576413" lon="11.1956137"><ele>515.4</ele><time>2026-04-04T13:17:05.833Z</time></trkpt><trkpt lat="43.3576696" lon="11.1956929"><ele>520.0</ele><time>2026-04-04T13:17:07.835Z</time></trkpt><trkpt lat="43.3577416" lon="11.1958053"><ele>521.6</ele><time>2026-04-04T13:17:10.834Z</time></trkpt><trkpt lat="43.35784" lon="11.1958626"><ele>523.2</ele><time>2026-04-04T13:17:12.833Z</time></trkpt><trkpt lat="43.3579219" lon="11.1959708"><ele>524.8</ele><time>2026-04-04T13:17:14.833Z</time></trkpt><trkpt lat="43.3579813" lon="11.1960992"><ele>526.4</ele><time>2026-04-04T13:17:16.834Z</time></trkpt><trkpt lat="43.3580559" lon="11.19621"><ele>528.0</ele><time>2026-04-04T13:17:18.834Z</time></trkpt><trkpt lat="43.3581228" lon="11.1963276"><ele>528.8333333333334</ele><time>2026-04-04T13:17:20.833Z</time></trkpt><trkpt lat="43.3581176" lon="11.1964434"><ele>529.6666666666666</ele><time>2026-04-04T13:17:21.834Z</time></trkpt><trkpt lat="43.3581543" lon="11.1965863"><ele>530.5</ele><time>2026-04-04T13:17:23.834Z</time></trkpt><trkpt lat="43.3581949" lon="11.1966941"><ele>531.3333333333333</ele><time>2026-04-04T13:17:25.834Z</time></trkpt><trkpt lat="43.3582392" lon="11.1968057"><ele>532.1666666666666</ele><time>2026-04-04T13:17:27.835Z</time></trkpt><trkpt lat="43.3582424" lon="11.1969022"><ele>533.0</ele><time>2026-04-04T13:17:29.834Z</time></trkpt><trkpt lat="43.3582927" lon="11.1969683"><ele>534.0</ele><time>2026-04-04T13:17:31.835Z</time></trkpt><trkpt lat="43.3583946" lon="11.1969785"><ele>535.0</ele><time>2026-04-04T13:17:33.834Z</time></trkpt><trkpt lat="43.3584809" lon="11.1969495"><ele>536.0</ele><time>2026-04-04T13:17:34.834Z</time></trkpt><trkpt lat="43.358591" lon="11.1969385"><ele>537.0</ele><time>2026-04-04T13:17:36.835Z</time></trkpt><trkpt lat="43.3586749" lon="11.1970132"><ele>538.0</ele><time>2026-04-04T13:17:40.834Z</time></trkpt><trkpt lat="43.3587844" lon="11.1970785"><ele>537.8</ele><time>2026-04-04T13:17:42.835Z</time></trkpt><trkpt lat="43.3588893" lon="11.1971127"><ele>537.5999999999999</ele><time>2026-04-04T13:17:43.834Z</time></trkpt><trkpt lat="43.3589731" lon="11.1971528"><ele>537.4000000000001</ele><time>2026-04-04T13:17:44.834Z</time></trkpt><trkpt lat="43.3590413" lon="11.1971862"><ele>537.2</ele><time>2026-04-04T13:17:45.834Z</time></trkpt><trkpt lat="43.359109" lon="11.1972318"><ele>537.0</ele><time>2026-04-04T13:17:46.835Z</time></trkpt><trkpt lat="43.3592135" lon="11.1972136"><ele>537.0</ele><time>2026-04-04T13:17:50.834Z</time></trkpt><trkpt lat="43.3593087" lon="11.1972856"><ele>537.0</ele><time>2026-04-04T13:17:52.834Z</time></trkpt><trkpt lat="43.359397" lon="11.1973564"><ele>537.0</ele><time>2026-04-04T13:17:53.833Z</time></trkpt><trkpt lat="43.3594647" lon="11.1974055"><ele>537.0</ele><time>2026-04-04T13:17:54.834Z</time></trkpt><trkpt lat="43.3595308" lon="11.1974265"><ele>537.0</ele><time>2026-04-04T13:17:55.834Z</time></trkpt><trkpt lat="43.3595985" lon="11.1974353"><ele>537.0</ele><time>2026-04-04T13:17:56.834Z</time></trkpt><trkpt lat="43.3596686" lon="11.1974524"><ele>537.4</ele><time>2026-04-04T13:17:57.835Z</time></trkpt><trkpt lat="43.3597841" lon="11.1974894"><ele>537.8000000000001</ele><time>2026-04-04T13:17:59.834Z</time></trkpt><trkpt lat="43.3598979" lon="11.1975723"><ele>538.2</ele><time>2026-04-04T13:18:01.834Z</time></trkpt><trkpt lat="43.3599598" lon="11.1976164"><ele>538.6</ele><time>2026-04-04T13:18:02.834Z</time></trkpt><trkpt lat="43.3600186" lon="11.1977157"><ele>539.0</ele><time>2026-04-04T13:18:03.834Z</time></trkpt><trkpt lat="43.3600549" lon="11.1977886"><ele>539.0</ele><time>2026-04-04T13:18:04.835Z</time></trkpt><trkpt lat="43.3601241" lon="11.1978536"><ele>539.0</ele><time>2026-04-04T13:18:06.834Z</time></trkpt><trkpt lat="43.3602116" lon="11.1978706"><ele>539.0</ele><time>2026-04-04T13:18:08.834Z</time></trkpt><trkpt lat="43.3603531" lon="11.1978759"><ele>539.0</ele><time>2026-04-04T13:18:10.834Z</time></trkpt><trkpt lat="43.3604276" lon="11.1978799"><ele>539.0</ele><time>2026-04-04T13:18:11.834Z</time></trkpt><trkpt lat="43.3605049" lon="11.1979032"><ele>538.3333333333333</ele><time>2026-04-04T13:18:12.834Z</time></trkpt><trkpt lat="43.3605807" lon="11.1979116"><ele>537.6666666666666</ele><time>2026-04-04T13:18:13.834Z</time></trkpt><trkpt lat="43.360665" lon="11.1979322"><ele>537.0</ele><time>2026-04-04T13:18:14.833Z</time></trkpt><trkpt lat="43.3607426" lon="11.1979638"><ele>536.3333333333334</ele><time>2026-04-04T13:18:15.834Z</time></trkpt><trkpt lat="43.3608154" lon="11.1979828"><ele>535.6666666666667</ele><time>2026-04-04T13:18:16.834Z</time></trkpt><trkpt lat="43.360891" lon="11.1979943"><ele>535.0</ele><time>2026-04-04T13:18:17.835Z</time></trkpt><trkpt lat="43.3609698" lon="11.1979917"><ele>535.0</ele><time>2026-04-04T13:18:18.835Z</time></trkpt><trkpt lat="43.3610357" lon="11.1979929"><ele>535.0</ele><time>2026-04-04T13:18:19.834Z</time></trkpt><trkpt lat="43.3611" lon="11.1979889"><ele>535.0</ele><time>2026-04-04T13:18:20.834Z</time></trkpt><trkpt lat="43.3611774" lon="11.1980042"><ele>535.0</ele><time>2026-04-04T13:18:21.835Z</time></trkpt><trkpt lat="43.3612542" lon="11.1980787"><ele>535.0</ele><time>2026-04-04T13:18:23.834Z</time></trkpt><trkpt lat="43.3613261" lon="11.1980995"><ele>535.0</ele><time>2026-04-04T13:19:28.834Z</time></trkpt><trkpt lat="43.361327" lon="11.1981897"><ele>535.0</ele><time>2026-04-04T13:19:32.835Z</time></trkpt><trkpt lat="43.3612746" lon="11.198263"><ele>537.1666666666667</ele><time>2026-04-04T13:19:35.835Z</time></trkpt><trkpt lat="43.3613296" lon="11.198367"><ele>539.3333333333334</ele><time>2026-04-04T13:19:37.834Z</time></trkpt><trkpt lat="43.3613551" lon="11.1984473"><ele>541.5</ele><time>2026-04-04T13:19:39.834Z</time></trkpt><trkpt lat="43.3613379" lon="11.1985498"><ele>543.6666666666666</ele><time>2026-04-04T13:19:41.835Z</time></trkpt><trkpt lat="43.3612873" lon="11.1986725"><ele>545.8333333333333</ele><time>2026-04-04T13:19:43.835Z</time></trkpt><trkpt lat="43.3612286" lon="11.1987667"><ele>548.0</ele><time>2026-04-04T13:19:45.834Z</time></trkpt><trkpt lat="43.3611461" lon="11.1988219"><ele>548.0</ele><time>2026-04-04T13:19:47.833Z</time></trkpt><trkpt lat="43.3610651" lon="11.1988501"><ele>548.0</ele><time>2026-04-04T13:19:49.834Z</time></trkpt><trkpt lat="43.3609569" lon="11.1989038"><ele>548.0</ele><time>2026-04-04T13:19:51.833Z</time></trkpt><trkpt lat="43.3608614" lon="11.1989608"><ele>548.0</ele><time>2026-04-04T13:19:53.834Z</time></trkpt><trkpt lat="43.3607657" lon="11.1990204"><ele>548.0</ele><time>2026-04-04T13:19:55.834Z</time></trkpt><trkpt lat="43.3606971" lon="11.1990935"><ele>550.6</ele><time>2026-04-04T13:19:57.834Z</time></trkpt><trkpt lat="43.3606363" lon="11.1991721"><ele>553.1999999999999</ele><time>2026-04-04T13:19:59.835Z</time></trkpt><trkpt lat="43.3605757" lon="11.1992069"><ele>555.8</ele><time>2026-04-04T13:20:03.834Z</time></trkpt><trkpt lat="43.3605142" lon="11.1993073"><ele>558.4</ele><time>2026-04-04T13:20:05.834Z</time></trkpt><trkpt lat="43.3604443" lon="11.1994051"><ele>561.0</ele><time>2026-04-04T13:20:07.834Z</time></trkpt><trkpt lat="43.3603594" lon="11.1994937"><ele>561.6666666666666</ele><time>2026-04-04T13:20:09.835Z</time></trkpt><trkpt lat="43.3602862" lon="11.1995869"><ele>562.3333333333334</ele><time>2026-04-04T13:20:11.834Z</time></trkpt><trkpt lat="43.3602278" lon="11.1996547"><ele>563.0</ele><time>2026-04-04T13:20:18.833Z</time></trkpt><trkpt lat="43.3602099" lon="11.1997754"><ele>563.6666666666667</ele><time>2026-04-04T13:20:21.833Z</time></trkpt><trkpt lat="43.3602106" lon="11.1998778"><ele>564.3333333333334</ele><time>2026-04-04T13:20:23.835Z</time></trkpt><trkpt lat="43.3602097" lon="11.1999863"><ele>565.0</ele><time>2026-04-04T13:20:25.835Z</time></trkpt><trkpt lat="43.360201" lon="11.200081"><ele>567.5</ele><time>2026-04-04T13:20:27.834Z</time></trkpt><trkpt lat="43.3601616" lon="11.2001494"><ele>570.0</ele><time>2026-04-04T13:20:29.74Z</time></trkpt><trkpt lat="43.360098" lon="11.2001704"><ele>572.5</ele><time>2026-04-04T13:20:30.834Z</time></trkpt><trkpt lat="43.3600233" lon="11.2002424"><ele>575.0</ele><time>2026-04-04T13:20:32.834Z</time></trkpt><trkpt lat="43.3600031" lon="11.2003629"><ele>577.5</ele><time>2026-04-04T13:20:34.834Z</time></trkpt><trkpt lat="43.3600074" lon="11.2004701"><ele>580.0</ele><time>2026-04-04T13:20:36.835Z</time></trkpt><trkpt lat="43.3600238" lon="11.2005539"><ele>580.0</ele><time>2026-04-04T13:20:39.834Z</time></trkpt><trkpt lat="43.3599607" lon="11.2006271"><ele>580.0</ele><time>2026-04-04T13:20:42.833Z</time></trkpt><trkpt lat="43.3599043" lon="11.2006941"><ele>580.0</ele><time>2026-04-04T13:20:44.834Z</time></trkpt><trkpt lat="43.3598526" lon="11.2007603"><ele>580.0</ele><time>2026-04-04T13:20:46.834Z</time></trkpt><trkpt lat="43.3598015" lon="11.2008118"><ele>580.0</ele><time>2026-04-04T13:20:53.833Z</time></trkpt><trkpt lat="43.3597349" lon="11.2008845"><ele>580.0</ele><time>2026-04-04T13:20:56.834Z</time></trkpt><trkpt lat="43.3596638" lon="11.2009614"><ele>582.2</ele><time>2026-04-04T13:20:58.835Z</time></trkpt><trkpt lat="43.3596223" lon="11.201069"><ele>584.4</ele><time>2026-04-04T13:21:00.834Z</time></trkpt><trkpt lat="43.3595994" lon="11.2012146"><ele>586.6</ele><time>2026-04-04T13:21:02.833Z</time></trkpt><trkpt lat="43.3595554" lon="11.201318"><ele>588.8</ele><time>2026-04-04T13:21:04.834Z</time></trkpt><trkpt lat="43.359476" lon="11.2014177"><ele>591.0</ele><time>2026-04-04T13:21:06.834Z</time></trkpt><trkpt lat="43.3594358" lon="11.2015368"><ele>594.4</ele><time>2026-04-04T13:21:08.833Z</time></trkpt><trkpt lat="43.3594065" lon="11.2016399"><ele>597.8</ele><time>2026-04-04T13:21:10.835Z</time></trkpt><trkpt lat="43.3593704" lon="11.2017393"><ele>601.1999999999999</ele><time>2026-04-04T13:21:13.834Z</time></trkpt><trkpt lat="43.3592934" lon="11.2018556"><ele>604.6</ele><time>2026-04-04T13:21:15.833Z</time></trkpt><trkpt lat="43.3592367" lon="11.2019903"><ele>608.0</ele><time>2026-04-04T13:21:17.834Z</time></trkpt><trkpt lat="43.3591689" lon="11.2021176"><ele>608.0</ele><time>2026-04-04T13:21:19.834Z</time></trkpt><trkpt lat="43.359133" lon="11.2022233"><ele>608.0</ele><time>2026-04-04T13:21:21.834Z</time></trkpt><trkpt lat="43.3590953" lon="11.2023749"><ele>608.0</ele><time>2026-04-04T13:21:23.835Z</time></trkpt><trkpt lat="43.3590765" lon="11.2024657"><ele>608.0</ele><time>2026-04-04T13:21:24.833Z</time></trkpt><trkpt lat="43.3590536" lon="11.2025693"><ele>608.0</ele><time>2026-04-04T13:21:26.834Z</time></trkpt><trkpt lat="43.359038" lon="11.2027101"><ele>610.6666666666666</ele><time>2026-04-04T13:21:28.833Z</time></trkpt><trkpt lat="43.3590283" lon="11.2028155"><ele>613.3333333333333</ele><time>2026-04-04T13:21:30.834Z</time></trkpt><trkpt lat="43.3590263" lon="11.202944"><ele>616.0</ele><time>2026-04-04T13:21:32.835Z</time></trkpt><trkpt lat="43.3590128" lon="11.2030474"><ele>618.6666666666666</ele><time>2026-04-04T13:21:34.835Z</time></trkpt><trkpt lat="43.3589995" lon="11.2031338"><ele>621.3333333333334</ele><time>2026-04-04T13:21:36.833Z</time></trkpt><trkpt lat="43.3589608" lon="11.2032114"><ele>624.0</ele><time>2026-04-04T13:21:37.835Z</time></trkpt><trkpt lat="43.3589604" lon="11.2033442"><ele>626.4</ele><time>2026-04-04T13:21:39.835Z</time></trkpt><trkpt lat="43.3589654" lon="11.2035172"><ele>628.8</ele><time>2026-04-04T13:21:41.833Z</time></trkpt><trkpt lat="43.3589801" lon="11.2036075"><ele>631.2</ele><time>2026-04-04T13:21:43.834Z</time></trkpt><trkpt lat="43.3589667" lon="11.2037108"><ele>633.6</ele><time>2026-04-04T13:21:47.835Z</time></trkpt><trkpt lat="43.3589633" lon="11.2038162"><ele>636.0</ele><time>2026-04-04T13:22:00.834Z</time></trkpt><trkpt lat="43.3589884" lon="11.2039717"><ele>637.6666666666666</ele><time>2026-04-04T13:22:02.835Z</time></trkpt><trkpt lat="43.3589812" lon="11.2041397"><ele>639.3333333333334</ele><time>2026-04-04T13:22:04.834Z</time></trkpt><trkpt lat="43.3589489" lon="11.2042848"><ele>641.0</ele><time>2026-04-04T13:22:06.834Z</time></trkpt><trkpt lat="43.3589254" lon="11.2043707"><ele>642.6666666666667</ele><time>2026-04-04T13:22:08.834Z</time></trkpt><trkpt lat="43.3588693" lon="11.2044383"><ele>644.3333333333334</ele><time>2026-04-04T13:22:10.834Z</time></trkpt><trkpt lat="43.3588154" lon="11.2044971"><ele>646.0</ele><time>2026-04-04T13:22:12.835Z</time></trkpt><trkpt lat="43.358753" lon="11.2045522"><ele>647.1666666666667</ele><time>2026-04-04T13:22:14.835Z</time></trkpt><trkpt lat="43.3586938" lon="11.2046154"><ele>648.3333333333334</ele><time>2026-04-04T13:22:16.834Z</time></trkpt><trkpt lat="43.3586249" lon="11.2046776"><ele>649.5</ele><time>2026-04-04T13:22:18.835Z</time></trkpt><trkpt lat="43.3585478" lon="11.2047675"><ele>650.6666666666666</ele><time>2026-04-04T13:22:20.833Z</time></trkpt><trkpt lat="43.3584905" lon="11.2048565"><ele>651.8333333333333</ele><time>2026-04-04T13:22:22.833Z</time></trkpt><trkpt lat="43.3584005" lon="11.2049124"><ele>653.0</ele><time>2026-04-04T13:22:24.833Z</time></trkpt><trkpt lat="43.3582975" lon="11.2049581"><ele>653.0</ele><time>2026-04-04T13:22:27.834Z</time></trkpt><trkpt lat="43.3582205" lon="11.2049243"><ele>653.0</ele><time>2026-04-04T13:22:29.834Z</time></trkpt><trkpt lat="43.3581593" lon="11.2048851"><ele>653.0</ele><time>2026-04-04T13:22:32.835Z</time></trkpt><trkpt lat="43.3581028" lon="11.2048133"><ele>653.0</ele><time>2026-04-04T13:22:35.834Z</time></trkpt><trkpt lat="43.358034" lon="11.2047458"><ele>653.0</ele><time>2026-04-04T13:22:37.834Z</time></trkpt><trkpt lat="43.3579786" lon="11.204696"><ele>653.0</ele><time>2026-04-04T13:22:39.833Z</time></trkpt><trkpt lat="43.3578977" lon="11.2046624"><ele>652.8333333333333</ele><time>2026-04-04T13:22:42.834Z</time></trkpt><trkpt lat="43.3578361" lon="11.2046145"><ele>652.6666666666666</ele><time>2026-04-04T13:22:44.834Z</time></trkpt><trkpt lat="43.357761" lon="11.2045284"><ele>652.5</ele><time>2026-04-04T13:22:46.834Z</time></trkpt><trkpt lat="43.3577163" lon="11.204444"><ele>652.3333333333334</ele><time>2026-04-04T13:22:48.834Z</time></trkpt><trkpt lat="43.3576649" lon="11.2043667"><ele>652.1666666666667</ele><time>2026-04-04T13:22:51.835Z</time></trkpt><trkpt lat="43.3576671" lon="11.2042386"><ele>652.0</ele><time>2026-04-04T13:22:54.833Z</time></trkpt><trkpt lat="43.3576973" lon="11.204151"><ele>652.0</ele><time>2026-04-04T13:22:57.834Z</time></trkpt><trkpt lat="43.3577417" lon="11.2040878"><ele>652.0</ele><time>2026-04-04T13:23:01.833Z</time></trkpt><trkpt lat="43.3577573" lon="11.2039549"><ele>649.0</ele><time>2026-04-04T13:23:06.834Z</time></trkpt><trkpt lat="43.3577169" lon="11.2038876"><ele>649.0</ele><time>2026-04-04T13:23:52.835Z</time></trkpt></trkseg><trkseg><trkpt lat="43.3577967" lon="11.2038332"><ele>649.0</ele><time>2026-04-04T13:51:55.86Z</time></trkpt><trkpt lat="43.3577814" lon="11.203943"><ele>649.0</ele><time>2026-04-04T13:52:08.833Z</time></trkpt><trkpt lat="43.357749" lon="11.2040262"><ele>649.0</ele><time>2026-04-04T13:52:11.848Z</time></trkpt><trkpt lat="43.3577091" lon="11.2041408"><ele>649.0</ele><time>2026-04-04T13:52:14.833Z</time></trkpt><trkpt lat="43.3576971" lon="11.2042315"><ele>649.0</ele><time>2026-04-04T13:52:16.832Z</time></trkpt><trkpt lat="43.3577413" lon="11.204317"><ele>649.0</ele><time>2026-04-04T13:52:19.857Z</time></trkpt><trkpt lat="43.3577968" lon="11.2044019"><ele>649.5</ele><time>2026-04-04T13:52:22.862Z</time></trkpt><trkpt lat="43.357837" lon="11.2044801"><ele>650.0</ele><time>2026-04-04T13:52:25.832Z</time></trkpt><trkpt lat="43.3578929" lon="11.2045734"><ele>650.5</ele><time>2026-04-04T13:52:29.832Z</time></trkpt><trkpt lat="43.35793" lon="11.2046522"><ele>651.0</ele><time>2026-04-04T13:52:31.846Z</time></trkpt><trkpt lat="43.3580086" lon="11.2047033"><ele>651.5</ele><time>2026-04-04T13:52:33.832Z</time></trkpt><trkpt lat="43.358083" lon="11.2047518"><ele>652.0</ele><time>2026-04-04T13:52:36.861Z</time></trkpt><trkpt lat="43.3580768" lon="11.2048523"><ele>652.1666666666667</ele><time>2026-04-04T13:52:40.833Z</time></trkpt><trkpt lat="43.3580465" lon="11.2049289"><ele>652.3333333333334</ele><time>2026-04-04T13:52:47.852Z</time></trkpt><trkpt lat="43.3579315" lon="11.2050641"><ele>652.5</ele><time>2026-04-04T13:52:50.832Z</time></trkpt><trkpt lat="43.3578737" lon="11.2051308"><ele>652.6666666666666</ele><time>2026-04-04T13:52:52.851Z</time></trkpt><trkpt lat="43.3578661" lon="11.2052362"><ele>652.8333333333333</ele><time>2026-04-04T13:52:54.828Z</time></trkpt><trkpt lat="43.3578946" lon="11.2053338"><ele>653.0</ele><time>2026-04-04T13:52:56.854Z</time></trkpt><trkpt lat="43.3579441" lon="11.2054391"><ele>651.0</ele><time>2026-04-04T13:52:58.832Z</time></trkpt><trkpt lat="43.3579312" lon="11.2055406"><ele>649.0</ele><time>2026-04-04T13:53:00.872Z</time></trkpt><trkpt lat="43.3578556" lon="11.2056551"><ele>647.0</ele><time>2026-04-04T13:53:02.833Z</time></trkpt><trkpt lat="43.3577727" lon="11.2057592"><ele>645.0</ele><time>2026-04-04T13:53:04.833Z</time></trkpt><trkpt lat="43.3576952" lon="11.2058393"><ele>643.0</ele><time>2026-04-04T13:53:06.833Z</time></trkpt><trkpt lat="43.3576206" lon="11.2059271"><ele>641.1666666666667</ele><time>2026-04-04T13:53:08.833Z</time></trkpt><trkpt lat="43.3575804" lon="11.2060201"><ele>639.3333333333334</ele><time>2026-04-04T13:53:10.833Z</time></trkpt><trkpt lat="43.3576028" lon="11.2061185"><ele>637.5</ele><time>2026-04-04T13:53:12.832Z</time></trkpt><trkpt lat="43.3576519" lon="11.206213"><ele>635.6666666666666</ele><time>2026-04-04T13:53:14.831Z</time></trkpt><trkpt lat="43.3577159" lon="11.206335"><ele>633.8333333333333</ele><time>2026-04-04T13:53:16.833Z</time></trkpt><trkpt lat="43.3577417" lon="11.2064684"><ele>632.0</ele><time>2026-04-04T13:53:18.832Z</time></trkpt><trkpt lat="43.3577405" lon="11.2065988"><ele>630.6</ele><time>2026-04-04T13:53:20.832Z</time></trkpt><trkpt lat="43.3577266" lon="11.2067267"><ele>629.2</ele><time>2026-04-04T13:53:22.832Z</time></trkpt><trkpt lat="43.3577238" lon="11.2068645"><ele>627.8</ele><time>2026-04-04T13:53:24.833Z</time></trkpt><trkpt lat="43.3577638" lon="11.2070149"><ele>626.4</ele><time>2026-04-04T13:53:26.831Z</time></trkpt><trkpt lat="43.3577595" lon="11.2071852"><ele>625.0</ele><time>2026-04-04T13:53:28.832Z</time></trkpt><trkpt lat="43.3577379" lon="11.2073568"><ele>624.1666666666667</ele><time>2026-04-04T13:53:30.832Z</time></trkpt><trkpt lat="43.3577352" lon="11.2074517"><ele>623.3333333333334</ele><time>2026-04-04T13:53:31.832Z</time></trkpt><trkpt lat="43.3577249" lon="11.2075494"><ele>622.5</ele><time>2026-04-04T13:53:32.833Z</time></trkpt><trkpt lat="43.3577077" lon="11.2076349"><ele>621.6666666666666</ele><time>2026-04-04T13:53:33.831Z</time></trkpt><trkpt lat="43.3577085" lon="11.2077965"><ele>620.8333333333333</ele><time>2026-04-04T13:53:35.832Z</time></trkpt><trkpt lat="43.3576761" lon="11.2079407"><ele>620.0</ele><time>2026-04-04T13:53:37.832Z</time></trkpt><trkpt lat="43.357624" lon="11.2080658"><ele>619.8</ele><time>2026-04-04T13:53:39.832Z</time></trkpt><trkpt lat="43.357542" lon="11.2081811"><ele>619.6</ele><time>2026-04-04T13:53:41.831Z</time></trkpt><trkpt lat="43.357491" lon="11.2082483"><ele>619.4</ele><time>2026-04-04T13:53:42.833Z</time></trkpt><trkpt lat="43.3574105" lon="11.2083692"><ele>619.2</ele><time>2026-04-04T13:53:44.832Z</time></trkpt><trkpt lat="43.3573311" lon="11.2084628"><ele>619.0</ele><time>2026-04-04T13:53:46.832Z</time></trkpt><trkpt lat="43.3572871" lon="11.2085743"><ele>619.0</ele><time>2026-04-04T13:53:48.833Z</time></trkpt><trkpt lat="43.3572191" lon="11.2086173"><ele>619.0</ele><time>2026-04-04T13:53:50.832Z</time></trkpt><trkpt lat="43.357135" lon="11.2086348"><ele>619.0</ele><time>2026-04-04T13:53:52.832Z</time></trkpt><trkpt lat="43.3570607" lon="11.2086841"><ele>619.0</ele><time>2026-04-04T13:53:57.832Z</time></trkpt><trkpt lat="43.3571051" lon="11.2087789"><ele>619.0</ele><time>2026-04-04T13:54:01.831Z</time></trkpt><trkpt lat="43.357197" lon="11.2088903"><ele>619.0</ele><time>2026-04-04T13:54:03.832Z</time></trkpt><trkpt lat="43.357241" lon="11.2089593"><ele>619.0</ele><time>2026-04-04T13:54:04.832Z</time></trkpt><trkpt lat="43.3572987" lon="11.209083"><ele>619.0</ele><time>2026-04-04T13:54:06.831Z</time></trkpt><trkpt lat="43.3573615" lon="11.2092221"><ele>619.0</ele><time>2026-04-04T13:54:08.832Z</time></trkpt><trkpt lat="43.3574092" lon="11.2093125"><ele>619.0</ele><time>2026-04-04T13:54:10.831Z</time></trkpt><trkpt lat="43.3574194" lon="11.2094468"><ele>619.0</ele><time>2026-04-04T13:54:12.83Z</time></trkpt><trkpt lat="43.3574073" lon="11.2095846"><ele>619.0</ele><time>2026-04-04T13:54:14.832Z</time></trkpt><trkpt lat="43.3574211" lon="11.2097067"><ele>619.0</ele><time>2026-04-04T13:54:17.739Z</time></trkpt><trkpt lat="43.3574535" lon="11.2098239"><ele>619.0</ele><time>2026-04-04T13:54:19.831Z</time></trkpt><trkpt lat="43.3574531" lon="11.2099328"><ele>619.0</ele><time>2026-04-04T13:54:21.831Z</time></trkpt><trkpt lat="43.3574615" lon="11.2100587"><ele>619.0</ele><time>2026-04-04T13:54:23.831Z</time></trkpt><trkpt lat="43.3574929" lon="11.2101897"><ele>619.1666666666667</ele><time>2026-04-04T13:54:25.831Z</time></trkpt><trkpt lat="43.357521" lon="11.2102952"><ele>619.3333333333334</ele><time>2026-04-04T13:54:26.83Z</time></trkpt><trkpt lat="43.3575433" lon="11.2103791"><ele>619.5</ele><time>2026-04-04T13:54:27.831Z</time></trkpt><trkpt lat="43.3575654" lon="11.210501"><ele>619.6666666666666</ele><time>2026-04-04T13:54:29.832Z</time></trkpt><trkpt lat="43.3575936" lon="11.2106"><ele>619.8333333333333</ele><time>2026-04-04T13:54:31.831Z</time></trkpt><trkpt lat="43.35765" lon="11.2107346"><ele>620.0</ele><time>2026-04-04T13:54:33.832Z</time></trkpt><trkpt lat="43.3576718" lon="11.2108684"><ele>620.2</ele><time>2026-04-04T13:54:35.832Z</time></trkpt><trkpt lat="43.3576845" lon="11.2110207"><ele>620.4</ele><time>2026-04-04T13:54:37.832Z</time></trkpt><trkpt lat="43.35772" lon="11.2111595"><ele>620.6</ele><time>2026-04-04T13:54:39.831Z</time></trkpt><trkpt lat="43.3577397" lon="11.2112703"><ele>620.8</ele><time>2026-04-04T13:54:41.832Z</time></trkpt><trkpt lat="43.3577307" lon="11.2113904"><ele>621.0</ele><time>2026-04-04T13:54:43.831Z</time></trkpt><trkpt lat="43.3577522" lon="11.2115534"><ele>620.6</ele><time>2026-04-04T13:54:45.83Z</time></trkpt><trkpt lat="43.3577696" lon="11.2116752"><ele>620.2</ele><time>2026-04-04T13:54:47.832Z</time></trkpt><trkpt lat="43.3578128" lon="11.2118136"><ele>619.8</ele><time>2026-04-04T13:54:49.83Z</time></trkpt><trkpt lat="43.3578709" lon="11.2119203"><ele>619.4</ele><time>2026-04-04T13:54:51.832Z</time></trkpt><trkpt lat="43.3579405" lon="11.2120264"><ele>619.0</ele><time>2026-04-04T13:54:53.83Z</time></trkpt><trkpt lat="43.3580024" lon="11.2121278"><ele>619.0</ele><time>2026-04-04T13:54:55.832Z</time></trkpt><trkpt lat="43.3580495" lon="11.2122218"><ele>619.0</ele><time>2026-04-04T13:54:57.831Z</time></trkpt><trkpt lat="43.3580247" lon="11.2123184"><ele>619.0</ele><time>2026-04-04T13:55:00.832Z</time></trkpt><trkpt lat="43.3580261" lon="11.2124243"><ele>619.0</ele><time>2026-04-04T13:55:02.832Z</time></trkpt><trkpt lat="43.3580224" lon="11.2125554"><ele>619.0</ele><time>2026-04-04T13:55:04.831Z</time></trkpt><trkpt lat="43.3580296" lon="11.212664"><ele>619.0</ele><time>2026-04-04T13:55:05.832Z</time></trkpt><trkpt lat="43.3580371" lon="11.2127532"><ele>617.5</ele><time>2026-04-04T13:55:06.831Z</time></trkpt><trkpt lat="43.3580655" lon="11.2128884"><ele>616.0</ele><time>2026-04-04T13:55:08.831Z</time></trkpt><trkpt lat="43.3580904" lon="11.21302"><ele>614.5</ele><time>2026-04-04T13:55:10.832Z</time></trkpt><trkpt lat="43.3580885" lon="11.2131295"><ele>613.0</ele><time>2026-04-04T13:55:12.831Z</time></trkpt><trkpt lat="43.3580856" lon="11.2132366"><ele>611.5</ele><time>2026-04-04T13:55:14.832Z</time></trkpt><trkpt lat="43.3580826" lon="11.213327"><ele>610.0</ele><time>2026-04-04T13:55:15.83Z</time></trkpt><trkpt lat="43.3580952" lon="11.2134281"><ele>610.0</ele><time>2026-04-04T13:55:16.831Z</time></trkpt><trkpt lat="43.3581294" lon="11.2135538"><ele>610.0</ele><time>2026-04-04T13:55:18.83Z</time></trkpt><trkpt lat="43.3581261" lon="11.2136488"><ele>610.0</ele><time>2026-04-04T13:55:20.832Z</time></trkpt><trkpt lat="43.3581829" lon="11.2137925"><ele>610.0</ele><time>2026-04-04T13:55:22.832Z</time></trkpt><trkpt lat="43.3582317" lon="11.2139193"><ele>610.0</ele><time>2026-04-04T13:55:24.831Z</time></trkpt><trkpt lat="43.3583094" lon="11.2140178"><ele>610.4</ele><time>2026-04-04T13:55:26.832Z</time></trkpt><trkpt lat="43.3583916" lon="11.214104"><ele>610.8</ele><time>2026-04-04T13:55:28.83Z</time></trkpt><trkpt lat="43.3584637" lon="11.2142155"><ele>611.2</ele><time>2026-04-04T13:55:30.832Z</time></trkpt><trkpt lat="43.3585241" lon="11.2143527"><ele>611.6</ele><time>2026-04-04T13:55:32.831Z</time></trkpt><trkpt lat="43.3585817" lon="11.2144278"><ele>612.0</ele><time>2026-04-04T13:55:34.831Z</time></trkpt><trkpt lat="43.3586742" lon="11.2144767"><ele>612.0</ele><time>2026-04-04T13:55:36.831Z</time></trkpt><trkpt lat="43.3587571" lon="11.214565"><ele>612.0</ele><time>2026-04-04T13:55:38.832Z</time></trkpt><trkpt lat="43.3588346" lon="11.2146758"><ele>612.0</ele><time>2026-04-04T13:55:40.832Z</time></trkpt><trkpt lat="43.3588805" lon="11.2147376"><ele>612.0</ele><time>2026-04-04T13:55:41.832Z</time></trkpt><trkpt lat="43.3589702" lon="11.2148188"><ele>612.0</ele><time>2026-04-04T13:55:43.832Z</time></trkpt><trkpt lat="43.3590432" lon="11.2148748"><ele>609.8000000000001</ele><time>2026-04-04T13:55:45.831Z</time></trkpt><trkpt lat="43.3591318" lon="11.2149656"><ele>607.6</ele><time>2026-04-04T13:55:47.832Z</time></trkpt><trkpt lat="43.3592224" lon="11.2150001"><ele>605.4000000000001</ele><time>2026-04-04T13:55:49.832Z</time></trkpt><trkpt lat="43.359336" lon="11.2150308"><ele>603.2</ele><time>2026-04-04T13:55:51.831Z</time></trkpt><trkpt lat="43.3594408" lon="11.2150637"><ele>601.0</ele><time>2026-04-04T13:55:53.831Z</time></trkpt><trkpt lat="43.3595306" lon="11.2150721"><ele>601.0</ele><time>2026-04-04T13:55:55.83Z</time></trkpt><trkpt lat="43.3596316" lon="11.2150956"><ele>601.0</ele><time>2026-04-04T13:55:57.832Z</time></trkpt><trkpt lat="43.3597356" lon="11.2151156"><ele>601.0</ele><time>2026-04-04T13:55:59.831Z</time></trkpt><trkpt lat="43.3598346" lon="11.2151333"><ele>601.0</ele><time>2026-04-04T13:56:01.831Z</time></trkpt><trkpt lat="43.3599219" lon="11.2151846"><ele>601.0</ele><time>2026-04-04T13:56:04.832Z</time></trkpt><trkpt lat="43.3599957" lon="11.2152257"><ele>599.6</ele><time>2026-04-04T13:56:07.831Z</time></trkpt><trkpt lat="43.360059" lon="11.2152784"><ele>598.2</ele><time>2026-04-04T13:56:09.831Z</time></trkpt><trkpt lat="43.3601269" lon="11.2153519"><ele>596.8</ele><time>2026-04-04T13:56:11.86Z</time></trkpt><trkpt lat="43.3601808" lon="11.2154424"><ele>595.4</ele><time>2026-04-04T13:56:12.831Z</time></trkpt><trkpt lat="43.360259" lon="11.2155421"><ele>594.0</ele><time>2026-04-04T13:56:14.831Z</time></trkpt><trkpt lat="43.3603285" lon="11.2156557"><ele>592.6666666666666</ele><time>2026-04-04T13:56:16.832Z</time></trkpt><trkpt lat="43.3603904" lon="11.2157714"><ele>591.3333333333334</ele><time>2026-04-04T13:56:18.832Z</time></trkpt><trkpt lat="43.3604387" lon="11.2158885"><ele>590.0</ele><time>2026-04-04T13:56:20.832Z</time></trkpt><trkpt lat="43.360468" lon="11.2159722"><ele>588.6666666666667</ele><time>2026-04-04T13:56:22.831Z</time></trkpt><trkpt lat="43.3604574" lon="11.2160589"><ele>587.3333333333334</ele><time>2026-04-04T13:56:24.832Z</time></trkpt><trkpt lat="43.3604409" lon="11.2161506"><ele>586.0</ele><time>2026-04-04T13:56:27.832Z</time></trkpt><trkpt lat="43.3604041" lon="11.2162503"><ele>586.0</ele><time>2026-04-04T13:56:30.832Z</time></trkpt><trkpt lat="43.3604094" lon="11.2163484"><ele>586.0</ele><time>2026-04-04T13:56:33.777Z</time></trkpt><trkpt lat="43.3604297" lon="11.216433"><ele>586.0</ele><time>2026-04-04T13:56:35.831Z</time></trkpt><trkpt lat="43.360476" lon="11.2165128"><ele>586.0</ele><time>2026-04-04T13:56:38.831Z</time></trkpt><trkpt lat="43.3605024" lon="11.2166076"><ele>586.0</ele><time>2026-04-04T13:56:40.832Z</time></trkpt><trkpt lat="43.3605489" lon="11.2167025"><ele>586.0</ele><time>2026-04-04T13:56:42.856Z</time></trkpt><trkpt lat="43.3606028" lon="11.2168574"><ele>583.4</ele><time>2026-04-04T13:56:44.831Z</time></trkpt><trkpt lat="43.3606549" lon="11.2169766"><ele>580.8</ele><time>2026-04-04T13:56:46.831Z</time></trkpt><trkpt lat="43.36072" lon="11.217027"><ele>578.1999999999999</ele><time>2026-04-04T13:56:48.831Z</time></trkpt><trkpt lat="43.3608105" lon="11.217068"><ele>575.6</ele><time>2026-04-04T13:56:50.832Z</time></trkpt><trkpt lat="43.3608846" lon="11.2171223"><ele>573.0</ele><time>2026-04-04T13:56:53.831Z</time></trkpt><trkpt lat="43.3609198" lon="11.2172473"><ele>571.8333333333334</ele><time>2026-04-04T13:56:55.832Z</time></trkpt><trkpt lat="43.3609617" lon="11.2173506"><ele>570.6666666666666</ele><time>2026-04-04T13:56:57.832Z</time></trkpt><trkpt lat="43.3609946" lon="11.2174315"><ele>569.5</ele><time>2026-04-04T13:56:59.673Z</time></trkpt><trkpt lat="43.361063" lon="11.2174527"><ele>568.3333333333333</ele><time>2026-04-04T13:57:00.83Z</time></trkpt><trkpt lat="43.3610805" lon="11.2175396"><ele>567.1666666666666</ele><time>2026-04-04T13:57:13.832Z</time></trkpt><trkpt lat="43.3610289" lon="11.2176151"><ele>566.0</ele><time>2026-04-04T13:57:17.831Z</time></trkpt><trkpt lat="43.3609829" lon="11.2177155"><ele>566.0</ele><time>2026-04-04T13:57:20.862Z</time></trkpt><trkpt lat="43.3609705" lon="11.2178109"><ele>566.0</ele><time>2026-04-04T13:57:22.854Z</time></trkpt><trkpt lat="43.3609633" lon="11.2179407"><ele>566.0</ele><time>2026-04-04T13:57:24.831Z</time></trkpt><trkpt lat="43.3609637" lon="11.2180636"><ele>566.0</ele><time>2026-04-04T13:57:26.847Z</time></trkpt><trkpt lat="43.3609569" lon="11.2181791"><ele>566.0</ele><time>2026-04-04T13:57:28.831Z</time></trkpt><trkpt lat="43.3609449" lon="11.2182805"><ele>566.0</ele><time>2026-04-04T13:57:30.832Z</time></trkpt><trkpt lat="43.3609578" lon="11.2183661"><ele>565.0</ele><time>2026-04-04T13:57:32.801Z</time></trkpt><trkpt lat="43.3609545" lon="11.2184836"><ele>564.0</ele><time>2026-04-04T13:57:35.831Z</time></trkpt><trkpt lat="43.3609655" lon="11.2185738"><ele>563.0</ele><time>2026-04-04T13:57:37.831Z</time></trkpt><trkpt lat="43.3609963" lon="11.2186609"><ele>562.0</ele><time>2026-04-04T13:57:39.832Z</time></trkpt><trkpt lat="43.3610276" lon="11.2187607"><ele>561.0</ele><time>2026-04-04T13:57:41.849Z</time></trkpt><trkpt lat="43.3610661" lon="11.2188592"><ele>560.0</ele><time>2026-04-04T13:57:43.831Z</time></trkpt><trkpt lat="43.3611042" lon="11.2189599"><ele>558.5</ele><time>2026-04-04T13:57:45.837Z</time></trkpt><trkpt lat="43.3611751" lon="11.2190295"><ele>557.0</ele><time>2026-04-04T13:57:47.832Z</time></trkpt><trkpt lat="43.3612342" lon="11.2190919"><ele>555.5</ele><time>2026-04-04T13:57:49.831Z</time></trkpt><trkpt lat="43.3613036" lon="11.2191475"><ele>554.0</ele><time>2026-04-04T13:57:51.853Z</time></trkpt><trkpt lat="43.3613751" lon="11.2192293"><ele>552.5</ele><time>2026-04-04T13:57:53.831Z</time></trkpt><trkpt lat="43.3614269" lon="11.2192945"><ele>551.0</ele><time>2026-04-04T13:57:55.839Z</time></trkpt><trkpt lat="43.3614946" lon="11.2193504"><ele>550.8333333333333</ele><time>2026-04-04T13:57:57.847Z</time></trkpt><trkpt lat="43.3615618" lon="11.2194377"><ele>550.6666666666666</ele><time>2026-04-04T13:58:00.83Z</time></trkpt><trkpt lat="43.3616332" lon="11.2195058"><ele>550.5</ele><time>2026-04-04T13:58:02.832Z</time></trkpt><trkpt lat="43.3617071" lon="11.2195698"><ele>550.3333333333334</ele><time>2026-04-04T13:58:04.83Z</time></trkpt><trkpt lat="43.3617916" lon="11.2195952"><ele>550.1666666666667</ele><time>2026-04-04T13:58:06.833Z</time></trkpt><trkpt lat="43.361879" lon="11.219614"><ele>550.0</ele><time>2026-04-04T13:58:08.831Z</time></trkpt><trkpt lat="43.3619583" lon="11.2196543"><ele>550.0</ele><time>2026-04-04T13:58:10.815Z</time></trkpt><trkpt lat="43.3620124" lon="11.2197156"><ele>550.0</ele><time>2026-04-04T13:58:12.841Z</time></trkpt><trkpt lat="43.3620601" lon="11.2197817"><ele>550.0</ele><time>2026-04-04T13:58:14.841Z</time></trkpt><trkpt lat="43.3621324" lon="11.2198658"><ele>550.0</ele><time>2026-04-04T13:58:17.844Z</time></trkpt><trkpt lat="43.3621964" lon="11.2199358"><ele>550.0</ele><time>2026-04-04T13:58:20.832Z</time></trkpt><trkpt lat="43.3622631" lon="11.2199825"><ele>550.0</ele><time>2026-04-04T13:58:24.803Z</time></trkpt><trkpt lat="43.3622914" lon="11.2200788"><ele>546.6666666666667</ele><time>2026-04-04T13:58:27.857Z</time></trkpt><trkpt lat="43.3623321" lon="11.220164"><ele>543.3333333333334</ele><time>2026-04-04T13:58:29.842Z</time></trkpt><trkpt lat="43.3623807" lon="11.2202403"><ele>540.0</ele><time>2026-04-04T13:58:31.859Z</time></trkpt><trkpt lat="43.3622797" lon="11.2203258"><ele>536.6666666666666</ele><time>2026-04-04T13:58:32.86Z</time></trkpt><trkpt lat="43.3622314" lon="11.2204263"><ele>533.3333333333333</ele><time>2026-04-04T13:58:33.832Z</time></trkpt><trkpt lat="43.362216" lon="11.2205383"><ele>530.0</ele><time>2026-04-04T13:58:35.84Z</time></trkpt><trkpt lat="43.3621747" lon="11.2206561"><ele>529.3333333333333</ele><time>2026-04-04T13:58:37.831Z</time></trkpt><trkpt lat="43.3621431" lon="11.2207451"><ele>528.6666666666666</ele><time>2026-04-04T13:58:39.832Z</time></trkpt><trkpt lat="43.3621402" lon="11.2208625"><ele>528.0</ele><time>2026-04-04T13:58:41.851Z</time></trkpt><trkpt lat="43.3621692" lon="11.2209496"><ele>527.3333333333334</ele><time>2026-04-04T13:58:43.831Z</time></trkpt><trkpt lat="43.3621866" lon="11.2210525"><ele>526.6666666666667</ele><time>2026-04-04T13:58:45.831Z</time></trkpt><trkpt lat="43.3621532" lon="11.2211659"><ele>526.0</ele><time>2026-04-04T13:58:47.831Z</time></trkpt><trkpt lat="43.3621245" lon="11.2212615"><ele>526.0</ele><time>2026-04-04T13:58:49.559Z</time></trkpt><trkpt lat="43.362109" lon="11.2213827"><ele>526.0</ele><time>2026-04-04T13:58:51.832Z</time></trkpt><trkpt lat="43.3620374" lon="11.2213741"><ele>526.0</ele><time>2026-04-04T13:58:54.832Z</time></trkpt><trkpt lat="43.3619842" lon="11.2213111"><ele>526.0</ele><time>2026-04-04T13:58:58.83Z</time></trkpt><trkpt lat="43.3619537" lon="11.2215313"><ele>526.0</ele><time>2026-04-04T13:59:03.832Z</time></trkpt><trkpt lat="43.3618946" lon="11.2216166"><ele>523.8</ele><time>2026-04-04T13:59:04.831Z</time></trkpt><trkpt lat="43.3618099" lon="11.2217047"><ele>521.6</ele><time>2026-04-04T13:59:06.832Z</time></trkpt><trkpt lat="43.3617424" lon="11.2217846"><ele>519.4</ele><time>2026-04-04T13:59:08.832Z</time></trkpt><trkpt lat="43.3616635" lon="11.2218712"><ele>517.2</ele><time>2026-04-04T13:59:10.832Z</time></trkpt><trkpt lat="43.3616039" lon="11.2219536"><ele>515.0</ele><time>2026-04-04T13:59:12.831Z</time></trkpt><trkpt lat="43.3614825" lon="11.2220154"><ele>515.0</ele><time>2026-04-04T13:59:15.832Z</time></trkpt><trkpt lat="43.3613838" lon="11.2220262"><ele>515.0</ele><time>2026-04-04T13:59:17.831Z</time></trkpt><trkpt lat="43.3612976" lon="11.2220457"><ele>515.0</ele><time>2026-04-04T13:59:19.831Z</time></trkpt><trkpt lat="43.3612194" lon="11.2221023"><ele>515.0</ele><time>2026-04-04T13:59:21.831Z</time></trkpt><trkpt lat="43.3611562" lon="11.2221894"><ele>515.0</ele><time>2026-04-04T13:59:24.831Z</time></trkpt><trkpt lat="43.361099" lon="11.222288"><ele>512.4</ele><time>2026-04-04T13:59:27.832Z</time></trkpt><trkpt lat="43.3610244" lon="11.2223671"><ele>509.8</ele><time>2026-04-04T13:59:29.831Z</time></trkpt><trkpt lat="43.360952" lon="11.2224831"><ele>507.20000000000005</ele><time>2026-04-04T13:59:31.831Z</time></trkpt><trkpt lat="43.360891" lon="11.2225902"><ele>504.6</ele><time>2026-04-04T13:59:33.83Z</time></trkpt><trkpt lat="43.360823" lon="11.2226331"><ele>502.0</ele><time>2026-04-04T13:59:35.83Z</time></trkpt><trkpt lat="43.360731" lon="11.2226765"><ele>502.00000000000006</ele><time>2026-04-04T13:59:37.83Z</time></trkpt><trkpt lat="43.3606469" lon="11.222753"><ele>502.0</ele><time>2026-04-04T13:59:39.832Z</time></trkpt><trkpt lat="43.360593" lon="11.2228543"><ele>502.0</ele><time>2026-04-04T13:59:41.83Z</time></trkpt><trkpt lat="43.3605464" lon="11.2229581"><ele>502.0</ele><time>2026-04-04T13:59:43.832Z</time></trkpt><trkpt lat="43.3605166" lon="11.2230492"><ele>502.00000000000006</ele><time>2026-04-04T13:59:45.859Z</time></trkpt><trkpt lat="43.3604508" lon="11.2230897"><ele>502.0</ele><time>2026-04-04T13:59:47.838Z</time></trkpt><trkpt lat="43.3604242" lon="11.2232228"><ele>500.0</ele><time>2026-04-04T13:59:49.832Z</time></trkpt><trkpt lat="43.3603913" lon="11.2233509"><ele>498.00000000000006</ele><time>2026-04-04T13:59:51.831Z</time></trkpt><trkpt lat="43.3603507" lon="11.2234679"><ele>496.00000000000006</ele><time>2026-04-04T13:59:53.831Z</time></trkpt><trkpt lat="43.3603134" lon="11.2235982"><ele>494.0</ele><time>2026-04-04T13:59:55.832Z</time></trkpt><trkpt lat="43.360268" lon="11.2237279"><ele>492.0</ele><time>2026-04-04T13:59:57.831Z</time></trkpt><trkpt lat="43.3601954" lon="11.2238162"><ele>492.0</ele><time>2026-04-04T13:59:59.83Z</time></trkpt><trkpt lat="43.3601161" lon="11.2239249"><ele>492.0</ele><time>2026-04-04T14:00:01.832Z</time></trkpt><trkpt lat="43.3600422" lon="11.2240072"><ele>492.0</ele><time>2026-04-04T14:00:03.831Z</time></trkpt><trkpt lat="43.3599872" lon="11.2241014"><ele>492.0</ele><time>2026-04-04T14:00:05.831Z</time></trkpt><trkpt lat="43.3599642" lon="11.2241832"><ele>492.0</ele><time>2026-04-04T14:00:07.832Z</time></trkpt><trkpt lat="43.3599024" lon="11.2242009"><ele>492.0</ele><time>2026-04-04T14:00:09.831Z</time></trkpt><trkpt lat="43.3598436" lon="11.2242567"><ele>491.0</ele><time>2026-04-04T14:00:11.831Z</time></trkpt><trkpt lat="43.3597902" lon="11.2243483"><ele>490.00000000000006</ele><time>2026-04-04T14:00:13.831Z</time></trkpt><trkpt lat="43.359699" lon="11.2244391"><ele>489.00000000000006</ele><time>2026-04-04T14:00:15.83Z</time></trkpt><trkpt lat="43.3596063" lon="11.2245406"><ele>488.0</ele><time>2026-04-04T14:00:17.831Z</time></trkpt><trkpt lat="43.3595218" lon="11.2246433"><ele>487.0</ele><time>2026-04-04T14:00:19.832Z</time></trkpt><trkpt lat="43.359424" lon="11.2246535"><ele>486.00000000000006</ele><time>2026-04-04T14:00:21.832Z</time></trkpt><trkpt lat="43.359339" lon="11.2247011"><ele>485.0</ele><time>2026-04-04T14:00:23.831Z</time></trkpt><trkpt lat="43.3592849" lon="11.2247507"><ele>484.0</ele><time>2026-04-04T14:00:24.832Z</time></trkpt><trkpt lat="43.3591866" lon="11.2247996"><ele>483.0</ele><time>2026-04-04T14:00:26.832Z</time></trkpt><trkpt lat="43.3590965" lon="11.2248226"><ele>482.00000000000006</ele><time>2026-04-04T14:00:28.831Z</time></trkpt><trkpt lat="43.3590035" lon="11.2248189"><ele>481.0</ele><time>2026-04-04T14:00:30.831Z</time></trkpt><trkpt lat="43.3589344" lon="11.2248003"><ele>478.4</ele><time>2026-04-04T14:00:31.831Z</time></trkpt><trkpt lat="43.358836" lon="11.2247822"><ele>475.8</ele><time>2026-04-04T14:00:33.83Z</time></trkpt><trkpt lat="43.3587402" lon="11.224772"><ele>473.19999999999993</ele><time>2026-04-04T14:00:35.832Z</time></trkpt><trkpt lat="43.3586311" lon="11.2247618"><ele>470.59999999999997</ele><time>2026-04-04T14:00:37.83Z</time></trkpt><trkpt lat="43.3585353" lon="11.2247598"><ele>468.0</ele><time>2026-04-04T14:00:39.831Z</time></trkpt><trkpt lat="43.3584395" lon="11.2247581"><ele>468.0</ele><time>2026-04-04T14:00:41.831Z</time></trkpt><trkpt lat="43.3583501" lon="11.224738"><ele>467.99999999999994</ele><time>2026-04-04T14:00:43.832Z</time></trkpt><trkpt lat="43.3582192" lon="11.2247452"><ele>467.99999999999994</ele><time>2026-04-04T14:00:45.831Z</time></trkpt><trkpt lat="43.3581101" lon="11.224744"><ele>468.0</ele><time>2026-04-04T14:00:47.83Z</time></trkpt><trkpt lat="43.3580232" lon="11.2247666"><ele>468.0</ele><time>2026-04-04T14:00:49.832Z</time></trkpt><trkpt lat="43.3579401" lon="11.2248245"><ele>466.4</ele><time>2026-04-04T14:00:51.832Z</time></trkpt><trkpt lat="43.3578565" lon="11.2248862"><ele>464.79999999999995</ele><time>2026-04-04T14:00:53.83Z</time></trkpt><trkpt lat="43.357746" lon="11.2249159"><ele>463.2</ele><time>2026-04-04T14:00:57.858Z</time></trkpt><trkpt lat="43.3576625" lon="11.2248669"><ele>461.6</ele><time>2026-04-04T14:00:59.831Z</time></trkpt><trkpt lat="43.35759" lon="11.22484"><ele>460.0</ele><time>2026-04-04T14:01:01.847Z</time></trkpt><trkpt lat="43.3575215" lon="11.2247862"><ele>459.99999999999994</ele><time>2026-04-04T14:01:03.781Z</time></trkpt><trkpt lat="43.3574531" lon="11.2247551"><ele>460.0</ele><time>2026-04-04T14:01:05.832Z</time></trkpt><trkpt lat="43.3574128" lon="11.2248546"><ele>459.99999999999994</ele><time>2026-04-04T14:01:07.831Z</time></trkpt><trkpt lat="43.3573686" lon="11.2249546"><ele>459.99999999999994</ele><time>2026-04-04T14:01:08.83Z</time></trkpt><trkpt lat="43.3573353" lon="11.2250391"><ele>460.0</ele><time>2026-04-04T14:01:09.831Z</time></trkpt><trkpt lat="43.3573065" lon="11.2251226"><ele>459.99999999999994</ele><time>2026-04-04T14:01:10.83Z</time></trkpt><trkpt lat="43.357284" lon="11.2252063"><ele>459.99999999999994</ele><time>2026-04-04T14:01:11.832Z</time></trkpt><trkpt lat="43.3572613" lon="11.2253075"><ele>459.99999999999994</ele><time>2026-04-04T14:01:12.832Z</time></trkpt><trkpt lat="43.357241" lon="11.2254069"><ele>460.0</ele><time>2026-04-04T14:01:13.83Z</time></trkpt><trkpt lat="43.3572166" lon="11.2254932"><ele>459.99999999999994</ele><time>2026-04-04T14:01:14.831Z</time></trkpt><trkpt lat="43.357187" lon="11.2255763"><ele>459.99999999999994</ele><time>2026-04-04T14:01:15.831Z</time></trkpt><trkpt lat="43.3571516" lon="11.2256546"><ele>460.0</ele><time>2026-04-04T14:01:16.83Z</time></trkpt><trkpt lat="43.3571047" lon="11.2257266"><ele>459.99999999999994</ele><time>2026-04-04T14:01:17.831Z</time></trkpt><trkpt lat="43.3570585" lon="11.2257949"><ele>459.99999999999994</ele><time>2026-04-04T14:01:18.832Z</time></trkpt><trkpt lat="43.3570128" lon="11.2258549"><ele>457.6666666666667</ele><time>2026-04-04T14:01:19.831Z</time></trkpt><trkpt lat="43.3569067" lon="11.2259361"><ele>455.33333333333337</ele><time>2026-04-04T14:01:21.832Z</time></trkpt><trkpt lat="43.3568429" lon="11.2259742"><ele>453.0</ele><time>2026-04-04T14:01:22.832Z</time></trkpt><trkpt lat="43.3567821" lon="11.2260204"><ele>450.66666666666663</ele><time>2026-04-04T14:01:23.831Z</time></trkpt><trkpt lat="43.3567326" lon="11.2260835"><ele>448.3333333333333</ele><time>2026-04-04T14:01:24.832Z</time></trkpt><trkpt lat="43.3566717" lon="11.2261464"><ele>446.0</ele><time>2026-04-04T14:01:25.832Z</time></trkpt><trkpt lat="43.3566076" lon="11.2262115"><ele>445.99999999999994</ele><time>2026-04-04T14:01:26.831Z</time></trkpt><trkpt lat="43.3565486" lon="11.2262709"><ele>446.0</ele><time>2026-04-04T14:01:27.832Z</time></trkpt><trkpt lat="43.3564952" lon="11.2263252"><ele>446.0</ele><time>2026-04-04T14:01:28.831Z</time></trkpt><trkpt lat="43.3564054" lon="11.2264271"><ele>446.0</ele><time>2026-04-04T14:01:30.832Z</time></trkpt><trkpt lat="43.3563281" lon="11.2264787"><ele>445.99999999999994</ele><time>2026-04-04T14:01:32.831Z</time></trkpt><trkpt lat="43.3562648" lon="11.226494"><ele>446.0</ele><time>2026-04-04T14:01:34.831Z</time></trkpt><trkpt lat="43.3561909" lon="11.2265292"><ele>444.5</ele><time>2026-04-04T14:01:46.831Z</time></trkpt><trkpt lat="43.3561372" lon="11.2266034"><ele>443.0</ele><time>2026-04-04T14:01:50.845Z</time></trkpt><trkpt lat="43.3560153" lon="11.2266105"><ele>441.5</ele><time>2026-04-04T14:01:52.831Z</time></trkpt><trkpt lat="43.3561274" lon="11.2267327"><ele>440.0</ele><time>2026-04-04T14:01:53.831Z</time></trkpt><trkpt lat="43.3559128" lon="11.2267346"><ele>440.0</ele><time>2026-04-04T14:01:55.832Z</time></trkpt><trkpt lat="43.3558119" lon="11.2267718"><ele>440.0</ele><time>2026-04-04T14:01:56.831Z</time></trkpt><trkpt lat="43.355715" lon="11.2268631"><ele>440.0</ele><time>2026-04-04T14:01:58.832Z</time></trkpt><trkpt lat="43.3556507" lon="11.2269615"><ele>440.0</ele><time>2026-04-04T14:02:00.832Z</time></trkpt><trkpt lat="43.3556242" lon="11.2270494"><ele>440.0</ele><time>2026-04-04T14:02:01.832Z</time></trkpt><trkpt lat="43.3555981" lon="11.2271307"><ele>439.99999999999994</ele><time>2026-04-04T14:02:02.831Z</time></trkpt><trkpt lat="43.3555743" lon="11.2272467"><ele>440.0</ele><time>2026-04-04T14:02:03.831Z</time></trkpt><trkpt lat="43.3555554" lon="11.2273561"><ele>440.0</ele><time>2026-04-04T14:02:04.832Z</time></trkpt><trkpt lat="43.3555337" lon="11.2274547"><ele>440.0</ele><time>2026-04-04T14:02:05.831Z</time></trkpt><trkpt lat="43.3555197" lon="11.2275489"><ele>440.0</ele><time>2026-04-04T14:02:06.831Z</time></trkpt><trkpt lat="43.3555026" lon="11.2276354"><ele>439.99999999999994</ele><time>2026-04-04T14:02:07.832Z</time></trkpt><trkpt lat="43.3554843" lon="11.2277195"><ele>440.0</ele><time>2026-04-04T14:02:08.831Z</time></trkpt><trkpt lat="43.3554676" lon="11.2278036"><ele>438.2</ele><time>2026-04-04T14:02:09.831Z</time></trkpt><trkpt lat="43.3554368" lon="11.227964"><ele>436.4</ele><time>2026-04-04T14:02:11.832Z</time></trkpt><trkpt lat="43.3553975" lon="11.2281159"><ele>434.6</ele><time>2026-04-04T14:02:13.832Z</time></trkpt><trkpt lat="43.3553698" lon="11.2282162"><ele>432.8</ele><time>2026-04-04T14:02:14.83Z</time></trkpt><trkpt lat="43.3553322" lon="11.2283424"><ele>431.0</ele><time>2026-04-04T14:02:16.83Z</time></trkpt><trkpt lat="43.3553168" lon="11.2284408"><ele>430.99999999999994</ele><time>2026-04-04T14:02:17.832Z</time></trkpt><trkpt lat="43.3552757" lon="11.2285268"><ele>431.0</ele><time>2026-04-04T14:02:19.83Z</time></trkpt><trkpt lat="43.3552381" lon="11.2286139"><ele>431.0</ele><time>2026-04-04T14:02:21.83Z</time></trkpt><trkpt lat="43.3551984" lon="11.2286986"><ele>431.0</ele><time>2026-04-04T14:02:24.83Z</time></trkpt><trkpt lat="43.3552045" lon="11.2288133"><ele>430.99999999999994</ele><time>2026-04-04T14:02:26.831Z</time></trkpt><trkpt lat="43.3552485" lon="11.2289272"><ele>431.0</ele><time>2026-04-04T14:02:28.832Z</time></trkpt><trkpt lat="43.3552906" lon="11.2289926"><ele>430.49999999999994</ele><time>2026-04-04T14:02:29.831Z</time></trkpt><trkpt lat="43.355331" lon="11.2290721"><ele>430.0</ele><time>2026-04-04T14:02:30.831Z</time></trkpt><trkpt lat="43.3553853" lon="11.2291518"><ele>429.5</ele><time>2026-04-04T14:02:31.83Z</time></trkpt><trkpt lat="43.3554436" lon="11.2292318"><ele>429.0</ele><time>2026-04-04T14:02:32.831Z</time></trkpt><trkpt lat="43.3555058" lon="11.2293068"><ele>428.49999999999994</ele><time>2026-04-04T14:02:33.832Z</time></trkpt><trkpt lat="43.3555659" lon="11.229352"><ele>428.0</ele><time>2026-04-04T14:02:34.832Z</time></trkpt><trkpt lat="43.3556686" lon="11.2293976"><ele>429.59999999999997</ele><time>2026-04-04T14:02:36.831Z</time></trkpt><trkpt lat="43.3557544" lon="11.2294568"><ele>431.19999999999993</ele><time>2026-04-04T14:02:38.832Z</time></trkpt><trkpt lat="43.3558287" lon="11.2295185"><ele>432.8</ele><time>2026-04-04T14:02:40.831Z</time></trkpt><trkpt lat="43.3559024" lon="11.2296497"><ele>434.4</ele><time>2026-04-04T14:02:42.831Z</time></trkpt><trkpt lat="43.355918" lon="11.2297419"><ele>436.0</ele><time>2026-04-04T14:02:43.832Z</time></trkpt><trkpt lat="43.3559014" lon="11.2298755"><ele>436.00000000000006</ele><time>2026-04-04T14:02:45.831Z</time></trkpt><trkpt lat="43.3558828" lon="11.22996"><ele>436.0</ele><time>2026-04-04T14:02:46.831Z</time></trkpt><trkpt lat="43.3558426" lon="11.2300534"><ele>436.0</ele><time>2026-04-04T14:02:47.832Z</time></trkpt><trkpt lat="43.3557851" lon="11.230144"><ele>436.0</ele><time>2026-04-04T14:02:48.83Z</time></trkpt><trkpt lat="43.3557047" lon="11.2302287"><ele>436.00000000000006</ele><time>2026-04-04T14:02:49.831Z</time></trkpt><trkpt lat="43.3556443" lon="11.2303291"><ele>436.0</ele><time>2026-04-04T14:02:50.831Z</time></trkpt><trkpt lat="43.3555772" lon="11.2304169"><ele>434.00000000000006</ele><time>2026-04-04T14:02:51.832Z</time></trkpt><trkpt lat="43.3555255" lon="11.2305137"><ele>432.0</ele><time>2026-04-04T14:02:52.831Z</time></trkpt><trkpt lat="43.355464" lon="11.2305964"><ele>430.0</ele><time>2026-04-04T14:02:53.832Z</time></trkpt><trkpt lat="43.3553986" lon="11.2306726"><ele>428.0</ele><time>2026-04-04T14:02:54.831Z</time></trkpt><trkpt lat="43.3553221" lon="11.2307518"><ele>426.00000000000006</ele><time>2026-04-04T14:02:55.83Z</time></trkpt><trkpt lat="43.3552494" lon="11.2308301"><ele>424.0</ele><time>2026-04-04T14:02:56.831Z</time></trkpt><trkpt lat="43.3551791" lon="11.2309046"><ele>424.0</ele><time>2026-04-04T14:02:57.83Z</time></trkpt><trkpt lat="43.3550999" lon="11.230976"><ele>424.0</ele><time>2026-04-04T14:02:58.831Z</time></trkpt><trkpt lat="43.3550232" lon="11.2310638"><ele>424.0</ele><time>2026-04-04T14:02:59.831Z</time></trkpt><trkpt lat="43.3549547" lon="11.2311668"><ele>424.0</ele><time>2026-04-04T14:03:00.83Z</time></trkpt><trkpt lat="43.354894" lon="11.2312772"><ele>424.0</ele><time>2026-04-04T14:03:01.831Z</time></trkpt><trkpt lat="43.3548323" lon="11.2313898"><ele>424.4</ele><time>2026-04-04T14:03:02.831Z</time></trkpt><trkpt lat="43.3547846" lon="11.2315061"><ele>424.79999999999995</ele><time>2026-04-04T14:03:03.831Z</time></trkpt><trkpt lat="43.3547411" lon="11.2316318"><ele>425.20000000000005</ele><time>2026-04-04T14:03:04.832Z</time></trkpt><trkpt lat="43.3547082" lon="11.2317589"><ele>425.6</ele><time>2026-04-04T14:03:05.832Z</time></trkpt><trkpt lat="43.3546775" lon="11.2318868"><ele>426.0</ele><time>2026-04-04T14:03:06.832Z</time></trkpt><trkpt lat="43.3546464" lon="11.2320166"><ele>423.8</ele><time>2026-04-04T14:03:07.831Z</time></trkpt><trkpt lat="43.3546213" lon="11.2321476"><ele>421.6</ele><time>2026-04-04T14:03:08.83Z</time></trkpt><trkpt lat="43.3545997" lon="11.2322798"><ele>419.4</ele><time>2026-04-04T14:03:09.832Z</time></trkpt><trkpt lat="43.3545787" lon="11.2324148"><ele>417.2</ele><time>2026-04-04T14:03:10.832Z</time></trkpt><trkpt lat="43.3545499" lon="11.2325583"><ele>415.0</ele><time>2026-04-04T14:03:11.831Z</time></trkpt><trkpt lat="43.3545257" lon="11.2326896"><ele>415.0</ele><time>2026-04-04T14:03:12.832Z</time></trkpt><trkpt lat="43.3545053" lon="11.2328247"><ele>415.0</ele><time>2026-04-04T14:03:13.832Z</time></trkpt><trkpt lat="43.3544887" lon="11.2329509"><ele>415.0</ele><time>2026-04-04T14:03:14.831Z</time></trkpt><trkpt lat="43.3544692" lon="11.233074"><ele>415.0</ele><time>2026-04-04T14:03:15.832Z</time></trkpt><trkpt lat="43.3544529" lon="11.2331903"><ele>415.0</ele><time>2026-04-04T14:03:16.83Z</time></trkpt><trkpt lat="43.354424" lon="11.2332951"><ele>415.00000000000006</ele><time>2026-04-04T14:03:17.831Z</time></trkpt><trkpt lat="43.3544093" lon="11.2334049"><ele>415.0</ele><time>2026-04-04T14:03:18.83Z</time></trkpt><trkpt lat="43.3543346" lon="11.2335378"><ele>415.0</ele><time>2026-04-04T14:03:20.831Z</time></trkpt><trkpt lat="43.3542808" lon="11.233625"><ele>415.0</ele><time>2026-04-04T14:03:22.831Z</time></trkpt><trkpt lat="43.3542259" lon="11.2337055"><ele>415.00000000000006</ele><time>2026-04-04T14:03:26.832Z</time></trkpt><trkpt lat="43.3542017" lon="11.2337967"><ele>415.0</ele><time>2026-04-04T14:03:36.832Z</time></trkpt><trkpt lat="43.3541551" lon="11.2338695"><ele>415.00000000000006</ele><time>2026-04-04T14:03:41.832Z</time></trkpt><trkpt lat="43.3541259" lon="11.2339665"><ele>415.0</ele><time>2026-04-04T14:03:45.831Z</time></trkpt><trkpt lat="43.3540843" lon="11.2341245"><ele>415.0</ele><time>2026-04-04T14:03:48.83Z</time></trkpt><trkpt lat="43.3540638" lon="11.2342264"><ele>415.0</ele><time>2026-04-04T14:03:49.832Z</time></trkpt><trkpt lat="43.3540408" lon="11.2343267"><ele>415.00000000000006</ele><time>2026-04-04T14:03:50.832Z</time></trkpt><trkpt lat="43.3540352" lon="11.2344343"><ele>415.0</ele><time>2026-04-04T14:03:51.831Z</time></trkpt><trkpt lat="43.3540329" lon="11.2345577"><ele>415.33333333333337</ele><time>2026-04-04T14:03:52.832Z</time></trkpt><trkpt lat="43.3540319" lon="11.2346782"><ele>415.6666666666667</ele><time>2026-04-04T14:03:53.832Z</time></trkpt><trkpt lat="43.3540317" lon="11.2347987"><ele>416.0</ele><time>2026-04-04T14:03:54.831Z</time></trkpt><trkpt lat="43.3540363" lon="11.2349084"><ele>416.33333333333337</ele><time>2026-04-04T14:03:55.832Z</time></trkpt><trkpt lat="43.3540416" lon="11.2350199"><ele>416.6666666666667</ele><time>2026-04-04T14:03:56.831Z</time></trkpt><trkpt lat="43.3540501" lon="11.2351358"><ele>417.0</ele><time>2026-04-04T14:03:57.831Z</time></trkpt><trkpt lat="43.3540718" lon="11.23525"><ele>417.0</ele><time>2026-04-04T14:03:58.831Z</time></trkpt><trkpt lat="43.3541048" lon="11.2353652"><ele>417.0</ele><time>2026-04-04T14:03:59.831Z</time></trkpt><trkpt lat="43.3541314" lon="11.2354863"><ele>417.0</ele><time>2026-04-04T14:04:00.831Z</time></trkpt><trkpt lat="43.3541604" lon="11.2356089"><ele>417.0</ele><time>2026-04-04T14:04:01.831Z</time></trkpt><trkpt lat="43.3541877" lon="11.2357313"><ele>417.0</ele><time>2026-04-04T14:04:02.832Z</time></trkpt><trkpt lat="43.3542101" lon="11.2358544"><ele>416.20000000000005</ele><time>2026-04-04T14:04:03.831Z</time></trkpt><trkpt lat="43.3542279" lon="11.2359682"><ele>415.4</ele><time>2026-04-04T14:04:04.831Z</time></trkpt><trkpt lat="43.3542439" lon="11.2360774"><ele>414.6</ele><time>2026-04-04T14:04:05.832Z</time></trkpt><trkpt lat="43.3542556" lon="11.2362115"><ele>413.79999999999995</ele><time>2026-04-04T14:04:06.831Z</time></trkpt><trkpt lat="43.3542698" lon="11.2363656"><ele>413.0</ele><time>2026-04-04T14:04:07.832Z</time></trkpt><trkpt lat="43.3542862" lon="11.2365186"><ele>411.59999999999997</ele><time>2026-04-04T14:04:08.831Z</time></trkpt><trkpt lat="43.3543037" lon="11.2366813"><ele>410.2</ele><time>2026-04-04T14:04:09.832Z</time></trkpt><trkpt lat="43.3543293" lon="11.2368417"><ele>408.8</ele><time>2026-04-04T14:04:10.831Z</time></trkpt><trkpt lat="43.3543521" lon="11.2369887"><ele>407.4</ele><time>2026-04-04T14:04:11.83Z</time></trkpt><trkpt lat="43.3543734" lon="11.2371228"><ele>406.0</ele><time>2026-04-04T14:04:12.83Z</time></trkpt><trkpt lat="43.3543873" lon="11.2372362"><ele>404.50000000000006</ele><time>2026-04-04T14:04:13.83Z</time></trkpt><trkpt lat="43.3543983" lon="11.237327"><ele>403.0</ele><time>2026-04-04T14:04:14.831Z</time></trkpt><trkpt lat="43.3543923" lon="11.2374399"><ele>401.5</ele><time>2026-04-04T14:04:16.832Z</time></trkpt><trkpt lat="43.3543302" lon="11.2375391"><ele>400.0</ele><time>2026-04-04T14:04:18.83Z</time></trkpt><trkpt lat="43.3542632" lon="11.2376198"><ele>398.50000000000006</ele><time>2026-04-04T14:04:20.831Z</time></trkpt><trkpt lat="43.3541875" lon="11.2376667"><ele>397.0</ele><time>2026-04-04T14:04:22.831Z</time></trkpt><trkpt lat="43.3540287" lon="11.2377288"><ele>397.00000000000006</ele><time>2026-04-04T14:04:24.831Z</time></trkpt><trkpt lat="43.3539374" lon="11.2377345"><ele>397.0</ele><time>2026-04-04T14:04:25.832Z</time></trkpt><trkpt lat="43.3538596" lon="11.237751"><ele>397.0</ele><time>2026-04-04T14:04:26.831Z</time></trkpt><trkpt lat="43.3537889" lon="11.2377496"><ele>397.0</ele><time>2026-04-04T14:04:27.831Z</time></trkpt><trkpt lat="43.353721" lon="11.2377252"><ele>397.00000000000006</ele><time>2026-04-04T14:04:28.831Z</time></trkpt><trkpt lat="43.3536426" lon="11.2376581"><ele>397.0</ele><time>2026-04-04T14:04:29.831Z</time></trkpt><trkpt lat="43.3535714" lon="11.2376129"><ele>396.83333333333337</ele><time>2026-04-04T14:04:30.831Z</time></trkpt><trkpt lat="43.3535106" lon="11.2375597"><ele>396.6666666666667</ele><time>2026-04-04T14:04:31.832Z</time></trkpt><trkpt lat="43.3534302" lon="11.2375302"><ele>396.5</ele><time>2026-04-04T14:04:32.831Z</time></trkpt><trkpt lat="43.3533548" lon="11.237506"><ele>396.33333333333337</ele><time>2026-04-04T14:04:33.832Z</time></trkpt><trkpt lat="43.3532539" lon="11.2374689"><ele>396.1666666666667</ele><time>2026-04-04T14:04:34.832Z</time></trkpt><trkpt lat="43.3531696" lon="11.237422"><ele>396.0</ele><time>2026-04-04T14:04:35.831Z</time></trkpt><trkpt lat="43.3530845" lon="11.2373878"><ele>395.1666666666667</ele><time>2026-04-04T14:04:36.832Z</time></trkpt><trkpt lat="43.3529949" lon="11.2373615"><ele>394.33333333333337</ele><time>2026-04-04T14:04:37.83Z</time></trkpt><trkpt lat="43.352908" lon="11.2373561"><ele>393.5</ele><time>2026-04-04T14:04:38.831Z</time></trkpt><trkpt lat="43.3528255" lon="11.2373631"><ele>392.6666666666667</ele><time>2026-04-04T14:04:39.832Z</time></trkpt><trkpt lat="43.3527454" lon="11.237361"><ele>391.83333333333337</ele><time>2026-04-04T14:04:40.831Z</time></trkpt><trkpt lat="43.3526659" lon="11.2373706"><ele>391.0</ele><time>2026-04-04T14:04:41.832Z</time></trkpt><trkpt lat="43.3525909" lon="11.2373772"><ele>391.00000000000006</ele><time>2026-04-04T14:04:42.832Z</time></trkpt><trkpt lat="43.3525117" lon="11.2373981"><ele>391.0</ele><time>2026-04-04T14:04:43.831Z</time></trkpt><trkpt lat="43.3524274" lon="11.2374185"><ele>391.0</ele><time>2026-04-04T14:04:44.83Z</time></trkpt><trkpt lat="43.3523439" lon="11.2374419"><ele>391.0</ele><time>2026-04-04T14:04:45.832Z</time></trkpt><trkpt lat="43.3522584" lon="11.2374729"><ele>391.00000000000006</ele><time>2026-04-04T14:04:46.831Z</time></trkpt><trkpt lat="43.3521744" lon="11.2374981"><ele>391.0</ele><time>2026-04-04T14:04:47.832Z</time></trkpt><trkpt lat="43.3520868" lon="11.2375202"><ele>390.4</ele><time>2026-04-04T14:04:48.83Z</time></trkpt><trkpt lat="43.3519849" lon="11.2375479"><ele>389.8</ele><time>2026-04-04T14:04:49.831Z</time></trkpt><trkpt lat="43.3518857" lon="11.2375801"><ele>389.2</ele><time>2026-04-04T14:04:50.832Z</time></trkpt><trkpt lat="43.3517956" lon="11.2376054"><ele>388.59999999999997</ele><time>2026-04-04T14:04:51.831Z</time></trkpt><trkpt lat="43.3517129" lon="11.2376343"><ele>388.0</ele><time>2026-04-04T14:04:52.832Z</time></trkpt><trkpt lat="43.3516449" lon="11.2376638"><ele>388.00000000000006</ele><time>2026-04-04T14:04:53.831Z</time></trkpt><trkpt lat="43.3515584" lon="11.2376911"><ele>388.0</ele><time>2026-04-04T14:04:54.83Z</time></trkpt><trkpt lat="43.3514672" lon="11.2377217"><ele>388.0</ele><time>2026-04-04T14:04:55.831Z</time></trkpt><trkpt lat="43.3513809" lon="11.2377614"><ele>388.0</ele><time>2026-04-04T14:04:56.831Z</time></trkpt><trkpt lat="43.3513038" lon="11.2377979"><ele>388.00000000000006</ele><time>2026-04-04T14:04:57.831Z</time></trkpt><trkpt lat="43.3512322" lon="11.2378388"><ele>388.0</ele><time>2026-04-04T14:04:58.831Z</time></trkpt><trkpt lat="43.351121" lon="11.237939"><ele>388.1666666666667</ele><time>2026-04-04T14:05:00.831Z</time></trkpt><trkpt lat="43.3510494" lon="11.238018"><ele>388.33333333333337</ele><time>2026-04-04T14:05:01.831Z</time></trkpt><trkpt lat="43.3509898" lon="11.2380991"><ele>388.5</ele><time>2026-04-04T14:05:02.83Z</time></trkpt><trkpt lat="43.3509294" lon="11.2381726"><ele>388.66666666666663</ele><time>2026-04-04T14:05:03.832Z</time></trkpt><trkpt lat="43.3508752" lon="11.2382393"><ele>388.8333333333333</ele><time>2026-04-04T14:05:04.831Z</time></trkpt><trkpt lat="43.3508261" lon="11.2383143"><ele>389.0</ele><time>2026-04-04T14:05:05.832Z</time></trkpt><trkpt lat="43.3507754" lon="11.2383756"><ele>387.66666666666663</ele><time>2026-04-04T14:05:06.83Z</time></trkpt><trkpt lat="43.3507252" lon="11.2384296"><ele>386.3333333333333</ele><time>2026-04-04T14:05:07.831Z</time></trkpt><trkpt lat="43.3506484" lon="11.2385527"><ele>385.0</ele><time>2026-04-04T14:05:09.831Z</time></trkpt><trkpt lat="43.3505803" lon="11.2386779"><ele>383.66666666666663</ele><time>2026-04-04T14:05:11.831Z</time></trkpt><trkpt lat="43.3505227" lon="11.2387314"><ele>382.3333333333333</ele><time>2026-04-04T14:05:12.831Z</time></trkpt><trkpt lat="43.3504741" lon="11.238788"><ele>381.0</ele><time>2026-04-04T14:05:13.829Z</time></trkpt><trkpt lat="43.3504034" lon="11.2388515"><ele>379.1666666666667</ele><time>2026-04-04T14:05:15.831Z</time></trkpt><trkpt lat="43.3502997" lon="11.2388968"><ele>377.3333333333333</ele><time>2026-04-04T14:05:17.83Z</time></trkpt><trkpt lat="43.3502358" lon="11.2388933"><ele>375.5</ele><time>2026-04-04T14:05:18.83Z</time></trkpt><trkpt lat="43.3501601" lon="11.2388961"><ele>373.66666666666663</ele><time>2026-04-04T14:05:19.829Z</time></trkpt><trkpt lat="43.3500944" lon="11.2389012"><ele>371.8333333333333</ele><time>2026-04-04T14:05:20.83Z</time></trkpt><trkpt lat="43.3500352" lon="11.2389495"><ele>370.0</ele><time>2026-04-04T14:05:22.83Z</time></trkpt><trkpt lat="43.3499861" lon="11.239027"><ele>370.0</ele><time>2026-04-04T14:05:24.83Z</time></trkpt><trkpt lat="43.3499368" lon="11.2390947"><ele>370.0</ele><time>2026-04-04T14:05:25.829Z</time></trkpt><trkpt lat="43.3498766" lon="11.2391502"><ele>370.0</ele><time>2026-04-04T14:05:26.83Z</time></trkpt><trkpt lat="43.3498051" lon="11.2392021"><ele>370.0</ele><time>2026-04-04T14:05:28.829Z</time></trkpt><trkpt lat="43.3497023" lon="11.23919"><ele>370.0</ele><time>2026-04-04T14:05:30.83Z</time></trkpt><trkpt lat="43.3496124" lon="11.2391778"><ele>370.0</ele><time>2026-04-04T14:05:31.83Z</time></trkpt><trkpt lat="43.3495197" lon="11.2391864"><ele>370.6</ele><time>2026-04-04T14:05:32.83Z</time></trkpt><trkpt lat="43.34944" lon="11.2392132"><ele>371.2</ele><time>2026-04-04T14:05:33.831Z</time></trkpt><trkpt lat="43.34936" lon="11.2392599"><ele>371.79999999999995</ele><time>2026-04-04T14:05:34.831Z</time></trkpt><trkpt lat="43.3492916" lon="11.2392926"><ele>372.4</ele><time>2026-04-04T14:05:35.83Z</time></trkpt><trkpt lat="43.3492108" lon="11.2393037"><ele>373.0</ele><time>2026-04-04T14:05:37.83Z</time></trkpt><trkpt lat="43.3490596" lon="11.2392614"><ele>373.0</ele><time>2026-04-04T14:05:39.83Z</time></trkpt><trkpt lat="43.3490013" lon="11.2392172"><ele>373.0</ele><time>2026-04-04T14:05:40.83Z</time></trkpt><trkpt lat="43.3489232" lon="11.2390972"><ele>373.0</ele><time>2026-04-04T14:05:42.829Z</time></trkpt><trkpt lat="43.3488591" lon="11.2389814"><ele>373.0</ele><time>2026-04-04T14:05:44.831Z</time></trkpt><trkpt lat="43.3487925" lon="11.2389204"><ele>373.0</ele><time>2026-04-04T14:05:46.83Z</time></trkpt><trkpt lat="43.3486911" lon="11.2389189"><ele>372.66666666666663</ele><time>2026-04-04T14:05:48.831Z</time></trkpt><trkpt lat="43.3486327" lon="11.2389558"><ele>372.3333333333333</ele><time>2026-04-04T14:05:49.831Z</time></trkpt><trkpt lat="43.3485105" lon="11.2390244"><ele>372.0</ele><time>2026-04-04T14:05:51.83Z</time></trkpt><trkpt lat="43.3484424" lon="11.239061"><ele>371.6666666666667</ele><time>2026-04-04T14:05:52.83Z</time></trkpt><trkpt lat="43.3483774" lon="11.2390824"><ele>371.33333333333337</ele><time>2026-04-04T14:05:53.829Z</time></trkpt><trkpt lat="43.3483074" lon="11.2390955"><ele>371.0</ele><time>2026-04-04T14:05:54.831Z</time></trkpt><trkpt lat="43.3482399" lon="11.2391042"><ele>371.0</ele><time>2026-04-04T14:05:55.83Z</time></trkpt><trkpt lat="43.3481735" lon="11.2391065"><ele>371.0</ele><time>2026-04-04T14:05:56.83Z</time></trkpt><trkpt lat="43.348108" lon="11.2391057"><ele>371.0</ele><time>2026-04-04T14:05:57.829Z</time></trkpt><trkpt lat="43.348041" lon="11.2391067"><ele>371.0</ele><time>2026-04-04T14:05:58.83Z</time></trkpt><trkpt lat="43.3479729" lon="11.2391107"><ele>371.0</ele><time>2026-04-04T14:05:59.829Z</time></trkpt><trkpt lat="43.3479061" lon="11.2391084"><ele>371.0</ele><time>2026-04-04T14:06:00.83Z</time></trkpt><trkpt lat="43.3478367" lon="11.239087"><ele>371.0</ele><time>2026-04-04T14:06:01.831Z</time></trkpt><trkpt lat="43.3477659" lon="11.239058"><ele>370.1666666666667</ele><time>2026-04-04T14:06:02.83Z</time></trkpt><trkpt lat="43.3477003" lon="11.2390381"><ele>369.33333333333337</ele><time>2026-04-04T14:06:03.83Z</time></trkpt><trkpt lat="43.3476202" lon="11.2390317"><ele>368.5</ele><time>2026-04-04T14:06:04.83Z</time></trkpt><trkpt lat="43.3475411" lon="11.2390273"><ele>367.6666666666667</ele><time>2026-04-04T14:06:05.831Z</time></trkpt><trkpt lat="43.3474662" lon="11.2390236"><ele>366.8333333333333</ele><time>2026-04-04T14:06:06.831Z</time></trkpt><trkpt lat="43.3473887" lon="11.2390221"><ele>366.0</ele><time>2026-04-04T14:06:07.83Z</time></trkpt><trkpt lat="43.3473176" lon="11.2390257"><ele>366.20000000000005</ele><time>2026-04-04T14:06:08.83Z</time></trkpt><trkpt lat="43.3471926" lon="11.2391019"><ele>366.40000000000003</ele><time>2026-04-04T14:06:10.831Z</time></trkpt><trkpt lat="43.3470845" lon="11.2391809"><ele>366.6</ele><time>2026-04-04T14:06:12.83Z</time></trkpt><trkpt lat="43.3470204" lon="11.239221"><ele>366.8</ele><time>2026-04-04T14:06:13.831Z</time></trkpt><trkpt lat="43.3469556" lon="11.2392552"><ele>367.0</ele><time>2026-04-04T14:06:14.83Z</time></trkpt><trkpt lat="43.3468887" lon="11.2392919"><ele>367.0</ele><time>2026-04-04T14:06:15.83Z</time></trkpt><trkpt lat="43.3468331" lon="11.2393356"><ele>367.0</ele><time>2026-04-04T14:06:16.831Z</time></trkpt><trkpt lat="43.3467588" lon="11.2394205"><ele>367.0</ele><time>2026-04-04T14:06:18.829Z</time></trkpt><trkpt lat="43.3466797" lon="11.2395553"><ele>367.0</ele><time>2026-04-04T14:06:20.829Z</time></trkpt><trkpt lat="43.3466362" lon="11.2396226"><ele>367.0</ele><time>2026-04-04T14:06:21.831Z</time></trkpt><trkpt lat="43.3465916" lon="11.2396934"><ele>367.0</ele><time>2026-04-04T14:06:22.829Z</time></trkpt><trkpt lat="43.3465228" lon="11.239816"><ele>365.6</ele><time>2026-04-04T14:06:24.83Z</time></trkpt><trkpt lat="43.346471" lon="11.2399343"><ele>364.20000000000005</ele><time>2026-04-04T14:06:26.83Z</time></trkpt><trkpt lat="43.3464413" lon="11.2400238"><ele>362.8</ele><time>2026-04-04T14:06:28.83Z</time></trkpt><trkpt lat="43.3463995" lon="11.2401088"><ele>361.4</ele><time>2026-04-04T14:06:32.83Z</time></trkpt><trkpt lat="43.3464546" lon="11.2400002"><ele>360.0</ele><time>2026-04-04T14:06:38.831Z</time></trkpt><trkpt lat="43.3465025" lon="11.2398537"><ele>361.1666666666667</ele><time>2026-04-04T14:06:40.83Z</time></trkpt><trkpt lat="43.3465398" lon="11.2397834"><ele>362.3333333333333</ele><time>2026-04-04T14:06:41.829Z</time></trkpt><trkpt lat="43.3465826" lon="11.2397165"><ele>363.5</ele><time>2026-04-04T14:06:42.831Z</time></trkpt><trkpt lat="43.3466615" lon="11.239599"><ele>364.66666666666663</ele><time>2026-04-04T14:06:44.83Z</time></trkpt><trkpt lat="43.3467144" lon="11.2394895"><ele>365.8333333333333</ele><time>2026-04-04T14:06:46.83Z</time></trkpt><trkpt lat="43.3466966" lon="11.2393621"><ele>367.0</ele><time>2026-04-04T14:06:48.83Z</time></trkpt><trkpt lat="43.3466466" lon="11.2392505"><ele>367.0</ele><time>2026-04-04T14:06:50.831Z</time></trkpt><trkpt lat="43.3466133" lon="11.2391332"><ele>367.0</ele><time>2026-04-04T14:06:52.83Z</time></trkpt><trkpt lat="43.3465811" lon="11.239032"><ele>367.0</ele><time>2026-04-04T14:06:54.83Z</time></trkpt><trkpt lat="43.3465196" lon="11.2389643"><ele>367.0</ele><time>2026-04-04T14:06:56.829Z</time></trkpt><trkpt lat="43.3464269" lon="11.2389484"><ele>367.0</ele><time>2026-04-04T14:06:58.829Z</time></trkpt><trkpt lat="43.346333" lon="11.2389705"><ele>367.0</ele><time>2026-04-04T14:07:00.829Z</time></trkpt><trkpt lat="43.3462477" lon="11.239012"><ele>365.8</ele><time>2026-04-04T14:07:02.83Z</time></trkpt><trkpt lat="43.3461595" lon="11.2390445"><ele>364.6</ele><time>2026-04-04T14:07:04.831Z</time></trkpt><trkpt lat="43.3460715" lon="11.2390604"><ele>363.40000000000003</ele><time>2026-04-04T14:07:06.829Z</time></trkpt><trkpt lat="43.3459827" lon="11.2390993"><ele>362.20000000000005</ele><time>2026-04-04T14:07:08.83Z</time></trkpt><trkpt lat="43.3458817" lon="11.2391454"><ele>361.0</ele><time>2026-04-04T14:07:10.829Z</time></trkpt><trkpt lat="43.3457668" lon="11.2391728"><ele>361.0</ele><time>2026-04-04T14:07:12.83Z</time></trkpt><trkpt lat="43.3456511" lon="11.239198"><ele>361.0</ele><time>2026-04-04T14:07:14.831Z</time></trkpt><trkpt lat="43.345525" lon="11.2392477"><ele>361.0</ele><time>2026-04-04T14:07:16.83Z</time></trkpt><trkpt lat="43.3454549" lon="11.2392637"><ele>361.0</ele><time>2026-04-04T14:07:17.83Z</time></trkpt><trkpt lat="43.3453063" lon="11.2392879"><ele>359.5</ele><time>2026-04-04T14:07:19.83Z</time></trkpt><trkpt lat="43.3452298" lon="11.2393019"><ele>358.0</ele><time>2026-04-04T14:07:20.83Z</time></trkpt><trkpt lat="43.3451558" lon="11.2393206"><ele>356.5</ele><time>2026-04-04T14:07:21.83Z</time></trkpt><trkpt lat="43.3450803" lon="11.2393405"><ele>355.0</ele><time>2026-04-04T14:07:22.831Z</time></trkpt><trkpt lat="43.3450068" lon="11.2393637"><ele>353.5</ele><time>2026-04-04T14:07:23.831Z</time></trkpt><trkpt lat="43.3449324" lon="11.2393957"><ele>352.0</ele><time>2026-04-04T14:07:24.83Z</time></trkpt><trkpt lat="43.3448564" lon="11.2394324"><ele>352.0</ele><time>2026-04-04T14:07:25.83Z</time></trkpt><trkpt lat="43.344792" lon="11.2394686"><ele>352.0</ele><time>2026-04-04T14:07:26.831Z</time></trkpt><trkpt lat="43.3447338" lon="11.2395072"><ele>352.0</ele><time>2026-04-04T14:07:27.83Z</time></trkpt><trkpt lat="43.3446799" lon="11.239558"><ele>352.0</ele><time>2026-04-04T14:07:28.83Z</time></trkpt><trkpt lat="43.3446242" lon="11.2396281"><ele>352.0</ele><time>2026-04-04T14:07:29.83Z</time></trkpt><trkpt lat="43.3445755" lon="11.2396909"><ele>352.0</ele><time>2026-04-04T14:07:30.831Z</time></trkpt><trkpt lat="43.344524" lon="11.2397554"><ele>352.0</ele><time>2026-04-04T14:07:31.83Z</time></trkpt><trkpt lat="43.3444774" lon="11.2398239"><ele>350.0</ele><time>2026-04-04T14:07:32.829Z</time></trkpt><trkpt lat="43.344432" lon="11.2398906"><ele>348.0</ele><time>2026-04-04T14:07:33.829Z</time></trkpt><trkpt lat="43.344389" lon="11.2399614"><ele>346.0</ele><time>2026-04-04T14:07:34.83Z</time></trkpt><trkpt lat="43.3443509" lon="11.2400379"><ele>344.0</ele><time>2026-04-04T14:07:35.83Z</time></trkpt><trkpt lat="43.3443142" lon="11.2401239"><ele>342.0</ele><time>2026-04-04T14:07:36.829Z</time></trkpt><trkpt lat="43.3442733" lon="11.2402173"><ele>340.0</ele><time>2026-04-04T14:07:37.83Z</time></trkpt><trkpt lat="43.344251" lon="11.2403158"><ele>338.0</ele><time>2026-04-04T14:07:38.83Z</time></trkpt><trkpt lat="43.3442222" lon="11.2404056"><ele>338.0</ele><time>2026-04-04T14:07:39.831Z</time></trkpt><trkpt lat="43.3442028" lon="11.2404967"><ele>338.0</ele><time>2026-04-04T14:07:40.83Z</time></trkpt><trkpt lat="43.3442076" lon="11.2406636"><ele>338.0</ele><time>2026-04-04T14:07:42.831Z</time></trkpt><trkpt lat="43.3442483" lon="11.2407699"><ele>338.0</ele><time>2026-04-04T14:07:43.831Z</time></trkpt><trkpt lat="43.3442936" lon="11.2408908"><ele>338.0</ele><time>2026-04-04T14:07:44.829Z</time></trkpt><trkpt lat="43.3443292" lon="11.2409925"><ele>337.0</ele><time>2026-04-04T14:07:45.83Z</time></trkpt><trkpt lat="43.3443696" lon="11.2411057"><ele>336.0</ele><time>2026-04-04T14:07:46.831Z</time></trkpt><trkpt lat="43.344411" lon="11.2412173"><ele>335.0</ele><time>2026-04-04T14:07:47.831Z</time></trkpt><trkpt lat="43.3444297" lon="11.2413362"><ele>334.0</ele><time>2026-04-04T14:07:48.831Z</time></trkpt><trkpt lat="43.3444503" lon="11.2414408"><ele>333.0</ele><time>2026-04-04T14:07:49.831Z</time></trkpt><trkpt lat="43.344469" lon="11.2415544"><ele>332.0</ele><time>2026-04-04T14:07:50.829Z</time></trkpt><trkpt lat="43.3444701" lon="11.2416639"><ele>330.8</ele><time>2026-04-04T14:07:51.83Z</time></trkpt><trkpt lat="43.3444484" lon="11.241783"><ele>329.6</ele><time>2026-04-04T14:07:52.83Z</time></trkpt><trkpt lat="43.3444301" lon="11.2418996"><ele>328.40000000000003</ele><time>2026-04-04T14:07:53.83Z</time></trkpt><trkpt lat="43.3443962" lon="11.2420108"><ele>327.20000000000005</ele><time>2026-04-04T14:07:54.83Z</time></trkpt><trkpt lat="43.3443488" lon="11.2421645"><ele>326.0</ele><time>2026-04-04T14:07:56.83Z</time></trkpt><trkpt lat="43.3442966" lon="11.2422241"><ele>326.0</ele><time>2026-04-04T14:07:57.83Z</time></trkpt><trkpt lat="43.3442377" lon="11.242269"><ele>326.0</ele><time>2026-04-04T14:07:58.83Z</time></trkpt><trkpt lat="43.3441727" lon="11.2423198"><ele>326.0</ele><time>2026-04-04T14:07:59.831Z</time></trkpt><trkpt lat="43.3441141" lon="11.2423771"><ele>326.0</ele><time>2026-04-04T14:08:00.829Z</time></trkpt><trkpt lat="43.3440549" lon="11.2424298"><ele>326.0</ele><time>2026-04-04T14:08:01.831Z</time></trkpt><trkpt lat="43.343947" lon="11.2425228"><ele>326.0</ele><time>2026-04-04T14:08:03.831Z</time></trkpt><trkpt lat="43.3438936" lon="11.2425722"><ele>323.6666666666667</ele><time>2026-04-04T14:08:04.83Z</time></trkpt><trkpt lat="43.3438332" lon="11.2426351"><ele>321.33333333333337</ele><time>2026-04-04T14:08:05.831Z</time></trkpt><trkpt lat="43.343765" lon="11.2426819"><ele>319.0</ele><time>2026-04-04T14:08:06.831Z</time></trkpt><trkpt lat="43.3436876" lon="11.2427346"><ele>316.6666666666667</ele><time>2026-04-04T14:08:07.83Z</time></trkpt><trkpt lat="43.3436159" lon="11.2427832"><ele>314.3333333333333</ele><time>2026-04-04T14:08:08.831Z</time></trkpt><trkpt lat="43.3435559" lon="11.2428255"><ele>312.0</ele><time>2026-04-04T14:08:09.83Z</time></trkpt><trkpt lat="43.3434882" lon="11.2429053"><ele>312.0</ele><time>2026-04-04T14:08:11.83Z</time></trkpt><trkpt lat="43.3434693" lon="11.243072"><ele>312.0</ele><time>2026-04-04T14:08:13.83Z</time></trkpt><trkpt lat="43.3434345" lon="11.2432171"><ele>312.0</ele><time>2026-04-04T14:08:15.829Z</time></trkpt><trkpt lat="43.3433121" lon="11.2433061"><ele>312.0</ele><time>2026-04-04T14:08:17.83Z</time></trkpt><trkpt lat="43.3432607" lon="11.2433634"><ele>312.0</ele><time>2026-04-04T14:08:18.83Z</time></trkpt><trkpt lat="43.343208" lon="11.2434278"><ele>312.0</ele><time>2026-04-04T14:08:19.83Z</time></trkpt><trkpt lat="43.3431617" lon="11.2434881"><ele>312.0</ele><time>2026-04-04T14:08:20.829Z</time></trkpt><trkpt lat="43.3430935" lon="11.2436356"><ele>312.0</ele><time>2026-04-04T14:08:22.83Z</time></trkpt><trkpt lat="43.34306" lon="11.2437317"><ele>312.0</ele><time>2026-04-04T14:08:23.831Z</time></trkpt><trkpt lat="43.3430243" lon="11.2438404"><ele>312.0</ele><time>2026-04-04T14:08:24.83Z</time></trkpt><trkpt lat="43.3429993" lon="11.2439522"><ele>312.0</ele><time>2026-04-04T14:08:25.831Z</time></trkpt><trkpt lat="43.3429707" lon="11.2440828"><ele>310.8333333333333</ele><time>2026-04-04T14:08:26.83Z</time></trkpt><trkpt lat="43.3429439" lon="11.244199"><ele>309.6666666666667</ele><time>2026-04-04T14:08:27.83Z</time></trkpt><trkpt lat="43.3429193" lon="11.2443115"><ele>308.5</ele><time>2026-04-04T14:08:28.829Z</time></trkpt><trkpt lat="43.3428884" lon="11.2444135"><ele>307.33333333333337</ele><time>2026-04-04T14:08:29.831Z</time></trkpt><trkpt lat="43.3428513" lon="11.2445004"><ele>306.1666666666667</ele><time>2026-04-04T14:08:30.831Z</time></trkpt><trkpt lat="43.3428041" lon="11.2445817"><ele>305.0</ele><time>2026-04-04T14:08:31.83Z</time></trkpt><trkpt lat="43.3427462" lon="11.2446677"><ele>305.0</ele><time>2026-04-04T14:08:32.83Z</time></trkpt><trkpt lat="43.3426746" lon="11.2447535"><ele>305.0</ele><time>2026-04-04T14:08:33.831Z</time></trkpt><trkpt lat="43.3426134" lon="11.2448277"><ele>305.0</ele><time>2026-04-04T14:08:34.831Z</time></trkpt><trkpt lat="43.3425539" lon="11.2448798"><ele>305.0</ele><time>2026-04-04T14:08:35.831Z</time></trkpt><trkpt lat="43.3424956" lon="11.244918"><ele>305.0</ele><time>2026-04-04T14:08:36.831Z</time></trkpt><trkpt lat="43.3424294" lon="11.2449358"><ele>305.0</ele><time>2026-04-04T14:08:37.829Z</time></trkpt><trkpt lat="43.3423151" lon="11.2450075"><ele>304.5</ele><time>2026-04-04T14:08:39.829Z</time></trkpt><trkpt lat="43.3422579" lon="11.2450474"><ele>304.0</ele><time>2026-04-04T14:08:40.829Z</time></trkpt><trkpt lat="43.342209" lon="11.245102"><ele>303.5</ele><time>2026-04-04T14:08:41.83Z</time></trkpt><trkpt lat="43.3421127" lon="11.2452216"><ele>303.0</ele><time>2026-04-04T14:08:43.829Z</time></trkpt><trkpt lat="43.3420565" lon="11.245308"><ele>302.5</ele><time>2026-04-04T14:08:44.83Z</time></trkpt><trkpt lat="43.342002" lon="11.245384"><ele>302.0</ele><time>2026-04-04T14:08:45.83Z</time></trkpt><trkpt lat="43.3419473" lon="11.245458"><ele>301.0</ele><time>2026-04-04T14:08:46.83Z</time></trkpt><trkpt lat="43.3418852" lon="11.2455063"><ele>300.0</ele><time>2026-04-04T14:08:47.831Z</time></trkpt><trkpt lat="43.3418238" lon="11.2455359"><ele>299.0</ele><time>2026-04-04T14:08:48.829Z</time></trkpt><trkpt lat="43.3417127" lon="11.2456174"><ele>298.0</ele><time>2026-04-04T14:08:50.83Z</time></trkpt><trkpt lat="43.3416601" lon="11.2456749"><ele>297.0</ele><time>2026-04-04T14:08:51.831Z</time></trkpt><trkpt lat="43.3416037" lon="11.2457354"><ele>296.0</ele><time>2026-04-04T14:08:52.831Z</time></trkpt><trkpt lat="43.3415393" lon="11.2457995"><ele>295.33333333333337</ele><time>2026-04-04T14:08:53.829Z</time></trkpt><trkpt lat="43.3414889" lon="11.245875"><ele>294.6666666666667</ele><time>2026-04-04T14:08:54.83Z</time></trkpt><trkpt lat="43.3414371" lon="11.2459588"><ele>294.0</ele><time>2026-04-04T14:08:55.831Z</time></trkpt><trkpt lat="43.3413757" lon="11.2460223"><ele>293.3333333333333</ele><time>2026-04-04T14:08:56.831Z</time></trkpt><trkpt lat="43.3413009" lon="11.2460708"><ele>292.66666666666663</ele><time>2026-04-04T14:08:57.829Z</time></trkpt><trkpt lat="43.3412064" lon="11.246124"><ele>292.0</ele><time>2026-04-04T14:08:58.831Z</time></trkpt><trkpt lat="43.3411247" lon="11.2461794"><ele>291.3333333333333</ele><time>2026-04-04T14:08:59.831Z</time></trkpt><trkpt lat="43.3410567" lon="11.2462371"><ele>290.66666666666663</ele><time>2026-04-04T14:09:00.831Z</time></trkpt><trkpt lat="43.3410076" lon="11.2463102"><ele>290.0</ele><time>2026-04-04T14:09:01.829Z</time></trkpt><trkpt lat="43.3409724" lon="11.2464155"><ele>289.3333333333333</ele><time>2026-04-04T14:09:02.83Z</time></trkpt><trkpt lat="43.3409522" lon="11.2465276"><ele>288.6666666666667</ele><time>2026-04-04T14:09:03.829Z</time></trkpt><trkpt lat="43.3409379" lon="11.2466308"><ele>288.0</ele><time>2026-04-04T14:09:04.829Z</time></trkpt><trkpt lat="43.3409092" lon="11.2467256"><ele>287.1666666666667</ele><time>2026-04-04T14:09:05.83Z</time></trkpt><trkpt lat="43.3408587" lon="11.2468191"><ele>286.3333333333333</ele><time>2026-04-04T14:09:06.83Z</time></trkpt><trkpt lat="43.3407988" lon="11.2469038"><ele>285.5</ele><time>2026-04-04T14:09:07.831Z</time></trkpt><trkpt lat="43.3407311" lon="11.247005"><ele>284.66666666666663</ele><time>2026-04-04T14:09:08.83Z</time></trkpt><trkpt lat="43.3406723" lon="11.24709"><ele>283.8333333333333</ele><time>2026-04-04T14:09:09.83Z</time></trkpt><trkpt lat="43.3406171" lon="11.2471763"><ele>283.0</ele><time>2026-04-04T14:09:10.831Z</time></trkpt><trkpt lat="43.3405696" lon="11.2472587"><ele>281.0</ele><time>2026-04-04T14:09:11.831Z</time></trkpt><trkpt lat="43.3405155" lon="11.2473363"><ele>279.0</ele><time>2026-04-04T14:09:12.831Z</time></trkpt><trkpt lat="43.3404568" lon="11.2473987"><ele>277.0</ele><time>2026-04-04T14:09:13.83Z</time></trkpt><trkpt lat="43.340385" lon="11.2474486"><ele>275.0</ele><time>2026-04-04T14:09:14.83Z</time></trkpt><trkpt lat="43.3403017" lon="11.2474599"><ele>273.0</ele><time>2026-04-04T14:09:15.83Z</time></trkpt><trkpt lat="43.3402248" lon="11.2474655"><ele>271.0</ele><time>2026-04-04T14:09:16.83Z</time></trkpt><trkpt lat="43.3401471" lon="11.2474519"><ele>271.0</ele><time>2026-04-04T14:09:17.831Z</time></trkpt><trkpt lat="43.3400749" lon="11.2474419"><ele>271.0</ele><time>2026-04-04T14:09:18.831Z</time></trkpt><trkpt lat="43.3399625" lon="11.2474421"><ele>271.0</ele><time>2026-04-04T14:09:20.83Z</time></trkpt><trkpt lat="43.33985" lon="11.2475067"><ele>271.0</ele><time>2026-04-04T14:09:22.83Z</time></trkpt><trkpt lat="43.3397647" lon="11.2475923"><ele>271.0</ele><time>2026-04-04T14:09:24.831Z</time></trkpt><trkpt lat="43.3397477" lon="11.2476801"><ele>271.0</ele><time>2026-04-04T14:09:25.831Z</time></trkpt><trkpt lat="43.3397364" lon="11.247783"><ele>271.0</ele><time>2026-04-04T14:09:26.831Z</time></trkpt><trkpt lat="43.3397141" lon="11.2478803"><ele>271.0</ele><time>2026-04-04T14:09:27.83Z</time></trkpt><trkpt lat="43.3396343" lon="11.2480164"><ele>271.0</ele><time>2026-04-04T14:09:29.83Z</time></trkpt><trkpt lat="43.3395764" lon="11.2480863"><ele>271.0</ele><time>2026-04-04T14:09:30.83Z</time></trkpt><trkpt lat="43.3395123" lon="11.2481506"><ele>271.0</ele><time>2026-04-04T14:09:31.831Z</time></trkpt><trkpt lat="43.3394531" lon="11.2482133"><ele>268.8</ele><time>2026-04-04T14:09:32.83Z</time></trkpt><trkpt lat="43.3393852" lon="11.2482913"><ele>266.6</ele><time>2026-04-04T14:09:34.83Z</time></trkpt><trkpt lat="43.3393089" lon="11.2482958"><ele>264.4</ele><time>2026-04-04T14:09:54.829Z</time></trkpt><trkpt lat="43.3392481" lon="11.2481716"><ele>262.2</ele><time>2026-04-04T14:09:56.83Z</time></trkpt><trkpt lat="43.3392024" lon="11.2480984"><ele>260.0</ele><time>2026-04-04T14:09:57.829Z</time></trkpt><trkpt lat="43.3391306" lon="11.2479695"><ele>260.0</ele><time>2026-04-04T14:09:59.83Z</time></trkpt><trkpt lat="43.3390344" lon="11.2478271"><ele>260.0</ele><time>2026-04-04T14:10:01.83Z</time></trkpt><trkpt lat="43.3389775" lon="11.2477381"><ele>260.0</ele><time>2026-04-04T14:10:02.831Z</time></trkpt><trkpt lat="43.3389329" lon="11.2476603"><ele>260.0</ele><time>2026-04-04T14:10:03.831Z</time></trkpt><trkpt lat="43.3388574" lon="11.2475504"><ele>260.0</ele><time>2026-04-04T14:10:05.829Z</time></trkpt><trkpt lat="43.3388119" lon="11.2474749"><ele>260.0</ele><time>2026-04-04T14:10:06.83Z</time></trkpt><trkpt lat="43.3387639" lon="11.2473681"><ele>260.0</ele><time>2026-04-04T14:10:07.83Z</time></trkpt><trkpt lat="43.3387149" lon="11.2472531"><ele>260.0</ele><time>2026-04-04T14:10:08.83Z</time></trkpt><trkpt lat="43.3386634" lon="11.2471132"><ele>260.0</ele><time>2026-04-04T14:10:09.83Z</time></trkpt><trkpt lat="43.3386069" lon="11.2469598"><ele>260.0</ele><time>2026-04-04T14:10:10.83Z</time></trkpt><trkpt lat="43.3385448" lon="11.2467937"><ele>260.0</ele><time>2026-04-04T14:10:11.831Z</time></trkpt><trkpt lat="43.3384788" lon="11.2466216"><ele>260.0</ele><time>2026-04-04T14:10:12.83Z</time></trkpt><trkpt lat="43.3384114" lon="11.2464343"><ele>260.0</ele><time>2026-04-04T14:10:13.831Z</time></trkpt><trkpt lat="43.3383464" lon="11.2462403"><ele>260.0</ele><time>2026-04-04T14:10:14.831Z</time></trkpt><trkpt lat="43.33829" lon="11.2460614"><ele>260.25</ele><time>2026-04-04T14:10:15.83Z</time></trkpt><trkpt lat="43.3382374" lon="11.2458882"><ele>260.5</ele><time>2026-04-04T14:10:16.83Z</time></trkpt><trkpt lat="43.3381907" lon="11.2457266"><ele>260.75</ele><time>2026-04-04T14:10:17.831Z</time></trkpt><trkpt lat="43.3381462" lon="11.2455692"><ele>261.0</ele><time>2026-04-04T14:10:18.831Z</time></trkpt><trkpt lat="43.3381029" lon="11.2454128"><ele>261.0</ele><time>2026-04-04T14:10:19.83Z</time></trkpt><trkpt lat="43.3380489" lon="11.2452553"><ele>261.0</ele><time>2026-04-04T14:10:20.831Z</time></trkpt><trkpt lat="43.338002" lon="11.2450949"><ele>261.0</ele><time>2026-04-04T14:10:21.83Z</time></trkpt><trkpt lat="43.3379532" lon="11.2449335"><ele>261.0</ele><time>2026-04-04T14:10:22.83Z</time></trkpt><trkpt lat="43.3379027" lon="11.2447732"><ele>261.0</ele><time>2026-04-04T14:10:23.83Z</time></trkpt><trkpt lat="43.3378503" lon="11.2446153"><ele>261.0</ele><time>2026-04-04T14:10:24.83Z</time></trkpt><trkpt lat="43.3377937" lon="11.2444593"><ele>261.0</ele><time>2026-04-04T14:10:25.83Z</time></trkpt><trkpt lat="43.3377303" lon="11.2443086"><ele>261.0</ele><time>2026-04-04T14:10:26.831Z</time></trkpt><trkpt lat="43.3376582" lon="11.2441656"><ele>261.0</ele><time>2026-04-04T14:10:27.83Z</time></trkpt><trkpt lat="43.3375779" lon="11.2440263"><ele>261.0</ele><time>2026-04-04T14:10:28.83Z</time></trkpt><trkpt lat="43.3374949" lon="11.2438928"><ele>261.0</ele><time>2026-04-04T14:10:29.83Z</time></trkpt><trkpt lat="43.3374073" lon="11.2437647"><ele>261.0</ele><time>2026-04-04T14:10:30.829Z</time></trkpt><trkpt lat="43.3373226" lon="11.2436426"><ele>260.75</ele><time>2026-04-04T14:10:31.831Z</time></trkpt><trkpt lat="43.3372381" lon="11.2435252"><ele>260.5</ele><time>2026-04-04T14:10:32.83Z</time></trkpt><trkpt lat="43.3371496" lon="11.2434106"><ele>260.25</ele><time>2026-04-04T14:10:33.829Z</time></trkpt><trkpt lat="43.3370573" lon="11.2433092"><ele>260.0</ele><time>2026-04-04T14:10:34.829Z</time></trkpt><trkpt lat="43.3369611" lon="11.2432131"><ele>260.5</ele><time>2026-04-04T14:10:35.831Z</time></trkpt><trkpt lat="43.3368586" lon="11.2431209"><ele>261.0</ele><time>2026-04-04T14:10:36.83Z</time></trkpt><trkpt lat="43.3367569" lon="11.2430341"><ele>261.5</ele><time>2026-04-04T14:10:37.831Z</time></trkpt><trkpt lat="43.3366581" lon="11.2429448"><ele>262.0</ele><time>2026-04-04T14:10:38.83Z</time></trkpt><trkpt lat="43.336554" lon="11.2428563"><ele>262.0</ele><time>2026-04-04T14:10:39.83Z</time></trkpt><trkpt lat="43.3364414" lon="11.2427654"><ele>262.0</ele><time>2026-04-04T14:10:40.83Z</time></trkpt><trkpt lat="43.3363278" lon="11.2426704"><ele>262.0</ele><time>2026-04-04T14:10:41.83Z</time></trkpt><trkpt lat="43.3362111" lon="11.2425887"><ele>262.0</ele><time>2026-04-04T14:10:42.83Z</time></trkpt><trkpt lat="43.3360916" lon="11.2425218"><ele>262.0</ele><time>2026-04-04T14:10:43.831Z</time></trkpt><trkpt lat="43.3359679" lon="11.242457"><ele>262.0</ele><time>2026-04-04T14:10:44.83Z</time></trkpt><trkpt lat="43.3358376" lon="11.2424066"><ele>262.0</ele><time>2026-04-04T14:10:45.831Z</time></trkpt><trkpt lat="43.3357046" lon="11.2423657"><ele>262.0</ele><time>2026-04-04T14:10:46.829Z</time></trkpt><trkpt lat="43.3355594" lon="11.2423301"><ele>262.0</ele><time>2026-04-04T14:10:47.831Z</time></trkpt><trkpt lat="43.3354171" lon="11.2423041"><ele>262.0</ele><time>2026-04-04T14:10:48.83Z</time></trkpt><trkpt lat="43.3352735" lon="11.2422885"><ele>262.0</ele><time>2026-04-04T14:10:49.831Z</time></trkpt><trkpt lat="43.3351271" lon="11.24229"><ele>262.0</ele><time>2026-04-04T14:10:50.83Z</time></trkpt><trkpt lat="43.33498" lon="11.2423029"><ele>262.0</ele><time>2026-04-04T14:10:51.83Z</time></trkpt><trkpt lat="43.334825" lon="11.242324"><ele>262.0</ele><time>2026-04-04T14:10:52.831Z</time></trkpt><trkpt lat="43.3346745" lon="11.2423489"><ele>262.0</ele><time>2026-04-04T14:10:53.829Z</time></trkpt><trkpt lat="43.3345232" lon="11.2423766"><ele>263.0</ele><time>2026-04-04T14:10:54.829Z</time></trkpt><trkpt lat="43.3343658" lon="11.2424125"><ele>264.0</ele><time>2026-04-04T14:10:55.831Z</time></trkpt><trkpt lat="43.3342142" lon="11.2424487"><ele>265.0</ele><time>2026-04-04T14:10:56.83Z</time></trkpt><trkpt lat="43.3340629" lon="11.2424812"><ele>265.0</ele><time>2026-04-04T14:10:57.83Z</time></trkpt><trkpt lat="43.3339157" lon="11.2425206"><ele>265.0</ele><time>2026-04-04T14:10:58.83Z</time></trkpt><trkpt lat="43.3337687" lon="11.2425559"><ele>265.0</ele><time>2026-04-04T14:10:59.83Z</time></trkpt><trkpt lat="43.3336244" lon="11.2425912"><ele>265.0</ele><time>2026-04-04T14:11:00.831Z</time></trkpt><trkpt lat="43.3334822" lon="11.2426284"><ele>265.5</ele><time>2026-04-04T14:11:01.83Z</time></trkpt><trkpt lat="43.3333381" lon="11.2426654"><ele>266.0</ele><time>2026-04-04T14:11:02.83Z</time></trkpt><trkpt lat="43.3331921" lon="11.2427083"><ele>266.5</ele><time>2026-04-04T14:11:03.831Z</time></trkpt><trkpt lat="43.333046" lon="11.2427456"><ele>267.0</ele><time>2026-04-04T14:11:04.83Z</time></trkpt><trkpt lat="43.3329001" lon="11.2427833"><ele>267.0</ele><time>2026-04-04T14:11:05.83Z</time></trkpt><trkpt lat="43.3327507" lon="11.2428097"><ele>267.0</ele><time>2026-04-04T14:11:06.831Z</time></trkpt><trkpt lat="43.3326073" lon="11.2428287"><ele>267.0</ele><time>2026-04-04T14:11:07.83Z</time></trkpt><trkpt lat="43.3324603" lon="11.2428407"><ele>267.0</ele><time>2026-04-04T14:11:08.829Z</time></trkpt><trkpt lat="43.3323087" lon="11.2428472"><ele>270.0</ele><time>2026-04-04T14:11:09.829Z</time></trkpt><trkpt lat="43.3321544" lon="11.242849"><ele>273.0</ele><time>2026-04-04T14:11:10.831Z</time></trkpt><trkpt lat="43.3320002" lon="11.2428531"><ele>276.0</ele><time>2026-04-04T14:11:11.829Z</time></trkpt><trkpt lat="43.3318418" lon="11.2428488"><ele>276.0</ele><time>2026-04-04T14:11:12.831Z</time></trkpt><trkpt lat="43.3316824" lon="11.2428423"><ele>276.0</ele><time>2026-04-04T14:11:13.831Z</time></trkpt><trkpt lat="43.3315373" lon="11.2428287"><ele>276.0</ele><time>2026-04-04T14:11:14.83Z</time></trkpt><trkpt lat="43.3314024" lon="11.2428077"><ele>276.0</ele><time>2026-04-04T14:11:15.83Z</time></trkpt><trkpt lat="43.3312738" lon="11.2427686"><ele>276.5</ele><time>2026-04-04T14:11:16.831Z</time></trkpt><trkpt lat="43.3311405" lon="11.2427088"><ele>277.0</ele><time>2026-04-04T14:11:17.829Z</time></trkpt><trkpt lat="43.3310039" lon="11.242637"><ele>277.5</ele><time>2026-04-04T14:11:18.829Z</time></trkpt><trkpt lat="43.3308608" lon="11.2425758"><ele>278.0</ele><time>2026-04-04T14:11:19.829Z</time></trkpt><trkpt lat="43.3307182" lon="11.2425229"><ele>278.0</ele><time>2026-04-04T14:11:20.829Z</time></trkpt><trkpt lat="43.3305786" lon="11.2424785"><ele>278.0</ele><time>2026-04-04T14:11:21.83Z</time></trkpt><trkpt lat="43.3304363" lon="11.2424513"><ele>278.0</ele><time>2026-04-04T14:11:22.83Z</time></trkpt><trkpt lat="43.3302947" lon="11.2424408"><ele>278.0</ele><time>2026-04-04T14:11:23.829Z</time></trkpt><trkpt lat="43.330151" lon="11.2424646"><ele>278.25</ele><time>2026-04-04T14:11:24.831Z</time></trkpt><trkpt lat="43.3300053" lon="11.2425021"><ele>278.5</ele><time>2026-04-04T14:11:25.831Z</time></trkpt><trkpt lat="43.3298713" lon="11.2425503"><ele>278.75</ele><time>2026-04-04T14:11:26.83Z</time></trkpt><trkpt lat="43.3297355" lon="11.2426064"><ele>279.0</ele><time>2026-04-04T14:11:27.831Z</time></trkpt><trkpt lat="43.3295965" lon="11.242679"><ele>280.0</ele><time>2026-04-04T14:11:28.831Z</time></trkpt><trkpt lat="43.3294438" lon="11.2427609"><ele>281.0</ele><time>2026-04-04T14:11:29.83Z</time></trkpt><trkpt lat="43.3292971" lon="11.242848"><ele>282.0</ele><time>2026-04-04T14:11:30.829Z</time></trkpt><trkpt lat="43.3291502" lon="11.242929"><ele>282.0</ele><time>2026-04-04T14:11:31.83Z</time></trkpt><trkpt lat="43.3290036" lon="11.2430059"><ele>282.0</ele><time>2026-04-04T14:11:32.829Z</time></trkpt><trkpt lat="43.3288578" lon="11.2430723"><ele>282.0</ele><time>2026-04-04T14:11:33.831Z</time></trkpt><trkpt lat="43.3287258" lon="11.2431296"><ele>282.0</ele><time>2026-04-04T14:11:34.829Z</time></trkpt><trkpt lat="43.3286051" lon="11.2431798"><ele>280.8</ele><time>2026-04-04T14:11:35.83Z</time></trkpt><trkpt lat="43.3285001" lon="11.2432103"><ele>279.6</ele><time>2026-04-04T14:11:36.831Z</time></trkpt><trkpt lat="43.3284024" lon="11.2432133"><ele>278.40000000000003</ele><time>2026-04-04T14:11:37.831Z</time></trkpt><trkpt lat="43.3283095" lon="11.2431789"><ele>277.2</ele><time>2026-04-04T14:11:38.831Z</time></trkpt><trkpt lat="43.3282126" lon="11.2431081"><ele>276.0</ele><time>2026-04-04T14:11:39.831Z</time></trkpt><trkpt lat="43.3281092" lon="11.2430442"><ele>277.0</ele><time>2026-04-04T14:11:40.83Z</time></trkpt><trkpt lat="43.3280099" lon="11.242963"><ele>278.0</ele><time>2026-04-04T14:11:41.831Z</time></trkpt><trkpt lat="43.3278999" lon="11.2428641"><ele>279.0</ele><time>2026-04-04T14:11:42.831Z</time></trkpt><trkpt lat="43.3278291" lon="11.2427257"><ele>280.0</ele><time>2026-04-04T14:11:43.83Z</time></trkpt><trkpt lat="43.3277372" lon="11.242606"><ele>280.0</ele><time>2026-04-04T14:11:44.83Z</time></trkpt><trkpt lat="43.3276632" lon="11.2424697"><ele>280.0</ele><time>2026-04-04T14:11:45.83Z</time></trkpt><trkpt lat="43.3275872" lon="11.2423528"><ele>280.0</ele><time>2026-04-04T14:11:46.831Z</time></trkpt><trkpt lat="43.3275042" lon="11.2422611"><ele>280.0</ele><time>2026-04-04T14:11:47.83Z</time></trkpt><trkpt lat="43.3274114" lon="11.2421807"><ele>279.8</ele><time>2026-04-04T14:11:48.83Z</time></trkpt><trkpt lat="43.3273152" lon="11.2421133"><ele>279.6</ele><time>2026-04-04T14:11:49.829Z</time></trkpt><trkpt lat="43.3272115" lon="11.2420574"><ele>279.4</ele><time>2026-04-04T14:11:50.829Z</time></trkpt><trkpt lat="43.3271069" lon="11.2420242"><ele>279.2</ele><time>2026-04-04T14:11:51.83Z</time></trkpt><trkpt lat="43.3270176" lon="11.2420051"><ele>279.0</ele><time>2026-04-04T14:11:52.83Z</time></trkpt><trkpt lat="43.3269382" lon="11.2419806"><ele>280.1666666666667</ele><time>2026-04-04T14:11:53.829Z</time></trkpt><trkpt lat="43.3268615" lon="11.2419457"><ele>281.3333333333333</ele><time>2026-04-04T14:11:54.829Z</time></trkpt><trkpt lat="43.3267831" lon="11.241909"><ele>282.5</ele><time>2026-04-04T14:11:55.829Z</time></trkpt><trkpt lat="43.3267101" lon="11.2418449"><ele>283.66666666666663</ele><time>2026-04-04T14:11:56.83Z</time></trkpt><trkpt lat="43.3266463" lon="11.2417776"><ele>284.8333333333333</ele><time>2026-04-04T14:11:57.831Z</time></trkpt><trkpt lat="43.3265957" lon="11.2417214"><ele>286.0</ele><time>2026-04-04T14:11:58.83Z</time></trkpt><trkpt lat="43.3265101" lon="11.2416952"><ele>285.99999999999994</ele><time>2026-04-04T14:12:00.83Z</time></trkpt><trkpt lat="43.3264796" lon="11.2417942"><ele>286.0</ele><time>2026-04-04T14:12:03.831Z</time></trkpt><trkpt lat="43.3265012" lon="11.2418856"><ele>286.0</ele><time>2026-04-04T14:12:04.83Z</time></trkpt><trkpt lat="43.3265134" lon="11.2419884"><ele>286.0</ele><time>2026-04-04T14:12:05.83Z</time></trkpt><trkpt lat="43.3265096" lon="11.2420816"><ele>286.0</ele><time>2026-04-04T14:12:06.831Z</time></trkpt><trkpt lat="43.326503" lon="11.2421782"><ele>285.99999999999994</ele><time>2026-04-04T14:12:07.831Z</time></trkpt><trkpt lat="43.3264941" lon="11.2422707"><ele>286.0</ele><time>2026-04-04T14:12:08.831Z</time></trkpt><trkpt lat="43.3264888" lon="11.2423635"><ele>286.16666666666663</ele><time>2026-04-04T14:12:09.831Z</time></trkpt><trkpt lat="43.3264826" lon="11.2424583"><ele>286.3333333333333</ele><time>2026-04-04T14:12:10.83Z</time></trkpt><trkpt lat="43.3264781" lon="11.2425514"><ele>286.5</ele><time>2026-04-04T14:12:11.831Z</time></trkpt><trkpt lat="43.3264697" lon="11.2426478"><ele>286.6666666666667</ele><time>2026-04-04T14:12:12.829Z</time></trkpt><trkpt lat="43.3264625" lon="11.2427361"><ele>286.83333333333337</ele><time>2026-04-04T14:12:13.83Z</time></trkpt><trkpt lat="43.3264458" lon="11.2428914"><ele>287.0</ele><time>2026-04-04T14:12:15.83Z</time></trkpt><trkpt lat="43.3264418" lon="11.2430003"><ele>287.0</ele><time>2026-04-04T14:12:16.831Z</time></trkpt><trkpt lat="43.3264374" lon="11.2431179"><ele>287.0</ele><time>2026-04-04T14:12:17.831Z</time></trkpt><trkpt lat="43.3264375" lon="11.2432367"><ele>287.0</ele><time>2026-04-04T14:12:18.83Z</time></trkpt><trkpt lat="43.3264317" lon="11.2433561"><ele>287.0</ele><time>2026-04-04T14:12:19.83Z</time></trkpt><trkpt lat="43.3264264" lon="11.2434731"><ele>287.0</ele><time>2026-04-04T14:12:20.829Z</time></trkpt><trkpt lat="43.3264272" lon="11.2435853"><ele>287.0</ele><time>2026-04-04T14:12:21.831Z</time></trkpt><trkpt lat="43.3264211" lon="11.2436983"><ele>286.6</ele><time>2026-04-04T14:12:22.831Z</time></trkpt><trkpt lat="43.3264188" lon="11.2438178"><ele>286.2</ele><time>2026-04-04T14:12:23.829Z</time></trkpt><trkpt lat="43.3264156" lon="11.243947"><ele>285.8</ele><time>2026-04-04T14:12:24.831Z</time></trkpt><trkpt lat="43.3264126" lon="11.2440669"><ele>285.4</ele><time>2026-04-04T14:12:25.83Z</time></trkpt><trkpt lat="43.3264096" lon="11.2441819"><ele>285.0</ele><time>2026-04-04T14:12:26.831Z</time></trkpt><trkpt lat="43.326409" lon="11.2443198"><ele>285.0</ele><time>2026-04-04T14:12:27.83Z</time></trkpt><trkpt lat="43.3264079" lon="11.2444545"><ele>285.0</ele><time>2026-04-04T14:12:28.83Z</time></trkpt><trkpt lat="43.3264023" lon="11.2445932"><ele>285.0</ele><time>2026-04-04T14:12:29.83Z</time></trkpt><trkpt lat="43.326396" lon="11.2447292"><ele>285.0</ele><time>2026-04-04T14:12:30.829Z</time></trkpt><trkpt lat="43.3263913" lon="11.2448659"><ele>285.0</ele><time>2026-04-04T14:12:31.83Z</time></trkpt><trkpt lat="43.326383" lon="11.2449999"><ele>285.0</ele><time>2026-04-04T14:12:32.83Z</time></trkpt><trkpt lat="43.3263747" lon="11.2451452"><ele>285.0</ele><time>2026-04-04T14:12:33.83Z</time></trkpt><trkpt lat="43.3263552" lon="11.2452912"><ele>285.0</ele><time>2026-04-04T14:12:34.829Z</time></trkpt><trkpt lat="43.3263561" lon="11.2454282"><ele>285.0</ele><time>2026-04-04T14:12:35.83Z</time></trkpt><trkpt lat="43.3263465" lon="11.2455623"><ele>285.0</ele><time>2026-04-04T14:12:36.829Z</time></trkpt><trkpt lat="43.3263432" lon="11.2456847"><ele>283.3333333333333</ele><time>2026-04-04T14:12:37.831Z</time></trkpt><trkpt lat="43.326344" lon="11.2457961"><ele>281.6666666666667</ele><time>2026-04-04T14:12:38.83Z</time></trkpt><trkpt lat="43.3263239" lon="11.2459332"><ele>280.0</ele><time>2026-04-04T14:12:39.83Z</time></trkpt><trkpt lat="43.3263169" lon="11.2460245"><ele>278.33333333333337</ele><time>2026-04-04T14:12:40.83Z</time></trkpt><trkpt lat="43.3263029" lon="11.2461474"><ele>276.6666666666667</ele><time>2026-04-04T14:12:41.831Z</time></trkpt><trkpt lat="43.3262877" lon="11.2462681"><ele>275.0</ele><time>2026-04-04T14:12:42.831Z</time></trkpt><trkpt lat="43.326249" lon="11.2464034"><ele>273.2</ele><time>2026-04-04T14:12:43.83Z</time></trkpt><trkpt lat="43.3261989" lon="11.2465258"><ele>271.4</ele><time>2026-04-04T14:12:44.83Z</time></trkpt><trkpt lat="43.3261451" lon="11.2466468"><ele>269.6</ele><time>2026-04-04T14:12:45.831Z</time></trkpt><trkpt lat="43.3260831" lon="11.2467701"><ele>267.8</ele><time>2026-04-04T14:12:46.83Z</time></trkpt><trkpt lat="43.326012" lon="11.2468847"><ele>266.0</ele><time>2026-04-04T14:12:47.831Z</time></trkpt><trkpt lat="43.3259458" lon="11.2469879"><ele>266.0</ele><time>2026-04-04T14:12:48.829Z</time></trkpt><trkpt lat="43.3258758" lon="11.2470938"><ele>266.0</ele><time>2026-04-04T14:12:49.83Z</time></trkpt><trkpt lat="43.3258053" lon="11.2471989"><ele>266.0</ele><time>2026-04-04T14:12:50.83Z</time></trkpt><trkpt lat="43.3257413" lon="11.2472945"><ele>266.0</ele><time>2026-04-04T14:12:51.831Z</time></trkpt><trkpt lat="43.3256692" lon="11.2473872"><ele>266.0</ele><time>2026-04-04T14:12:52.831Z</time></trkpt><trkpt lat="43.3255962" lon="11.2474712"><ele>265.40000000000003</ele><time>2026-04-04T14:12:53.831Z</time></trkpt><trkpt lat="43.3255078" lon="11.2475821"><ele>264.8</ele><time>2026-04-04T14:12:54.831Z</time></trkpt><trkpt lat="43.3254339" lon="11.2476783"><ele>264.20000000000005</ele><time>2026-04-04T14:12:55.83Z</time></trkpt><trkpt lat="43.3253657" lon="11.2477764"><ele>263.6</ele><time>2026-04-04T14:12:56.831Z</time></trkpt><trkpt lat="43.3252916" lon="11.247881"><ele>263.0</ele><time>2026-04-04T14:12:57.831Z</time></trkpt><trkpt lat="43.325221" lon="11.2479908"><ele>263.0</ele><time>2026-04-04T14:12:58.83Z</time></trkpt><trkpt lat="43.3251493" lon="11.2481033"><ele>263.0</ele><time>2026-04-04T14:12:59.831Z</time></trkpt><trkpt lat="43.325084" lon="11.2482166"><ele>263.0</ele><time>2026-04-04T14:13:00.83Z</time></trkpt><trkpt lat="43.3250162" lon="11.2483409"><ele>263.0</ele><time>2026-04-04T14:13:01.83Z</time></trkpt><trkpt lat="43.3249474" lon="11.2484649"><ele>263.0</ele><time>2026-04-04T14:13:02.829Z</time></trkpt><trkpt lat="43.3248756" lon="11.2485984"><ele>262.2</ele><time>2026-04-04T14:13:03.831Z</time></trkpt><trkpt lat="43.3248099" lon="11.2487242"><ele>261.4</ele><time>2026-04-04T14:13:04.83Z</time></trkpt><trkpt lat="43.3247424" lon="11.2488553"><ele>260.59999999999997</ele><time>2026-04-04T14:13:05.831Z</time></trkpt><trkpt lat="43.3246784" lon="11.2489765"><ele>259.8</ele><time>2026-04-04T14:13:06.829Z</time></trkpt><trkpt lat="43.3246156" lon="11.2491022"><ele>259.0</ele><time>2026-04-04T14:13:07.83Z</time></trkpt><trkpt lat="43.3245489" lon="11.2492307"><ele>259.0</ele><time>2026-04-04T14:13:08.83Z</time></trkpt><trkpt lat="43.3244901" lon="11.2493536"><ele>259.0</ele><time>2026-04-04T14:13:09.831Z</time></trkpt><trkpt lat="43.3244328" lon="11.2494713"><ele>259.0</ele><time>2026-04-04T14:13:10.83Z</time></trkpt><trkpt lat="43.324382" lon="11.2495871"><ele>259.0</ele><time>2026-04-04T14:13:11.83Z</time></trkpt><trkpt lat="43.3243325" lon="11.2497006"><ele>259.0</ele><time>2026-04-04T14:13:12.83Z</time></trkpt><trkpt lat="43.3242899" lon="11.2498143"><ele>258.2</ele><time>2026-04-04T14:13:13.831Z</time></trkpt><trkpt lat="43.3242486" lon="11.249927"><ele>257.4</ele><time>2026-04-04T14:13:14.83Z</time></trkpt><trkpt lat="43.3242059" lon="11.25005"><ele>256.6</ele><time>2026-04-04T14:13:15.83Z</time></trkpt><trkpt lat="43.3241724" lon="11.2501724"><ele>255.8</ele><time>2026-04-04T14:13:16.83Z</time></trkpt><trkpt lat="43.3241397" lon="11.2502987"><ele>255.0</ele><time>2026-04-04T14:13:17.831Z</time></trkpt><trkpt lat="43.3241093" lon="11.2504271"><ele>255.0</ele><time>2026-04-04T14:13:18.83Z</time></trkpt><trkpt lat="43.3240786" lon="11.2505601"><ele>255.0</ele><time>2026-04-04T14:13:19.83Z</time></trkpt><trkpt lat="43.3240475" lon="11.2506873"><ele>255.0</ele><time>2026-04-04T14:13:20.831Z</time></trkpt><trkpt lat="43.3240134" lon="11.25081"><ele>255.0</ele><time>2026-04-04T14:13:21.83Z</time></trkpt><trkpt lat="43.3239705" lon="11.2509305"><ele>255.0</ele><time>2026-04-04T14:13:22.83Z</time></trkpt><trkpt lat="43.3239175" lon="11.2510396"><ele>255.6</ele><time>2026-04-04T14:13:23.831Z</time></trkpt><trkpt lat="43.3238552" lon="11.251136"><ele>256.2</ele><time>2026-04-04T14:13:24.831Z</time></trkpt><trkpt lat="43.3237781" lon="11.2512253"><ele>256.8</ele><time>2026-04-04T14:13:25.83Z</time></trkpt><trkpt lat="43.3236973" lon="11.2513089"><ele>257.4</ele><time>2026-04-04T14:13:26.829Z</time></trkpt><trkpt lat="43.3236145" lon="11.2513962"><ele>258.0</ele><time>2026-04-04T14:13:27.831Z</time></trkpt><trkpt lat="43.3235294" lon="11.2514809"><ele>258.0</ele><time>2026-04-04T14:13:28.83Z</time></trkpt><trkpt lat="43.3234483" lon="11.2515628"><ele>258.0</ele><time>2026-04-04T14:13:29.829Z</time></trkpt><trkpt lat="43.3233658" lon="11.2516475"><ele>258.0</ele><time>2026-04-04T14:13:30.83Z</time></trkpt><trkpt lat="43.3232882" lon="11.2517273"><ele>258.0</ele><time>2026-04-04T14:13:31.83Z</time></trkpt><trkpt lat="43.3232128" lon="11.2518097"><ele>258.0</ele><time>2026-04-04T14:13:32.831Z</time></trkpt><trkpt lat="43.3231346" lon="11.2518892"><ele>258.6</ele><time>2026-04-04T14:13:33.831Z</time></trkpt><trkpt lat="43.32306" lon="11.2519705"><ele>259.20000000000005</ele><time>2026-04-04T14:13:34.83Z</time></trkpt><trkpt lat="43.3229914" lon="11.2520562"><ele>259.8</ele><time>2026-04-04T14:13:35.831Z</time></trkpt><trkpt lat="43.3229307" lon="11.2521474"><ele>260.40000000000003</ele><time>2026-04-04T14:13:36.829Z</time></trkpt><trkpt lat="43.3228702" lon="11.2522421"><ele>261.0</ele><time>2026-04-04T14:13:37.831Z</time></trkpt><trkpt lat="43.3228125" lon="11.2523371"><ele>261.0</ele><time>2026-04-04T14:13:38.831Z</time></trkpt><trkpt lat="43.3227529" lon="11.2524341"><ele>261.0</ele><time>2026-04-04T14:13:39.829Z</time></trkpt><trkpt lat="43.3226912" lon="11.2525346"><ele>261.0</ele><time>2026-04-04T14:13:40.831Z</time></trkpt><trkpt lat="43.3226358" lon="11.2526311"><ele>261.0</ele><time>2026-04-04T14:13:41.829Z</time></trkpt><trkpt lat="43.3225788" lon="11.2527303"><ele>261.0</ele><time>2026-04-04T14:13:42.831Z</time></trkpt><trkpt lat="43.322524" lon="11.252825"><ele>261.0</ele><time>2026-04-04T14:13:43.829Z</time></trkpt><trkpt lat="43.3224667" lon="11.2529206"><ele>261.0</ele><time>2026-04-04T14:13:44.829Z</time></trkpt><trkpt lat="43.3224126" lon="11.2530123"><ele>261.0</ele><time>2026-04-04T14:13:45.83Z</time></trkpt><trkpt lat="43.3223624" lon="11.2531045"><ele>261.0</ele><time>2026-04-04T14:13:46.83Z</time></trkpt><trkpt lat="43.3223163" lon="11.2531938"><ele>261.0</ele><time>2026-04-04T14:13:47.83Z</time></trkpt><trkpt lat="43.3222664" lon="11.2532841"><ele>261.0</ele><time>2026-04-04T14:13:48.83Z</time></trkpt><trkpt lat="43.3222226" lon="11.2533706"><ele>261.7142857142857</ele><time>2026-04-04T14:13:49.83Z</time></trkpt><trkpt lat="43.3221795" lon="11.2534538"><ele>262.42857142857144</ele><time>2026-04-04T14:13:50.83Z</time></trkpt><trkpt lat="43.3221388" lon="11.2535423"><ele>263.1428571428571</ele><time>2026-04-04T14:13:51.831Z</time></trkpt><trkpt lat="43.3220992" lon="11.2536345"><ele>263.8571428571429</ele><time>2026-04-04T14:13:52.83Z</time></trkpt><trkpt lat="43.3220631" lon="11.2537222"><ele>264.57142857142856</ele><time>2026-04-04T14:13:53.831Z</time></trkpt><trkpt lat="43.3220289" lon="11.2537955"><ele>265.2857142857143</ele><time>2026-04-04T14:13:54.831Z</time></trkpt><trkpt lat="43.3219956" lon="11.2538762"><ele>266.0</ele><time>2026-04-04T14:13:55.83Z</time></trkpt><trkpt lat="43.3219408" lon="11.2540157"><ele>266.0</ele><time>2026-04-04T14:13:57.83Z</time></trkpt><trkpt lat="43.3218886" lon="11.2541082"><ele>266.0</ele><time>2026-04-04T14:14:00.831Z</time></trkpt><trkpt lat="43.3218233" lon="11.2541584"><ele>266.0</ele><time>2026-04-04T14:14:03.83Z</time></trkpt><trkpt lat="43.3217843" lon="11.254044"><ele>266.0</ele><time>2026-04-04T14:15:50.83Z</time></trkpt><trkpt lat="43.3217391" lon="11.2539645"><ele>266.0</ele><time>2026-04-04T14:15:52.83Z</time></trkpt><trkpt lat="43.3216522" lon="11.2538772"><ele>266.0</ele><time>2026-04-04T14:15:54.83Z</time></trkpt><trkpt lat="43.3215982" lon="11.2538199"><ele>266.0</ele><time>2026-04-04T14:15:55.829Z</time></trkpt><trkpt lat="43.3215082" lon="11.2536761"><ele>266.0</ele><time>2026-04-04T14:15:57.828Z</time></trkpt><trkpt lat="43.3214562" lon="11.2535889"><ele>266.0</ele><time>2026-04-04T14:15:58.829Z</time></trkpt><trkpt lat="43.3214036" lon="11.2534816"><ele>266.0</ele><time>2026-04-04T14:15:59.828Z</time></trkpt><trkpt lat="43.3213258" lon="11.2533783"><ele>266.0</ele><time>2026-04-04T14:16:00.828Z</time></trkpt><trkpt lat="43.3212677" lon="11.2532858"><ele>266.83333333333337</ele><time>2026-04-04T14:16:01.83Z</time></trkpt><trkpt lat="43.3212178" lon="11.2531932"><ele>267.6666666666667</ele><time>2026-04-04T14:16:02.829Z</time></trkpt><trkpt lat="43.321167" lon="11.2530953"><ele>268.5</ele><time>2026-04-04T14:16:03.83Z</time></trkpt><trkpt lat="43.3211195" lon="11.2529941"><ele>269.3333333333333</ele><time>2026-04-04T14:16:04.829Z</time></trkpt><trkpt lat="43.3210719" lon="11.2528846"><ele>270.16666666666663</ele><time>2026-04-04T14:16:05.83Z</time></trkpt><trkpt lat="43.3210231" lon="11.2527874"><ele>271.0</ele><time>2026-04-04T14:16:06.829Z</time></trkpt><trkpt lat="43.3209665" lon="11.2526917"><ele>271.0</ele><time>2026-04-04T14:16:07.829Z</time></trkpt><trkpt lat="43.320917" lon="11.252599"><ele>271.0</ele><time>2026-04-04T14:16:08.829Z</time></trkpt><trkpt lat="43.3208712" lon="11.2524995"><ele>271.0</ele><time>2026-04-04T14:16:09.83Z</time></trkpt><trkpt lat="43.3208269" lon="11.2524193"><ele>271.0</ele><time>2026-04-04T14:16:10.829Z</time></trkpt><trkpt lat="43.320789" lon="11.252342"><ele>271.0</ele><time>2026-04-04T14:16:11.829Z</time></trkpt><trkpt lat="43.3207059" lon="11.252211"><ele>271.0</ele><time>2026-04-04T14:16:13.83Z</time></trkpt><trkpt lat="43.3206493" lon="11.2521196"><ele>270.40000000000003</ele><time>2026-04-04T14:16:14.83Z</time></trkpt><trkpt lat="43.320588" lon="11.2520154"><ele>269.8</ele><time>2026-04-04T14:16:15.829Z</time></trkpt><trkpt lat="43.3205303" lon="11.2519131"><ele>269.20000000000005</ele><time>2026-04-04T14:16:16.83Z</time></trkpt><trkpt lat="43.3204714" lon="11.2518224"><ele>268.6</ele><time>2026-04-04T14:16:17.83Z</time></trkpt><trkpt lat="43.3204218" lon="11.25176"><ele>268.0</ele><time>2026-04-04T14:16:18.829Z</time></trkpt><trkpt lat="43.3203549" lon="11.2516446"><ele>269.2</ele><time>2026-04-04T14:16:19.829Z</time></trkpt><trkpt lat="43.3202947" lon="11.2515436"><ele>270.4</ele><time>2026-04-04T14:16:20.829Z</time></trkpt><trkpt lat="43.3202368" lon="11.2514493"><ele>271.59999999999997</ele><time>2026-04-04T14:16:21.829Z</time></trkpt><trkpt lat="43.320178" lon="11.2513684"><ele>272.8</ele><time>2026-04-04T14:16:22.829Z</time></trkpt><trkpt lat="43.3201086" lon="11.2512756"><ele>274.0</ele><time>2026-04-04T14:16:23.83Z</time></trkpt><trkpt lat="43.3200364" lon="11.251182"><ele>274.0</ele><time>2026-04-04T14:16:24.828Z</time></trkpt><trkpt lat="43.3199668" lon="11.251092"><ele>274.0</ele><time>2026-04-04T14:16:25.83Z</time></trkpt><trkpt lat="43.3198967" lon="11.2509901"><ele>274.0</ele><time>2026-04-04T14:16:26.829Z</time></trkpt><trkpt lat="43.3198212" lon="11.2508893"><ele>274.0</ele><time>2026-04-04T14:16:27.83Z</time></trkpt><trkpt lat="43.3197618" lon="11.2507962"><ele>274.0</ele><time>2026-04-04T14:16:28.829Z</time></trkpt><trkpt lat="43.3196974" lon="11.2507233"><ele>275.28571428571433</ele><time>2026-04-04T14:16:29.829Z</time></trkpt><trkpt lat="43.31964" lon="11.2506485"><ele>276.57142857142856</ele><time>2026-04-04T14:16:30.829Z</time></trkpt><trkpt lat="43.3195916" lon="11.2505671"><ele>277.8571428571429</ele><time>2026-04-04T14:16:31.828Z</time></trkpt><trkpt lat="43.3195452" lon="11.2505019"><ele>279.14285714285717</ele><time>2026-04-04T14:16:32.83Z</time></trkpt><trkpt lat="43.3194964" lon="11.2504279"><ele>280.42857142857144</ele><time>2026-04-04T14:16:33.828Z</time></trkpt><trkpt lat="43.3194472" lon="11.2503473"><ele>281.7142857142857</ele><time>2026-04-04T14:16:34.829Z</time></trkpt><trkpt lat="43.3194029" lon="11.2502685"><ele>283.0</ele><time>2026-04-04T14:16:35.828Z</time></trkpt><trkpt lat="43.3192846" lon="11.2501901"><ele>283.0</ele><time>2026-04-04T14:16:37.829Z</time></trkpt><trkpt lat="43.3191903" lon="11.250089"><ele>283.0</ele><time>2026-04-04T14:16:39.829Z</time></trkpt><trkpt lat="43.3191356" lon="11.2499444"><ele>283.0</ele><time>2026-04-04T14:16:41.829Z</time></trkpt><trkpt lat="43.3190959" lon="11.2498416"><ele>283.0</ele><time>2026-04-04T14:16:43.83Z</time></trkpt><trkpt lat="43.319001" lon="11.2498073"><ele>283.0</ele><time>2026-04-04T14:16:46.83Z</time></trkpt><trkpt lat="43.318921" lon="11.2498216"><ele>283.6</ele><time>2026-04-04T14:16:47.829Z</time></trkpt><trkpt lat="43.318839" lon="11.2498366"><ele>284.20000000000005</ele><time>2026-04-04T14:16:48.828Z</time></trkpt><trkpt lat="43.3187695" lon="11.2498483"><ele>284.8</ele><time>2026-04-04T14:16:49.828Z</time></trkpt><trkpt lat="43.3186476" lon="11.2498208"><ele>285.40000000000003</ele><time>2026-04-04T14:16:51.828Z</time></trkpt><trkpt lat="43.3185325" lon="11.2497508"><ele>286.0</ele><time>2026-04-04T14:16:53.829Z</time></trkpt><trkpt lat="43.3184644" lon="11.2497003"><ele>287.16666666666663</ele><time>2026-04-04T14:16:54.829Z</time></trkpt><trkpt lat="43.3183856" lon="11.2496389"><ele>288.3333333333333</ele><time>2026-04-04T14:16:55.829Z</time></trkpt><trkpt lat="43.3183129" lon="11.2495914"><ele>289.5</ele><time>2026-04-04T14:16:56.83Z</time></trkpt><trkpt lat="43.3182474" lon="11.2495391"><ele>290.6666666666667</ele><time>2026-04-04T14:16:57.829Z</time></trkpt><trkpt lat="43.3181779" lon="11.2494928"><ele>291.83333333333337</ele><time>2026-04-04T14:16:58.83Z</time></trkpt><trkpt lat="43.3181078" lon="11.2494514"><ele>293.0</ele><time>2026-04-04T14:16:59.828Z</time></trkpt><trkpt lat="43.3180403" lon="11.2494134"><ele>293.2</ele><time>2026-04-04T14:17:00.829Z</time></trkpt><trkpt lat="43.3179281" lon="11.2493651"><ele>293.4</ele><time>2026-04-04T14:17:02.829Z</time></trkpt><trkpt lat="43.3178338" lon="11.2493371"><ele>293.59999999999997</ele><time>2026-04-04T14:17:04.828Z</time></trkpt><trkpt lat="43.3177163" lon="11.249337"><ele>293.8</ele><time>2026-04-04T14:17:06.829Z</time></trkpt><trkpt lat="43.3176441" lon="11.2493438"><ele>294.0</ele><time>2026-04-04T14:17:07.829Z</time></trkpt><trkpt lat="43.3175801" lon="11.2493342"><ele>294.0</ele><time>2026-04-04T14:17:08.829Z</time></trkpt><trkpt lat="43.3175073" lon="11.2493251"><ele>294.0</ele><time>2026-04-04T14:17:09.829Z</time></trkpt><trkpt lat="43.3173936" lon="11.2493093"><ele>294.0</ele><time>2026-04-04T14:17:11.83Z</time></trkpt><trkpt lat="43.3173308" lon="11.2492979"><ele>294.0</ele><time>2026-04-04T14:17:12.829Z</time></trkpt><trkpt lat="43.3172203" lon="11.249246"><ele>294.0</ele><time>2026-04-04T14:17:14.83Z</time></trkpt><trkpt lat="43.3171108" lon="11.249227"><ele>294.2</ele><time>2026-04-04T14:17:16.829Z</time></trkpt><trkpt lat="43.3170211" lon="11.2491466"><ele>294.4</ele><time>2026-04-04T14:17:18.829Z</time></trkpt><trkpt lat="43.3169378" lon="11.2490619"><ele>294.6</ele><time>2026-04-04T14:17:20.829Z</time></trkpt><trkpt lat="43.3168293" lon="11.2489934"><ele>294.8</ele><time>2026-04-04T14:17:22.83Z</time></trkpt><trkpt lat="43.3167377" lon="11.2489124"><ele>295.0</ele><time>2026-04-04T14:17:24.828Z</time></trkpt><trkpt lat="43.316634" lon="11.2488711"><ele>296.4</ele><time>2026-04-04T14:17:26.829Z</time></trkpt><trkpt lat="43.3165304" lon="11.2488336"><ele>297.8</ele><time>2026-04-04T14:17:28.829Z</time></trkpt><trkpt lat="43.3164344" lon="11.2487683"><ele>299.2</ele><time>2026-04-04T14:17:30.829Z</time></trkpt><trkpt lat="43.3163244" lon="11.2487207"><ele>300.6</ele><time>2026-04-04T14:17:32.83Z</time></trkpt><trkpt lat="43.3162258" lon="11.2486607"><ele>302.0</ele><time>2026-04-04T14:17:34.828Z</time></trkpt><trkpt lat="43.3161187" lon="11.2485823"><ele>302.2</ele><time>2026-04-04T14:17:36.829Z</time></trkpt><trkpt lat="43.3160115" lon="11.2485051"><ele>302.4</ele><time>2026-04-04T14:17:38.829Z</time></trkpt><trkpt lat="43.3159266" lon="11.2484262"><ele>302.6</ele><time>2026-04-04T14:17:40.828Z</time></trkpt><trkpt lat="43.3158392" lon="11.2483306"><ele>302.8</ele><time>2026-04-04T14:17:42.83Z</time></trkpt><trkpt lat="43.3157632" lon="11.2482631"><ele>303.0</ele><time>2026-04-04T14:17:44.828Z</time></trkpt><trkpt lat="43.3156999" lon="11.2482296"><ele>303.0</ele><time>2026-04-04T14:17:48.83Z</time></trkpt><trkpt lat="43.3156139" lon="11.2481539"><ele>303.0</ele><time>2026-04-04T14:18:12.828Z</time></trkpt><trkpt lat="43.315505" lon="11.2480756"><ele>303.0</ele><time>2026-04-04T14:18:14.83Z</time></trkpt><trkpt lat="43.3154451" lon="11.2480475"><ele>303.0</ele><time>2026-04-04T14:18:15.829Z</time></trkpt><trkpt lat="43.3153733" lon="11.2480214"><ele>303.0</ele><time>2026-04-04T14:18:16.829Z</time></trkpt><trkpt lat="43.3153058" lon="11.2479879"><ele>303.0</ele><time>2026-04-04T14:18:17.829Z</time></trkpt><trkpt lat="43.3152466" lon="11.2479411"><ele>304.0</ele><time>2026-04-04T14:18:18.828Z</time></trkpt><trkpt lat="43.3151356" lon="11.2478879"><ele>305.0</ele><time>2026-04-04T14:18:20.828Z</time></trkpt><trkpt lat="43.3150085" lon="11.2479005"><ele>306.0</ele><time>2026-04-04T14:18:22.829Z</time></trkpt><trkpt lat="43.3149391" lon="11.2479098"><ele>307.0</ele><time>2026-04-04T14:18:23.829Z</time></trkpt><trkpt lat="43.3148759" lon="11.2479208"><ele>308.0</ele><time>2026-04-04T14:18:24.83Z</time></trkpt><trkpt lat="43.3148078" lon="11.2479315"><ele>309.0</ele><time>2026-04-04T14:18:25.83Z</time></trkpt><trkpt lat="43.3147515" lon="11.2478801"><ele>309.7142857142857</ele><time>2026-04-04T14:18:27.828Z</time></trkpt><trkpt lat="43.3147012" lon="11.2478132"><ele>310.42857142857144</ele><time>2026-04-04T14:18:28.829Z</time></trkpt><trkpt lat="43.3146481" lon="11.2477571"><ele>311.1428571428571</ele><time>2026-04-04T14:18:29.829Z</time></trkpt><trkpt lat="43.3145923" lon="11.2477026"><ele>311.8571428571429</ele><time>2026-04-04T14:18:30.828Z</time></trkpt><trkpt lat="43.3145182" lon="11.2476383"><ele>312.57142857142856</ele><time>2026-04-04T14:18:31.829Z</time></trkpt><trkpt lat="43.3144604" lon="11.2475921"><ele>313.2857142857143</ele><time>2026-04-04T14:18:32.829Z</time></trkpt><trkpt lat="43.314404" lon="11.2475473"><ele>314.0</ele><time>2026-04-04T14:18:33.829Z</time></trkpt><trkpt lat="43.3143408" lon="11.2475008"><ele>314.0</ele><time>2026-04-04T14:18:34.829Z</time></trkpt><trkpt lat="43.3142537" lon="11.2474386"><ele>314.0</ele><time>2026-04-04T14:18:36.828Z</time></trkpt><trkpt lat="43.3141449" lon="11.2473875"><ele>314.0</ele><time>2026-04-04T14:18:38.829Z</time></trkpt><trkpt lat="43.3140232" lon="11.2473083"><ele>314.0</ele><time>2026-04-04T14:18:40.83Z</time></trkpt><trkpt lat="43.3138966" lon="11.247239"><ele>315.75</ele><time>2026-04-04T14:18:42.83Z</time></trkpt><trkpt lat="43.3137846" lon="11.2471893"><ele>317.5</ele><time>2026-04-04T14:18:44.828Z</time></trkpt><trkpt lat="43.3136842" lon="11.2471724"><ele>319.25</ele><time>2026-04-04T14:18:46.83Z</time></trkpt><trkpt lat="43.313592" lon="11.2470996"><ele>321.0</ele><time>2026-04-04T14:18:48.829Z</time></trkpt><trkpt lat="43.3134986" lon="11.2469857"><ele>321.0</ele><time>2026-04-04T14:18:50.829Z</time></trkpt><trkpt lat="43.3134155" lon="11.2469149"><ele>321.0</ele><time>2026-04-04T14:18:52.829Z</time></trkpt><trkpt lat="43.3133336" lon="11.2468527"><ele>321.0</ele><time>2026-04-04T14:18:54.829Z</time></trkpt><trkpt lat="43.3132755" lon="11.2467698"><ele>321.0</ele><time>2026-04-04T14:18:56.829Z</time></trkpt><trkpt lat="43.3132078" lon="11.2466941"><ele>321.0</ele><time>2026-04-04T14:18:58.829Z</time></trkpt><trkpt lat="43.3131831" lon="11.2465985"><ele>321.0</ele><time>2026-04-04T14:19:00.829Z</time></trkpt><trkpt lat="43.313159" lon="11.2465053"><ele>322.1666666666667</ele><time>2026-04-04T14:19:03.828Z</time></trkpt><trkpt lat="43.3131256" lon="11.2464169"><ele>323.3333333333333</ele><time>2026-04-04T14:19:05.829Z</time></trkpt><trkpt lat="43.3130685" lon="11.2463264"><ele>324.5</ele><time>2026-04-04T14:19:07.828Z</time></trkpt><trkpt lat="43.3129922" lon="11.2462227"><ele>325.66666666666663</ele><time>2026-04-04T14:19:09.83Z</time></trkpt><trkpt lat="43.3129298" lon="11.2461639"><ele>326.8333333333333</ele><time>2026-04-04T14:19:11.829Z</time></trkpt><trkpt lat="43.3128665" lon="11.2460599"><ele>328.0</ele><time>2026-04-04T14:19:13.829Z</time></trkpt><trkpt lat="43.3128248" lon="11.2459291"><ele>328.0</ele><time>2026-04-04T14:19:15.83Z</time></trkpt><trkpt lat="43.3127798" lon="11.2458262"><ele>328.0</ele><time>2026-04-04T14:19:17.829Z</time></trkpt><trkpt lat="43.3127329" lon="11.2457516"><ele>328.0</ele><time>2026-04-04T14:19:19.83Z</time></trkpt><trkpt lat="43.3126737" lon="11.2456638"><ele>328.0</ele><time>2026-04-04T14:19:21.829Z</time></trkpt><trkpt lat="43.312575" lon="11.2455849"><ele>328.0</ele><time>2026-04-04T14:19:23.829Z</time></trkpt><trkpt lat="43.3124752" lon="11.2455151"><ele>328.0</ele><time>2026-04-04T14:19:25.828Z</time></trkpt><trkpt lat="43.3123594" lon="11.2454724"><ele>328.0</ele><time>2026-04-04T14:19:27.829Z</time></trkpt><trkpt lat="43.3122958" lon="11.2454684"><ele>328.0</ele><time>2026-04-04T14:19:28.83Z</time></trkpt><trkpt lat="43.3122032" lon="11.2454831"><ele>328.0</ele><time>2026-04-04T14:19:30.829Z</time></trkpt><trkpt lat="43.3121078" lon="11.2455493"><ele>328.0</ele><time>2026-04-04T14:19:32.83Z</time></trkpt><trkpt lat="43.3120268" lon="11.2456661"><ele>328.8333333333333</ele><time>2026-04-04T14:19:34.83Z</time></trkpt><trkpt lat="43.3119481" lon="11.2457766"><ele>329.66666666666663</ele><time>2026-04-04T14:19:36.83Z</time></trkpt><trkpt lat="43.3119199" lon="11.2458833"><ele>330.5</ele><time>2026-04-04T14:19:38.828Z</time></trkpt><trkpt lat="43.3119334" lon="11.2459794"><ele>331.3333333333333</ele><time>2026-04-04T14:19:39.828Z</time></trkpt><trkpt lat="43.3119358" lon="11.2460659"><ele>332.1666666666667</ele><time>2026-04-04T14:19:40.83Z</time></trkpt><trkpt lat="43.3119158" lon="11.2462283"><ele>333.0</ele><time>2026-04-04T14:19:42.83Z</time></trkpt><trkpt lat="43.3118844" lon="11.2463077"><ele>333.0</ele><time>2026-04-04T14:19:43.828Z</time></trkpt><trkpt lat="43.3118509" lon="11.2464497"><ele>333.0</ele><time>2026-04-04T14:19:45.829Z</time></trkpt><trkpt lat="43.3118368" lon="11.2466239"><ele>333.0</ele><time>2026-04-04T14:19:47.829Z</time></trkpt><trkpt lat="43.3118405" lon="11.2467212"><ele>333.0</ele><time>2026-04-04T14:19:48.829Z</time></trkpt><trkpt lat="43.3118365" lon="11.2469072"><ele>333.0</ele><time>2026-04-04T14:19:50.829Z</time></trkpt><trkpt lat="43.3118203" lon="11.2469942"><ele>334.3333333333333</ele><time>2026-04-04T14:19:51.829Z</time></trkpt><trkpt lat="43.3117753" lon="11.2471724"><ele>335.6666666666667</ele><time>2026-04-04T14:19:53.83Z</time></trkpt><trkpt lat="43.311747" lon="11.2472631"><ele>337.0</ele><time>2026-04-04T14:19:54.828Z</time></trkpt><trkpt lat="43.311725" lon="11.2473681"><ele>338.33333333333337</ele><time>2026-04-04T14:19:55.829Z</time></trkpt><trkpt lat="43.311704" lon="11.2474629"><ele>339.6666666666667</ele><time>2026-04-04T14:19:56.829Z</time></trkpt><trkpt lat="43.3116878" lon="11.2475547"><ele>341.0</ele><time>2026-04-04T14:19:57.83Z</time></trkpt><trkpt lat="43.3116597" lon="11.2476454"><ele>342.20000000000005</ele><time>2026-04-04T14:19:58.829Z</time></trkpt><trkpt lat="43.3116236" lon="11.2477961"><ele>343.40000000000003</ele><time>2026-04-04T14:20:00.829Z</time></trkpt><trkpt lat="43.311624" lon="11.2479412"><ele>344.6</ele><time>2026-04-04T14:20:02.83Z</time></trkpt><trkpt lat="43.3116304" lon="11.2480379"><ele>345.8</ele><time>2026-04-04T14:20:03.829Z</time></trkpt><trkpt lat="43.3116192" lon="11.2481897"><ele>347.0</ele><time>2026-04-04T14:20:05.83Z</time></trkpt><trkpt lat="43.311567" lon="11.2483023"><ele>348.6</ele><time>2026-04-04T14:20:07.829Z</time></trkpt><trkpt lat="43.3115181" lon="11.2484136"><ele>350.20000000000005</ele><time>2026-04-04T14:20:09.829Z</time></trkpt><trkpt lat="43.3114841" lon="11.2485358"><ele>351.8</ele><time>2026-04-04T14:20:11.828Z</time></trkpt><trkpt lat="43.3114561" lon="11.2487067"><ele>353.4</ele><time>2026-04-04T14:20:13.83Z</time></trkpt><trkpt lat="43.3114346" lon="11.2488121"><ele>355.0</ele><time>2026-04-04T14:20:14.828Z</time></trkpt><trkpt lat="43.3114155" lon="11.248898"><ele>358.0</ele><time>2026-04-04T14:20:15.829Z</time></trkpt><trkpt lat="43.3113929" lon="11.2490025"><ele>361.0</ele><time>2026-04-04T14:20:16.83Z</time></trkpt><trkpt lat="43.3113736" lon="11.2491072"><ele>364.0</ele><time>2026-04-04T14:20:17.829Z</time></trkpt><trkpt lat="43.3113338" lon="11.2492175"><ele>367.0</ele><time>2026-04-04T14:20:19.829Z</time></trkpt><trkpt lat="43.311218" lon="11.2493402"><ele>370.0</ele><time>2026-04-04T14:20:21.829Z</time></trkpt><trkpt lat="43.3111388" lon="11.2494224"><ele>370.0</ele><time>2026-04-04T14:20:22.83Z</time></trkpt><trkpt lat="43.3110687" lon="11.2495053"><ele>370.0</ele><time>2026-04-04T14:20:23.83Z</time></trkpt><trkpt lat="43.3110141" lon="11.24959"><ele>370.0</ele><time>2026-04-04T14:20:24.829Z</time></trkpt><trkpt lat="43.3109665" lon="11.2496588"><ele>370.0</ele><time>2026-04-04T14:20:25.83Z</time></trkpt><trkpt lat="43.3109091" lon="11.249747"><ele>370.0</ele><time>2026-04-04T14:20:26.829Z</time></trkpt><trkpt lat="43.3108658" lon="11.249883"><ele>370.0</ele><time>2026-04-04T14:20:28.829Z</time></trkpt><trkpt lat="43.3108344" lon="11.2500234"><ele>369.6</ele><time>2026-04-04T14:20:30.83Z</time></trkpt><trkpt lat="43.3108337" lon="11.2501275"><ele>369.2</ele><time>2026-04-04T14:20:32.829Z</time></trkpt><trkpt lat="43.3108393" lon="11.2502418"><ele>368.79999999999995</ele><time>2026-04-04T14:20:35.828Z</time></trkpt><trkpt lat="43.3107937" lon="11.2503776"><ele>368.4</ele><time>2026-04-04T14:20:38.83Z</time></trkpt><trkpt lat="43.3107319" lon="11.2504537"><ele>368.0</ele><time>2026-04-04T14:20:40.829Z</time></trkpt><trkpt lat="43.3106599" lon="11.2505596"><ele>369.0</ele><time>2026-04-04T14:20:42.83Z</time></trkpt><trkpt lat="43.3106236" lon="11.2506576"><ele>370.0</ele><time>2026-04-04T14:20:44.829Z</time></trkpt><trkpt lat="43.3105489" lon="11.2507"><ele>371.0</ele><time>2026-04-04T14:20:48.829Z</time></trkpt><trkpt lat="43.310415" lon="11.2507027"><ele>372.0</ele><time>2026-04-04T14:20:50.83Z</time></trkpt><trkpt lat="43.3103351" lon="11.2506861"><ele>373.0</ele><time>2026-04-04T14:20:51.828Z</time></trkpt><trkpt lat="43.3102077" lon="11.2506505"><ele>374.2</ele><time>2026-04-04T14:20:53.828Z</time></trkpt><trkpt lat="43.3100736" lon="11.2506208"><ele>375.4</ele><time>2026-04-04T14:20:55.83Z</time></trkpt><trkpt lat="43.3100044" lon="11.2505954"><ele>376.59999999999997</ele><time>2026-04-04T14:20:56.83Z</time></trkpt><trkpt lat="43.3098592" lon="11.2505792"><ele>377.79999999999995</ele><time>2026-04-04T14:20:58.828Z</time></trkpt><trkpt lat="43.309784" lon="11.2505702"><ele>379.0</ele><time>2026-04-04T14:20:59.829Z</time></trkpt><trkpt lat="43.30972" lon="11.2505571"><ele>381.79999999999995</ele><time>2026-04-04T14:21:00.829Z</time></trkpt><trkpt lat="43.3095984" lon="11.2506241"><ele>384.59999999999997</ele><time>2026-04-04T14:21:02.828Z</time></trkpt><trkpt lat="43.3095345" lon="11.2506347"><ele>387.4</ele><time>2026-04-04T14:21:03.828Z</time></trkpt><trkpt lat="43.3094678" lon="11.2506355"><ele>390.2</ele><time>2026-04-04T14:21:04.83Z</time></trkpt><trkpt lat="43.3093222" lon="11.2506435"><ele>393.0</ele><time>2026-04-04T14:21:06.829Z</time></trkpt><trkpt lat="43.3092401" lon="11.2506453"><ele>393.00000000000006</ele><time>2026-04-04T14:21:07.829Z</time></trkpt><trkpt lat="43.3091595" lon="11.2506584"><ele>393.0</ele><time>2026-04-04T14:21:08.829Z</time></trkpt><trkpt lat="43.3090899" lon="11.2506657"><ele>393.0</ele><time>2026-04-04T14:21:09.829Z</time></trkpt><trkpt lat="43.3090178" lon="11.2506865"><ele>393.0</ele><time>2026-04-04T14:21:10.829Z</time></trkpt><trkpt lat="43.3089566" lon="11.2506598"><ele>393.0</ele><time>2026-04-04T14:21:24.83Z</time></trkpt><trkpt lat="43.3090258" lon="11.2506945"><ele>393.00000000000006</ele><time>2026-04-04T14:21:31.829Z</time></trkpt><trkpt lat="43.3091072" lon="11.2506744"><ele>393.0</ele><time>2026-04-04T14:21:33.83Z</time></trkpt><trkpt lat="43.3092273" lon="11.2506669"><ele>393.0</ele><time>2026-04-04T14:21:35.829Z</time></trkpt><trkpt lat="43.3093445" lon="11.2506588"><ele>393.0</ele><time>2026-04-04T14:21:37.83Z</time></trkpt><trkpt lat="43.3094549" lon="11.2506705"><ele>393.0</ele><time>2026-04-04T14:21:39.828Z</time></trkpt><trkpt lat="43.3095689" lon="11.2506249"><ele>393.0</ele><time>2026-04-04T14:21:41.829Z</time></trkpt><trkpt lat="43.3096607" lon="11.2505716"><ele>393.0</ele><time>2026-04-04T14:21:43.829Z</time></trkpt><trkpt lat="43.3097647" lon="11.250572"><ele>391.28571428571433</ele><time>2026-04-04T14:21:45.829Z</time></trkpt><trkpt lat="43.3098324" lon="11.2505891"><ele>389.57142857142856</ele><time>2026-04-04T14:21:46.83Z</time></trkpt><trkpt lat="43.309906" lon="11.2505955"><ele>387.8571428571429</ele><time>2026-04-04T14:21:47.83Z</time></trkpt><trkpt lat="43.3099782" lon="11.250606"><ele>386.14285714285717</ele><time>2026-04-04T14:21:48.83Z</time></trkpt><trkpt lat="43.3100483" lon="11.2506217"><ele>384.42857142857144</ele><time>2026-04-04T14:21:49.83Z</time></trkpt><trkpt lat="43.3101196" lon="11.2506407"><ele>382.7142857142857</ele><time>2026-04-04T14:21:50.829Z</time></trkpt><trkpt lat="43.3101899" lon="11.2506696"><ele>381.0</ele><time>2026-04-04T14:21:51.829Z</time></trkpt><trkpt lat="43.3102563" lon="11.2506867"><ele>381.0</ele><time>2026-04-04T14:21:52.828Z</time></trkpt><trkpt lat="43.3103254" lon="11.2507058"><ele>381.0</ele><time>2026-04-04T14:21:53.829Z</time></trkpt><trkpt lat="43.3104395" lon="11.2507247"><ele>381.0</ele><time>2026-04-04T14:21:55.83Z</time></trkpt><trkpt lat="43.3105227" lon="11.2507352"><ele>381.0</ele><time>2026-04-04T14:21:58.828Z</time></trkpt><trkpt lat="43.3105139" lon="11.2508489"><ele>381.0</ele><time>2026-04-04T14:22:06.83Z</time></trkpt><trkpt lat="43.3104654" lon="11.2509226"><ele>381.0</ele><time>2026-04-04T14:22:08.829Z</time></trkpt><trkpt lat="43.310411" lon="11.2509769"><ele>381.0</ele><time>2026-04-04T14:22:10.829Z</time></trkpt><trkpt lat="43.3103361" lon="11.2510639"><ele>381.0</ele><time>2026-04-04T14:22:12.829Z</time></trkpt><trkpt lat="43.3102916" lon="11.2511569"><ele>381.0</ele><time>2026-04-04T14:22:14.828Z</time></trkpt><trkpt lat="43.3102618" lon="11.2512482"><ele>381.0</ele><time>2026-04-04T14:22:16.83Z</time></trkpt><trkpt lat="43.3102328" lon="11.2513265"><ele>381.0</ele><time>2026-04-04T14:22:18.829Z</time></trkpt><trkpt lat="43.3101791" lon="11.2514369"><ele>381.0</ele><time>2026-04-04T14:22:20.829Z</time></trkpt><trkpt lat="43.3101297" lon="11.2515317"><ele>381.5</ele><time>2026-04-04T14:22:22.83Z</time></trkpt><trkpt lat="43.3100745" lon="11.2516126"><ele>382.0</ele><time>2026-04-04T14:22:24.829Z</time></trkpt><trkpt lat="43.3100291" lon="11.25169"><ele>382.5</ele><time>2026-04-04T14:22:26.829Z</time></trkpt><trkpt lat="43.3100116" lon="11.2518102"><ele>383.0</ele><time>2026-04-04T14:22:29.83Z</time></trkpt><trkpt lat="43.3099976" lon="11.2519021"><ele>383.5</ele><time>2026-04-04T14:22:31.83Z</time></trkpt><trkpt lat="43.3099721" lon="11.251998"><ele>384.0</ele><time>2026-04-04T14:22:36.829Z</time></trkpt><trkpt lat="43.3099137" lon="11.2521538"><ele>384.0</ele><time>2026-04-04T14:22:39.829Z</time></trkpt><trkpt lat="43.3098572" lon="11.2522819"><ele>384.0</ele><time>2026-04-04T14:22:41.829Z</time></trkpt><trkpt lat="43.3098142" lon="11.2524091"><ele>384.0</ele><time>2026-04-04T14:22:43.829Z</time></trkpt><trkpt lat="43.3097799" lon="11.2525325"><ele>384.0</ele><time>2026-04-04T14:22:45.829Z</time></trkpt><trkpt lat="43.3097305" lon="11.2526457"><ele>384.0</ele><time>2026-04-04T14:22:47.829Z</time></trkpt><trkpt lat="43.3097062" lon="11.2527852"><ele>385.5</ele><time>2026-04-04T14:22:49.83Z</time></trkpt><trkpt lat="43.3096909" lon="11.2528782"><ele>387.0</ele><time>2026-04-04T14:22:51.829Z</time></trkpt><trkpt lat="43.3096478" lon="11.2529487"><ele>388.5</ele><time>2026-04-04T14:22:53.828Z</time></trkpt><trkpt lat="43.3096132" lon="11.2530656"><ele>390.0</ele><time>2026-04-04T14:22:55.83Z</time></trkpt><trkpt lat="43.3095809" lon="11.2531628"><ele>391.5</ele><time>2026-04-04T14:22:57.829Z</time></trkpt><trkpt lat="43.3095559" lon="11.2532908"><ele>393.0</ele><time>2026-04-04T14:23:00.829Z</time></trkpt><trkpt lat="43.3095223" lon="11.2533818"><ele>393.4</ele><time>2026-04-04T14:23:02.829Z</time></trkpt><trkpt lat="43.3094874" lon="11.2535173"><ele>393.79999999999995</ele><time>2026-04-04T14:23:04.83Z</time></trkpt><trkpt lat="43.3094638" lon="11.2536614"><ele>394.2</ele><time>2026-04-04T14:23:06.83Z</time></trkpt><trkpt lat="43.3094576" lon="11.253771"><ele>394.6</ele><time>2026-04-04T14:23:08.83Z</time></trkpt><trkpt lat="43.3094395" lon="11.2538735"><ele>395.0</ele><time>2026-04-04T14:23:31.829Z</time></trkpt><trkpt lat="43.3093702" lon="11.2539421"><ele>394.99999999999994</ele><time>2026-04-04T14:23:34.829Z</time></trkpt><trkpt lat="43.3093053" lon="11.2539429"><ele>395.0</ele><time>2026-04-04T14:23:36.829Z</time></trkpt><trkpt lat="43.3092397" lon="11.2539489"><ele>395.0</ele><time>2026-04-04T14:23:38.829Z</time></trkpt><trkpt lat="43.3091651" lon="11.2539721"><ele>395.0</ele><time>2026-04-04T14:23:40.829Z</time></trkpt><trkpt lat="43.3090861" lon="11.2539839"><ele>394.99999999999994</ele><time>2026-04-04T14:23:42.829Z</time></trkpt><trkpt lat="43.309006" lon="11.2539975"><ele>395.0</ele><time>2026-04-04T14:23:44.829Z</time></trkpt><trkpt lat="43.308925" lon="11.254027"><ele>394.3333333333333</ele><time>2026-04-04T14:23:46.829Z</time></trkpt><trkpt lat="43.3088495" lon="11.2540455"><ele>393.66666666666663</ele><time>2026-04-04T14:23:48.829Z</time></trkpt><trkpt lat="43.3087681" lon="11.2540731"><ele>393.0</ele><time>2026-04-04T14:23:50.829Z</time></trkpt><trkpt lat="43.3086963" lon="11.2541289"><ele>392.33333333333337</ele><time>2026-04-04T14:23:52.829Z</time></trkpt><trkpt lat="43.3086414" lon="11.2542112"><ele>391.6666666666667</ele><time>2026-04-04T14:23:54.829Z</time></trkpt><trkpt lat="43.3085914" lon="11.2542893"><ele>391.0</ele><time>2026-04-04T14:23:56.828Z</time></trkpt><trkpt lat="43.30854" lon="11.2543494"><ele>391.0</ele><time>2026-04-04T14:23:59.829Z</time></trkpt><trkpt lat="43.3084769" lon="11.2543612"><ele>391.0</ele><time>2026-04-04T14:24:02.828Z</time></trkpt><trkpt lat="43.3083922" lon="11.2543944"><ele>391.0</ele><time>2026-04-04T14:24:04.83Z</time></trkpt><trkpt lat="43.3082924" lon="11.2544415"><ele>391.0</ele><time>2026-04-04T14:24:06.829Z</time></trkpt><trkpt lat="43.3081868" lon="11.2544828"><ele>391.0</ele><time>2026-04-04T14:24:08.83Z</time></trkpt><trkpt lat="43.3080959" lon="11.2545272"><ele>390.2857142857143</ele><time>2026-04-04T14:24:10.829Z</time></trkpt><trkpt lat="43.3080228" lon="11.2545362"><ele>389.57142857142856</ele><time>2026-04-04T14:24:13.829Z</time></trkpt><trkpt lat="43.3079602" lon="11.254507"><ele>388.8571428571429</ele><time>2026-04-04T14:24:15.829Z</time></trkpt><trkpt lat="43.3078916" lon="11.2544788"><ele>388.1428571428571</ele><time>2026-04-04T14:24:17.829Z</time></trkpt><trkpt lat="43.3078003" lon="11.2544509"><ele>387.42857142857144</ele><time>2026-04-04T14:24:19.828Z</time></trkpt><trkpt lat="43.3077357" lon="11.2544079"><ele>386.7142857142857</ele><time>2026-04-04T14:24:20.83Z</time></trkpt><trkpt lat="43.3076802" lon="11.2543543"><ele>386.0</ele><time>2026-04-04T14:24:21.829Z</time></trkpt><trkpt lat="43.3075848" lon="11.2543377"><ele>385.99999999999994</ele><time>2026-04-04T14:24:24.83Z</time></trkpt><trkpt lat="43.3074666" lon="11.2543199"><ele>386.0</ele><time>2026-04-04T14:24:26.828Z</time></trkpt><trkpt lat="43.3074015" lon="11.2543102"><ele>386.0</ele><time>2026-04-04T14:24:27.828Z</time></trkpt><trkpt lat="43.3073376" lon="11.2543091"><ele>386.0</ele><time>2026-04-04T14:24:28.828Z</time></trkpt><trkpt lat="43.3072331" lon="11.2543064"><ele>385.99999999999994</ele><time>2026-04-04T14:24:30.83Z</time></trkpt><trkpt lat="43.3071484" lon="11.254256"><ele>386.0</ele><time>2026-04-04T14:24:32.829Z</time></trkpt><trkpt lat="43.3070553" lon="11.2542043"><ele>385.20000000000005</ele><time>2026-04-04T14:24:34.828Z</time></trkpt><trkpt lat="43.3069642" lon="11.2541737"><ele>384.40000000000003</ele><time>2026-04-04T14:24:36.83Z</time></trkpt><trkpt lat="43.3068851" lon="11.2541424"><ele>383.6</ele><time>2026-04-04T14:24:38.829Z</time></trkpt><trkpt lat="43.3067823" lon="11.2541132"><ele>382.8</ele><time>2026-04-04T14:24:40.828Z</time></trkpt><trkpt lat="43.3066853" lon="11.2540943"><ele>382.0</ele><time>2026-04-04T14:24:42.83Z</time></trkpt><trkpt lat="43.3065927" lon="11.2541088"><ele>382.0</ele><time>2026-04-04T14:24:44.829Z</time></trkpt><trkpt lat="43.3065077" lon="11.2541082"><ele>382.0</ele><time>2026-04-04T14:24:46.829Z</time></trkpt><trkpt lat="43.3064409" lon="11.2541608"><ele>382.0</ele><time>2026-04-04T14:24:48.829Z</time></trkpt><trkpt lat="43.3063526" lon="11.2541981"><ele>382.0</ele><time>2026-04-04T14:24:51.83Z</time></trkpt><trkpt lat="43.3062708" lon="11.254198"><ele>382.0</ele><time>2026-04-04T14:24:53.83Z</time></trkpt><trkpt lat="43.3061874" lon="11.2542312"><ele>382.0</ele><time>2026-04-04T14:24:55.83Z</time></trkpt><trkpt lat="43.3061026" lon="11.2542415"><ele>381.8333333333333</ele><time>2026-04-04T14:24:57.83Z</time></trkpt><trkpt lat="43.3060091" lon="11.2542612"><ele>381.66666666666663</ele><time>2026-04-04T14:24:59.828Z</time></trkpt><trkpt lat="43.3059192" lon="11.2542954"><ele>381.5</ele><time>2026-04-04T14:25:01.828Z</time></trkpt><trkpt lat="43.3058312" lon="11.2543225"><ele>381.3333333333333</ele><time>2026-04-04T14:25:03.828Z</time></trkpt><trkpt lat="43.3057611" lon="11.2543761"><ele>381.1666666666667</ele><time>2026-04-04T14:25:05.827Z</time></trkpt><trkpt lat="43.3057007" lon="11.2544191"><ele>381.0</ele><time>2026-04-04T14:25:07.828Z</time></trkpt><trkpt lat="43.3056376" lon="11.254445"><ele>380.3333333333333</ele><time>2026-04-04T14:25:09.829Z</time></trkpt><trkpt lat="43.3055434" lon="11.2544556"><ele>379.6666666666667</ele><time>2026-04-04T14:25:11.829Z</time></trkpt><trkpt lat="43.30546" lon="11.2544592"><ele>379.0</ele><time>2026-04-04T14:25:13.829Z</time></trkpt><trkpt lat="43.3053934" lon="11.2544506"><ele>378.33333333333337</ele><time>2026-04-04T14:25:15.828Z</time></trkpt><trkpt lat="43.3053262" lon="11.2544229"><ele>377.6666666666667</ele><time>2026-04-04T14:25:17.828Z</time></trkpt><trkpt lat="43.3052448" lon="11.2543802"><ele>377.0</ele><time>2026-04-04T14:25:19.828Z</time></trkpt><trkpt lat="43.3051665" lon="11.2543684"><ele>377.0</ele><time>2026-04-04T14:25:22.828Z</time></trkpt><trkpt lat="43.3050779" lon="11.2544325"><ele>377.0</ele><time>2026-04-04T14:25:24.829Z</time></trkpt><trkpt lat="43.3049872" lon="11.2544814"><ele>377.0</ele><time>2026-04-04T14:25:26.829Z</time></trkpt><trkpt lat="43.3049185" lon="11.254584"><ele>377.0</ele><time>2026-04-04T14:25:29.828Z</time></trkpt><trkpt lat="43.3048739" lon="11.2547153"><ele>377.0</ele><time>2026-04-04T14:25:31.829Z</time></trkpt><trkpt lat="43.3048291" lon="11.2548259"><ele>377.33333333333337</ele><time>2026-04-04T14:25:33.828Z</time></trkpt><trkpt lat="43.3047815" lon="11.254918"><ele>377.6666666666667</ele><time>2026-04-04T14:25:35.829Z</time></trkpt><trkpt lat="43.3047397" lon="11.2550022"><ele>378.0</ele><time>2026-04-04T14:25:37.828Z</time></trkpt><trkpt lat="43.3047002" lon="11.2550946"><ele>378.3333333333333</ele><time>2026-04-04T14:25:39.829Z</time></trkpt><trkpt lat="43.3046449" lon="11.2551695"><ele>378.66666666666663</ele><time>2026-04-04T14:25:41.829Z</time></trkpt><trkpt lat="43.304599" lon="11.255265"><ele>379.0</ele><time>2026-04-04T14:25:43.828Z</time></trkpt><trkpt lat="43.3045648" lon="11.2553847"><ele>376.66666666666663</ele><time>2026-04-04T14:25:45.828Z</time></trkpt><trkpt lat="43.3045352" lon="11.2555102"><ele>374.3333333333333</ele><time>2026-04-04T14:25:47.827Z</time></trkpt><trkpt lat="43.304509" lon="11.2556372"><ele>372.0</ele><time>2026-04-04T14:25:49.827Z</time></trkpt><trkpt lat="43.304493" lon="11.255751"><ele>369.6666666666667</ele><time>2026-04-04T14:25:51.829Z</time></trkpt><trkpt lat="43.3044749" lon="11.25585"><ele>367.33333333333337</ele><time>2026-04-04T14:25:53.828Z</time></trkpt><trkpt lat="43.3044831" lon="11.2559743"><ele>365.0</ele><time>2026-04-04T14:25:56.829Z</time></trkpt><trkpt lat="43.3045222" lon="11.2560452"><ele>364.14285714285717</ele><time>2026-04-04T14:25:58.829Z</time></trkpt><trkpt lat="43.3045378" lon="11.2561375"><ele>363.2857142857143</ele><time>2026-04-04T14:26:00.828Z</time></trkpt><trkpt lat="43.3045231" lon="11.2562531"><ele>362.42857142857144</ele><time>2026-04-04T14:26:02.827Z</time></trkpt><trkpt lat="43.3045282" lon="11.2563637"><ele>361.57142857142856</ele><time>2026-04-04T14:26:04.828Z</time></trkpt><trkpt lat="43.3045303" lon="11.2564624"><ele>360.7142857142857</ele><time>2026-04-04T14:26:06.827Z</time></trkpt><trkpt lat="43.3045256" lon="11.2565489"><ele>359.8571428571429</ele><time>2026-04-04T14:26:08.827Z</time></trkpt><trkpt lat="43.304494" lon="11.2566467"><ele>359.0</ele><time>2026-04-04T14:26:11.829Z</time></trkpt><trkpt lat="43.3044447" lon="11.2567051"><ele>357.5</ele><time>2026-04-04T14:26:13.828Z</time></trkpt><trkpt lat="43.3044053" lon="11.2568265"><ele>356.0</ele><time>2026-04-04T14:26:16.829Z</time></trkpt><trkpt lat="43.3044178" lon="11.2569524"><ele>354.5</ele><time>2026-04-04T14:26:19.827Z</time></trkpt><trkpt lat="43.3044365" lon="11.2570423"><ele>353.0</ele><time>2026-04-04T14:26:21.828Z</time></trkpt><trkpt lat="43.3044506" lon="11.2571658"><ele>351.5</ele><time>2026-04-04T14:26:24.827Z</time></trkpt><trkpt lat="43.3044715" lon="11.2572834"><ele>350.0</ele><time>2026-04-04T14:26:27.829Z</time></trkpt><trkpt lat="43.3044605" lon="11.2574047"><ele>348.6666666666667</ele><time>2026-04-04T14:26:30.828Z</time></trkpt><trkpt lat="43.3044122" lon="11.2575157"><ele>347.33333333333337</ele><time>2026-04-04T14:26:33.828Z</time></trkpt><trkpt lat="43.3043578" lon="11.2575729"><ele>346.0</ele><time>2026-04-04T14:26:35.829Z</time></trkpt><trkpt lat="43.3042679" lon="11.2575882"><ele>344.6666666666667</ele><time>2026-04-04T14:26:38.829Z</time></trkpt><trkpt lat="43.3041993" lon="11.2575633"><ele>343.3333333333333</ele><time>2026-04-04T14:26:40.829Z</time></trkpt><trkpt lat="43.3041069" lon="11.2575613"><ele>342.0</ele><time>2026-04-04T14:26:43.828Z</time></trkpt><trkpt lat="43.3040368" lon="11.2575925"><ele>342.0</ele><time>2026-04-04T14:26:45.829Z</time></trkpt><trkpt lat="43.3039553" lon="11.2576225"><ele>342.0</ele><time>2026-04-04T14:26:47.828Z</time></trkpt><trkpt lat="43.303888" lon="11.2576562"><ele>342.0</ele><time>2026-04-04T14:26:49.828Z</time></trkpt><trkpt lat="43.3038335" lon="11.2577185"><ele>342.0</ele><time>2026-04-04T14:26:51.828Z</time></trkpt><trkpt lat="43.3037832" lon="11.2578048"><ele>342.0</ele><time>2026-04-04T14:26:53.829Z</time></trkpt><trkpt lat="43.3036835" lon="11.2578838"><ele>342.0</ele><time>2026-04-04T14:26:55.828Z</time></trkpt><trkpt lat="43.3035923" lon="11.2579563"><ele>340.6666666666667</ele><time>2026-04-04T14:26:57.828Z</time></trkpt><trkpt lat="43.3035332" lon="11.2580116"><ele>339.3333333333333</ele><time>2026-04-04T14:27:01.828Z</time></trkpt><trkpt lat="43.3034691" lon="11.2580618"><ele>338.0</ele><time>2026-04-04T14:27:37.829Z</time></trkpt><trkpt lat="43.3034068" lon="11.2580867"><ele>336.66666666666663</ele><time>2026-04-04T14:40:27.826Z</time></trkpt><trkpt lat="43.3033529" lon="11.2581595"><ele>335.3333333333333</ele><time>2026-04-04T14:40:30.827Z</time></trkpt><trkpt lat="43.3032773" lon="11.2582905"><ele>334.0</ele><time>2026-04-04T14:40:32.827Z</time></trkpt><trkpt lat="43.3032309" lon="11.2583568"><ele>333.8333333333333</ele><time>2026-04-04T14:40:33.828Z</time></trkpt><trkpt lat="43.3031811" lon="11.2584244"><ele>333.66666666666663</ele><time>2026-04-04T14:40:34.828Z</time></trkpt><trkpt lat="43.3031505" lon="11.2585138"><ele>333.5</ele><time>2026-04-04T14:40:36.827Z</time></trkpt><trkpt lat="43.3030806" lon="11.258622"><ele>333.3333333333333</ele><time>2026-04-04T14:40:38.827Z</time></trkpt><trkpt lat="43.3029859" lon="11.2587337"><ele>333.1666666666667</ele><time>2026-04-04T14:40:40.828Z</time></trkpt><trkpt lat="43.3029343" lon="11.2587944"><ele>333.0</ele><time>2026-04-04T14:40:41.828Z</time></trkpt><trkpt lat="43.3028898" lon="11.2588587"><ele>332.59999999999997</ele><time>2026-04-04T14:40:42.828Z</time></trkpt><trkpt lat="43.3028118" lon="11.2589777"><ele>332.2</ele><time>2026-04-04T14:40:44.828Z</time></trkpt><trkpt lat="43.3027466" lon="11.259086"><ele>331.8</ele><time>2026-04-04T14:40:46.827Z</time></trkpt><trkpt lat="43.3026879" lon="11.2591844"><ele>331.4</ele><time>2026-04-04T14:40:48.826Z</time></trkpt><trkpt lat="43.3026586" lon="11.2592719"><ele>331.0</ele><time>2026-04-04T14:40:50.826Z</time></trkpt><trkpt lat="43.3025759" lon="11.2593565"><ele>331.0</ele><time>2026-04-04T14:40:51.827Z</time></trkpt><trkpt lat="43.3024757" lon="11.2594568"><ele>331.0</ele><time>2026-04-04T14:40:53.826Z</time></trkpt><trkpt lat="43.3023685" lon="11.2595626"><ele>331.0</ele><time>2026-04-04T14:40:55.828Z</time></trkpt><trkpt lat="43.3023055" lon="11.2596136"><ele>331.0</ele><time>2026-04-04T14:40:56.828Z</time></trkpt><trkpt lat="43.3022037" lon="11.2597122"><ele>331.4</ele><time>2026-04-04T14:40:58.827Z</time></trkpt><trkpt lat="43.3021156" lon="11.2598387"><ele>331.8</ele><time>2026-04-04T14:41:00.827Z</time></trkpt><trkpt lat="43.3020599" lon="11.2599154"><ele>332.2</ele><time>2026-04-04T14:41:01.828Z</time></trkpt><trkpt lat="43.3020105" lon="11.2599827"><ele>332.59999999999997</ele><time>2026-04-04T14:41:02.828Z</time></trkpt><trkpt lat="43.30193" lon="11.2601456"><ele>333.0</ele><time>2026-04-04T14:41:04.826Z</time></trkpt><trkpt lat="43.3018848" lon="11.2602346"><ele>333.0</ele><time>2026-04-04T14:41:05.827Z</time></trkpt><trkpt lat="43.3018485" lon="11.2603127"><ele>333.0</ele><time>2026-04-04T14:41:06.827Z</time></trkpt><trkpt lat="43.3017937" lon="11.2604407"><ele>333.0</ele><time>2026-04-04T14:41:08.827Z</time></trkpt><trkpt lat="43.3017403" lon="11.2605086"><ele>333.0</ele><time>2026-04-04T14:41:09.828Z</time></trkpt><trkpt lat="43.3016891" lon="11.2605832"><ele>333.0</ele><time>2026-04-04T14:41:10.827Z</time></trkpt><trkpt lat="43.3016427" lon="11.2606671"><ele>333.0</ele><time>2026-04-04T14:41:11.826Z</time></trkpt><trkpt lat="43.3016101" lon="11.2607588"><ele>333.2</ele><time>2026-04-04T14:41:12.828Z</time></trkpt><trkpt lat="43.3015804" lon="11.2608381"><ele>333.4</ele><time>2026-04-04T14:41:13.828Z</time></trkpt><trkpt lat="43.301507" lon="11.2609945"><ele>333.59999999999997</ele><time>2026-04-04T14:41:15.826Z</time></trkpt><trkpt lat="43.3014176" lon="11.2611361"><ele>333.79999999999995</ele><time>2026-04-04T14:41:17.826Z</time></trkpt><trkpt lat="43.3013771" lon="11.2612063"><ele>334.0</ele><time>2026-04-04T14:41:18.826Z</time></trkpt><trkpt lat="43.3013149" lon="11.2612905"><ele>333.5</ele><time>2026-04-04T14:41:19.826Z</time></trkpt><trkpt lat="43.3012391" lon="11.2612946"><ele>333.0</ele><time>2026-04-04T14:41:20.825Z</time></trkpt><trkpt lat="43.3011345" lon="11.2613971"><ele>332.5</ele><time>2026-04-04T14:41:22.826Z</time></trkpt><trkpt lat="43.3010498" lon="11.2615215"><ele>332.0</ele><time>2026-04-04T14:41:24.827Z</time></trkpt><trkpt lat="43.3009585" lon="11.2616757"><ele>332.0</ele><time>2026-04-04T14:41:26.826Z</time></trkpt><trkpt lat="43.3008984" lon="11.2617383"><ele>332.0</ele><time>2026-04-04T14:41:27.826Z</time></trkpt><trkpt lat="43.3008424" lon="11.2617931"><ele>332.0</ele><time>2026-04-04T14:41:28.827Z</time></trkpt><trkpt lat="43.3007301" lon="11.2618769"><ele>332.0</ele><time>2026-04-04T14:41:30.827Z</time></trkpt><trkpt lat="43.3006351" lon="11.2619664"><ele>332.0</ele><time>2026-04-04T14:41:32.827Z</time></trkpt><trkpt lat="43.3005368" lon="11.2620155"><ele>331.20000000000005</ele><time>2026-04-04T14:41:34.826Z</time></trkpt><trkpt lat="43.3004562" lon="11.26206"><ele>330.4</ele><time>2026-04-04T14:41:36.826Z</time></trkpt><trkpt lat="43.3003949" lon="11.2621657"><ele>329.6</ele><time>2026-04-04T14:41:38.826Z</time></trkpt><trkpt lat="43.3003738" lon="11.2622897"><ele>328.79999999999995</ele><time>2026-04-04T14:41:40.826Z</time></trkpt><trkpt lat="43.3003184" lon="11.2623787"><ele>328.0</ele><time>2026-04-04T14:41:41.826Z</time></trkpt><trkpt lat="43.3002402" lon="11.2625005"><ele>328.0</ele><time>2026-04-04T14:41:43.825Z</time></trkpt><trkpt lat="43.3001819" lon="11.2625549"><ele>328.0</ele><time>2026-04-04T14:41:44.827Z</time></trkpt><trkpt lat="43.3000938" lon="11.2626699"><ele>328.0</ele><time>2026-04-04T14:41:46.827Z</time></trkpt><trkpt lat="43.3000347" lon="11.262799"><ele>328.0</ele><time>2026-04-04T14:41:48.826Z</time></trkpt><trkpt lat="43.3000055" lon="11.2628868"><ele>328.0</ele><time>2026-04-04T14:41:49.826Z</time></trkpt><trkpt lat="43.2999772" lon="11.2629651"><ele>328.0</ele><time>2026-04-04T14:41:50.827Z</time></trkpt><trkpt lat="43.2999085" lon="11.2630608"><ele>328.0</ele><time>2026-04-04T14:41:52.827Z</time></trkpt><trkpt lat="43.2998218" lon="11.2630992"><ele>328.0</ele><time>2026-04-04T14:41:53.827Z</time></trkpt><trkpt lat="43.2997573" lon="11.2631367"><ele>328.0</ele><time>2026-04-04T14:41:54.825Z</time></trkpt><trkpt lat="43.2996723" lon="11.2631847"><ele>328.0</ele><time>2026-04-04T14:41:56.826Z</time></trkpt><trkpt lat="43.2996569" lon="11.2632825"><ele>328.0</ele><time>2026-04-04T14:41:58.825Z</time></trkpt><trkpt lat="43.2996107" lon="11.2633422"><ele>328.0</ele><time>2026-04-04T14:42:00.825Z</time></trkpt><trkpt lat="43.2995172" lon="11.2633502"><ele>328.66666666666663</ele><time>2026-04-04T14:42:03.825Z</time></trkpt><trkpt lat="43.2994282" lon="11.2633378"><ele>329.3333333333333</ele><time>2026-04-04T14:42:05.826Z</time></trkpt><trkpt lat="43.2993563" lon="11.2633507"><ele>330.0</ele><time>2026-04-04T14:42:06.827Z</time></trkpt><trkpt lat="43.299283" lon="11.2633446"><ele>330.6666666666667</ele><time>2026-04-04T14:42:07.826Z</time></trkpt><trkpt lat="43.2992148" lon="11.263346"><ele>331.33333333333337</ele><time>2026-04-04T14:42:08.826Z</time></trkpt><trkpt lat="43.2991449" lon="11.2633302"><ele>332.0</ele><time>2026-04-04T14:42:09.827Z</time></trkpt><trkpt lat="43.2990391" lon="11.263317"><ele>332.0</ele><time>2026-04-04T14:42:11.826Z</time></trkpt><trkpt lat="43.2989753" lon="11.2633241"><ele>332.0</ele><time>2026-04-04T14:42:12.826Z</time></trkpt><trkpt lat="43.2988499" lon="11.2633457"><ele>332.0</ele><time>2026-04-04T14:42:14.827Z</time></trkpt><trkpt lat="43.298727" lon="11.2633692"><ele>332.0</ele><time>2026-04-04T14:42:16.826Z</time></trkpt><trkpt lat="43.2986242" lon="11.2633881"><ele>332.0</ele><time>2026-04-04T14:42:18.826Z</time></trkpt><trkpt lat="43.2985053" lon="11.2634451"><ele>331.6</ele><time>2026-04-04T14:42:20.826Z</time></trkpt><trkpt lat="43.2984416" lon="11.2634741"><ele>331.20000000000005</ele><time>2026-04-04T14:42:21.826Z</time></trkpt><trkpt lat="43.298348" lon="11.2635668"><ele>330.8</ele><time>2026-04-04T14:42:23.826Z</time></trkpt><trkpt lat="43.2982397" lon="11.263661"><ele>330.4</ele><time>2026-04-04T14:42:25.826Z</time></trkpt><trkpt lat="43.2981844" lon="11.263716"><ele>330.0</ele><time>2026-04-04T14:42:26.826Z</time></trkpt><trkpt lat="43.2981155" lon="11.2637751"><ele>329.14285714285717</ele><time>2026-04-04T14:42:27.827Z</time></trkpt><trkpt lat="43.2980462" lon="11.2638102"><ele>328.2857142857143</ele><time>2026-04-04T14:42:28.826Z</time></trkpt><trkpt lat="43.2979807" lon="11.2638283"><ele>327.42857142857144</ele><time>2026-04-04T14:42:29.826Z</time></trkpt><trkpt lat="43.2979095" lon="11.2638684"><ele>326.57142857142856</ele><time>2026-04-04T14:42:30.827Z</time></trkpt><trkpt lat="43.2978335" lon="11.2639157"><ele>325.7142857142857</ele><time>2026-04-04T14:42:31.827Z</time></trkpt><trkpt lat="43.2977638" lon="11.2639554"><ele>324.8571428571429</ele><time>2026-04-04T14:42:32.827Z</time></trkpt><trkpt lat="43.2976983" lon="11.2639901"><ele>324.0</ele><time>2026-04-04T14:42:33.827Z</time></trkpt><trkpt lat="43.2976298" lon="11.2640315"><ele>323.4</ele><time>2026-04-04T14:42:34.826Z</time></trkpt><trkpt lat="43.2975698" lon="11.2640787"><ele>322.79999999999995</ele><time>2026-04-04T14:42:35.827Z</time></trkpt><trkpt lat="43.2974553" lon="11.2641375"><ele>322.20000000000005</ele><time>2026-04-04T14:42:37.826Z</time></trkpt><trkpt lat="43.2973975" lon="11.2641977"><ele>321.6</ele><time>2026-04-04T14:42:38.825Z</time></trkpt><trkpt lat="43.2973357" lon="11.2642302"><ele>321.0</ele><time>2026-04-04T14:42:39.826Z</time></trkpt><trkpt lat="43.2972154" lon="11.2642897"><ele>319.0</ele><time>2026-04-04T14:42:41.825Z</time></trkpt><trkpt lat="43.2971182" lon="11.2643729"><ele>317.0</ele><time>2026-04-04T14:42:43.827Z</time></trkpt><trkpt lat="43.2970633" lon="11.2644336"><ele>315.0</ele><time>2026-04-04T14:42:44.826Z</time></trkpt><trkpt lat="43.2969989" lon="11.264473"><ele>313.0</ele><time>2026-04-04T14:42:45.826Z</time></trkpt><trkpt lat="43.2969318" lon="11.2645155"><ele>311.0</ele><time>2026-04-04T14:42:46.826Z</time></trkpt><trkpt lat="43.2968615" lon="11.2645601"><ele>309.0</ele><time>2026-04-04T14:42:47.827Z</time></trkpt><trkpt lat="43.2967553" lon="11.2646035"><ele>309.0</ele><time>2026-04-04T14:42:49.826Z</time></trkpt><trkpt lat="43.2966931" lon="11.2646222"><ele>309.0</ele><time>2026-04-04T14:42:50.826Z</time></trkpt><trkpt lat="43.2966309" lon="11.2646393"><ele>309.0</ele><time>2026-04-04T14:42:51.825Z</time></trkpt><trkpt lat="43.2965135" lon="11.2646669"><ele>309.0</ele><time>2026-04-04T14:42:53.825Z</time></trkpt><trkpt lat="43.2964512" lon="11.2646827"><ele>309.0</ele><time>2026-04-04T14:42:54.827Z</time></trkpt><trkpt lat="43.2963356" lon="11.2647197"><ele>309.0</ele><time>2026-04-04T14:42:56.827Z</time></trkpt><trkpt lat="43.2962311" lon="11.2647599"><ele>306.0</ele><time>2026-04-04T14:42:58.826Z</time></trkpt><trkpt lat="43.2961556" lon="11.2647866"><ele>303.0</ele><time>2026-04-04T14:43:00.827Z</time></trkpt><trkpt lat="43.2960717" lon="11.264814"><ele>300.0</ele><time>2026-04-04T14:43:03.826Z</time></trkpt><trkpt lat="43.2960007" lon="11.2648321"><ele>297.0</ele><time>2026-04-04T14:43:05.827Z</time></trkpt><trkpt lat="43.2959269" lon="11.264864"><ele>294.0</ele><time>2026-04-04T14:43:07.826Z</time></trkpt><trkpt lat="43.2958458" lon="11.2648777"><ele>291.0</ele><time>2026-04-04T14:43:10.826Z</time></trkpt><trkpt lat="43.2957839" lon="11.2648544"><ele>291.0</ele><time>2026-04-04T14:43:12.826Z</time></trkpt><trkpt lat="43.2957145" lon="11.2648302"><ele>291.0</ele><time>2026-04-04T14:43:13.827Z</time></trkpt><trkpt lat="43.2956257" lon="11.2647951"><ele>291.0</ele><time>2026-04-04T14:43:15.825Z</time></trkpt><trkpt lat="43.2955213" lon="11.2647297"><ele>291.0</ele><time>2026-04-04T14:43:17.826Z</time></trkpt><trkpt lat="43.2953992" lon="11.2646597"><ele>291.0</ele><time>2026-04-04T14:43:19.826Z</time></trkpt><trkpt lat="43.2953263" lon="11.2646231"><ele>289.8333333333333</ele><time>2026-04-04T14:43:20.825Z</time></trkpt><trkpt lat="43.2952638" lon="11.2645922"><ele>288.6666666666667</ele><time>2026-04-04T14:43:21.826Z</time></trkpt><trkpt lat="43.2952004" lon="11.2645476"><ele>287.5</ele><time>2026-04-04T14:43:22.826Z</time></trkpt><trkpt lat="43.295147" lon="11.2644996"><ele>286.33333333333337</ele><time>2026-04-04T14:43:23.825Z</time></trkpt><trkpt lat="43.295059" lon="11.264452"><ele>285.1666666666667</ele><time>2026-04-04T14:43:25.826Z</time></trkpt><trkpt lat="43.2949697" lon="11.264451"><ele>284.0</ele><time>2026-04-04T14:43:27.827Z</time></trkpt><trkpt lat="43.2948801" lon="11.2644954"><ele>284.0</ele><time>2026-04-04T14:43:29.825Z</time></trkpt><trkpt lat="43.2947884" lon="11.2645062"><ele>284.0</ele><time>2026-04-04T14:43:31.827Z</time></trkpt><trkpt lat="43.2946806" lon="11.2644589"><ele>284.0</ele><time>2026-04-04T14:43:33.825Z</time></trkpt><trkpt lat="43.2945726" lon="11.264421"><ele>284.0</ele><time>2026-04-04T14:43:35.826Z</time></trkpt><trkpt lat="43.2944787" lon="11.2643925"><ele>284.0</ele><time>2026-04-04T14:43:37.825Z</time></trkpt><trkpt lat="43.2944034" lon="11.2643381"><ele>280.83333333333337</ele><time>2026-04-04T14:43:39.827Z</time></trkpt><trkpt lat="43.294321" lon="11.2643299"><ele>277.6666666666667</ele><time>2026-04-04T14:43:42.826Z</time></trkpt><trkpt lat="43.2942512" lon="11.2643787"><ele>274.5</ele><time>2026-04-04T14:43:44.827Z</time></trkpt><trkpt lat="43.2941809" lon="11.2644295"><ele>271.3333333333333</ele><time>2026-04-04T14:43:46.827Z</time></trkpt><trkpt lat="43.2941085" lon="11.2644576"><ele>268.16666666666663</ele><time>2026-04-04T14:43:49.826Z</time></trkpt><trkpt lat="43.2940494" lon="11.2643985"><ele>265.0</ele><time>2026-04-04T14:43:51.826Z</time></trkpt><trkpt lat="43.2939805" lon="11.2643414"><ele>263.8</ele><time>2026-04-04T14:43:53.825Z</time></trkpt><trkpt lat="43.2939178" lon="11.2642654"><ele>262.6</ele><time>2026-04-04T14:43:55.827Z</time></trkpt><trkpt lat="43.2938754" lon="11.2641244"><ele>261.4</ele><time>2026-04-04T14:43:57.825Z</time></trkpt><trkpt lat="43.2938429" lon="11.2640069"><ele>260.2</ele><time>2026-04-04T14:43:59.825Z</time></trkpt><trkpt lat="43.2938244" lon="11.2639223"><ele>259.0</ele><time>2026-04-04T14:44:00.827Z</time></trkpt><trkpt lat="43.2938035" lon="11.2637823"><ele>259.0</ele><time>2026-04-04T14:44:02.825Z</time></trkpt><trkpt lat="43.2937854" lon="11.2636873"><ele>259.0</ele><time>2026-04-04T14:44:04.826Z</time></trkpt><trkpt lat="43.2937321" lon="11.2636381"><ele>259.0</ele><time>2026-04-04T14:44:06.827Z</time></trkpt><trkpt lat="43.2936559" lon="11.2636068"><ele>259.0</ele><time>2026-04-04T14:44:09.826Z</time></trkpt><trkpt lat="43.2935753" lon="11.263607"><ele>259.0</ele><time>2026-04-04T14:44:12.825Z</time></trkpt><trkpt lat="43.2935106" lon="11.2636759"><ele>259.0</ele><time>2026-04-04T14:44:14.826Z</time></trkpt><trkpt lat="43.2934274" lon="11.2637527"><ele>259.0</ele><time>2026-04-04T14:44:15.826Z</time></trkpt><trkpt lat="43.2933812" lon="11.2638201"><ele>259.0</ele><time>2026-04-04T14:44:16.827Z</time></trkpt><trkpt lat="43.2933276" lon="11.2638854"><ele>259.0</ele><time>2026-04-04T14:44:17.827Z</time></trkpt><trkpt lat="43.2932784" lon="11.2639523"><ele>259.0</ele><time>2026-04-04T14:44:18.826Z</time></trkpt><trkpt lat="43.2932265" lon="11.2640208"><ele>259.0</ele><time>2026-04-04T14:44:19.827Z</time></trkpt><trkpt lat="43.2931525" lon="11.264102"><ele>259.0</ele><time>2026-04-04T14:44:21.827Z</time></trkpt><trkpt lat="43.2930722" lon="11.2642119"><ele>256.0</ele><time>2026-04-04T14:44:23.827Z</time></trkpt><trkpt lat="43.2930096" lon="11.2643265"><ele>252.99999999999997</ele><time>2026-04-04T14:44:25.827Z</time></trkpt><trkpt lat="43.2929448" lon="11.2643945"><ele>249.99999999999997</ele><time>2026-04-04T14:44:27.825Z</time></trkpt><trkpt lat="43.2928636" lon="11.2644897"><ele>247.0</ele><time>2026-04-04T14:44:29.827Z</time></trkpt><trkpt lat="43.2927608" lon="11.2645508"><ele>244.0</ele><time>2026-04-04T14:44:31.826Z</time></trkpt><trkpt lat="43.2926349" lon="11.264559"><ele>243.99999999999997</ele><time>2026-04-04T14:44:33.825Z</time></trkpt><trkpt lat="43.2925604" lon="11.2645466"><ele>244.0</ele><time>2026-04-04T14:44:34.827Z</time></trkpt><trkpt lat="43.2924915" lon="11.2645354"><ele>244.0</ele><time>2026-04-04T14:44:35.826Z</time></trkpt><trkpt lat="43.2924208" lon="11.264521"><ele>244.0</ele><time>2026-04-04T14:44:36.826Z</time></trkpt><trkpt lat="43.2922934" lon="11.2645089"><ele>243.99999999999997</ele><time>2026-04-04T14:44:38.826Z</time></trkpt><trkpt lat="43.2922146" lon="11.2644954"><ele>244.0</ele><time>2026-04-04T14:44:39.826Z</time></trkpt><trkpt lat="43.2921415" lon="11.2644946"><ele>240.6</ele><time>2026-04-04T14:44:40.827Z</time></trkpt><trkpt lat="43.2920194" lon="11.2644687"><ele>237.2</ele><time>2026-04-04T14:44:42.825Z</time></trkpt><trkpt lat="43.2918967" lon="11.2644919"><ele>233.79999999999998</ele><time>2026-04-04T14:44:44.826Z</time></trkpt><trkpt lat="43.2918309" lon="11.2645347"><ele>230.39999999999998</ele><time>2026-04-04T14:44:45.827Z</time></trkpt><trkpt lat="43.2917577" lon="11.2645874"><ele>227.0</ele><time>2026-04-04T14:44:46.826Z</time></trkpt><trkpt lat="43.2916917" lon="11.264647"><ele>227.00000000000003</ele><time>2026-04-04T14:44:47.826Z</time></trkpt><trkpt lat="43.291629" lon="11.2647089"><ele>227.0</ele><time>2026-04-04T14:44:48.826Z</time></trkpt><trkpt lat="43.2915726" lon="11.2647719"><ele>227.0</ele><time>2026-04-04T14:44:49.827Z</time></trkpt><trkpt lat="43.2915149" lon="11.2648337"><ele>227.0</ele><time>2026-04-04T14:44:50.827Z</time></trkpt><trkpt lat="43.2914537" lon="11.2648983"><ele>227.00000000000003</ele><time>2026-04-04T14:44:51.826Z</time></trkpt><trkpt lat="43.2913945" lon="11.2649622"><ele>227.0</ele><time>2026-04-04T14:44:52.827Z</time></trkpt><trkpt lat="43.2913325" lon="11.2650274"><ele>225.16666666666669</ele><time>2026-04-04T14:44:53.826Z</time></trkpt><trkpt lat="43.2912726" lon="11.265093"><ele>223.33333333333334</ele><time>2026-04-04T14:44:54.827Z</time></trkpt><trkpt lat="43.2912118" lon="11.2651545"><ele>221.5</ele><time>2026-04-04T14:44:55.827Z</time></trkpt><trkpt lat="43.291156" lon="11.2652104"><ele>219.66666666666669</ele><time>2026-04-04T14:44:56.827Z</time></trkpt><trkpt lat="43.2911019" lon="11.265258"><ele>217.83333333333334</ele><time>2026-04-04T14:44:57.827Z</time></trkpt><trkpt lat="43.2910108" lon="11.2653358"><ele>216.0</ele><time>2026-04-04T14:44:59.826Z</time></trkpt><trkpt lat="43.2909341" lon="11.2653997"><ele>216.0</ele><time>2026-04-04T14:45:01.826Z</time></trkpt><trkpt lat="43.2908469" lon="11.2654914"><ele>216.0</ele><time>2026-04-04T14:45:03.827Z</time></trkpt><trkpt lat="43.2907759" lon="11.2656202"><ele>216.0</ele><time>2026-04-04T14:45:05.827Z</time></trkpt><trkpt lat="43.2907092" lon="11.2657619"><ele>216.0</ele><time>2026-04-04T14:45:07.827Z</time></trkpt><trkpt lat="43.2906441" lon="11.2659064"><ele>216.83333333333334</ele><time>2026-04-04T14:45:09.826Z</time></trkpt><trkpt lat="43.2906119" lon="11.2659818"><ele>217.66666666666669</ele><time>2026-04-04T14:45:10.827Z</time></trkpt><trkpt lat="43.2905755" lon="11.2660782"><ele>218.5</ele><time>2026-04-04T14:45:12.827Z</time></trkpt><trkpt lat="43.2905455" lon="11.2661809"><ele>219.33333333333334</ele><time>2026-04-04T14:45:15.826Z</time></trkpt><trkpt lat="43.2905059" lon="11.2661023"><ele>220.16666666666669</ele><time>2026-04-04T14:45:20.825Z</time></trkpt><trkpt lat="43.2905119" lon="11.2659588"><ele>221.0</ele><time>2026-04-04T14:45:22.827Z</time></trkpt><trkpt lat="43.290537" lon="11.2658015"><ele>220.16666666666669</ele><time>2026-04-04T14:45:24.827Z</time></trkpt><trkpt lat="43.2905719" lon="11.2656457"><ele>219.33333333333334</ele><time>2026-04-04T14:45:26.825Z</time></trkpt><trkpt lat="43.2906029" lon="11.2655189"><ele>218.5</ele><time>2026-04-04T14:45:27.827Z</time></trkpt><trkpt lat="43.2906269" lon="11.2654271"><ele>217.66666666666669</ele><time>2026-04-04T14:45:28.826Z</time></trkpt><trkpt lat="43.2906504" lon="11.265334"><ele>216.83333333333334</ele><time>2026-04-04T14:45:29.826Z</time></trkpt><trkpt lat="43.2906726" lon="11.2652501"><ele>216.0</ele><time>2026-04-04T14:45:30.826Z</time></trkpt><trkpt lat="43.2906956" lon="11.2651651"><ele>216.0</ele><time>2026-04-04T14:45:31.826Z</time></trkpt><trkpt lat="43.2907238" lon="11.2649945"><ele>216.00000000000003</ele><time>2026-04-04T14:45:33.827Z</time></trkpt><trkpt lat="43.2907583" lon="11.2648247"><ele>216.00000000000003</ele><time>2026-04-04T14:45:35.825Z</time></trkpt><trkpt lat="43.2907826" lon="11.2647372"><ele>216.0</ele><time>2026-04-04T14:45:36.827Z</time></trkpt><trkpt lat="43.290815" lon="11.2646466"><ele>216.0</ele><time>2026-04-04T14:45:37.826Z</time></trkpt><trkpt lat="43.2908482" lon="11.2645476"><ele>216.0</ele><time>2026-04-04T14:45:38.827Z</time></trkpt><trkpt lat="43.2908797" lon="11.2644326"><ele>216.0</ele><time>2026-04-04T14:45:39.825Z</time></trkpt><trkpt lat="43.2908999" lon="11.264332"><ele>216.0</ele><time>2026-04-04T14:45:40.826Z</time></trkpt><trkpt lat="43.2909192" lon="11.26424"><ele>216.0</ele><time>2026-04-04T14:45:41.827Z</time></trkpt><trkpt lat="43.2909442" lon="11.2640884"><ele>216.0</ele><time>2026-04-04T14:45:43.826Z</time></trkpt><trkpt lat="43.2909628" lon="11.2639971"><ele>216.0</ele><time>2026-04-04T14:45:44.827Z</time></trkpt><trkpt lat="43.2909544" lon="11.2638918"><ele>216.0</ele><time>2026-04-04T14:45:45.826Z</time></trkpt><trkpt lat="43.2909526" lon="11.2637965"><ele>216.0</ele><time>2026-04-04T14:45:46.826Z</time></trkpt><trkpt lat="43.2909322" lon="11.2636277"><ele>216.0</ele><time>2026-04-04T14:45:48.827Z</time></trkpt><trkpt lat="43.2909212" lon="11.2634899"><ele>216.0</ele><time>2026-04-04T14:45:50.827Z</time></trkpt><trkpt lat="43.2909202" lon="11.26339"><ele>216.0</ele><time>2026-04-04T14:45:52.827Z</time></trkpt><trkpt lat="43.2909047" lon="11.2632928"><ele>216.0</ele><time>2026-04-04T14:45:53.826Z</time></trkpt><trkpt lat="43.2909063" lon="11.2632031"><ele>216.0</ele><time>2026-04-04T14:45:54.827Z</time></trkpt><trkpt lat="43.2908875" lon="11.2631172"><ele>216.0</ele><time>2026-04-04T14:45:55.826Z</time></trkpt><trkpt lat="43.2908833" lon="11.2630265"><ele>216.0</ele><time>2026-04-04T14:45:56.825Z</time></trkpt><trkpt lat="43.2908671" lon="11.2629244"><ele>216.0</ele><time>2026-04-04T14:45:57.826Z</time></trkpt><trkpt lat="43.2908481" lon="11.2627995"><ele>216.0</ele><time>2026-04-04T14:45:58.826Z</time></trkpt><trkpt lat="43.2908278" lon="11.2626829"><ele>216.0</ele><time>2026-04-04T14:45:59.826Z</time></trkpt><trkpt lat="43.2908149" lon="11.2625787"><ele>216.20000000000002</ele><time>2026-04-04T14:46:00.826Z</time></trkpt><trkpt lat="43.2908037" lon="11.2624635"><ele>216.40000000000003</ele><time>2026-04-04T14:46:01.826Z</time></trkpt><trkpt lat="43.2908033" lon="11.2623233"><ele>216.6</ele><time>2026-04-04T14:46:02.826Z</time></trkpt><trkpt lat="43.2908055" lon="11.2621924"><ele>216.8</ele><time>2026-04-04T14:46:03.825Z</time></trkpt><trkpt lat="43.2908054" lon="11.262062"><ele>217.0</ele><time>2026-04-04T14:46:04.826Z</time></trkpt><trkpt lat="43.2908207" lon="11.2619301"><ele>216.66666666666666</ele><time>2026-04-04T14:46:05.826Z</time></trkpt><trkpt lat="43.2908241" lon="11.2618346"><ele>216.33333333333331</ele><time>2026-04-04T14:46:06.827Z</time></trkpt><trkpt lat="43.2908353" lon="11.2617444"><ele>216.0</ele><time>2026-04-04T14:46:07.827Z</time></trkpt><trkpt lat="43.2908434" lon="11.2615971"><ele>215.66666666666669</ele><time>2026-04-04T14:46:09.826Z</time></trkpt><trkpt lat="43.2908499" lon="11.2615015"><ele>215.33333333333334</ele><time>2026-04-04T14:46:10.826Z</time></trkpt><trkpt lat="43.290865" lon="11.2613992"><ele>215.0</ele><time>2026-04-04T14:46:11.827Z</time></trkpt><trkpt lat="43.2908833" lon="11.2612672"><ele>214.83333333333334</ele><time>2026-04-04T14:46:12.827Z</time></trkpt><trkpt lat="43.2909026" lon="11.2611314"><ele>214.66666666666669</ele><time>2026-04-04T14:46:13.826Z</time></trkpt><trkpt lat="43.2909217" lon="11.2610086"><ele>214.5</ele><time>2026-04-04T14:46:14.826Z</time></trkpt><trkpt lat="43.2909498" lon="11.2608746"><ele>214.33333333333331</ele><time>2026-04-04T14:46:15.827Z</time></trkpt><trkpt lat="43.2909628" lon="11.260774"><ele>214.16666666666666</ele><time>2026-04-04T14:46:16.826Z</time></trkpt><trkpt lat="43.290968" lon="11.2606865"><ele>214.0</ele><time>2026-04-04T14:46:17.826Z</time></trkpt><trkpt lat="43.2909849" lon="11.2605866"><ele>213.66666666666666</ele><time>2026-04-04T14:46:18.825Z</time></trkpt><trkpt lat="43.2909932" lon="11.2604905"><ele>213.33333333333331</ele><time>2026-04-04T14:46:19.827Z</time></trkpt><trkpt lat="43.2910109" lon="11.2603877"><ele>213.0</ele><time>2026-04-04T14:46:20.827Z</time></trkpt><trkpt lat="43.2910297" lon="11.2602831"><ele>212.66666666666669</ele><time>2026-04-04T14:46:21.826Z</time></trkpt><trkpt lat="43.2910507" lon="11.260175"><ele>212.33333333333334</ele><time>2026-04-04T14:46:22.826Z</time></trkpt><trkpt lat="43.2910668" lon="11.2600688"><ele>212.0</ele><time>2026-04-04T14:46:23.827Z</time></trkpt><trkpt lat="43.2910816" lon="11.2599718"><ele>212.00000000000003</ele><time>2026-04-04T14:46:24.826Z</time></trkpt><trkpt lat="43.2910973" lon="11.2598753"><ele>212.0</ele><time>2026-04-04T14:46:25.826Z</time></trkpt><trkpt lat="43.2911168" lon="11.2597728"><ele>212.0</ele><time>2026-04-04T14:46:26.825Z</time></trkpt><trkpt lat="43.2911345" lon="11.2596719"><ele>212.0</ele><time>2026-04-04T14:46:27.825Z</time></trkpt><trkpt lat="43.2911607" lon="11.259562"><ele>212.00000000000003</ele><time>2026-04-04T14:46:28.825Z</time></trkpt><trkpt lat="43.2911883" lon="11.2594539"><ele>212.0</ele><time>2026-04-04T14:46:29.826Z</time></trkpt><trkpt lat="43.2912174" lon="11.2593582"><ele>211.83333333333334</ele><time>2026-04-04T14:46:30.826Z</time></trkpt><trkpt lat="43.2912413" lon="11.2592512"><ele>211.66666666666669</ele><time>2026-04-04T14:46:31.826Z</time></trkpt><trkpt lat="43.2912631" lon="11.2591431"><ele>211.5</ele><time>2026-04-04T14:46:32.827Z</time></trkpt><trkpt lat="43.2912907" lon="11.2590317"><ele>211.33333333333331</ele><time>2026-04-04T14:46:33.826Z</time></trkpt><trkpt lat="43.2913193" lon="11.2589162"><ele>211.16666666666666</ele><time>2026-04-04T14:46:34.827Z</time></trkpt><trkpt lat="43.2913421" lon="11.2587958"><ele>211.0</ele><time>2026-04-04T14:46:35.826Z</time></trkpt><trkpt lat="43.2913658" lon="11.2586827"><ele>210.66666666666666</ele><time>2026-04-04T14:46:36.826Z</time></trkpt><trkpt lat="43.2913821" lon="11.2585617"><ele>210.33333333333331</ele><time>2026-04-04T14:46:37.825Z</time></trkpt><trkpt lat="43.2914004" lon="11.2584346"><ele>210.0</ele><time>2026-04-04T14:46:38.826Z</time></trkpt><trkpt lat="43.2914092" lon="11.2583131"><ele>209.66666666666669</ele><time>2026-04-04T14:46:39.826Z</time></trkpt><trkpt lat="43.2914333" lon="11.2581805"><ele>209.33333333333334</ele><time>2026-04-04T14:46:40.826Z</time></trkpt><trkpt lat="43.2914415" lon="11.2580803"><ele>209.0</ele><time>2026-04-04T14:46:41.827Z</time></trkpt><trkpt lat="43.2914598" lon="11.2579759"><ele>211.00000000000003</ele><time>2026-04-04T14:46:42.827Z</time></trkpt><trkpt lat="43.2914845" lon="11.2578636"><ele>213.0</ele><time>2026-04-04T14:46:43.825Z</time></trkpt><trkpt lat="43.291494" lon="11.2577394"><ele>215.0</ele><time>2026-04-04T14:46:44.826Z</time></trkpt><trkpt lat="43.29151" lon="11.2576294"><ele>217.0</ele><time>2026-04-04T14:46:45.826Z</time></trkpt><trkpt lat="43.2915196" lon="11.2575232"><ele>219.00000000000003</ele><time>2026-04-04T14:46:46.826Z</time></trkpt><trkpt lat="43.291522" lon="11.2574233"><ele>221.0</ele><time>2026-04-04T14:46:47.826Z</time></trkpt><trkpt lat="43.2915275" lon="11.2573339"><ele>220.66666666666669</ele><time>2026-04-04T14:46:48.825Z</time></trkpt><trkpt lat="43.2915441" lon="11.2572188"><ele>220.33333333333334</ele><time>2026-04-04T14:46:49.826Z</time></trkpt><trkpt lat="43.2915598" lon="11.2571081"><ele>220.0</ele><time>2026-04-04T14:46:50.827Z</time></trkpt><trkpt lat="43.2915684" lon="11.2570124"><ele>219.66666666666669</ele><time>2026-04-04T14:46:51.826Z</time></trkpt><trkpt lat="43.2915619" lon="11.2568586"><ele>219.33333333333334</ele><time>2026-04-04T14:46:53.827Z</time></trkpt><trkpt lat="43.2915651" lon="11.2567227"><ele>219.0</ele><time>2026-04-04T14:46:55.827Z</time></trkpt><trkpt lat="43.2915689" lon="11.2565824"><ele>218.79999999999998</ele><time>2026-04-04T14:46:57.826Z</time></trkpt><trkpt lat="43.291584" lon="11.2564501"><ele>218.59999999999997</ele><time>2026-04-04T14:46:59.826Z</time></trkpt><trkpt lat="43.2916069" lon="11.2562867"><ele>218.4</ele><time>2026-04-04T14:47:01.827Z</time></trkpt><trkpt lat="43.2916268" lon="11.256129"><ele>218.2</ele><time>2026-04-04T14:47:03.826Z</time></trkpt><trkpt lat="43.2916618" lon="11.255992"><ele>218.0</ele><time>2026-04-04T14:47:05.827Z</time></trkpt><trkpt lat="43.2916842" lon="11.25591"><ele>218.0</ele><time>2026-04-04T14:47:06.827Z</time></trkpt><trkpt lat="43.2917013" lon="11.2558264"><ele>218.0</ele><time>2026-04-04T14:47:07.826Z</time></trkpt><trkpt lat="43.2917315" lon="11.2556752"><ele>218.0</ele><time>2026-04-04T14:47:09.825Z</time></trkpt><trkpt lat="43.2917594" lon="11.2555878"><ele>218.0</ele><time>2026-04-04T14:47:10.825Z</time></trkpt><trkpt lat="43.2917752" lon="11.2554178"><ele>218.0</ele><time>2026-04-04T14:47:12.826Z</time></trkpt><trkpt lat="43.2917904" lon="11.2552688"><ele>217.16666666666669</ele><time>2026-04-04T14:47:14.826Z</time></trkpt><trkpt lat="43.2918445" lon="11.2551127"><ele>216.33333333333334</ele><time>2026-04-04T14:47:16.827Z</time></trkpt><trkpt lat="43.2918682" lon="11.2550265"><ele>215.5</ele><time>2026-04-04T14:47:17.825Z</time></trkpt><trkpt lat="43.2919287" lon="11.2549225"><ele>214.66666666666669</ele><time>2026-04-04T14:47:18.827Z</time></trkpt><trkpt lat="43.2919635" lon="11.25483"><ele>213.83333333333334</ele><time>2026-04-04T14:47:19.826Z</time></trkpt><trkpt lat="43.2919896" lon="11.2547512"><ele>213.0</ele><time>2026-04-04T14:47:20.825Z</time></trkpt><trkpt lat="43.2920184" lon="11.2545924"><ele>213.0</ele><time>2026-04-04T14:47:22.826Z</time></trkpt><trkpt lat="43.2920287" lon="11.2544824"><ele>213.0</ele><time>2026-04-04T14:47:24.827Z</time></trkpt><trkpt lat="43.2920458" lon="11.2543735"><ele>213.0</ele><time>2026-04-04T14:47:29.826Z</time></trkpt><trkpt lat="43.2920485" lon="11.2542787"><ele>213.0</ele><time>2026-04-04T14:47:32.825Z</time></trkpt><trkpt lat="43.2920367" lon="11.2541556"><ele>213.0</ele><time>2026-04-04T14:47:34.827Z</time></trkpt><trkpt lat="43.2920376" lon="11.2540115"><ele>213.0</ele><time>2026-04-04T14:47:36.825Z</time></trkpt><trkpt lat="43.2920122" lon="11.2538847"><ele>213.0</ele><time>2026-04-04T14:47:38.827Z</time></trkpt><trkpt lat="43.2919815" lon="11.2536972"><ele>213.0</ele><time>2026-04-04T14:47:40.826Z</time></trkpt><trkpt lat="43.2919758" lon="11.2535291"><ele>213.0</ele><time>2026-04-04T14:47:42.826Z</time></trkpt><trkpt lat="43.2919839" lon="11.2534044"><ele>213.0</ele><time>2026-04-04T14:47:43.826Z</time></trkpt><trkpt lat="43.2919899" lon="11.2533047"><ele>213.0</ele><time>2026-04-04T14:47:44.826Z</time></trkpt><trkpt lat="43.2920211" lon="11.2531249"><ele>212.8</ele><time>2026-04-04T14:47:46.827Z</time></trkpt><trkpt lat="43.2920677" lon="11.2529154"><ele>212.60000000000002</ele><time>2026-04-04T14:47:48.827Z</time></trkpt><trkpt lat="43.2921054" lon="11.2527759"><ele>212.39999999999998</ele><time>2026-04-04T14:47:50.826Z</time></trkpt><trkpt lat="43.2921219" lon="11.2526865"><ele>212.2</ele><time>2026-04-04T14:47:52.825Z</time></trkpt><trkpt lat="43.2920783" lon="11.2526236"><ele>212.0</ele><time>2026-04-04T14:49:41.825Z</time></trkpt><trkpt lat="43.2920486" lon="11.2525282"><ele>212.0</ele><time>2026-04-04T14:49:43.825Z</time></trkpt><trkpt lat="43.2920186" lon="11.2523789"><ele>212.0</ele><time>2026-04-04T14:49:45.825Z</time></trkpt><trkpt lat="43.292007" lon="11.2522498"><ele>212.0</ele><time>2026-04-04T14:49:47.824Z</time></trkpt><trkpt lat="43.2920149" lon="11.2521096"><ele>212.0</ele><time>2026-04-04T14:49:49.824Z</time></trkpt><trkpt lat="43.2920302" lon="11.252023"><ele>212.0</ele><time>2026-04-04T14:49:50.826Z</time></trkpt><trkpt lat="43.2920682" lon="11.2518578"><ele>211.50000000000003</ele><time>2026-04-04T14:49:52.826Z</time></trkpt><trkpt lat="43.2920867" lon="11.2517699"><ele>211.0</ele><time>2026-04-04T14:49:53.825Z</time></trkpt><trkpt lat="43.2921035" lon="11.2516825"><ele>210.5</ele><time>2026-04-04T14:49:54.825Z</time></trkpt><trkpt lat="43.2921148" lon="11.251571"><ele>210.0</ele><time>2026-04-04T14:49:55.825Z</time></trkpt><trkpt lat="43.2921322" lon="11.2514695"><ele>209.50000000000003</ele><time>2026-04-04T14:49:56.826Z</time></trkpt><trkpt lat="43.2921721" lon="11.2513213"><ele>209.0</ele><time>2026-04-04T14:49:58.824Z</time></trkpt><trkpt lat="43.2921895" lon="11.2511928"><ele>208.66666666666669</ele><time>2026-04-04T14:50:00.826Z</time></trkpt><trkpt lat="43.2922151" lon="11.2511033"><ele>208.33333333333334</ele><time>2026-04-04T14:50:01.826Z</time></trkpt><trkpt lat="43.2922397" lon="11.2509922"><ele>208.0</ele><time>2026-04-04T14:50:02.824Z</time></trkpt><trkpt lat="43.2922598" lon="11.2508881"><ele>207.66666666666669</ele><time>2026-04-04T14:50:03.824Z</time></trkpt><trkpt lat="43.2922825" lon="11.2507884"><ele>207.33333333333334</ele><time>2026-04-04T14:50:04.825Z</time></trkpt><trkpt lat="43.2923018" lon="11.2506797"><ele>207.0</ele><time>2026-04-04T14:50:05.826Z</time></trkpt><trkpt lat="43.2923176" lon="11.2505831"><ele>209.66666666666666</ele><time>2026-04-04T14:50:06.825Z</time></trkpt><trkpt lat="43.2923379" lon="11.2504834"><ele>212.33333333333331</ele><time>2026-04-04T14:50:07.824Z</time></trkpt><trkpt lat="43.2923529" lon="11.2503978"><ele>215.0</ele><time>2026-04-04T14:50:08.825Z</time></trkpt><trkpt lat="43.2923661" lon="11.2503127"><ele>217.66666666666666</ele><time>2026-04-04T14:50:09.824Z</time></trkpt><trkpt lat="43.2923864" lon="11.2502272"><ele>220.33333333333331</ele><time>2026-04-04T14:50:10.824Z</time></trkpt><trkpt lat="43.2924329" lon="11.250084"><ele>223.0</ele><time>2026-04-04T14:50:12.824Z</time></trkpt><trkpt lat="43.2924761" lon="11.2499639"><ele>222.0</ele><time>2026-04-04T14:50:14.825Z</time></trkpt><trkpt lat="43.2924905" lon="11.2497883"><ele>221.0</ele><time>2026-04-04T14:50:16.824Z</time></trkpt><trkpt lat="43.2924968" lon="11.2496737"><ele>220.0</ele><time>2026-04-04T14:50:17.825Z</time></trkpt><trkpt lat="43.2925086" lon="11.2495369"><ele>219.0</ele><time>2026-04-04T14:50:18.826Z</time></trkpt><trkpt lat="43.2925235" lon="11.2494108"><ele>218.0</ele><time>2026-04-04T14:50:19.826Z</time></trkpt><trkpt lat="43.2925371" lon="11.2492956"><ele>218.00000000000003</ele><time>2026-04-04T14:50:20.826Z</time></trkpt><trkpt lat="43.2925487" lon="11.2491725"><ele>218.0</ele><time>2026-04-04T14:50:21.826Z</time></trkpt><trkpt lat="43.2925672" lon="11.2490356"><ele>218.0</ele><time>2026-04-04T14:50:22.826Z</time></trkpt><trkpt lat="43.2925855" lon="11.2489104"><ele>218.0</ele><time>2026-04-04T14:50:23.826Z</time></trkpt><trkpt lat="43.292603" lon="11.2488033"><ele>218.00000000000003</ele><time>2026-04-04T14:50:24.825Z</time></trkpt><trkpt lat="43.2926299" lon="11.2486944"><ele>218.0</ele><time>2026-04-04T14:50:25.825Z</time></trkpt><trkpt lat="43.2926655" lon="11.2485866"><ele>217.66666666666669</ele><time>2026-04-04T14:50:26.826Z</time></trkpt><trkpt lat="43.2927015" lon="11.248486"><ele>217.33333333333334</ele><time>2026-04-04T14:50:27.825Z</time></trkpt><trkpt lat="43.2927436" lon="11.2483989"><ele>217.0</ele><time>2026-04-04T14:50:28.825Z</time></trkpt><trkpt lat="43.2927976" lon="11.2483129"><ele>216.66666666666669</ele><time>2026-04-04T14:50:29.826Z</time></trkpt><trkpt lat="43.292861" lon="11.2482295"><ele>216.33333333333334</ele><time>2026-04-04T14:50:30.825Z</time></trkpt><trkpt lat="43.2929294" lon="11.2481486"><ele>216.0</ele><time>2026-04-04T14:50:31.826Z</time></trkpt><trkpt lat="43.292995" lon="11.2480767"><ele>215.33333333333334</ele><time>2026-04-04T14:50:32.825Z</time></trkpt><trkpt lat="43.2930649" lon="11.2479965"><ele>214.66666666666669</ele><time>2026-04-04T14:50:33.826Z</time></trkpt><trkpt lat="43.2931339" lon="11.2479133"><ele>214.0</ele><time>2026-04-04T14:50:34.825Z</time></trkpt><trkpt lat="43.2931975" lon="11.2478424"><ele>213.33333333333334</ele><time>2026-04-04T14:50:35.825Z</time></trkpt><trkpt lat="43.2932652" lon="11.2477688"><ele>212.66666666666669</ele><time>2026-04-04T14:50:36.825Z</time></trkpt><trkpt lat="43.2933312" lon="11.2476894"><ele>212.0</ele><time>2026-04-04T14:50:37.826Z</time></trkpt><trkpt lat="43.2933859" lon="11.2476051"><ele>213.33333333333334</ele><time>2026-04-04T14:50:38.826Z</time></trkpt><trkpt lat="43.2934375" lon="11.2475157"><ele>214.66666666666669</ele><time>2026-04-04T14:50:39.825Z</time></trkpt><trkpt lat="43.2934877" lon="11.2474255"><ele>216.0</ele><time>2026-04-04T14:50:40.826Z</time></trkpt><trkpt lat="43.2935421" lon="11.2473374"><ele>217.33333333333331</ele><time>2026-04-04T14:50:41.826Z</time></trkpt><trkpt lat="43.2936035" lon="11.2472475"><ele>218.66666666666666</ele><time>2026-04-04T14:50:42.826Z</time></trkpt><trkpt lat="43.2936661" lon="11.2471615"><ele>220.0</ele><time>2026-04-04T14:50:43.824Z</time></trkpt><trkpt lat="43.2937212" lon="11.2470873"><ele>219.99999999999997</ele><time>2026-04-04T14:50:44.825Z</time></trkpt><trkpt lat="43.2937888" lon="11.2469658"><ele>220.0</ele><time>2026-04-04T14:50:46.825Z</time></trkpt><trkpt lat="43.2938035" lon="11.2467994"><ele>220.0</ele><time>2026-04-04T14:50:48.825Z</time></trkpt><trkpt lat="43.2937937" lon="11.2467045"><ele>220.0</ele><time>2026-04-04T14:50:49.825Z</time></trkpt><trkpt lat="43.2937912" lon="11.2466118"><ele>219.99999999999997</ele><time>2026-04-04T14:50:50.825Z</time></trkpt><trkpt lat="43.2938008" lon="11.246508"><ele>220.0</ele><time>2026-04-04T14:50:51.826Z</time></trkpt><trkpt lat="43.2938219" lon="11.246413"><ele>219.49999999999997</ele><time>2026-04-04T14:50:52.826Z</time></trkpt><trkpt lat="43.2938521" lon="11.246314"><ele>219.0</ele><time>2026-04-04T14:50:53.824Z</time></trkpt><trkpt lat="43.2938764" lon="11.2462182"><ele>218.5</ele><time>2026-04-04T14:50:54.825Z</time></trkpt><trkpt lat="43.2939053" lon="11.2461239"><ele>218.0</ele><time>2026-04-04T14:50:55.826Z</time></trkpt><trkpt lat="43.2939384" lon="11.2460353"><ele>217.49999999999997</ele><time>2026-04-04T14:50:56.825Z</time></trkpt><trkpt lat="43.2939814" lon="11.2459439"><ele>217.0</ele><time>2026-04-04T14:50:57.824Z</time></trkpt><trkpt lat="43.2940265" lon="11.2458633"><ele>217.39999999999998</ele><time>2026-04-04T14:50:58.824Z</time></trkpt><trkpt lat="43.2940755" lon="11.2457849"><ele>217.79999999999998</ele><time>2026-04-04T14:50:59.826Z</time></trkpt><trkpt lat="43.2941714" lon="11.2456876"><ele>218.2</ele><time>2026-04-04T14:51:01.825Z</time></trkpt><trkpt lat="43.2942778" lon="11.2456079"><ele>218.6</ele><time>2026-04-04T14:51:03.824Z</time></trkpt><trkpt lat="43.2943314" lon="11.2455382"><ele>219.0</ele><time>2026-04-04T14:51:04.825Z</time></trkpt><trkpt lat="43.2944123" lon="11.2454235"><ele>219.0</ele><time>2026-04-04T14:51:06.824Z</time></trkpt><trkpt lat="43.2944887" lon="11.2453778"><ele>218.99999999999997</ele><time>2026-04-04T14:51:08.824Z</time></trkpt><trkpt lat="43.2945693" lon="11.2453257"><ele>218.99999999999997</ele><time>2026-04-04T14:51:10.825Z</time></trkpt><trkpt lat="43.2946401" lon="11.2451978"><ele>219.0</ele><time>2026-04-04T14:51:12.826Z</time></trkpt><trkpt lat="43.2946759" lon="11.2451209"><ele>219.0</ele><time>2026-04-04T14:51:13.826Z</time></trkpt><trkpt lat="43.294748" lon="11.2449826"><ele>219.16666666666666</ele><time>2026-04-04T14:51:15.826Z</time></trkpt><trkpt lat="43.2947949" lon="11.2449156"><ele>219.33333333333331</ele><time>2026-04-04T14:51:16.826Z</time></trkpt><trkpt lat="43.2948475" lon="11.2448393"><ele>219.5</ele><time>2026-04-04T14:51:17.826Z</time></trkpt><trkpt lat="43.2949017" lon="11.2447612"><ele>219.66666666666666</ele><time>2026-04-04T14:51:18.826Z</time></trkpt><trkpt lat="43.2949602" lon="11.2446844"><ele>219.83333333333331</ele><time>2026-04-04T14:51:19.825Z</time></trkpt><trkpt lat="43.2950206" lon="11.2446049"><ele>220.0</ele><time>2026-04-04T14:51:20.825Z</time></trkpt><trkpt lat="43.2950822" lon="11.2445235"><ele>219.99999999999997</ele><time>2026-04-04T14:51:21.824Z</time></trkpt><trkpt lat="43.2951424" lon="11.2444416"><ele>220.0</ele><time>2026-04-04T14:51:22.825Z</time></trkpt><trkpt lat="43.2952029" lon="11.2443596"><ele>220.0</ele><time>2026-04-04T14:51:23.826Z</time></trkpt><trkpt lat="43.2952607" lon="11.2442825"><ele>220.0</ele><time>2026-04-04T14:51:24.825Z</time></trkpt><trkpt lat="43.2953171" lon="11.2442066"><ele>219.99999999999997</ele><time>2026-04-04T14:51:25.826Z</time></trkpt><trkpt lat="43.2953695" lon="11.2441368"><ele>220.0</ele><time>2026-04-04T14:51:26.825Z</time></trkpt><trkpt lat="43.2954216" lon="11.244066"><ele>219.99999999999997</ele><time>2026-04-04T14:51:27.824Z</time></trkpt><trkpt lat="43.2954697" lon="11.2440014"><ele>220.0</ele><time>2026-04-04T14:51:28.824Z</time></trkpt><trkpt lat="43.295515" lon="11.2439413"><ele>220.0</ele><time>2026-04-04T14:51:29.826Z</time></trkpt><trkpt lat="43.2955847" lon="11.2438305"><ele>220.0</ele><time>2026-04-04T14:51:31.825Z</time></trkpt><trkpt lat="43.2956389" lon="11.2437439"><ele>219.99999999999997</ele><time>2026-04-04T14:51:33.825Z</time></trkpt><trkpt lat="43.2957134" lon="11.2437205"><ele>220.0</ele><time>2026-04-04T14:51:36.824Z</time></trkpt><trkpt lat="43.2957884" lon="11.2438264"><ele>221.0</ele><time>2026-04-04T14:51:38.826Z</time></trkpt><trkpt lat="43.2958336" lon="11.2439049"><ele>222.0</ele><time>2026-04-04T14:51:39.825Z</time></trkpt><trkpt lat="43.2958891" lon="11.2439972"><ele>223.0</ele><time>2026-04-04T14:51:40.824Z</time></trkpt><trkpt lat="43.2959506" lon="11.2440958"><ele>224.0</ele><time>2026-04-04T14:51:41.824Z</time></trkpt><trkpt lat="43.2960184" lon="11.2442073"><ele>225.0</ele><time>2026-04-04T14:51:42.825Z</time></trkpt><trkpt lat="43.2960819" lon="11.2443124"><ele>225.66666666666666</ele><time>2026-04-04T14:51:43.825Z</time></trkpt><trkpt lat="43.2961428" lon="11.244408"><ele>226.33333333333331</ele><time>2026-04-04T14:51:44.825Z</time></trkpt><trkpt lat="43.2962" lon="11.2444989"><ele>227.0</ele><time>2026-04-04T14:51:45.825Z</time></trkpt><trkpt lat="43.2962552" lon="11.2445899"><ele>227.66666666666666</ele><time>2026-04-04T14:51:46.825Z</time></trkpt><trkpt lat="43.2963111" lon="11.2446734"><ele>228.33333333333331</ele><time>2026-04-04T14:51:47.826Z</time></trkpt><trkpt lat="43.2963667" lon="11.2447595"><ele>229.0</ele><time>2026-04-04T14:51:48.826Z</time></trkpt><trkpt lat="43.2964244" lon="11.2448355"><ele>231.0</ele><time>2026-04-04T14:51:49.826Z</time></trkpt><trkpt lat="43.296494" lon="11.2448981"><ele>232.99999999999997</ele><time>2026-04-04T14:51:50.825Z</time></trkpt><trkpt lat="43.2965775" lon="11.2449436"><ele>234.99999999999997</ele><time>2026-04-04T14:51:51.825Z</time></trkpt><trkpt lat="43.2966635" lon="11.2449815"><ele>237.0</ele><time>2026-04-04T14:51:52.825Z</time></trkpt><trkpt lat="43.2967544" lon="11.2450205"><ele>239.0</ele><time>2026-04-04T14:51:53.825Z</time></trkpt><trkpt lat="43.2968461" lon="11.245063"><ele>239.0</ele><time>2026-04-04T14:51:54.826Z</time></trkpt><trkpt lat="43.2969371" lon="11.2451136"><ele>238.99999999999997</ele><time>2026-04-04T14:51:55.824Z</time></trkpt><trkpt lat="43.2970236" lon="11.2451776"><ele>238.99999999999997</ele><time>2026-04-04T14:51:56.825Z</time></trkpt><trkpt lat="43.2971059" lon="11.2452528"><ele>239.0</ele><time>2026-04-04T14:51:57.825Z</time></trkpt><trkpt lat="43.2971854" lon="11.2453259"><ele>239.0</ele><time>2026-04-04T14:51:58.825Z</time></trkpt><trkpt lat="43.2972648" lon="11.2454017"><ele>239.66666666666669</ele><time>2026-04-04T14:51:59.826Z</time></trkpt><trkpt lat="43.2973428" lon="11.2454736"><ele>240.33333333333334</ele><time>2026-04-04T14:52:00.826Z</time></trkpt><trkpt lat="43.2974199" lon="11.2455438"><ele>241.0</ele><time>2026-04-04T14:52:01.825Z</time></trkpt><trkpt lat="43.2974913" lon="11.2455973"><ele>241.66666666666669</ele><time>2026-04-04T14:52:02.826Z</time></trkpt><trkpt lat="43.2975576" lon="11.2456291"><ele>242.33333333333334</ele><time>2026-04-04T14:52:03.826Z</time></trkpt><trkpt lat="43.2976257" lon="11.2456337"><ele>243.0</ele><time>2026-04-04T14:52:04.826Z</time></trkpt><trkpt lat="43.2976898" lon="11.2456223"><ele>243.0</ele><time>2026-04-04T14:52:05.826Z</time></trkpt><trkpt lat="43.2977523" lon="11.2455969"><ele>243.0</ele><time>2026-04-04T14:52:06.824Z</time></trkpt><trkpt lat="43.2978555" lon="11.2455139"><ele>243.0</ele><time>2026-04-04T14:52:08.824Z</time></trkpt><trkpt lat="43.2978977" lon="11.2454496"><ele>243.0</ele><time>2026-04-04T14:52:09.825Z</time></trkpt><trkpt lat="43.2979441" lon="11.2453847"><ele>243.0</ele><time>2026-04-04T14:52:10.826Z</time></trkpt><trkpt lat="43.2979947" lon="11.2453273"><ele>243.0</ele><time>2026-04-04T14:52:11.825Z</time></trkpt><trkpt lat="43.2981069" lon="11.245257"><ele>244.33333333333334</ele><time>2026-04-04T14:52:13.826Z</time></trkpt><trkpt lat="43.2981873" lon="11.2452488"><ele>245.66666666666669</ele><time>2026-04-04T14:52:14.825Z</time></trkpt><trkpt lat="43.2982622" lon="11.2452316"><ele>247.0</ele><time>2026-04-04T14:52:15.825Z</time></trkpt><trkpt lat="43.298332" lon="11.2452085"><ele>248.33333333333334</ele><time>2026-04-04T14:52:16.825Z</time></trkpt><trkpt lat="43.2983834" lon="11.2451456"><ele>249.66666666666669</ele><time>2026-04-04T14:52:17.826Z</time></trkpt><trkpt lat="43.2984372" lon="11.2450597"><ele>251.0</ele><time>2026-04-04T14:52:18.825Z</time></trkpt><trkpt lat="43.2984914" lon="11.2449713"><ele>251.00000000000003</ele><time>2026-04-04T14:52:19.826Z</time></trkpt><trkpt lat="43.2985463" lon="11.244882"><ele>251.0</ele><time>2026-04-04T14:52:20.825Z</time></trkpt><trkpt lat="43.2986031" lon="11.2447928"><ele>251.0</ele><time>2026-04-04T14:52:21.826Z</time></trkpt><trkpt lat="43.2986633" lon="11.244709"><ele>251.0</ele><time>2026-04-04T14:52:22.826Z</time></trkpt><trkpt lat="43.2987293" lon="11.2446305"><ele>251.00000000000003</ele><time>2026-04-04T14:52:23.825Z</time></trkpt><trkpt lat="43.2987943" lon="11.2445616"><ele>251.0</ele><time>2026-04-04T14:52:24.825Z</time></trkpt><trkpt lat="43.2988695" lon="11.2445037"><ele>251.66666666666669</ele><time>2026-04-04T14:52:25.825Z</time></trkpt><trkpt lat="43.2989479" lon="11.2444575"><ele>252.33333333333334</ele><time>2026-04-04T14:52:26.825Z</time></trkpt><trkpt lat="43.2990198" lon="11.244392"><ele>253.0</ele><time>2026-04-04T14:52:27.825Z</time></trkpt><trkpt lat="43.2990702" lon="11.2443283"><ele>253.66666666666669</ele><time>2026-04-04T14:52:28.824Z</time></trkpt><trkpt lat="43.299144" lon="11.2442187"><ele>254.33333333333334</ele><time>2026-04-04T14:52:30.826Z</time></trkpt><trkpt lat="43.2991874" lon="11.2441508"><ele>255.0</ele><time>2026-04-04T14:52:32.824Z</time></trkpt><trkpt lat="43.29927" lon="11.2441144"><ele>255.0</ele><time>2026-04-04T14:52:55.826Z</time></trkpt><trkpt lat="43.2993411" lon="11.2440948"><ele>255.0</ele><time>2026-04-04T14:52:57.826Z</time></trkpt><trkpt lat="43.2994276" lon="11.2440518"><ele>255.0</ele><time>2026-04-04T14:53:00.824Z</time></trkpt><trkpt lat="43.2995111" lon="11.2440434"><ele>255.0</ele><time>2026-04-04T14:53:04.825Z</time></trkpt><trkpt lat="43.2995392" lon="11.2441343"><ele>255.0</ele><time>2026-04-04T14:53:06.825Z</time></trkpt><trkpt lat="43.2995647" lon="11.2442312"><ele>255.0</ele><time>2026-04-04T14:53:08.826Z</time></trkpt><trkpt lat="43.2996286" lon="11.2442869"><ele>255.0</ele><time>2026-04-04T14:53:12.825Z</time></trkpt><trkpt lat="43.2997004" lon="11.2443058"><ele>255.0</ele><time>2026-04-04T14:53:15.825Z</time></trkpt><trkpt lat="43.2997749" lon="11.2443816"><ele>255.0</ele><time>2026-04-04T14:53:17.825Z</time></trkpt><trkpt lat="43.2998091" lon="11.2444895"><ele>255.0</ele><time>2026-04-04T14:53:19.826Z</time></trkpt><trkpt lat="43.2998335" lon="11.2446058"><ele>255.0</ele><time>2026-04-04T14:53:23.825Z</time></trkpt><trkpt lat="43.2998975" lon="11.2446958"><ele>255.0</ele><time>2026-04-04T14:53:26.824Z</time></trkpt><trkpt lat="43.2999713" lon="11.2447697"><ele>258.8571428571429</ele><time>2026-04-04T14:53:28.825Z</time></trkpt><trkpt lat="43.3000361" lon="11.244841"><ele>262.7142857142857</ele><time>2026-04-04T14:53:30.825Z</time></trkpt><trkpt lat="43.3000952" lon="11.2448883"><ele>266.57142857142856</ele><time>2026-04-04T14:53:32.824Z</time></trkpt><trkpt lat="43.3001572" lon="11.2449127"><ele>270.42857142857144</ele><time>2026-04-04T14:53:34.826Z</time></trkpt><trkpt lat="43.300244" lon="11.2449816"><ele>274.2857142857143</ele><time>2026-04-04T14:53:36.824Z</time></trkpt><trkpt lat="43.3002886" lon="11.2450428"><ele>278.14285714285717</ele><time>2026-04-04T14:53:38.826Z</time></trkpt><trkpt lat="43.3003251" lon="11.2451149"><ele>282.0</ele><time>2026-04-04T14:53:40.824Z</time></trkpt><trkpt lat="43.300372" lon="11.2451925"><ele>282.0</ele><time>2026-04-04T14:53:42.825Z</time></trkpt><trkpt lat="43.3004356" lon="11.245224"><ele>282.0</ele><time>2026-04-04T14:53:44.825Z</time></trkpt><trkpt lat="43.3005394" lon="11.2452614"><ele>282.0</ele><time>2026-04-04T14:53:47.825Z</time></trkpt><trkpt lat="43.3006434" lon="11.2452878"><ele>282.0</ele><time>2026-04-04T14:53:49.824Z</time></trkpt><trkpt lat="43.3007092" lon="11.245309"><ele>282.0</ele><time>2026-04-04T14:53:51.824Z</time></trkpt><trkpt lat="43.3008206" lon="11.2453174"><ele>285.5</ele><time>2026-04-04T14:53:53.826Z</time></trkpt><trkpt lat="43.3009127" lon="11.2452972"><ele>289.0</ele><time>2026-04-04T14:53:55.825Z</time></trkpt><trkpt lat="43.300977" lon="11.2452908"><ele>292.5</ele><time>2026-04-04T14:53:57.826Z</time></trkpt><trkpt lat="43.3010601" lon="11.2452825"><ele>296.0</ele><time>2026-04-04T14:53:59.825Z</time></trkpt><trkpt lat="43.301128" lon="11.2453215"><ele>299.5</ele><time>2026-04-04T14:54:01.825Z</time></trkpt><trkpt lat="43.3012363" lon="11.2453465"><ele>303.0</ele><time>2026-04-04T14:54:03.825Z</time></trkpt><trkpt lat="43.3013351" lon="11.2453775"><ele>304.6</ele><time>2026-04-04T14:54:05.825Z</time></trkpt><trkpt lat="43.3014372" lon="11.2453833"><ele>306.20000000000005</ele><time>2026-04-04T14:54:07.825Z</time></trkpt><trkpt lat="43.3015361" lon="11.2453841"><ele>307.8</ele><time>2026-04-04T14:54:09.824Z</time></trkpt><trkpt lat="43.3016322" lon="11.2454026"><ele>309.40000000000003</ele><time>2026-04-04T14:54:11.825Z</time></trkpt><trkpt lat="43.3017407" lon="11.2454438"><ele>311.0</ele><time>2026-04-04T14:54:13.825Z</time></trkpt><trkpt lat="43.3018389" lon="11.2454672"><ele>311.0</ele><time>2026-04-04T14:54:15.826Z</time></trkpt><trkpt lat="43.30195" lon="11.2455056"><ele>311.0</ele><time>2026-04-04T14:54:17.824Z</time></trkpt><trkpt lat="43.3020162" lon="11.2455411"><ele>311.0</ele><time>2026-04-04T14:54:18.825Z</time></trkpt><trkpt lat="43.3020803" lon="11.2455764"><ele>311.0</ele><time>2026-04-04T14:54:19.826Z</time></trkpt><trkpt lat="43.3021671" lon="11.2456281"><ele>311.0</ele><time>2026-04-04T14:54:21.825Z</time></trkpt><trkpt lat="43.3022458" lon="11.2456643"><ele>311.0</ele><time>2026-04-04T14:54:23.824Z</time></trkpt><trkpt lat="43.3023387" lon="11.2457438"><ele>313.6</ele><time>2026-04-04T14:54:27.825Z</time></trkpt><trkpt lat="43.3024008" lon="11.2457768"><ele>316.20000000000005</ele><time>2026-04-04T14:54:29.825Z</time></trkpt><trkpt lat="43.3024557" lon="11.2458266"><ele>318.79999999999995</ele><time>2026-04-04T14:54:31.825Z</time></trkpt><trkpt lat="43.3025194" lon="11.2459466"><ele>321.4</ele><time>2026-04-04T14:54:33.825Z</time></trkpt><trkpt lat="43.30258" lon="11.2460839"><ele>324.0</ele><time>2026-04-04T14:54:35.825Z</time></trkpt><trkpt lat="43.3026493" lon="11.2462197"><ele>324.0</ele><time>2026-04-04T14:54:37.826Z</time></trkpt><trkpt lat="43.3026936" lon="11.2463281"><ele>324.0</ele><time>2026-04-04T14:54:39.825Z</time></trkpt><trkpt lat="43.3027748" lon="11.2463904"><ele>324.0</ele><time>2026-04-04T14:54:41.826Z</time></trkpt><trkpt lat="43.3028494" lon="11.2464346"><ele>324.0</ele><time>2026-04-04T14:54:43.826Z</time></trkpt><trkpt lat="43.302944" lon="11.2464585"><ele>324.0</ele><time>2026-04-04T14:54:45.825Z</time></trkpt><trkpt lat="43.3030293" lon="11.2464897"><ele>324.0</ele><time>2026-04-04T14:54:47.825Z</time></trkpt><trkpt lat="43.3030986" lon="11.2465501"><ele>326.6666666666667</ele><time>2026-04-04T14:54:49.825Z</time></trkpt><trkpt lat="43.3031687" lon="11.246578"><ele>329.3333333333333</ele><time>2026-04-04T14:54:51.824Z</time></trkpt><trkpt lat="43.3032481" lon="11.2465972"><ele>332.0</ele><time>2026-04-04T14:54:55.825Z</time></trkpt><trkpt lat="43.3033463" lon="11.2465858"><ele>334.66666666666663</ele><time>2026-04-04T14:54:57.826Z</time></trkpt><trkpt lat="43.3034471" lon="11.2465824"><ele>337.3333333333333</ele><time>2026-04-04T14:54:59.824Z</time></trkpt><trkpt lat="43.3035361" lon="11.2465887"><ele>340.0</ele><time>2026-04-04T14:55:01.826Z</time></trkpt><trkpt lat="43.3036207" lon="11.2465866"><ele>340.0</ele><time>2026-04-04T14:55:04.826Z</time></trkpt><trkpt lat="43.3037302" lon="11.2466397"><ele>340.0</ele><time>2026-04-04T14:55:06.824Z</time></trkpt><trkpt lat="43.3038175" lon="11.2466449"><ele>340.0</ele><time>2026-04-04T14:55:08.826Z</time></trkpt><trkpt lat="43.3038873" lon="11.2466512"><ele>340.0</ele><time>2026-04-04T14:55:11.825Z</time></trkpt><trkpt lat="43.3039271" lon="11.2467196"><ele>340.0</ele><time>2026-04-04T14:55:13.826Z</time></trkpt><trkpt lat="43.3039777" lon="11.2467958"><ele>340.0</ele><time>2026-04-04T14:55:14.824Z</time></trkpt><trkpt lat="43.3040362" lon="11.246924"><ele>342.4</ele><time>2026-04-04T14:55:16.824Z</time></trkpt><trkpt lat="43.3040865" lon="11.2470297"><ele>344.8</ele><time>2026-04-04T14:55:18.826Z</time></trkpt><trkpt lat="43.3041778" lon="11.2470846"><ele>347.20000000000005</ele><time>2026-04-04T14:55:20.825Z</time></trkpt><trkpt lat="43.3042904" lon="11.2471441"><ele>349.6</ele><time>2026-04-04T14:55:22.824Z</time></trkpt><trkpt lat="43.3043776" lon="11.247184"><ele>352.0</ele><time>2026-04-04T14:55:24.826Z</time></trkpt><trkpt lat="43.3044345" lon="11.2472238"><ele>352.0</ele><time>2026-04-04T14:55:27.825Z</time></trkpt><trkpt lat="43.3044917" lon="11.2472714"><ele>352.0</ele><time>2026-04-04T14:55:29.825Z</time></trkpt><trkpt lat="43.3045476" lon="11.2473294"><ele>352.0</ele><time>2026-04-04T14:55:31.826Z</time></trkpt><trkpt lat="43.3046362" lon="11.2473689"><ele>352.0</ele><time>2026-04-04T14:55:34.826Z</time></trkpt><trkpt lat="43.3047021" lon="11.2474333"><ele>352.0</ele><time>2026-04-04T14:55:37.825Z</time></trkpt><trkpt lat="43.3047563" lon="11.2474781"><ele>352.0</ele><time>2026-04-04T14:55:39.824Z</time></trkpt><trkpt lat="43.3048632" lon="11.2475109"><ele>354.8333333333333</ele><time>2026-04-04T14:55:43.825Z</time></trkpt><trkpt lat="43.3049559" lon="11.2475377"><ele>357.66666666666663</ele><time>2026-04-04T14:55:45.824Z</time></trkpt><trkpt lat="43.3050165" lon="11.2475824"><ele>360.5</ele><time>2026-04-04T14:55:48.826Z</time></trkpt><trkpt lat="43.3050706" lon="11.2476468"><ele>363.3333333333333</ele><time>2026-04-04T14:55:51.825Z</time></trkpt><trkpt lat="43.3051311" lon="11.2476959"><ele>366.1666666666667</ele><time>2026-04-04T14:55:53.824Z</time></trkpt><trkpt lat="43.305197" lon="11.247743"><ele>369.0</ele><time>2026-04-04T14:55:55.826Z</time></trkpt><trkpt lat="43.3052759" lon="11.2478024"><ele>369.0</ele><time>2026-04-04T14:55:57.825Z</time></trkpt><trkpt lat="43.3053498" lon="11.2478635"><ele>369.0</ele><time>2026-04-04T14:56:00.825Z</time></trkpt><trkpt lat="43.3054208" lon="11.2479073"><ele>369.0</ele><time>2026-04-04T14:56:03.824Z</time></trkpt><trkpt lat="43.3054834" lon="11.2479406"><ele>369.0</ele><time>2026-04-04T14:56:06.824Z</time></trkpt><trkpt lat="43.305554" lon="11.2479448"><ele>369.0</ele><time>2026-04-04T14:56:09.826Z</time></trkpt><trkpt lat="43.3056231" lon="11.2479595"><ele>369.0</ele><time>2026-04-04T14:56:12.824Z</time></trkpt><trkpt lat="43.3057058" lon="11.2479718"><ele>370.0</ele><time>2026-04-04T14:56:15.826Z</time></trkpt><trkpt lat="43.3057851" lon="11.247973"><ele>371.0</ele><time>2026-04-04T14:56:17.826Z</time></trkpt><trkpt lat="43.3058509" lon="11.2479644"><ele>372.0</ele><time>2026-04-04T14:56:19.826Z</time></trkpt><trkpt lat="43.3059194" lon="11.2479677"><ele>373.0</ele><time>2026-04-04T14:56:21.825Z</time></trkpt><trkpt lat="43.3059832" lon="11.2479902"><ele>374.0</ele><time>2026-04-04T14:56:23.825Z</time></trkpt><trkpt lat="43.306059" lon="11.2480288"><ele>375.0</ele><time>2026-04-04T14:56:25.826Z</time></trkpt><trkpt lat="43.3061297" lon="11.2480768"><ele>376.0</ele><time>2026-04-04T14:56:26.826Z</time></trkpt><trkpt lat="43.3061931" lon="11.2481358"><ele>378.16666666666663</ele><time>2026-04-04T14:56:29.825Z</time></trkpt><trkpt lat="43.3062781" lon="11.2481976"><ele>380.3333333333333</ele><time>2026-04-04T14:56:31.826Z</time></trkpt><trkpt lat="43.3063385" lon="11.248271"><ele>382.5</ele><time>2026-04-04T14:56:33.826Z</time></trkpt><trkpt lat="43.3064049" lon="11.2483079"><ele>384.66666666666663</ele><time>2026-04-04T14:56:35.825Z</time></trkpt><trkpt lat="43.3064734" lon="11.2483534"><ele>386.8333333333333</ele><time>2026-04-04T14:56:38.825Z</time></trkpt><trkpt lat="43.3065633" lon="11.2484025"><ele>389.0</ele><time>2026-04-04T14:56:40.825Z</time></trkpt><trkpt lat="43.3066457" lon="11.2484509"><ele>390.3333333333333</ele><time>2026-04-04T14:56:42.826Z</time></trkpt><trkpt lat="43.3067184" lon="11.2484946"><ele>391.66666666666663</ele><time>2026-04-04T14:56:44.824Z</time></trkpt><trkpt lat="43.3067973" lon="11.248534"><ele>393.0</ele><time>2026-04-04T14:56:46.825Z</time></trkpt><trkpt lat="43.3068895" lon="11.2486438"><ele>394.33333333333337</ele><time>2026-04-04T14:56:48.826Z</time></trkpt><trkpt lat="43.3069429" lon="11.2487218"><ele>395.6666666666667</ele><time>2026-04-04T14:56:50.825Z</time></trkpt><trkpt lat="43.3070065" lon="11.2487642"><ele>397.0</ele><time>2026-04-04T14:56:54.826Z</time></trkpt><trkpt lat="43.3070699" lon="11.2487956"><ele>397.0</ele><time>2026-04-04T14:56:57.825Z</time></trkpt><trkpt lat="43.3071649" lon="11.2488322"><ele>397.0</ele><time>2026-04-04T14:57:00.825Z</time></trkpt><trkpt lat="43.3072388" lon="11.2489114"><ele>397.0</ele><time>2026-04-04T14:57:03.825Z</time></trkpt><trkpt lat="43.3073084" lon="11.248988"><ele>397.0</ele><time>2026-04-04T14:57:05.825Z</time></trkpt><trkpt lat="43.3073764" lon="11.2491297"><ele>397.0</ele><time>2026-04-04T14:57:08.825Z</time></trkpt><trkpt lat="43.3074132" lon="11.2492062"><ele>398.83333333333337</ele><time>2026-04-04T14:57:10.826Z</time></trkpt><trkpt lat="43.3074509" lon="11.2492878"><ele>400.6666666666667</ele><time>2026-04-04T14:57:12.825Z</time></trkpt><trkpt lat="43.3074731" lon="11.2494077"><ele>402.5</ele><time>2026-04-04T14:57:15.824Z</time></trkpt><trkpt lat="43.3074795" lon="11.2495473"><ele>404.33333333333337</ele><time>2026-04-04T14:57:18.826Z</time></trkpt><trkpt lat="43.3074953" lon="11.2496628"><ele>406.1666666666667</ele><time>2026-04-04T14:57:20.826Z</time></trkpt><trkpt lat="43.3075022" lon="11.2497538"><ele>408.0</ele><time>2026-04-04T14:57:23.824Z</time></trkpt><trkpt lat="43.3074887" lon="11.2498947"><ele>408.0</ele><time>2026-04-04T14:57:26.825Z</time></trkpt><trkpt lat="43.307499" lon="11.249994"><ele>408.0</ele><time>2026-04-04T14:57:27.824Z</time></trkpt><trkpt lat="43.3075222" lon="11.2501368"><ele>408.0</ele><time>2026-04-04T14:57:29.824Z</time></trkpt><trkpt lat="43.3075303" lon="11.2502273"><ele>408.0</ele><time>2026-04-04T14:57:31.825Z</time></trkpt><trkpt lat="43.3075508" lon="11.2503403"><ele>408.0</ele><time>2026-04-04T14:57:33.826Z</time></trkpt><trkpt lat="43.3075643" lon="11.2504319"><ele>408.0</ele><time>2026-04-04T14:57:35.825Z</time></trkpt><trkpt lat="43.3075805" lon="11.2505215"><ele>408.0</ele><time>2026-04-04T14:57:36.825Z</time></trkpt><trkpt lat="43.3075833" lon="11.2506612"><ele>408.0</ele><time>2026-04-04T14:57:38.824Z</time></trkpt><trkpt lat="43.3075928" lon="11.2507536"><ele>408.0</ele><time>2026-04-04T14:57:40.825Z</time></trkpt><trkpt lat="43.3075957" lon="11.2508584"><ele>408.0</ele><time>2026-04-04T14:57:43.826Z</time></trkpt><trkpt lat="43.3075745" lon="11.2509817"><ele>408.0</ele><time>2026-04-04T14:57:46.826Z</time></trkpt><trkpt lat="43.3075701" lon="11.2510712"><ele>408.0</ele><time>2026-04-04T14:57:48.826Z</time></trkpt><trkpt lat="43.3075632" lon="11.2511881"><ele>408.0</ele><time>2026-04-04T14:57:50.825Z</time></trkpt><trkpt lat="43.3075491" lon="11.2513005"><ele>408.0</ele><time>2026-04-04T14:57:51.825Z</time></trkpt><trkpt lat="43.3075204" lon="11.2514222"><ele>408.0</ele><time>2026-04-04T14:57:53.826Z</time></trkpt><trkpt lat="43.3074714" lon="11.2515336"><ele>408.0</ele><time>2026-04-04T14:57:56.825Z</time></trkpt><trkpt lat="43.3074396" lon="11.2516105"><ele>408.0</ele><time>2026-04-04T14:57:58.826Z</time></trkpt><trkpt lat="43.3074057" lon="11.2516856"><ele>408.0</ele><time>2026-04-04T14:58:00.825Z</time></trkpt><trkpt lat="43.3074162" lon="11.2517931"><ele>407.3333333333333</ele><time>2026-04-04T14:59:55.825Z</time></trkpt><trkpt lat="43.3073805" lon="11.2518711"><ele>406.66666666666663</ele><time>2026-04-04T14:59:58.825Z</time></trkpt><trkpt lat="43.3073298" lon="11.2519838"><ele>406.0</ele><time>2026-04-04T15:00:01.825Z</time></trkpt><trkpt lat="43.3072863" lon="11.2520807"><ele>405.3333333333333</ele><time>2026-04-04T15:00:03.824Z</time></trkpt><trkpt lat="43.3072424" lon="11.2521728"><ele>404.66666666666663</ele><time>2026-04-04T15:00:05.824Z</time></trkpt><trkpt lat="43.30721" lon="11.2522585"><ele>404.0</ele><time>2026-04-04T15:00:07.825Z</time></trkpt><trkpt lat="43.307206" lon="11.2523847"><ele>402.0</ele><time>2026-04-04T15:00:10.825Z</time></trkpt><trkpt lat="43.3072236" lon="11.252473"><ele>400.0</ele><time>2026-04-04T15:00:12.824Z</time></trkpt><trkpt lat="43.307216" lon="11.2525862"><ele>398.0</ele><time>2026-04-04T15:00:15.823Z</time></trkpt><trkpt lat="43.3072141" lon="11.2526922"><ele>396.0</ele><time>2026-04-04T15:00:17.823Z</time></trkpt><trkpt lat="43.3072061" lon="11.2527872"><ele>394.0</ele><time>2026-04-04T15:00:19.824Z</time></trkpt><trkpt lat="43.3071936" lon="11.2528785"><ele>392.0</ele><time>2026-04-04T15:00:21.824Z</time></trkpt><trkpt lat="43.307146" lon="11.2529737"><ele>390.0</ele><time>2026-04-04T15:00:24.824Z</time></trkpt><trkpt lat="43.3071287" lon="11.2530897"><ele>389.3333333333333</ele><time>2026-04-04T15:00:27.825Z</time></trkpt><trkpt lat="43.3070834" lon="11.2531898"><ele>388.66666666666663</ele><time>2026-04-04T15:00:30.825Z</time></trkpt><trkpt lat="43.3070324" lon="11.2532531"><ele>388.0</ele><time>2026-04-04T15:00:32.825Z</time></trkpt><trkpt lat="43.3069529" lon="11.253322"><ele>387.3333333333333</ele><time>2026-04-04T15:00:34.824Z</time></trkpt><trkpt lat="43.3068913" lon="11.2533995"><ele>386.66666666666663</ele><time>2026-04-04T15:00:36.825Z</time></trkpt><trkpt lat="43.3068412" lon="11.2534823"><ele>386.0</ele><time>2026-04-04T15:00:38.824Z</time></trkpt><trkpt lat="43.3068196" lon="11.2535801"><ele>385.99999999999994</ele><time>2026-04-04T15:00:40.824Z</time></trkpt><trkpt lat="43.3067837" lon="11.2536919"><ele>386.0</ele><time>2026-04-04T15:00:42.824Z</time></trkpt><trkpt lat="43.306717" lon="11.253783"><ele>386.0</ele><time>2026-04-04T15:00:44.825Z</time></trkpt><trkpt lat="43.3066575" lon="11.2538726"><ele>386.0</ele><time>2026-04-04T15:00:46.823Z</time></trkpt><trkpt lat="43.3065989" lon="11.2539621"><ele>385.99999999999994</ele><time>2026-04-04T15:00:48.824Z</time></trkpt><trkpt lat="43.3066194" lon="11.2540594"><ele>386.0</ele><time>2026-04-04T15:00:54.824Z</time></trkpt><trkpt lat="43.3066853" lon="11.2541085"><ele>385.99999999999994</ele><time>2026-04-04T15:00:59.764Z</time></trkpt><trkpt lat="43.3067465" lon="11.2541373"><ele>386.0</ele><time>2026-04-04T15:01:01.825Z</time></trkpt><trkpt lat="43.3068225" lon="11.2541623"><ele>386.0</ele><time>2026-04-04T15:01:03.825Z</time></trkpt><trkpt lat="43.3068973" lon="11.2542031"><ele>386.0</ele><time>2026-04-04T15:01:05.829Z</time></trkpt><trkpt lat="43.3070012" lon="11.254246"><ele>385.99999999999994</ele><time>2026-04-04T15:01:07.825Z</time></trkpt><trkpt lat="43.3071015" lon="11.2542518"><ele>386.0</ele><time>2026-04-04T15:01:08.824Z</time></trkpt><trkpt lat="43.3072564" lon="11.2542906"><ele>386.0</ele><time>2026-04-04T15:01:10.823Z</time></trkpt><trkpt lat="43.3073634" lon="11.2543382"><ele>386.0</ele><time>2026-04-04T15:01:12.824Z</time></trkpt><trkpt lat="43.3074316" lon="11.2543505"><ele>386.0</ele><time>2026-04-04T15:01:13.824Z</time></trkpt><trkpt lat="43.3075381" lon="11.2543812"><ele>386.0</ele><time>2026-04-04T15:01:15.824Z</time></trkpt><trkpt lat="43.3076646" lon="11.2544187"><ele>386.0</ele><time>2026-04-04T15:01:17.825Z</time></trkpt><trkpt lat="43.3077273" lon="11.2544363"><ele>386.0</ele><time>2026-04-04T15:01:18.825Z</time></trkpt><trkpt lat="43.3078146" lon="11.2544725"><ele>386.0</ele><time>2026-04-04T15:01:20.825Z</time></trkpt><trkpt lat="43.3078745" lon="11.2545036"><ele>386.0</ele><time>2026-04-04T15:01:21.823Z</time></trkpt><trkpt lat="43.3079824" lon="11.2545687"><ele>386.0</ele><time>2026-04-04T15:01:23.824Z</time></trkpt><trkpt lat="43.3080703" lon="11.254526"><ele>386.0</ele><time>2026-04-04T15:01:24.823Z</time></trkpt><trkpt lat="43.3081616" lon="11.2545046"><ele>386.8333333333333</ele><time>2026-04-04T15:01:25.825Z</time></trkpt><trkpt lat="43.3082419" lon="11.2544779"><ele>387.66666666666663</ele><time>2026-04-04T15:01:26.825Z</time></trkpt><trkpt lat="43.3083282" lon="11.2544487"><ele>388.5</ele><time>2026-04-04T15:01:27.823Z</time></trkpt><trkpt lat="43.3084066" lon="11.2544255"><ele>389.33333333333337</ele><time>2026-04-04T15:01:28.824Z</time></trkpt><trkpt lat="43.3084684" lon="11.2544085"><ele>390.1666666666667</ele><time>2026-04-04T15:01:29.824Z</time></trkpt><trkpt lat="43.3085354" lon="11.254402"><ele>391.0</ele><time>2026-04-04T15:01:30.825Z</time></trkpt><trkpt lat="43.3086073" lon="11.2543989"><ele>391.00000000000006</ele><time>2026-04-04T15:01:31.824Z</time></trkpt><trkpt lat="43.3086825" lon="11.2544151"><ele>391.0</ele><time>2026-04-04T15:01:32.824Z</time></trkpt><trkpt lat="43.308757" lon="11.2544442"><ele>391.0</ele><time>2026-04-04T15:01:33.824Z</time></trkpt><trkpt lat="43.3088288" lon="11.2544818"><ele>391.0</ele><time>2026-04-04T15:01:34.825Z</time></trkpt><trkpt lat="43.3088955" lon="11.2545217"><ele>391.00000000000006</ele><time>2026-04-04T15:01:35.825Z</time></trkpt><trkpt lat="43.308993" lon="11.2546078"><ele>391.0</ele><time>2026-04-04T15:01:37.825Z</time></trkpt><trkpt lat="43.3091121" lon="11.2546417"><ele>391.1428571428571</ele><time>2026-04-04T15:01:39.824Z</time></trkpt><trkpt lat="43.309181" lon="11.2546553"><ele>391.2857142857143</ele><time>2026-04-04T15:01:40.824Z</time></trkpt><trkpt lat="43.3092565" lon="11.254671"><ele>391.42857142857144</ele><time>2026-04-04T15:01:41.825Z</time></trkpt><trkpt lat="43.3093218" lon="11.2546763"><ele>391.57142857142856</ele><time>2026-04-04T15:01:42.824Z</time></trkpt><trkpt lat="43.3093879" lon="11.2546938"><ele>391.7142857142857</ele><time>2026-04-04T15:01:43.825Z</time></trkpt><trkpt lat="43.3094678" lon="11.2547124"><ele>391.85714285714283</ele><time>2026-04-04T15:01:44.825Z</time></trkpt><trkpt lat="43.3095493" lon="11.2547414"><ele>392.0</ele><time>2026-04-04T15:01:45.825Z</time></trkpt><trkpt lat="43.3096303" lon="11.2547785"><ele>391.8333333333333</ele><time>2026-04-04T15:01:46.824Z</time></trkpt><trkpt lat="43.3097105" lon="11.2548177"><ele>391.66666666666663</ele><time>2026-04-04T15:01:47.824Z</time></trkpt><trkpt lat="43.3097789" lon="11.2548426"><ele>391.5</ele><time>2026-04-04T15:01:48.823Z</time></trkpt><trkpt lat="43.3098912" lon="11.2549511"><ele>391.33333333333337</ele><time>2026-04-04T15:01:50.824Z</time></trkpt><trkpt lat="43.309954" lon="11.255006"><ele>391.1666666666667</ele><time>2026-04-04T15:01:51.825Z</time></trkpt><trkpt lat="43.3100155" lon="11.2550761"><ele>391.0</ele><time>2026-04-04T15:01:52.824Z</time></trkpt><trkpt lat="43.3100653" lon="11.2551388"><ele>391.85714285714283</ele><time>2026-04-04T15:01:53.823Z</time></trkpt><trkpt lat="43.3101239" lon="11.2551956"><ele>392.7142857142857</ele><time>2026-04-04T15:01:54.824Z</time></trkpt><trkpt lat="43.3101949" lon="11.2552453"><ele>393.57142857142856</ele><time>2026-04-04T15:01:55.824Z</time></trkpt><trkpt lat="43.3102588" lon="11.2552946"><ele>394.42857142857144</ele><time>2026-04-04T15:01:56.824Z</time></trkpt><trkpt lat="43.3103234" lon="11.2553437"><ele>395.2857142857143</ele><time>2026-04-04T15:01:57.823Z</time></trkpt><trkpt lat="43.3103904" lon="11.2553799"><ele>396.1428571428571</ele><time>2026-04-04T15:01:58.825Z</time></trkpt><trkpt lat="43.3104598" lon="11.2554177"><ele>397.0</ele><time>2026-04-04T15:01:59.825Z</time></trkpt><trkpt lat="43.3105251" lon="11.2554585"><ele>396.83333333333337</ele><time>2026-04-04T15:02:00.824Z</time></trkpt><trkpt lat="43.310586" lon="11.2554913"><ele>396.6666666666667</ele><time>2026-04-04T15:02:01.824Z</time></trkpt><trkpt lat="43.310659" lon="11.2555193"><ele>396.5</ele><time>2026-04-04T15:02:02.824Z</time></trkpt><trkpt lat="43.3107264" lon="11.2555452"><ele>396.33333333333337</ele><time>2026-04-04T15:02:03.824Z</time></trkpt><trkpt lat="43.3107903" lon="11.2555527"><ele>396.1666666666667</ele><time>2026-04-04T15:02:04.825Z</time></trkpt><trkpt lat="43.3109106" lon="11.2555133"><ele>396.0</ele><time>2026-04-04T15:02:06.823Z</time></trkpt><trkpt lat="43.3109738" lon="11.2554803"><ele>396.0</ele><time>2026-04-04T15:02:07.825Z</time></trkpt><trkpt lat="43.311037" lon="11.2554553"><ele>396.0</ele><time>2026-04-04T15:02:08.825Z</time></trkpt><trkpt lat="43.3111601" lon="11.25546"><ele>396.0</ele><time>2026-04-04T15:02:10.823Z</time></trkpt><trkpt lat="43.3112201" lon="11.2554958"><ele>396.0</ele><time>2026-04-04T15:02:11.823Z</time></trkpt><trkpt lat="43.3112771" lon="11.2555595"><ele>396.0</ele><time>2026-04-04T15:02:12.823Z</time></trkpt><trkpt lat="43.3113295" lon="11.2556278"><ele>396.0</ele><time>2026-04-04T15:02:13.824Z</time></trkpt><trkpt lat="43.3113867" lon="11.2556879"><ele>395.0</ele><time>2026-04-04T15:02:14.825Z</time></trkpt><trkpt lat="43.3114441" lon="11.2557405"><ele>394.0</ele><time>2026-04-04T15:02:15.824Z</time></trkpt><trkpt lat="43.311542" lon="11.2557742"><ele>393.0</ele><time>2026-04-04T15:02:17.824Z</time></trkpt><trkpt lat="43.3116094" lon="11.2557483"><ele>392.0</ele><time>2026-04-04T15:02:18.823Z</time></trkpt><trkpt lat="43.3116727" lon="11.2557242"><ele>391.0</ele><time>2026-04-04T15:02:19.823Z</time></trkpt><trkpt lat="43.3117323" lon="11.2556921"><ele>390.0</ele><time>2026-04-04T15:02:20.824Z</time></trkpt><trkpt lat="43.3117915" lon="11.2556516"><ele>389.0</ele><time>2026-04-04T15:02:21.823Z</time></trkpt><trkpt lat="43.3119148" lon="11.2555902"><ele>388.79999999999995</ele><time>2026-04-04T15:02:23.824Z</time></trkpt><trkpt lat="43.3120406" lon="11.25559"><ele>388.59999999999997</ele><time>2026-04-04T15:02:25.824Z</time></trkpt><trkpt lat="43.312121" lon="11.2555915"><ele>388.4</ele><time>2026-04-04T15:02:26.823Z</time></trkpt><trkpt lat="43.3121951" lon="11.2555939"><ele>388.2</ele><time>2026-04-04T15:02:27.823Z</time></trkpt><trkpt lat="43.3122714" lon="11.2556111"><ele>388.0</ele><time>2026-04-04T15:02:28.823Z</time></trkpt><trkpt lat="43.3123783" lon="11.2557135"><ele>386.7142857142857</ele><time>2026-04-04T15:02:30.824Z</time></trkpt><trkpt lat="43.3124275" lon="11.2557749"><ele>385.42857142857144</ele><time>2026-04-04T15:02:31.824Z</time></trkpt><trkpt lat="43.3124869" lon="11.2558307"><ele>384.14285714285717</ele><time>2026-04-04T15:02:32.823Z</time></trkpt><trkpt lat="43.3125432" lon="11.2558896"><ele>382.8571428571429</ele><time>2026-04-04T15:02:33.824Z</time></trkpt><trkpt lat="43.3125905" lon="11.255961"><ele>381.57142857142856</ele><time>2026-04-04T15:02:34.824Z</time></trkpt><trkpt lat="43.3126445" lon="11.2560315"><ele>380.28571428571433</ele><time>2026-04-04T15:02:35.825Z</time></trkpt><trkpt lat="43.3127103" lon="11.256081"><ele>379.0</ele><time>2026-04-04T15:02:36.825Z</time></trkpt><trkpt lat="43.3127728" lon="11.2561428"><ele>379.0</ele><time>2026-04-04T15:02:37.824Z</time></trkpt><trkpt lat="43.312847" lon="11.2561975"><ele>379.0</ele><time>2026-04-04T15:02:38.825Z</time></trkpt><trkpt lat="43.3129081" lon="11.2562509"><ele>379.0</ele><time>2026-04-04T15:02:39.823Z</time></trkpt><trkpt lat="43.3130089" lon="11.2563316"><ele>379.0</ele><time>2026-04-04T15:02:41.825Z</time></trkpt><trkpt lat="43.3131207" lon="11.2563791"><ele>379.0</ele><time>2026-04-04T15:02:43.824Z</time></trkpt><trkpt lat="43.3132432" lon="11.2564259"><ele>376.6</ele><time>2026-04-04T15:02:45.825Z</time></trkpt><trkpt lat="43.3133732" lon="11.2564165"><ele>374.2</ele><time>2026-04-04T15:02:47.825Z</time></trkpt><trkpt lat="43.3134952" lon="11.2563843"><ele>371.8</ele><time>2026-04-04T15:02:49.824Z</time></trkpt><trkpt lat="43.3135666" lon="11.2563791"><ele>369.40000000000003</ele><time>2026-04-04T15:02:50.824Z</time></trkpt><trkpt lat="43.3136305" lon="11.256374"><ele>367.0</ele><time>2026-04-04T15:02:51.825Z</time></trkpt><trkpt lat="43.3137161" lon="11.2563548"><ele>367.0</ele><time>2026-04-04T15:02:52.824Z</time></trkpt><trkpt lat="43.3138233" lon="11.2563215"><ele>367.0</ele><time>2026-04-04T15:02:53.825Z</time></trkpt><trkpt lat="43.3139151" lon="11.2563076"><ele>367.0</ele><time>2026-04-04T15:02:54.824Z</time></trkpt><trkpt lat="43.3139911" lon="11.2563046"><ele>367.0</ele><time>2026-04-04T15:02:55.824Z</time></trkpt><trkpt lat="43.3140678" lon="11.2563165"><ele>367.0</ele><time>2026-04-04T15:02:56.825Z</time></trkpt><trkpt lat="43.3141514" lon="11.256325"><ele>367.0</ele><time>2026-04-04T15:02:57.824Z</time></trkpt><trkpt lat="43.3142289" lon="11.2563423"><ele>365.6</ele><time>2026-04-04T15:02:58.824Z</time></trkpt><trkpt lat="43.3143069" lon="11.2563599"><ele>364.20000000000005</ele><time>2026-04-04T15:02:59.824Z</time></trkpt><trkpt lat="43.3143844" lon="11.2563709"><ele>362.8</ele><time>2026-04-04T15:03:00.824Z</time></trkpt><trkpt lat="43.3144644" lon="11.2563945"><ele>361.4</ele><time>2026-04-04T15:03:01.824Z</time></trkpt><trkpt lat="43.3145645" lon="11.2564539"><ele>360.0</ele><time>2026-04-04T15:03:03.824Z</time></trkpt><trkpt lat="43.3146612" lon="11.2565249"><ele>358.0</ele><time>2026-04-04T15:03:04.824Z</time></trkpt><trkpt lat="43.3147526" lon="11.2565807"><ele>356.0</ele><time>2026-04-04T15:03:06.824Z</time></trkpt><trkpt lat="43.3148255" lon="11.2566472"><ele>354.0</ele><time>2026-04-04T15:03:07.824Z</time></trkpt><trkpt lat="43.3149083" lon="11.2567125"><ele>352.0</ele><time>2026-04-04T15:03:08.825Z</time></trkpt><trkpt lat="43.3149912" lon="11.2567861"><ele>350.0</ele><time>2026-04-04T15:03:09.824Z</time></trkpt><trkpt lat="43.3150439" lon="11.2568468"><ele>350.0</ele><time>2026-04-04T15:03:10.823Z</time></trkpt><trkpt lat="43.3151725" lon="11.2569191"><ele>350.0</ele><time>2026-04-04T15:03:12.823Z</time></trkpt><trkpt lat="43.3152558" lon="11.2569719"><ele>350.0</ele><time>2026-04-04T15:03:13.825Z</time></trkpt><trkpt lat="43.3153305" lon="11.2570161"><ele>350.0</ele><time>2026-04-04T15:03:14.823Z</time></trkpt><trkpt lat="43.3154305" lon="11.2570669"><ele>350.0</ele><time>2026-04-04T15:03:15.823Z</time></trkpt><trkpt lat="43.315527" lon="11.2571114"><ele>349.33333333333337</ele><time>2026-04-04T15:03:16.824Z</time></trkpt><trkpt lat="43.315623" lon="11.2571439"><ele>348.6666666666667</ele><time>2026-04-04T15:03:17.825Z</time></trkpt><trkpt lat="43.3157148" lon="11.2571856"><ele>348.0</ele><time>2026-04-04T15:03:18.824Z</time></trkpt><trkpt lat="43.315802" lon="11.2572387"><ele>347.3333333333333</ele><time>2026-04-04T15:03:19.824Z</time></trkpt><trkpt lat="43.3158807" lon="11.257279"><ele>346.66666666666663</ele><time>2026-04-04T15:03:20.823Z</time></trkpt><trkpt lat="43.3159348" lon="11.2573241"><ele>346.0</ele><time>2026-04-04T15:03:21.824Z</time></trkpt><trkpt lat="43.3159799" lon="11.2573916"><ele>345.8333333333333</ele><time>2026-04-04T15:03:22.823Z</time></trkpt><trkpt lat="43.3160278" lon="11.2574566"><ele>345.66666666666663</ele><time>2026-04-04T15:03:23.824Z</time></trkpt><trkpt lat="43.3160888" lon="11.2575789"><ele>345.5</ele><time>2026-04-04T15:03:25.824Z</time></trkpt><trkpt lat="43.3161573" lon="11.2576117"><ele>345.3333333333333</ele><time>2026-04-04T15:03:27.824Z</time></trkpt><trkpt lat="43.3162294" lon="11.2575615"><ele>345.1666666666667</ele><time>2026-04-04T15:03:30.824Z</time></trkpt><trkpt lat="43.3162863" lon="11.2575059"><ele>345.0</ele><time>2026-04-04T15:03:32.824Z</time></trkpt><trkpt lat="43.3163764" lon="11.2574425"><ele>344.57142857142856</ele><time>2026-04-04T15:03:34.823Z</time></trkpt><trkpt lat="43.3164353" lon="11.2574052"><ele>344.1428571428571</ele><time>2026-04-04T15:03:35.824Z</time></trkpt><trkpt lat="43.3164956" lon="11.2573623"><ele>343.71428571428567</ele><time>2026-04-04T15:03:36.825Z</time></trkpt><trkpt lat="43.3165585" lon="11.2573276"><ele>343.2857142857143</ele><time>2026-04-04T15:03:37.824Z</time></trkpt><trkpt lat="43.3166276" lon="11.257288"><ele>342.85714285714283</ele><time>2026-04-04T15:03:38.825Z</time></trkpt><trkpt lat="43.3166969" lon="11.2572575"><ele>342.4285714285714</ele><time>2026-04-04T15:03:39.825Z</time></trkpt><trkpt lat="43.3167653" lon="11.2572391"><ele>342.0</ele><time>2026-04-04T15:03:40.825Z</time></trkpt><trkpt lat="43.3168745" lon="11.2571659"><ele>342.0</ele><time>2026-04-04T15:03:42.824Z</time></trkpt><trkpt lat="43.3169355" lon="11.2571057"><ele>342.0</ele><time>2026-04-04T15:03:43.825Z</time></trkpt><trkpt lat="43.3170166" lon="11.2570553"><ele>342.0</ele><time>2026-04-04T15:03:44.824Z</time></trkpt><trkpt lat="43.3170796" lon="11.2570239"><ele>342.0</ele><time>2026-04-04T15:03:45.824Z</time></trkpt><trkpt lat="43.3171893" lon="11.2569887"><ele>342.0</ele><time>2026-04-04T15:03:47.824Z</time></trkpt><trkpt lat="43.3172435" lon="11.2568183"><ele>341.1666666666667</ele><time>2026-04-04T15:03:49.824Z</time></trkpt><trkpt lat="43.3172701" lon="11.2567082"><ele>340.3333333333333</ele><time>2026-04-04T15:03:50.824Z</time></trkpt><trkpt lat="43.3172992" lon="11.256598"><ele>339.5</ele><time>2026-04-04T15:03:51.824Z</time></trkpt><trkpt lat="43.3173182" lon="11.2564992"><ele>338.66666666666663</ele><time>2026-04-04T15:03:52.824Z</time></trkpt><trkpt lat="43.3173199" lon="11.2563936"><ele>337.8333333333333</ele><time>2026-04-04T15:03:53.825Z</time></trkpt><trkpt lat="43.3173188" lon="11.2562875"><ele>337.0</ele><time>2026-04-04T15:03:54.824Z</time></trkpt><trkpt lat="43.3173143" lon="11.2561936"><ele>336.3333333333333</ele><time>2026-04-04T15:03:55.823Z</time></trkpt><trkpt lat="43.3173091" lon="11.2560853"><ele>335.66666666666663</ele><time>2026-04-04T15:03:56.824Z</time></trkpt><trkpt lat="43.3173073" lon="11.2559945"><ele>335.0</ele><time>2026-04-04T15:03:57.824Z</time></trkpt><trkpt lat="43.3173125" lon="11.2559082"><ele>334.3333333333333</ele><time>2026-04-04T15:03:58.824Z</time></trkpt><trkpt lat="43.3173131" lon="11.2558146"><ele>333.6666666666667</ele><time>2026-04-04T15:03:59.824Z</time></trkpt><trkpt lat="43.317348" lon="11.2556674"><ele>333.0</ele><time>2026-04-04T15:04:01.824Z</time></trkpt><trkpt lat="43.3173771" lon="11.2555774"><ele>332.0</ele><time>2026-04-04T15:04:02.824Z</time></trkpt><trkpt lat="43.3174198" lon="11.2554762"><ele>331.0</ele><time>2026-04-04T15:04:03.823Z</time></trkpt><trkpt lat="43.3174632" lon="11.2553906"><ele>330.0</ele><time>2026-04-04T15:04:04.823Z</time></trkpt><trkpt lat="43.3175164" lon="11.2553231"><ele>329.0</ele><time>2026-04-04T15:04:05.824Z</time></trkpt><trkpt lat="43.3175824" lon="11.2552359"><ele>328.0</ele><time>2026-04-04T15:04:06.824Z</time></trkpt><trkpt lat="43.317624" lon="11.2551665"><ele>327.0</ele><time>2026-04-04T15:04:07.824Z</time></trkpt><trkpt lat="43.3176635" lon="11.2550815"><ele>327.0</ele><time>2026-04-04T15:04:08.824Z</time></trkpt><trkpt lat="43.3176931" lon="11.2549836"><ele>327.0</ele><time>2026-04-04T15:04:09.823Z</time></trkpt><trkpt lat="43.3177192" lon="11.2548772"><ele>327.0</ele><time>2026-04-04T15:04:10.825Z</time></trkpt><trkpt lat="43.3177383" lon="11.2547736"><ele>327.0</ele><time>2026-04-04T15:04:11.825Z</time></trkpt><trkpt lat="43.3177538" lon="11.2546666"><ele>327.0</ele><time>2026-04-04T15:04:12.824Z</time></trkpt><trkpt lat="43.3177797" lon="11.2544984"><ele>327.0</ele><time>2026-04-04T15:04:14.824Z</time></trkpt><trkpt lat="43.3177958" lon="11.2543915"><ele>326.1428571428571</ele><time>2026-04-04T15:04:15.823Z</time></trkpt><trkpt lat="43.3178168" lon="11.2543042"><ele>325.2857142857143</ele><time>2026-04-04T15:04:16.824Z</time></trkpt><trkpt lat="43.3178455" lon="11.254225"><ele>324.42857142857144</ele><time>2026-04-04T15:04:17.825Z</time></trkpt><trkpt lat="43.3178813" lon="11.2541301"><ele>323.57142857142856</ele><time>2026-04-04T15:04:18.824Z</time></trkpt><trkpt lat="43.3179091" lon="11.2540342"><ele>322.7142857142857</ele><time>2026-04-04T15:04:19.823Z</time></trkpt><trkpt lat="43.3179395" lon="11.2539433"><ele>321.85714285714283</ele><time>2026-04-04T15:04:20.824Z</time></trkpt><trkpt lat="43.317972" lon="11.2538592"><ele>321.0</ele><time>2026-04-04T15:04:21.825Z</time></trkpt><trkpt lat="43.3180019" lon="11.2537668"><ele>319.8333333333333</ele><time>2026-04-04T15:04:22.824Z</time></trkpt><trkpt lat="43.3180261" lon="11.2536781"><ele>318.6666666666667</ele><time>2026-04-04T15:04:23.825Z</time></trkpt><trkpt lat="43.3180561" lon="11.2535942"><ele>317.5</ele><time>2026-04-04T15:04:24.824Z</time></trkpt><trkpt lat="43.3180918" lon="11.2535184"><ele>316.33333333333337</ele><time>2026-04-04T15:04:25.823Z</time></trkpt><trkpt lat="43.3181512" lon="11.2533528"><ele>315.1666666666667</ele><time>2026-04-04T15:04:27.824Z</time></trkpt><trkpt lat="43.318187" lon="11.2532631"><ele>314.0</ele><time>2026-04-04T15:04:28.825Z</time></trkpt><trkpt lat="43.318211" lon="11.2531782"><ele>313.2857142857143</ele><time>2026-04-04T15:04:29.825Z</time></trkpt><trkpt lat="43.3182535" lon="11.2530791"><ele>312.57142857142856</ele><time>2026-04-04T15:04:30.824Z</time></trkpt><trkpt lat="43.3182877" lon="11.2529955"><ele>311.8571428571429</ele><time>2026-04-04T15:04:31.823Z</time></trkpt><trkpt lat="43.3183179" lon="11.2529087"><ele>311.1428571428571</ele><time>2026-04-04T15:04:32.825Z</time></trkpt><trkpt lat="43.3183493" lon="11.252822"><ele>310.42857142857144</ele><time>2026-04-04T15:04:33.825Z</time></trkpt><trkpt lat="43.318386" lon="11.2527441"><ele>309.7142857142857</ele><time>2026-04-04T15:04:34.824Z</time></trkpt><trkpt lat="43.3184232" lon="11.2526616"><ele>309.0</ele><time>2026-04-04T15:04:35.825Z</time></trkpt><trkpt lat="43.3184533" lon="11.2525789"><ele>309.00000000000006</ele><time>2026-04-04T15:04:36.824Z</time></trkpt><trkpt lat="43.3184841" lon="11.2524877"><ele>309.0</ele><time>2026-04-04T15:04:37.824Z</time></trkpt><trkpt lat="43.3185154" lon="11.2523995"><ele>309.0</ele><time>2026-04-04T15:04:38.823Z</time></trkpt><trkpt lat="43.3185492" lon="11.2523183"><ele>309.0</ele><time>2026-04-04T15:04:39.824Z</time></trkpt><trkpt lat="43.3185796" lon="11.2522398"><ele>309.0</ele><time>2026-04-04T15:04:40.824Z</time></trkpt><trkpt lat="43.3186127" lon="11.2521615"><ele>309.00000000000006</ele><time>2026-04-04T15:04:41.823Z</time></trkpt><trkpt lat="43.3186481" lon="11.2520795"><ele>309.0</ele><time>2026-04-04T15:04:42.824Z</time></trkpt><trkpt lat="43.3186856" lon="11.2519908"><ele>308.14285714285717</ele><time>2026-04-04T15:04:43.824Z</time></trkpt><trkpt lat="43.3187159" lon="11.2519015"><ele>307.2857142857143</ele><time>2026-04-04T15:04:44.825Z</time></trkpt><trkpt lat="43.3187431" lon="11.2518094"><ele>306.42857142857144</ele><time>2026-04-04T15:04:45.824Z</time></trkpt><trkpt lat="43.3187747" lon="11.2517202"><ele>305.57142857142856</ele><time>2026-04-04T15:04:46.825Z</time></trkpt><trkpt lat="43.3188144" lon="11.2516263"><ele>304.7142857142857</ele><time>2026-04-04T15:04:47.824Z</time></trkpt><trkpt lat="43.3188564" lon="11.2515452"><ele>303.8571428571429</ele><time>2026-04-04T15:04:48.824Z</time></trkpt><trkpt lat="43.3189006" lon="11.2514637"><ele>303.0</ele><time>2026-04-04T15:04:49.824Z</time></trkpt><trkpt lat="43.3189646" lon="11.2513281"><ele>300.0</ele><time>2026-04-04T15:04:51.823Z</time></trkpt><trkpt lat="43.3189962" lon="11.2512502"><ele>297.0</ele><time>2026-04-04T15:04:52.825Z</time></trkpt><trkpt lat="43.3190464" lon="11.2510916"><ele>294.0</ele><time>2026-04-04T15:04:54.824Z</time></trkpt><trkpt lat="43.3191012" lon="11.2509351"><ele>291.0</ele><time>2026-04-04T15:04:56.824Z</time></trkpt><trkpt lat="43.3191459" lon="11.250781"><ele>288.0</ele><time>2026-04-04T15:04:58.824Z</time></trkpt><trkpt lat="43.3191886" lon="11.2506433"><ele>287.1666666666667</ele><time>2026-04-04T15:05:00.824Z</time></trkpt><trkpt lat="43.3192225" lon="11.250563"><ele>286.3333333333333</ele><time>2026-04-04T15:05:02.824Z</time></trkpt><trkpt lat="43.3192841" lon="11.2505022"><ele>285.5</ele><time>2026-04-04T15:05:04.823Z</time></trkpt><trkpt lat="43.3193053" lon="11.2503851"><ele>284.66666666666663</ele><time>2026-04-04T15:05:07.824Z</time></trkpt><trkpt lat="43.3192551" lon="11.2502735"><ele>283.8333333333333</ele><time>2026-04-04T15:05:09.825Z</time></trkpt><trkpt lat="43.3191884" lon="11.2501694"><ele>283.0</ele><time>2026-04-04T15:05:11.824Z</time></trkpt><trkpt lat="43.3191542" lon="11.2500909"><ele>283.0</ele><time>2026-04-04T15:05:13.825Z</time></trkpt><trkpt lat="43.319121" lon="11.2500113"><ele>283.0</ele><time>2026-04-04T15:05:15.825Z</time></trkpt><trkpt lat="43.3191183" lon="11.2499196"><ele>283.0</ele><time>2026-04-04T15:05:18.824Z</time></trkpt><trkpt lat="43.3191412" lon="11.2498333"><ele>283.0</ele><time>2026-04-04T15:05:22.825Z</time></trkpt><trkpt lat="43.3191079" lon="11.2499235"><ele>283.0</ele><time>2026-04-04T15:05:49.824Z</time></trkpt><trkpt lat="43.3191406" lon="11.250047"><ele>283.0</ele><time>2026-04-04T15:05:51.823Z</time></trkpt><trkpt lat="43.3192267" lon="11.2501252"><ele>283.0</ele><time>2026-04-04T15:05:52.825Z</time></trkpt><trkpt lat="43.3193412" lon="11.2502328"><ele>283.0</ele><time>2026-04-04T15:05:54.824Z</time></trkpt><trkpt lat="43.3193872" lon="11.2503098"><ele>283.0</ele><time>2026-04-04T15:05:55.825Z</time></trkpt><trkpt lat="43.3194493" lon="11.2503893"><ele>283.0</ele><time>2026-04-04T15:05:56.824Z</time></trkpt><trkpt lat="43.3195122" lon="11.2504725"><ele>283.0</ele><time>2026-04-04T15:05:57.825Z</time></trkpt><trkpt lat="43.3195636" lon="11.2505576"><ele>284.0</ele><time>2026-04-04T15:05:58.825Z</time></trkpt><trkpt lat="43.3196392" lon="11.2506512"><ele>285.0</ele><time>2026-04-04T15:05:59.825Z</time></trkpt><trkpt lat="43.3197108" lon="11.2507361"><ele>286.0</ele><time>2026-04-04T15:06:00.824Z</time></trkpt><trkpt lat="43.3197679" lon="11.2508295"><ele>287.0</ele><time>2026-04-04T15:06:01.824Z</time></trkpt><trkpt lat="43.3198329" lon="11.2509086"><ele>288.0</ele><time>2026-04-04T15:06:02.824Z</time></trkpt><trkpt lat="43.3198964" lon="11.2509912"><ele>286.8333333333333</ele><time>2026-04-04T15:06:03.824Z</time></trkpt><trkpt lat="43.3199621" lon="11.2510786"><ele>285.6666666666667</ele><time>2026-04-04T15:06:04.825Z</time></trkpt><trkpt lat="43.3200161" lon="11.2511595"><ele>284.5</ele><time>2026-04-04T15:06:05.825Z</time></trkpt><trkpt lat="43.3200736" lon="11.2512261"><ele>283.33333333333337</ele><time>2026-04-04T15:06:06.824Z</time></trkpt><trkpt lat="43.3201269" lon="11.2512969"><ele>282.1666666666667</ele><time>2026-04-04T15:06:07.825Z</time></trkpt><trkpt lat="43.3201845" lon="11.2513747"><ele>281.0</ele><time>2026-04-04T15:06:08.824Z</time></trkpt><trkpt lat="43.3202415" lon="11.2514673"><ele>281.0</ele><time>2026-04-04T15:06:09.825Z</time></trkpt><trkpt lat="43.3202998" lon="11.251563"><ele>281.0</ele><time>2026-04-04T15:06:10.824Z</time></trkpt><trkpt lat="43.3203579" lon="11.2516578"><ele>281.0</ele><time>2026-04-04T15:06:11.824Z</time></trkpt><trkpt lat="43.320406" lon="11.251738"><ele>281.0</ele><time>2026-04-04T15:06:12.824Z</time></trkpt><trkpt lat="43.3204718" lon="11.2518193"><ele>281.0</ele><time>2026-04-04T15:06:13.824Z</time></trkpt><trkpt lat="43.3205303" lon="11.2519272"><ele>281.0</ele><time>2026-04-04T15:06:14.825Z</time></trkpt><trkpt lat="43.3205841" lon="11.2520309"><ele>279.0</ele><time>2026-04-04T15:06:15.825Z</time></trkpt><trkpt lat="43.3206456" lon="11.2521345"><ele>277.0</ele><time>2026-04-04T15:06:16.825Z</time></trkpt><trkpt lat="43.3207023" lon="11.2522315"><ele>275.0</ele><time>2026-04-04T15:06:17.825Z</time></trkpt><trkpt lat="43.3207789" lon="11.2523441"><ele>273.0</ele><time>2026-04-04T15:06:18.824Z</time></trkpt><trkpt lat="43.3208373" lon="11.2524515"><ele>271.0</ele><time>2026-04-04T15:06:19.824Z</time></trkpt><trkpt lat="43.3208931" lon="11.2525691"><ele>271.0</ele><time>2026-04-04T15:06:20.823Z</time></trkpt><trkpt lat="43.3209651" lon="11.2527011"><ele>271.0</ele><time>2026-04-04T15:06:21.824Z</time></trkpt><trkpt lat="43.3210416" lon="11.2528464"><ele>271.0</ele><time>2026-04-04T15:06:22.825Z</time></trkpt><trkpt lat="43.3211001" lon="11.252996"><ele>271.0</ele><time>2026-04-04T15:06:23.825Z</time></trkpt><trkpt lat="43.3211546" lon="11.2531246"><ele>270.0</ele><time>2026-04-04T15:06:24.825Z</time></trkpt><trkpt lat="43.3212203" lon="11.2532418"><ele>269.0</ele><time>2026-04-04T15:06:25.824Z</time></trkpt><trkpt lat="43.3212928" lon="11.2533619"><ele>268.0</ele><time>2026-04-04T15:06:26.823Z</time></trkpt><trkpt lat="43.3213496" lon="11.2534621"><ele>267.0</ele><time>2026-04-04T15:06:27.824Z</time></trkpt><trkpt lat="43.3214003" lon="11.2535546"><ele>266.0</ele><time>2026-04-04T15:06:28.825Z</time></trkpt><trkpt lat="43.3214583" lon="11.2536344"><ele>266.0</ele><time>2026-04-04T15:06:29.824Z</time></trkpt><trkpt lat="43.3215087" lon="11.2536996"><ele>266.0</ele><time>2026-04-04T15:06:30.824Z</time></trkpt><trkpt lat="43.3215617" lon="11.2537555"><ele>266.0</ele><time>2026-04-04T15:06:31.825Z</time></trkpt><trkpt lat="43.3216255" lon="11.2538356"><ele>266.0</ele><time>2026-04-04T15:06:33.823Z</time></trkpt><trkpt lat="43.3216984" lon="11.2538995"><ele>266.0</ele><time>2026-04-04T15:06:35.823Z</time></trkpt><trkpt lat="43.3217255" lon="11.2539886"><ele>266.0</ele><time>2026-04-04T15:06:37.824Z</time></trkpt><trkpt lat="43.321757" lon="11.2540948"><ele>270.0</ele><time>2026-04-04T15:07:00.824Z</time></trkpt></trkseg><trkseg><trkpt lat="43.3217725" lon="11.2541664"><ele>270.0</ele><time>2026-04-04T15:33:00.821Z</time></trkpt><trkpt lat="43.32184" lon="11.2541232"><ele>270.0</ele><time>2026-04-04T15:33:02.822Z</time></trkpt><trkpt lat="43.3219064" lon="11.2540061"><ele>270.0</ele><time>2026-04-04T15:33:04.82Z</time></trkpt><trkpt lat="43.3219672" lon="11.2538734"><ele>270.0</ele><time>2026-04-04T15:33:06.822Z</time></trkpt><trkpt lat="43.322022" lon="11.2537273"><ele>270.0</ele><time>2026-04-04T15:33:08.82Z</time></trkpt><trkpt lat="43.3220835" lon="11.2536088"><ele>269.2</ele><time>2026-04-04T15:33:10.821Z</time></trkpt><trkpt lat="43.322142" lon="11.2534979"><ele>268.4</ele><time>2026-04-04T15:33:12.821Z</time></trkpt><trkpt lat="43.3222011" lon="11.2533772"><ele>267.6</ele><time>2026-04-04T15:33:14.822Z</time></trkpt><trkpt lat="43.3222596" lon="11.2532659"><ele>266.8</ele><time>2026-04-04T15:33:16.821Z</time></trkpt><trkpt lat="43.322324" lon="11.2531628"><ele>266.0</ele><time>2026-04-04T15:33:18.82Z</time></trkpt><trkpt lat="43.3223911" lon="11.2530598"><ele>265.0</ele><time>2026-04-04T15:33:20.822Z</time></trkpt><trkpt lat="43.3224523" lon="11.2529589"><ele>264.0</ele><time>2026-04-04T15:33:22.821Z</time></trkpt><trkpt lat="43.3225221" lon="11.2528488"><ele>263.0</ele><time>2026-04-04T15:33:24.822Z</time></trkpt><trkpt lat="43.3225984" lon="11.2527224"><ele>262.0</ele><time>2026-04-04T15:33:26.821Z</time></trkpt><trkpt lat="43.3226369" lon="11.2526539"><ele>261.0</ele><time>2026-04-04T15:33:27.821Z</time></trkpt><trkpt lat="43.3226823" lon="11.2525805"><ele>261.0</ele><time>2026-04-04T15:33:28.821Z</time></trkpt><trkpt lat="43.3227274" lon="11.2525029"><ele>261.0</ele><time>2026-04-04T15:33:29.821Z</time></trkpt><trkpt lat="43.3227759" lon="11.2524238"><ele>261.0</ele><time>2026-04-04T15:33:30.822Z</time></trkpt><trkpt lat="43.3228225" lon="11.2523448"><ele>261.0</ele><time>2026-04-04T15:33:31.822Z</time></trkpt><trkpt lat="43.3228686" lon="11.2522699"><ele>261.0</ele><time>2026-04-04T15:33:32.82Z</time></trkpt><trkpt lat="43.322917" lon="11.2521944"><ele>261.0</ele><time>2026-04-04T15:33:33.822Z</time></trkpt><trkpt lat="43.3229671" lon="11.2521218"><ele>261.0</ele><time>2026-04-04T15:33:34.821Z</time></trkpt><trkpt lat="43.3230237" lon="11.252051"><ele>260.5</ele><time>2026-04-04T15:33:35.821Z</time></trkpt><trkpt lat="43.3230819" lon="11.2519848"><ele>260.0</ele><time>2026-04-04T15:33:36.82Z</time></trkpt><trkpt lat="43.3231376" lon="11.2519252"><ele>259.5</ele><time>2026-04-04T15:33:37.821Z</time></trkpt><trkpt lat="43.3231947" lon="11.2518651"><ele>259.0</ele><time>2026-04-04T15:33:38.822Z</time></trkpt><trkpt lat="43.3232546" lon="11.2518009"><ele>258.5</ele><time>2026-04-04T15:33:39.822Z</time></trkpt><trkpt lat="43.3233186" lon="11.2517342"><ele>258.0</ele><time>2026-04-04T15:33:40.821Z</time></trkpt><trkpt lat="43.3233826" lon="11.2516667"><ele>258.0</ele><time>2026-04-04T15:33:41.821Z</time></trkpt><trkpt lat="43.3234483" lon="11.2515978"><ele>258.0</ele><time>2026-04-04T15:33:42.822Z</time></trkpt><trkpt lat="43.3235139" lon="11.2515305"><ele>258.0</ele><time>2026-04-04T15:33:43.822Z</time></trkpt><trkpt lat="43.3235811" lon="11.251463"><ele>258.0</ele><time>2026-04-04T15:33:44.821Z</time></trkpt><trkpt lat="43.3236488" lon="11.2513958"><ele>258.0</ele><time>2026-04-04T15:33:45.821Z</time></trkpt><trkpt lat="43.3237157" lon="11.2513249"><ele>258.0</ele><time>2026-04-04T15:33:46.821Z</time></trkpt><trkpt lat="43.3237779" lon="11.2512521"><ele>258.0</ele><time>2026-04-04T15:33:47.821Z</time></trkpt><trkpt lat="43.3238346" lon="11.2511757"><ele>258.0</ele><time>2026-04-04T15:33:48.822Z</time></trkpt><trkpt lat="43.3238872" lon="11.2510873"><ele>258.0</ele><time>2026-04-04T15:33:49.821Z</time></trkpt><trkpt lat="43.3239321" lon="11.2509878"><ele>258.0</ele><time>2026-04-04T15:33:50.821Z</time></trkpt><trkpt lat="43.3239693" lon="11.2508837"><ele>258.0</ele><time>2026-04-04T15:33:51.822Z</time></trkpt><trkpt lat="43.324001" lon="11.2507772"><ele>258.0</ele><time>2026-04-04T15:33:52.821Z</time></trkpt><trkpt lat="43.3240259" lon="11.2506703"><ele>257.25</ele><time>2026-04-04T15:33:53.822Z</time></trkpt><trkpt lat="43.3240595" lon="11.2505278"><ele>256.5</ele><time>2026-04-04T15:33:54.821Z</time></trkpt><trkpt lat="43.3241057" lon="11.25035"><ele>255.75</ele><time>2026-04-04T15:33:55.822Z</time></trkpt><trkpt lat="43.3241467" lon="11.2501935"><ele>255.0</ele><time>2026-04-04T15:33:56.821Z</time></trkpt><trkpt lat="43.3241901" lon="11.2500615"><ele>255.0</ele><time>2026-04-04T15:33:57.821Z</time></trkpt><trkpt lat="43.3242319" lon="11.2499441"><ele>255.0</ele><time>2026-04-04T15:33:58.822Z</time></trkpt><trkpt lat="43.3242752" lon="11.2498302"><ele>255.0</ele><time>2026-04-04T15:33:59.822Z</time></trkpt><trkpt lat="43.3243214" lon="11.249724"><ele>255.0</ele><time>2026-04-04T15:34:00.821Z</time></trkpt><trkpt lat="43.3243677" lon="11.2496155"><ele>255.0</ele><time>2026-04-04T15:34:01.82Z</time></trkpt><trkpt lat="43.3244148" lon="11.2495049"><ele>255.8</ele><time>2026-04-04T15:34:02.821Z</time></trkpt><trkpt lat="43.3244611" lon="11.2493972"><ele>256.6</ele><time>2026-04-04T15:34:03.822Z</time></trkpt><trkpt lat="43.3245164" lon="11.2492839"><ele>257.4</ele><time>2026-04-04T15:34:04.821Z</time></trkpt><trkpt lat="43.3245719" lon="11.2491717"><ele>258.2</ele><time>2026-04-04T15:34:05.822Z</time></trkpt><trkpt lat="43.3246288" lon="11.249051"><ele>259.0</ele><time>2026-04-04T15:34:06.821Z</time></trkpt><trkpt lat="43.3246834" lon="11.2489451"><ele>258.66666666666663</ele><time>2026-04-04T15:34:07.821Z</time></trkpt><trkpt lat="43.3247364" lon="11.2488394"><ele>258.3333333333333</ele><time>2026-04-04T15:34:08.82Z</time></trkpt><trkpt lat="43.3247898" lon="11.2487293"><ele>258.0</ele><time>2026-04-04T15:34:09.821Z</time></trkpt><trkpt lat="43.3248384" lon="11.2486307"><ele>257.6666666666667</ele><time>2026-04-04T15:34:10.821Z</time></trkpt><trkpt lat="43.324887" lon="11.2485413"><ele>257.33333333333337</ele><time>2026-04-04T15:34:11.821Z</time></trkpt><trkpt lat="43.32493" lon="11.2484596"><ele>257.0</ele><time>2026-04-04T15:34:12.822Z</time></trkpt><trkpt lat="43.3249719" lon="11.2483948"><ele>257.0</ele><time>2026-04-04T15:34:13.822Z</time></trkpt><trkpt lat="43.3250448" lon="11.2482676"><ele>257.0</ele><time>2026-04-04T15:34:15.821Z</time></trkpt><trkpt lat="43.3250918" lon="11.2481929"><ele>257.0</ele><time>2026-04-04T15:34:16.821Z</time></trkpt><trkpt lat="43.3251396" lon="11.2481142"><ele>257.0</ele><time>2026-04-04T15:34:17.822Z</time></trkpt><trkpt lat="43.3251868" lon="11.2480417"><ele>257.0</ele><time>2026-04-04T15:34:18.821Z</time></trkpt><trkpt lat="43.325232" lon="11.2479663"><ele>257.0</ele><time>2026-04-04T15:34:19.82Z</time></trkpt><trkpt lat="43.3253142" lon="11.2478562"><ele>257.33333333333337</ele><time>2026-04-04T15:34:21.822Z</time></trkpt><trkpt lat="43.3254017" lon="11.2477506"><ele>257.6666666666667</ele><time>2026-04-04T15:34:23.821Z</time></trkpt><trkpt lat="43.3254537" lon="11.2476884"><ele>258.0</ele><time>2026-04-04T15:34:24.822Z</time></trkpt><trkpt lat="43.3255031" lon="11.2476274"><ele>258.3333333333333</ele><time>2026-04-04T15:34:25.822Z</time></trkpt><trkpt lat="43.3255534" lon="11.2475628"><ele>258.66666666666663</ele><time>2026-04-04T15:34:26.821Z</time></trkpt><trkpt lat="43.3256032" lon="11.2474981"><ele>259.0</ele><time>2026-04-04T15:34:27.82Z</time></trkpt><trkpt lat="43.3256485" lon="11.2474361"><ele>259.0</ele><time>2026-04-04T15:34:28.822Z</time></trkpt><trkpt lat="43.3256989" lon="11.2473597"><ele>259.0</ele><time>2026-04-04T15:34:29.821Z</time></trkpt><trkpt lat="43.3257553" lon="11.2472822"><ele>259.0</ele><time>2026-04-04T15:34:30.821Z</time></trkpt><trkpt lat="43.325807" lon="11.2472075"><ele>259.0</ele><time>2026-04-04T15:34:31.821Z</time></trkpt><trkpt lat="43.325864" lon="11.2471294"><ele>259.0</ele><time>2026-04-04T15:34:32.822Z</time></trkpt><trkpt lat="43.3259257" lon="11.2470403"><ele>259.0</ele><time>2026-04-04T15:34:33.822Z</time></trkpt><trkpt lat="43.3259918" lon="11.2469501"><ele>260.16666666666663</ele><time>2026-04-04T15:34:34.82Z</time></trkpt><trkpt lat="43.3260489" lon="11.2468613"><ele>261.3333333333333</ele><time>2026-04-04T15:34:35.822Z</time></trkpt><trkpt lat="43.3261029" lon="11.2467756"><ele>262.5</ele><time>2026-04-04T15:34:36.821Z</time></trkpt><trkpt lat="43.3261525" lon="11.2466781"><ele>263.6666666666667</ele><time>2026-04-04T15:34:37.82Z</time></trkpt><trkpt lat="43.3261968" lon="11.2465739"><ele>264.83333333333337</ele><time>2026-04-04T15:34:38.82Z</time></trkpt><trkpt lat="43.3262286" lon="11.2464726"><ele>266.0</ele><time>2026-04-04T15:34:39.821Z</time></trkpt><trkpt lat="43.3262495" lon="11.2463617"><ele>267.5</ele><time>2026-04-04T15:34:40.82Z</time></trkpt><trkpt lat="43.3262616" lon="11.2462487"><ele>269.0</ele><time>2026-04-04T15:34:41.821Z</time></trkpt><trkpt lat="43.3262756" lon="11.2461305"><ele>270.5</ele><time>2026-04-04T15:34:42.82Z</time></trkpt><trkpt lat="43.3262791" lon="11.2460154"><ele>272.0</ele><time>2026-04-04T15:34:43.821Z</time></trkpt><trkpt lat="43.3262876" lon="11.2458924"><ele>273.5</ele><time>2026-04-04T15:34:44.82Z</time></trkpt><trkpt lat="43.3262961" lon="11.2457627"><ele>275.0</ele><time>2026-04-04T15:34:45.821Z</time></trkpt><trkpt lat="43.3263009" lon="11.2456402"><ele>277.0</ele><time>2026-04-04T15:34:46.822Z</time></trkpt><trkpt lat="43.3263078" lon="11.2455164"><ele>279.0</ele><time>2026-04-04T15:34:47.821Z</time></trkpt><trkpt lat="43.3263146" lon="11.2453855"><ele>281.0</ele><time>2026-04-04T15:34:48.821Z</time></trkpt><trkpt lat="43.3263217" lon="11.2452605"><ele>283.0</ele><time>2026-04-04T15:34:49.821Z</time></trkpt><trkpt lat="43.3263269" lon="11.2451351"><ele>285.0</ele><time>2026-04-04T15:34:50.822Z</time></trkpt><trkpt lat="43.3263328" lon="11.2450038"><ele>285.0</ele><time>2026-04-04T15:34:51.821Z</time></trkpt><trkpt lat="43.3263384" lon="11.2448692"><ele>285.0</ele><time>2026-04-04T15:34:52.822Z</time></trkpt><trkpt lat="43.3263406" lon="11.2447471"><ele>285.0</ele><time>2026-04-04T15:34:53.82Z</time></trkpt><trkpt lat="43.3263439" lon="11.2446265"><ele>285.0</ele><time>2026-04-04T15:34:54.822Z</time></trkpt><trkpt lat="43.3263474" lon="11.2444987"><ele>285.0</ele><time>2026-04-04T15:34:55.821Z</time></trkpt><trkpt lat="43.3263525" lon="11.2443548"><ele>286.2</ele><time>2026-04-04T15:34:56.821Z</time></trkpt><trkpt lat="43.3263598" lon="11.2442153"><ele>287.4</ele><time>2026-04-04T15:34:57.822Z</time></trkpt><trkpt lat="43.3263713" lon="11.2440743"><ele>288.6</ele><time>2026-04-04T15:34:58.82Z</time></trkpt><trkpt lat="43.3263818" lon="11.2439348"><ele>289.8</ele><time>2026-04-04T15:34:59.821Z</time></trkpt><trkpt lat="43.3263867" lon="11.2438"><ele>291.0</ele><time>2026-04-04T15:35:00.821Z</time></trkpt><trkpt lat="43.3263898" lon="11.2436758"><ele>291.5</ele><time>2026-04-04T15:35:01.821Z</time></trkpt><trkpt lat="43.3263932" lon="11.2435519"><ele>292.0</ele><time>2026-04-04T15:35:02.821Z</time></trkpt><trkpt lat="43.3263972" lon="11.24343"><ele>292.5</ele><time>2026-04-04T15:35:03.822Z</time></trkpt><trkpt lat="43.326403" lon="11.2433127"><ele>293.0</ele><time>2026-04-04T15:35:04.822Z</time></trkpt><trkpt lat="43.3264062" lon="11.2432205"><ele>293.5</ele><time>2026-04-04T15:35:05.821Z</time></trkpt><trkpt lat="43.3264081" lon="11.2431052"><ele>294.0</ele><time>2026-04-04T15:35:06.821Z</time></trkpt><trkpt lat="43.3264118" lon="11.2429989"><ele>292.8333333333333</ele><time>2026-04-04T15:35:07.822Z</time></trkpt><trkpt lat="43.3264198" lon="11.2428785"><ele>291.6666666666667</ele><time>2026-04-04T15:35:08.822Z</time></trkpt><trkpt lat="43.3264289" lon="11.2427679"><ele>290.5</ele><time>2026-04-04T15:35:09.822Z</time></trkpt><trkpt lat="43.3264397" lon="11.2426604"><ele>289.33333333333337</ele><time>2026-04-04T15:35:10.821Z</time></trkpt><trkpt lat="43.3264515" lon="11.2425639"><ele>288.1666666666667</ele><time>2026-04-04T15:35:11.821Z</time></trkpt><trkpt lat="43.32646" lon="11.2424633"><ele>287.0</ele><time>2026-04-04T15:35:12.821Z</time></trkpt><trkpt lat="43.326468" lon="11.2423657"><ele>286.8</ele><time>2026-04-04T15:35:13.822Z</time></trkpt><trkpt lat="43.3264812" lon="11.2422087"><ele>286.6</ele><time>2026-04-04T15:35:15.821Z</time></trkpt><trkpt lat="43.3264766" lon="11.2420627"><ele>286.40000000000003</ele><time>2026-04-04T15:35:17.822Z</time></trkpt><trkpt lat="43.3264579" lon="11.241925"><ele>286.2</ele><time>2026-04-04T15:35:19.822Z</time></trkpt><trkpt lat="43.3264429" lon="11.2418275"><ele>286.0</ele><time>2026-04-04T15:35:21.821Z</time></trkpt><trkpt lat="43.3264941" lon="11.2417316"><ele>286.0</ele><time>2026-04-04T15:35:24.822Z</time></trkpt><trkpt lat="43.3265697" lon="11.2417556"><ele>286.0</ele><time>2026-04-04T15:35:27.821Z</time></trkpt><trkpt lat="43.3266123" lon="11.241826"><ele>286.0</ele><time>2026-04-04T15:35:29.821Z</time></trkpt><trkpt lat="43.326691" lon="11.2418882"><ele>286.0</ele><time>2026-04-04T15:35:32.821Z</time></trkpt><trkpt lat="43.3267865" lon="11.2419446"><ele>286.0</ele><time>2026-04-04T15:35:34.821Z</time></trkpt><trkpt lat="43.3268501" lon="11.2419719"><ele>286.0</ele><time>2026-04-04T15:35:35.822Z</time></trkpt><trkpt lat="43.3269239" lon="11.2419919"><ele>286.0</ele><time>2026-04-04T15:35:36.821Z</time></trkpt><trkpt lat="43.3269997" lon="11.2420112"><ele>286.0</ele><time>2026-04-04T15:35:37.821Z</time></trkpt><trkpt lat="43.3270753" lon="11.2420278"><ele>286.0</ele><time>2026-04-04T15:35:38.822Z</time></trkpt><trkpt lat="43.3271596" lon="11.2420655"><ele>286.0</ele><time>2026-04-04T15:35:39.821Z</time></trkpt><trkpt lat="43.3272443" lon="11.2421111"><ele>286.0</ele><time>2026-04-04T15:35:40.821Z</time></trkpt><trkpt lat="43.3273292" lon="11.2421562"><ele>286.0</ele><time>2026-04-04T15:35:41.821Z</time></trkpt><trkpt lat="43.3274123" lon="11.2422431"><ele>284.5</ele><time>2026-04-04T15:35:42.821Z</time></trkpt><trkpt lat="43.3274935" lon="11.2423299"><ele>283.0</ele><time>2026-04-04T15:35:43.821Z</time></trkpt><trkpt lat="43.3275864" lon="11.2424403"><ele>281.5</ele><time>2026-04-04T15:35:44.82Z</time></trkpt><trkpt lat="43.3276682" lon="11.2425751"><ele>280.0</ele><time>2026-04-04T15:35:45.822Z</time></trkpt><trkpt lat="43.3277445" lon="11.2426908"><ele>280.0</ele><time>2026-04-04T15:35:46.821Z</time></trkpt><trkpt lat="43.3278357" lon="11.2428111"><ele>280.0</ele><time>2026-04-04T15:35:47.821Z</time></trkpt><trkpt lat="43.3279293" lon="11.2429143"><ele>280.0</ele><time>2026-04-04T15:35:48.821Z</time></trkpt><trkpt lat="43.3280197" lon="11.2430242"><ele>280.0</ele><time>2026-04-04T15:35:49.821Z</time></trkpt><trkpt lat="43.3281128" lon="11.2431151"><ele>277.6</ele><time>2026-04-04T15:35:50.821Z</time></trkpt><trkpt lat="43.3282013" lon="11.243189"><ele>275.2</ele><time>2026-04-04T15:35:51.821Z</time></trkpt><trkpt lat="43.3282878" lon="11.2432364"><ele>272.8</ele><time>2026-04-04T15:35:52.822Z</time></trkpt><trkpt lat="43.328408" lon="11.2432506"><ele>270.4</ele><time>2026-04-04T15:35:53.821Z</time></trkpt><trkpt lat="43.3285263" lon="11.2432273"><ele>268.0</ele><time>2026-04-04T15:35:54.821Z</time></trkpt><trkpt lat="43.3286698" lon="11.2431786"><ele>268.0</ele><time>2026-04-04T15:35:55.82Z</time></trkpt><trkpt lat="43.3288046" lon="11.2431387"><ele>268.0</ele><time>2026-04-04T15:35:56.821Z</time></trkpt><trkpt lat="43.3289402" lon="11.243079"><ele>268.0</ele><time>2026-04-04T15:35:57.821Z</time></trkpt><trkpt lat="43.3290807" lon="11.2430091"><ele>268.0</ele><time>2026-04-04T15:35:58.821Z</time></trkpt><trkpt lat="43.3292173" lon="11.2429303"><ele>270.75</ele><time>2026-04-04T15:35:59.821Z</time></trkpt><trkpt lat="43.3293486" lon="11.2428494"><ele>273.5</ele><time>2026-04-04T15:36:00.821Z</time></trkpt><trkpt lat="43.3294801" lon="11.2427751"><ele>276.25</ele><time>2026-04-04T15:36:01.821Z</time></trkpt><trkpt lat="43.3296107" lon="11.2427089"><ele>279.0</ele><time>2026-04-04T15:36:02.822Z</time></trkpt><trkpt lat="43.3297396" lon="11.2426453"><ele>279.0</ele><time>2026-04-04T15:36:03.82Z</time></trkpt><trkpt lat="43.3298743" lon="11.2425894"><ele>279.0</ele><time>2026-04-04T15:36:04.821Z</time></trkpt><trkpt lat="43.3300179" lon="11.2425407"><ele>279.0</ele><time>2026-04-04T15:36:05.821Z</time></trkpt><trkpt lat="43.3301546" lon="11.2425052"><ele>279.0</ele><time>2026-04-04T15:36:06.821Z</time></trkpt><trkpt lat="43.3302907" lon="11.2424903"><ele>279.0</ele><time>2026-04-04T15:36:07.821Z</time></trkpt><trkpt lat="43.3304273" lon="11.2425084"><ele>279.0</ele><time>2026-04-04T15:36:08.821Z</time></trkpt><trkpt lat="43.3305603" lon="11.2425365"><ele>279.0</ele><time>2026-04-04T15:36:09.822Z</time></trkpt><trkpt lat="43.3306972" lon="11.2425784"><ele>279.0</ele><time>2026-04-04T15:36:10.821Z</time></trkpt><trkpt lat="43.330831" lon="11.2426339"><ele>278.75</ele><time>2026-04-04T15:36:11.821Z</time></trkpt><trkpt lat="43.3309528" lon="11.242698"><ele>278.5</ele><time>2026-04-04T15:36:12.821Z</time></trkpt><trkpt lat="43.3310828" lon="11.2427594"><ele>278.25</ele><time>2026-04-04T15:36:13.822Z</time></trkpt><trkpt lat="43.3312116" lon="11.2428198"><ele>278.0</ele><time>2026-04-04T15:36:14.821Z</time></trkpt><trkpt lat="43.3313494" lon="11.2428614"><ele>277.5</ele><time>2026-04-04T15:36:15.822Z</time></trkpt><trkpt lat="43.3314932" lon="11.2428858"><ele>277.0</ele><time>2026-04-04T15:36:16.822Z</time></trkpt><trkpt lat="43.3316423" lon="11.2428972"><ele>276.5</ele><time>2026-04-04T15:36:17.821Z</time></trkpt><trkpt lat="43.3317937" lon="11.242907"><ele>276.0</ele><time>2026-04-04T15:36:18.821Z</time></trkpt><trkpt lat="43.3319471" lon="11.2429155"><ele>276.0</ele><time>2026-04-04T15:36:19.821Z</time></trkpt><trkpt lat="43.3321044" lon="11.242916"><ele>276.0</ele><time>2026-04-04T15:36:20.822Z</time></trkpt><trkpt lat="43.3322577" lon="11.2429125"><ele>276.0</ele><time>2026-04-04T15:36:21.821Z</time></trkpt><trkpt lat="43.3324115" lon="11.2429022"><ele>273.0</ele><time>2026-04-04T15:36:22.821Z</time></trkpt><trkpt lat="43.3325629" lon="11.2428971"><ele>270.0</ele><time>2026-04-04T15:36:23.821Z</time></trkpt><trkpt lat="43.3327168" lon="11.2428745"><ele>267.0</ele><time>2026-04-04T15:36:24.821Z</time></trkpt><trkpt lat="43.3328711" lon="11.2428405"><ele>267.0</ele><time>2026-04-04T15:36:25.82Z</time></trkpt><trkpt lat="43.3330244" lon="11.2428038"><ele>267.0</ele><time>2026-04-04T15:36:26.821Z</time></trkpt><trkpt lat="43.3331763" lon="11.2427636"><ele>267.0</ele><time>2026-04-04T15:36:27.821Z</time></trkpt><trkpt lat="43.3333287" lon="11.2427255"><ele>267.0</ele><time>2026-04-04T15:36:28.822Z</time></trkpt><trkpt lat="43.3334809" lon="11.2426873"><ele>267.0</ele><time>2026-04-04T15:36:29.82Z</time></trkpt><trkpt lat="43.3336335" lon="11.2426514"><ele>267.0</ele><time>2026-04-04T15:36:30.821Z</time></trkpt><trkpt lat="43.3337879" lon="11.2426165"><ele>266.3333333333333</ele><time>2026-04-04T15:36:31.822Z</time></trkpt><trkpt lat="43.3339464" lon="11.2425805"><ele>265.66666666666663</ele><time>2026-04-04T15:36:32.822Z</time></trkpt><trkpt lat="43.3341053" lon="11.2425407"><ele>265.0</ele><time>2026-04-04T15:36:33.821Z</time></trkpt><trkpt lat="43.3342669" lon="11.2425011"><ele>265.0</ele><time>2026-04-04T15:36:34.821Z</time></trkpt><trkpt lat="43.3344257" lon="11.2424636"><ele>265.0</ele><time>2026-04-04T15:36:35.821Z</time></trkpt><trkpt lat="43.3345851" lon="11.2424259"><ele>265.0</ele><time>2026-04-04T15:36:36.821Z</time></trkpt><trkpt lat="43.3347429" lon="11.2423928"><ele>264.0</ele><time>2026-04-04T15:36:37.82Z</time></trkpt><trkpt lat="43.334901" lon="11.2423675"><ele>263.0</ele><time>2026-04-04T15:36:38.821Z</time></trkpt><trkpt lat="43.3350606" lon="11.2423516"><ele>262.0</ele><time>2026-04-04T15:36:39.82Z</time></trkpt><trkpt lat="43.3352271" lon="11.2423484"><ele>262.0</ele><time>2026-04-04T15:36:40.821Z</time></trkpt><trkpt lat="43.3353942" lon="11.2423658"><ele>262.0</ele><time>2026-04-04T15:36:41.822Z</time></trkpt><trkpt lat="43.3355549" lon="11.2424015"><ele>262.0</ele><time>2026-04-04T15:36:42.821Z</time></trkpt><trkpt lat="43.3357177" lon="11.242436"><ele>262.0</ele><time>2026-04-04T15:36:43.82Z</time></trkpt><trkpt lat="43.3358731" lon="11.2424835"><ele>262.0</ele><time>2026-04-04T15:36:44.82Z</time></trkpt><trkpt lat="43.3360225" lon="11.2425403"><ele>262.0</ele><time>2026-04-04T15:36:45.821Z</time></trkpt><trkpt lat="43.3361607" lon="11.242617"><ele>262.0</ele><time>2026-04-04T15:36:46.822Z</time></trkpt><trkpt lat="43.336301" lon="11.2427088"><ele>262.0</ele><time>2026-04-04T15:36:47.822Z</time></trkpt><trkpt lat="43.3364441" lon="11.2428043"><ele>262.0</ele><time>2026-04-04T15:36:48.821Z</time></trkpt><trkpt lat="43.3365821" lon="11.2429233"><ele>262.0</ele><time>2026-04-04T15:36:49.821Z</time></trkpt><trkpt lat="43.3367141" lon="11.2430429"><ele>262.0</ele><time>2026-04-04T15:36:50.822Z</time></trkpt><trkpt lat="43.3368387" lon="11.2431529"><ele>262.0</ele><time>2026-04-04T15:36:51.821Z</time></trkpt><trkpt lat="43.3369533" lon="11.2432647"><ele>262.0</ele><time>2026-04-04T15:36:52.821Z</time></trkpt><trkpt lat="43.3370653" lon="11.2433803"><ele>262.3333333333333</ele><time>2026-04-04T15:36:53.822Z</time></trkpt><trkpt lat="43.337176" lon="11.2435104"><ele>262.6666666666667</ele><time>2026-04-04T15:36:54.821Z</time></trkpt><trkpt lat="43.3372882" lon="11.2436587"><ele>263.0</ele><time>2026-04-04T15:36:55.82Z</time></trkpt><trkpt lat="43.3374027" lon="11.243814"><ele>262.33333333333337</ele><time>2026-04-04T15:36:56.82Z</time></trkpt><trkpt lat="43.3375067" lon="11.2439688"><ele>261.6666666666667</ele><time>2026-04-04T15:36:57.821Z</time></trkpt><trkpt lat="43.3376028" lon="11.2441294"><ele>261.0</ele><time>2026-04-04T15:36:58.821Z</time></trkpt><trkpt lat="43.3376869" lon="11.244299"><ele>261.0</ele><time>2026-04-04T15:36:59.821Z</time></trkpt><trkpt lat="43.3377662" lon="11.2444797"><ele>261.0</ele><time>2026-04-04T15:37:00.822Z</time></trkpt><trkpt lat="43.3378358" lon="11.2446667"><ele>261.0</ele><time>2026-04-04T15:37:01.82Z</time></trkpt><trkpt lat="43.3379001" lon="11.2448598"><ele>261.0</ele><time>2026-04-04T15:37:02.822Z</time></trkpt><trkpt lat="43.3379592" lon="11.2450549"><ele>261.0</ele><time>2026-04-04T15:37:03.821Z</time></trkpt><trkpt lat="43.3380139" lon="11.2452483"><ele>261.0</ele><time>2026-04-04T15:37:04.82Z</time></trkpt><trkpt lat="43.338066" lon="11.2454379"><ele>261.0</ele><time>2026-04-04T15:37:05.821Z</time></trkpt><trkpt lat="43.338113" lon="11.2456157"><ele>261.0</ele><time>2026-04-04T15:37:06.822Z</time></trkpt><trkpt lat="43.3381557" lon="11.2457802"><ele>261.0</ele><time>2026-04-04T15:37:07.822Z</time></trkpt><trkpt lat="43.3382023" lon="11.2459241"><ele>261.0</ele><time>2026-04-04T15:37:08.821Z</time></trkpt><trkpt lat="43.3382481" lon="11.2460642"><ele>261.0</ele><time>2026-04-04T15:37:09.821Z</time></trkpt><trkpt lat="43.3382928" lon="11.2462013"><ele>261.0</ele><time>2026-04-04T15:37:10.821Z</time></trkpt><trkpt lat="43.3383381" lon="11.2463335"><ele>261.0</ele><time>2026-04-04T15:37:11.821Z</time></trkpt><trkpt lat="43.3383842" lon="11.2464661"><ele>261.0</ele><time>2026-04-04T15:37:12.82Z</time></trkpt><trkpt lat="43.3384325" lon="11.2465962"><ele>261.0</ele><time>2026-04-04T15:37:13.822Z</time></trkpt><trkpt lat="43.3384789" lon="11.2467179"><ele>260.8333333333333</ele><time>2026-04-04T15:37:14.822Z</time></trkpt><trkpt lat="43.3385204" lon="11.246835"><ele>260.6666666666667</ele><time>2026-04-04T15:37:15.822Z</time></trkpt><trkpt lat="43.3385603" lon="11.246949"><ele>260.5</ele><time>2026-04-04T15:37:16.822Z</time></trkpt><trkpt lat="43.3386005" lon="11.2470561"><ele>260.33333333333337</ele><time>2026-04-04T15:37:17.822Z</time></trkpt><trkpt lat="43.3386401" lon="11.2471586"><ele>260.1666666666667</ele><time>2026-04-04T15:37:18.822Z</time></trkpt><trkpt lat="43.3386786" lon="11.2472545"><ele>260.0</ele><time>2026-04-04T15:37:19.821Z</time></trkpt><trkpt lat="43.338721" lon="11.2473438"><ele>260.00000000000006</ele><time>2026-04-04T15:37:20.822Z</time></trkpt><trkpt lat="43.3387678" lon="11.247421"><ele>260.0</ele><time>2026-04-04T15:37:21.821Z</time></trkpt><trkpt lat="43.3388213" lon="11.2475005"><ele>260.0</ele><time>2026-04-04T15:37:22.821Z</time></trkpt><trkpt lat="43.3388713" lon="11.2475772"><ele>260.0</ele><time>2026-04-04T15:37:23.82Z</time></trkpt><trkpt lat="43.3389152" lon="11.2476545"><ele>260.0</ele><time>2026-04-04T15:37:24.821Z</time></trkpt><trkpt lat="43.3389573" lon="11.247734"><ele>260.00000000000006</ele><time>2026-04-04T15:37:25.821Z</time></trkpt><trkpt lat="43.3390008" lon="11.2478127"><ele>260.0</ele><time>2026-04-04T15:37:26.822Z</time></trkpt><trkpt lat="43.3390581" lon="11.2478876"><ele>260.0</ele><time>2026-04-04T15:37:27.821Z</time></trkpt><trkpt lat="43.339107" lon="11.2479703"><ele>260.0</ele><time>2026-04-04T15:37:28.821Z</time></trkpt><trkpt lat="43.3391556" lon="11.2480603"><ele>260.0</ele><time>2026-04-04T15:37:29.821Z</time></trkpt><trkpt lat="43.3392006" lon="11.2481441"><ele>260.0</ele><time>2026-04-04T15:37:30.822Z</time></trkpt><trkpt lat="43.339238" lon="11.2482256"><ele>260.0</ele><time>2026-04-04T15:37:31.821Z</time></trkpt><trkpt lat="43.3393126" lon="11.2483196"><ele>260.0</ele><time>2026-04-04T15:37:33.821Z</time></trkpt><trkpt lat="43.3394239" lon="11.2482597"><ele>260.0</ele><time>2026-04-04T15:37:35.82Z</time></trkpt><trkpt lat="43.3394874" lon="11.2482134"><ele>260.0</ele><time>2026-04-04T15:37:36.821Z</time></trkpt><trkpt lat="43.3395719" lon="11.2480988"><ele>260.0</ele><time>2026-04-04T15:37:37.821Z</time></trkpt><trkpt lat="43.3396351" lon="11.2480257"><ele>260.0</ele><time>2026-04-04T15:37:38.822Z</time></trkpt><trkpt lat="43.3396818" lon="11.247941"><ele>260.0</ele><time>2026-04-04T15:37:39.821Z</time></trkpt><trkpt lat="43.3397062" lon="11.2478504"><ele>260.0</ele><time>2026-04-04T15:37:40.822Z</time></trkpt><trkpt lat="43.3397251" lon="11.2477593"><ele>262.2</ele><time>2026-04-04T15:37:41.822Z</time></trkpt><trkpt lat="43.3397374" lon="11.247669"><ele>264.4</ele><time>2026-04-04T15:37:42.821Z</time></trkpt><trkpt lat="43.3397956" lon="11.2475165"><ele>266.6</ele><time>2026-04-04T15:37:44.821Z</time></trkpt><trkpt lat="43.3398608" lon="11.2474544"><ele>268.8</ele><time>2026-04-04T15:37:45.822Z</time></trkpt><trkpt lat="43.3399748" lon="11.247434"><ele>271.0</ele><time>2026-04-04T15:37:47.822Z</time></trkpt><trkpt lat="43.3400393" lon="11.2474373"><ele>271.0</ele><time>2026-04-04T15:37:48.822Z</time></trkpt><trkpt lat="43.3401059" lon="11.2474565"><ele>271.0</ele><time>2026-04-04T15:37:49.821Z</time></trkpt><trkpt lat="43.340193" lon="11.2474649"><ele>271.0</ele><time>2026-04-04T15:37:50.821Z</time></trkpt><trkpt lat="43.3402602" lon="11.2474829"><ele>271.0</ele><time>2026-04-04T15:37:51.821Z</time></trkpt><trkpt lat="43.3403282" lon="11.2474721"><ele>271.0</ele><time>2026-04-04T15:37:52.821Z</time></trkpt><trkpt lat="43.3403921" lon="11.247447"><ele>271.0</ele><time>2026-04-04T15:37:53.822Z</time></trkpt><trkpt lat="43.3404507" lon="11.2473984"><ele>271.0</ele><time>2026-04-04T15:37:54.821Z</time></trkpt><trkpt lat="43.3405309" lon="11.2472848"><ele>273.40000000000003</ele><time>2026-04-04T15:37:56.822Z</time></trkpt><trkpt lat="43.3406011" lon="11.2471472"><ele>275.8</ele><time>2026-04-04T15:37:58.822Z</time></trkpt><trkpt lat="43.3406548" lon="11.247092"><ele>278.20000000000005</ele><time>2026-04-04T15:37:59.821Z</time></trkpt><trkpt lat="43.3407604" lon="11.2469607"><ele>280.6</ele><time>2026-04-04T15:38:01.822Z</time></trkpt><trkpt lat="43.3408155" lon="11.2468799"><ele>283.0</ele><time>2026-04-04T15:38:02.822Z</time></trkpt><trkpt lat="43.3408523" lon="11.2468063"><ele>283.0</ele><time>2026-04-04T15:38:03.821Z</time></trkpt><trkpt lat="43.3408784" lon="11.2467248"><ele>283.0</ele><time>2026-04-04T15:38:04.822Z</time></trkpt><trkpt lat="43.3409025" lon="11.2466301"><ele>283.0</ele><time>2026-04-04T15:38:05.821Z</time></trkpt><trkpt lat="43.3409304" lon="11.2465216"><ele>283.0</ele><time>2026-04-04T15:38:06.82Z</time></trkpt><trkpt lat="43.3409542" lon="11.2464199"><ele>283.0</ele><time>2026-04-04T15:38:07.821Z</time></trkpt><trkpt lat="43.3409892" lon="11.2463378"><ele>283.0</ele><time>2026-04-04T15:38:08.822Z</time></trkpt><trkpt lat="43.3410425" lon="11.2462813"><ele>283.0</ele><time>2026-04-04T15:38:09.821Z</time></trkpt><trkpt lat="43.3411236" lon="11.2462192"><ele>283.8333333333333</ele><time>2026-04-04T15:38:10.822Z</time></trkpt><trkpt lat="43.3412086" lon="11.2461546"><ele>284.66666666666663</ele><time>2026-04-04T15:38:11.822Z</time></trkpt><trkpt lat="43.3412842" lon="11.2461093"><ele>285.5</ele><time>2026-04-04T15:38:12.821Z</time></trkpt><trkpt lat="43.3413505" lon="11.24605"><ele>286.3333333333333</ele><time>2026-04-04T15:38:13.821Z</time></trkpt><trkpt lat="43.3414162" lon="11.2459739"><ele>287.1666666666667</ele><time>2026-04-04T15:38:14.822Z</time></trkpt><trkpt lat="43.3414718" lon="11.2458829"><ele>288.0</ele><time>2026-04-04T15:38:15.821Z</time></trkpt><trkpt lat="43.3415261" lon="11.245818"><ele>288.8</ele><time>2026-04-04T15:38:16.821Z</time></trkpt><trkpt lat="43.341583" lon="11.2457547"><ele>289.6</ele><time>2026-04-04T15:38:17.822Z</time></trkpt><trkpt lat="43.3416747" lon="11.24565"><ele>290.4</ele><time>2026-04-04T15:38:19.821Z</time></trkpt><trkpt lat="43.3417289" lon="11.2456034"><ele>291.2</ele><time>2026-04-04T15:38:20.821Z</time></trkpt><trkpt lat="43.3418538" lon="11.2455458"><ele>292.0</ele><time>2026-04-04T15:38:22.822Z</time></trkpt><trkpt lat="43.3419059" lon="11.2454963"><ele>292.66666666666663</ele><time>2026-04-04T15:38:23.822Z</time></trkpt><trkpt lat="43.3419575" lon="11.2454307"><ele>293.3333333333333</ele><time>2026-04-04T15:38:24.82Z</time></trkpt><trkpt lat="43.34201" lon="11.2453552"><ele>294.0</ele><time>2026-04-04T15:38:25.821Z</time></trkpt><trkpt lat="43.3420596" lon="11.2452876"><ele>294.6666666666667</ele><time>2026-04-04T15:38:26.821Z</time></trkpt><trkpt lat="43.3421347" lon="11.2451663"><ele>295.33333333333337</ele><time>2026-04-04T15:38:28.821Z</time></trkpt><trkpt lat="43.3422298" lon="11.2450769"><ele>296.0</ele><time>2026-04-04T15:38:30.821Z</time></trkpt><trkpt lat="43.3423239" lon="11.2450058"><ele>297.0</ele><time>2026-04-04T15:38:32.821Z</time></trkpt><trkpt lat="43.3424453" lon="11.2449626"><ele>298.0</ele><time>2026-04-04T15:38:34.822Z</time></trkpt><trkpt lat="43.3425096" lon="11.2449239"><ele>299.0</ele><time>2026-04-04T15:38:35.821Z</time></trkpt><trkpt lat="43.3425689" lon="11.2448835"><ele>300.0</ele><time>2026-04-04T15:38:36.82Z</time></trkpt><trkpt lat="43.3426229" lon="11.2448165"><ele>301.0</ele><time>2026-04-04T15:38:37.82Z</time></trkpt><trkpt lat="43.3426685" lon="11.2447469"><ele>302.0</ele><time>2026-04-04T15:38:38.822Z</time></trkpt><trkpt lat="43.342718" lon="11.2446796"><ele>302.6</ele><time>2026-04-04T15:38:39.821Z</time></trkpt><trkpt lat="43.342763" lon="11.2446139"><ele>303.2</ele><time>2026-04-04T15:38:40.822Z</time></trkpt><trkpt lat="43.3428613" lon="11.2445266"><ele>303.8</ele><time>2026-04-04T15:38:42.82Z</time></trkpt><trkpt lat="43.3429241" lon="11.2444888"><ele>304.4</ele><time>2026-04-04T15:38:43.822Z</time></trkpt><trkpt lat="43.3430546" lon="11.2444274"><ele>305.0</ele><time>2026-04-04T15:38:45.821Z</time></trkpt><trkpt lat="43.3431354" lon="11.2443914"><ele>305.5</ele><time>2026-04-04T15:38:46.821Z</time></trkpt><trkpt lat="43.3432147" lon="11.2443475"><ele>306.0</ele><time>2026-04-04T15:38:47.821Z</time></trkpt><trkpt lat="43.3432844" lon="11.2443071"><ele>306.5</ele><time>2026-04-04T15:38:48.82Z</time></trkpt><trkpt lat="43.3433526" lon="11.2442664"><ele>307.0</ele><time>2026-04-04T15:38:49.821Z</time></trkpt><trkpt lat="43.3434171" lon="11.2442213"><ele>307.5</ele><time>2026-04-04T15:38:50.821Z</time></trkpt><trkpt lat="43.34349" lon="11.2441561"><ele>308.0</ele><time>2026-04-04T15:38:51.822Z</time></trkpt><trkpt lat="43.3435724" lon="11.2440761"><ele>308.0</ele><time>2026-04-04T15:38:52.821Z</time></trkpt><trkpt lat="43.3436464" lon="11.244008"><ele>308.0</ele><time>2026-04-04T15:38:53.821Z</time></trkpt><trkpt lat="43.3437251" lon="11.2439426"><ele>308.0</ele><time>2026-04-04T15:38:54.821Z</time></trkpt><trkpt lat="43.3438023" lon="11.2438727"><ele>308.0</ele><time>2026-04-04T15:38:55.82Z</time></trkpt><trkpt lat="43.3439087" lon="11.2438284"><ele>308.0</ele><time>2026-04-04T15:38:56.82Z</time></trkpt><trkpt lat="43.3440006" lon="11.2437674"><ele>309.8</ele><time>2026-04-04T15:38:57.822Z</time></trkpt><trkpt lat="43.3440877" lon="11.2437103"><ele>311.6</ele><time>2026-04-04T15:38:58.821Z</time></trkpt><trkpt lat="43.3441763" lon="11.2436502"><ele>313.4</ele><time>2026-04-04T15:38:59.821Z</time></trkpt><trkpt lat="43.3442654" lon="11.2435877"><ele>315.2</ele><time>2026-04-04T15:39:00.82Z</time></trkpt><trkpt lat="43.344345" lon="11.2435234"><ele>317.0</ele><time>2026-04-04T15:39:01.821Z</time></trkpt><trkpt lat="43.3444334" lon="11.2434941"><ele>317.0</ele><time>2026-04-04T15:39:02.821Z</time></trkpt><trkpt lat="43.3445284" lon="11.2434377"><ele>317.0</ele><time>2026-04-04T15:39:03.821Z</time></trkpt><trkpt lat="43.3446012" lon="11.2433889"><ele>317.0</ele><time>2026-04-04T15:39:04.82Z</time></trkpt><trkpt lat="43.3446806" lon="11.2433425"><ele>317.0</ele><time>2026-04-04T15:39:05.821Z</time></trkpt><trkpt lat="43.3447698" lon="11.2432976"><ele>317.0</ele><time>2026-04-04T15:39:06.821Z</time></trkpt><trkpt lat="43.3448465" lon="11.2432624"><ele>317.0</ele><time>2026-04-04T15:39:07.82Z</time></trkpt><trkpt lat="43.3449435" lon="11.2433451"><ele>316.8</ele><time>2026-04-04T15:39:09.822Z</time></trkpt><trkpt lat="43.3449971" lon="11.2434028"><ele>316.6</ele><time>2026-04-04T15:39:10.821Z</time></trkpt><trkpt lat="43.3450588" lon="11.2435253"><ele>316.40000000000003</ele><time>2026-04-04T15:39:11.822Z</time></trkpt><trkpt lat="43.3451076" lon="11.2436533"><ele>316.2</ele><time>2026-04-04T15:39:12.821Z</time></trkpt><trkpt lat="43.3451552" lon="11.2437637"><ele>316.0</ele><time>2026-04-04T15:39:13.821Z</time></trkpt><trkpt lat="43.345198" lon="11.2438617"><ele>316.0</ele><time>2026-04-04T15:39:14.82Z</time></trkpt><trkpt lat="43.3452355" lon="11.2439512"><ele>316.0</ele><time>2026-04-04T15:39:15.821Z</time></trkpt><trkpt lat="43.3452698" lon="11.2440451"><ele>316.0</ele><time>2026-04-04T15:39:16.821Z</time></trkpt><trkpt lat="43.3453056" lon="11.2441375"><ele>316.0</ele><time>2026-04-04T15:39:17.82Z</time></trkpt><trkpt lat="43.3453386" lon="11.2442117"><ele>316.0</ele><time>2026-04-04T15:39:18.82Z</time></trkpt><trkpt lat="43.3454052" lon="11.2443507"><ele>316.0</ele><time>2026-04-04T15:39:20.821Z</time></trkpt><trkpt lat="43.3454496" lon="11.244415"><ele>316.16666666666663</ele><time>2026-04-04T15:39:21.822Z</time></trkpt><trkpt lat="43.3455454" lon="11.2445491"><ele>316.3333333333333</ele><time>2026-04-04T15:39:23.822Z</time></trkpt><trkpt lat="43.3455859" lon="11.2446212"><ele>316.5</ele><time>2026-04-04T15:39:24.821Z</time></trkpt><trkpt lat="43.3456151" lon="11.2447031"><ele>316.6666666666667</ele><time>2026-04-04T15:39:25.821Z</time></trkpt><trkpt lat="43.3456439" lon="11.2447884"><ele>316.83333333333337</ele><time>2026-04-04T15:39:26.822Z</time></trkpt><trkpt lat="43.3456655" lon="11.2449357"><ele>317.0</ele><time>2026-04-04T15:39:28.821Z</time></trkpt><trkpt lat="43.345679" lon="11.2450727"><ele>315.8</ele><time>2026-04-04T15:39:30.821Z</time></trkpt><trkpt lat="43.3456766" lon="11.2452174"><ele>314.6</ele><time>2026-04-04T15:39:32.821Z</time></trkpt><trkpt lat="43.3456752" lon="11.2453631"><ele>313.40000000000003</ele><time>2026-04-04T15:39:34.821Z</time></trkpt><trkpt lat="43.3457007" lon="11.2455009"><ele>312.2</ele><time>2026-04-04T15:39:36.822Z</time></trkpt><trkpt lat="43.3457451" lon="11.2456502"><ele>311.0</ele><time>2026-04-04T15:39:38.822Z</time></trkpt><trkpt lat="43.3457806" lon="11.2457862"><ele>310.25</ele><time>2026-04-04T15:39:40.821Z</time></trkpt><trkpt lat="43.3458192" lon="11.2459233"><ele>309.5</ele><time>2026-04-04T15:39:42.821Z</time></trkpt><trkpt lat="43.3458653" lon="11.2460586"><ele>308.75</ele><time>2026-04-04T15:39:44.822Z</time></trkpt><trkpt lat="43.3459206" lon="11.246203"><ele>308.0</ele><time>2026-04-04T15:39:46.821Z</time></trkpt><trkpt lat="43.3459725" lon="11.2463476"><ele>306.4</ele><time>2026-04-04T15:39:48.821Z</time></trkpt><trkpt lat="43.346016" lon="11.2464955"><ele>304.8</ele><time>2026-04-04T15:39:50.821Z</time></trkpt><trkpt lat="43.3460634" lon="11.2466135"><ele>303.2</ele><time>2026-04-04T15:39:52.821Z</time></trkpt><trkpt lat="43.3461359" lon="11.2466541"><ele>301.6</ele><time>2026-04-04T15:39:54.821Z</time></trkpt><trkpt lat="43.3462418" lon="11.2465893"><ele>300.0</ele><time>2026-04-04T15:39:56.822Z</time></trkpt><trkpt lat="43.3463143" lon="11.24655"><ele>301.1666666666667</ele><time>2026-04-04T15:39:57.821Z</time></trkpt><trkpt lat="43.3463876" lon="11.2465155"><ele>302.3333333333333</ele><time>2026-04-04T15:39:58.821Z</time></trkpt><trkpt lat="43.3464717" lon="11.246483"><ele>303.5</ele><time>2026-04-04T15:39:59.82Z</time></trkpt><trkpt lat="43.3465587" lon="11.2464699"><ele>304.66666666666663</ele><time>2026-04-04T15:40:00.821Z</time></trkpt><trkpt lat="43.3466416" lon="11.2464338"><ele>305.8333333333333</ele><time>2026-04-04T15:40:01.821Z</time></trkpt><trkpt lat="43.3467198" lon="11.2464143"><ele>307.0</ele><time>2026-04-04T15:40:02.82Z</time></trkpt><trkpt lat="43.3467924" lon="11.2463919"><ele>308.5</ele><time>2026-04-04T15:40:03.822Z</time></trkpt><trkpt lat="43.3468716" lon="11.2463752"><ele>310.0</ele><time>2026-04-04T15:40:04.822Z</time></trkpt><trkpt lat="43.3469912" lon="11.2463439"><ele>311.5</ele><time>2026-04-04T15:40:06.82Z</time></trkpt><trkpt lat="43.3470658" lon="11.2463421"><ele>313.0</ele><time>2026-04-04T15:40:07.821Z</time></trkpt><trkpt lat="43.3471298" lon="11.2463363"><ele>314.5</ele><time>2026-04-04T15:40:08.821Z</time></trkpt><trkpt lat="43.3471978" lon="11.246333"><ele>316.0</ele><time>2026-04-04T15:40:09.821Z</time></trkpt><trkpt lat="43.3472706" lon="11.2463318"><ele>317.4</ele><time>2026-04-04T15:40:10.821Z</time></trkpt><trkpt lat="43.3473432" lon="11.2463313"><ele>318.8</ele><time>2026-04-04T15:40:11.822Z</time></trkpt><trkpt lat="43.3474166" lon="11.2463357"><ele>320.2</ele><time>2026-04-04T15:40:12.82Z</time></trkpt><trkpt lat="43.3474905" lon="11.2463567"><ele>321.59999999999997</ele><time>2026-04-04T15:40:13.822Z</time></trkpt><trkpt lat="43.3476101" lon="11.2463756"><ele>323.0</ele><time>2026-04-04T15:40:15.822Z</time></trkpt><trkpt lat="43.3477414" lon="11.2464193"><ele>323.0</ele><time>2026-04-04T15:40:17.822Z</time></trkpt><trkpt lat="43.3478028" lon="11.2464542"><ele>323.0</ele><time>2026-04-04T15:40:18.822Z</time></trkpt><trkpt lat="43.3478671" lon="11.2465215"><ele>323.0</ele><time>2026-04-04T15:40:19.821Z</time></trkpt><trkpt lat="43.3479418" lon="11.2466627"><ele>323.0</ele><time>2026-04-04T15:40:21.822Z</time></trkpt><trkpt lat="43.3480053" lon="11.2466968"><ele>323.0</ele><time>2026-04-04T15:40:22.822Z</time></trkpt><trkpt lat="43.3481213" lon="11.2467319"><ele>321.1666666666667</ele><time>2026-04-04T15:40:24.821Z</time></trkpt><trkpt lat="43.3482419" lon="11.2467184"><ele>319.33333333333337</ele><time>2026-04-04T15:40:26.82Z</time></trkpt><trkpt lat="43.3483038" lon="11.246695"><ele>317.5</ele><time>2026-04-04T15:40:27.822Z</time></trkpt><trkpt lat="43.3483712" lon="11.2466629"><ele>315.6666666666667</ele><time>2026-04-04T15:40:28.822Z</time></trkpt><trkpt lat="43.3484502" lon="11.2466268"><ele>313.8333333333333</ele><time>2026-04-04T15:40:29.822Z</time></trkpt><trkpt lat="43.3485299" lon="11.2465927"><ele>312.0</ele><time>2026-04-04T15:40:30.821Z</time></trkpt><trkpt lat="43.3486118" lon="11.2465441"><ele>312.0</ele><time>2026-04-04T15:40:31.821Z</time></trkpt><trkpt lat="43.3486971" lon="11.2465007"><ele>312.0</ele><time>2026-04-04T15:40:32.821Z</time></trkpt><trkpt lat="43.348781" lon="11.2464675"><ele>312.0</ele><time>2026-04-04T15:40:33.821Z</time></trkpt><trkpt lat="43.3488777" lon="11.2464536"><ele>312.0</ele><time>2026-04-04T15:40:34.821Z</time></trkpt><trkpt lat="43.3489897" lon="11.2464431"><ele>312.0</ele><time>2026-04-04T15:40:35.821Z</time></trkpt><trkpt lat="43.3490953" lon="11.246427"><ele>313.6</ele><time>2026-04-04T15:40:36.822Z</time></trkpt><trkpt lat="43.3492022" lon="11.2464139"><ele>315.2</ele><time>2026-04-04T15:40:37.82Z</time></trkpt><trkpt lat="43.3493038" lon="11.2464041"><ele>316.8</ele><time>2026-04-04T15:40:38.821Z</time></trkpt><trkpt lat="43.3493987" lon="11.246388"><ele>318.4</ele><time>2026-04-04T15:40:39.821Z</time></trkpt><trkpt lat="43.3494969" lon="11.2463708"><ele>320.0</ele><time>2026-04-04T15:40:40.82Z</time></trkpt><trkpt lat="43.3495861" lon="11.246352"><ele>320.0</ele><time>2026-04-04T15:40:41.821Z</time></trkpt><trkpt lat="43.3496882" lon="11.2463575"><ele>320.0</ele><time>2026-04-04T15:40:43.822Z</time></trkpt><trkpt lat="43.3497879" lon="11.2463762"><ele>320.0</ele><time>2026-04-04T15:40:45.821Z</time></trkpt><trkpt lat="43.3498638" lon="11.24646"><ele>320.0</ele><time>2026-04-04T15:40:47.821Z</time></trkpt><trkpt lat="43.349888" lon="11.2466033"><ele>320.0</ele><time>2026-04-04T15:40:49.821Z</time></trkpt><trkpt lat="43.3499208" lon="11.2467403"><ele>319.4</ele><time>2026-04-04T15:40:51.821Z</time></trkpt><trkpt lat="43.3499396" lon="11.2468538"><ele>318.8</ele><time>2026-04-04T15:40:53.822Z</time></trkpt><trkpt lat="43.3499586" lon="11.2469433"><ele>318.2</ele><time>2026-04-04T15:40:55.821Z</time></trkpt><trkpt lat="43.3500186" lon="11.2470252"><ele>317.6</ele><time>2026-04-04T15:40:57.821Z</time></trkpt><trkpt lat="43.3501053" lon="11.2470985"><ele>317.0</ele><time>2026-04-04T15:40:59.821Z</time></trkpt><trkpt lat="43.3502123" lon="11.2471724"><ele>317.0</ele><time>2026-04-04T15:41:01.822Z</time></trkpt><trkpt lat="43.3502874" lon="11.2472001"><ele>317.0</ele><time>2026-04-04T15:41:02.821Z</time></trkpt><trkpt lat="43.3503928" lon="11.2472225"><ele>317.0</ele><time>2026-04-04T15:41:04.82Z</time></trkpt><trkpt lat="43.3504579" lon="11.2472389"><ele>317.0</ele><time>2026-04-04T15:41:05.821Z</time></trkpt><trkpt lat="43.3505246" lon="11.2472746"><ele>317.0</ele><time>2026-04-04T15:41:06.82Z</time></trkpt><trkpt lat="43.3505868" lon="11.2472943"><ele>317.0</ele><time>2026-04-04T15:41:07.822Z</time></trkpt><trkpt lat="43.3506687" lon="11.2473253"><ele>318.2</ele><time>2026-04-04T15:41:08.822Z</time></trkpt><trkpt lat="43.3507431" lon="11.2473361"><ele>319.4</ele><time>2026-04-04T15:41:09.82Z</time></trkpt><trkpt lat="43.3508394" lon="11.2473861"><ele>320.59999999999997</ele><time>2026-04-04T15:41:10.821Z</time></trkpt><trkpt lat="43.3509191" lon="11.2474564"><ele>321.79999999999995</ele><time>2026-04-04T15:41:11.82Z</time></trkpt><trkpt lat="43.3509971" lon="11.2474943"><ele>323.0</ele><time>2026-04-04T15:41:12.822Z</time></trkpt><trkpt lat="43.351081" lon="11.2475572"><ele>323.0</ele><time>2026-04-04T15:41:13.822Z</time></trkpt><trkpt lat="43.3511551" lon="11.2476177"><ele>323.0</ele><time>2026-04-04T15:41:14.821Z</time></trkpt><trkpt lat="43.3512369" lon="11.247689"><ele>323.0</ele><time>2026-04-04T15:41:15.822Z</time></trkpt><trkpt lat="43.3513135" lon="11.2477612"><ele>323.0</ele><time>2026-04-04T15:41:16.821Z</time></trkpt><trkpt lat="43.3513749" lon="11.2478131"><ele>323.0</ele><time>2026-04-04T15:41:17.82Z</time></trkpt><trkpt lat="43.3514139" lon="11.2478909"><ele>323.0</ele><time>2026-04-04T15:41:18.821Z</time></trkpt><trkpt lat="43.3514822" lon="11.2479956"><ele>323.59999999999997</ele><time>2026-04-04T15:41:19.82Z</time></trkpt><trkpt lat="43.3515243" lon="11.2480899"><ele>324.2</ele><time>2026-04-04T15:41:20.82Z</time></trkpt><trkpt lat="43.351571" lon="11.2482201"><ele>324.8</ele><time>2026-04-04T15:41:21.82Z</time></trkpt><trkpt lat="43.3516204" lon="11.2483141"><ele>325.4</ele><time>2026-04-04T15:41:22.821Z</time></trkpt><trkpt lat="43.3517199" lon="11.24838"><ele>326.0</ele><time>2026-04-04T15:41:24.821Z</time></trkpt><trkpt lat="43.3517905" lon="11.2484045"><ele>325.0</ele><time>2026-04-04T15:41:25.821Z</time></trkpt><trkpt lat="43.3518548" lon="11.2484192"><ele>324.0</ele><time>2026-04-04T15:41:26.821Z</time></trkpt><trkpt lat="43.3519232" lon="11.2484104"><ele>323.0</ele><time>2026-04-04T15:41:27.822Z</time></trkpt><trkpt lat="43.3520387" lon="11.2484287"><ele>322.0</ele><time>2026-04-04T15:41:29.822Z</time></trkpt><trkpt lat="43.352154" lon="11.2484382"><ele>321.0</ele><time>2026-04-04T15:41:31.822Z</time></trkpt><trkpt lat="43.3522708" lon="11.2484499"><ele>321.0</ele><time>2026-04-04T15:41:33.821Z</time></trkpt><trkpt lat="43.3523836" lon="11.2484471"><ele>321.0</ele><time>2026-04-04T15:41:35.82Z</time></trkpt><trkpt lat="43.3524864" lon="11.2484542"><ele>321.0</ele><time>2026-04-04T15:41:37.821Z</time></trkpt><trkpt lat="43.3525847" lon="11.2484614"><ele>321.0</ele><time>2026-04-04T15:41:39.822Z</time></trkpt><trkpt lat="43.3526859" lon="11.2484804"><ele>321.0</ele><time>2026-04-04T15:41:41.821Z</time></trkpt><trkpt lat="43.3527922" lon="11.2484705"><ele>321.0</ele><time>2026-04-04T15:41:43.821Z</time></trkpt><trkpt lat="43.3529037" lon="11.2484024"><ele>321.0</ele><time>2026-04-04T15:41:45.822Z</time></trkpt><trkpt lat="43.3529615" lon="11.2483637"><ele>321.0</ele><time>2026-04-04T15:41:46.822Z</time></trkpt><trkpt lat="43.3530234" lon="11.2483173"><ele>321.0</ele><time>2026-04-04T15:41:47.821Z</time></trkpt><trkpt lat="43.3530901" lon="11.2482732"><ele>321.0</ele><time>2026-04-04T15:41:48.82Z</time></trkpt><trkpt lat="43.3531582" lon="11.2482554"><ele>321.0</ele><time>2026-04-04T15:41:49.822Z</time></trkpt><trkpt lat="43.3532353" lon="11.248249"><ele>320.1666666666667</ele><time>2026-04-04T15:41:50.821Z</time></trkpt><trkpt lat="43.3533121" lon="11.2482582"><ele>319.3333333333333</ele><time>2026-04-04T15:41:51.822Z</time></trkpt><trkpt lat="43.3533874" lon="11.2482863"><ele>318.5</ele><time>2026-04-04T15:41:52.821Z</time></trkpt><trkpt lat="43.3534613" lon="11.2483222"><ele>317.66666666666663</ele><time>2026-04-04T15:41:53.821Z</time></trkpt><trkpt lat="43.3535352" lon="11.2483564"><ele>316.8333333333333</ele><time>2026-04-04T15:41:54.822Z</time></trkpt><trkpt lat="43.3536032" lon="11.2483876"><ele>316.0</ele><time>2026-04-04T15:41:55.821Z</time></trkpt><trkpt lat="43.3536662" lon="11.2484216"><ele>316.0</ele><time>2026-04-04T15:41:56.822Z</time></trkpt><trkpt lat="43.3537746" lon="11.2484847"><ele>316.0</ele><time>2026-04-04T15:41:58.821Z</time></trkpt><trkpt lat="43.3538561" lon="11.2485148"><ele>316.0</ele><time>2026-04-04T15:42:00.82Z</time></trkpt><trkpt lat="43.353946" lon="11.2484919"><ele>316.0</ele><time>2026-04-04T15:42:04.821Z</time></trkpt><trkpt lat="43.3540306" lon="11.2484764"><ele>316.0</ele><time>2026-04-04T15:42:06.821Z</time></trkpt><trkpt lat="43.3540936" lon="11.2484757"><ele>316.0</ele><time>2026-04-04T15:42:07.82Z</time></trkpt><trkpt lat="43.3541702" lon="11.2484712"><ele>317.0</ele><time>2026-04-04T15:42:08.822Z</time></trkpt><trkpt lat="43.3542538" lon="11.2484626"><ele>318.0</ele><time>2026-04-04T15:42:09.82Z</time></trkpt><trkpt lat="43.3544369" lon="11.248431"><ele>319.0</ele><time>2026-04-04T15:42:11.821Z</time></trkpt><trkpt lat="43.3545259" lon="11.2484186"><ele>320.0</ele><time>2026-04-04T15:42:12.82Z</time></trkpt><trkpt lat="43.3546124" lon="11.2484054"><ele>321.0</ele><time>2026-04-04T15:42:13.822Z</time></trkpt><trkpt lat="43.3546929" lon="11.2483924"><ele>320.4285714285714</ele><time>2026-04-04T15:42:14.822Z</time></trkpt><trkpt lat="43.3547711" lon="11.2483852"><ele>319.85714285714283</ele><time>2026-04-04T15:42:15.82Z</time></trkpt><trkpt lat="43.354841" lon="11.2483856"><ele>319.2857142857143</ele><time>2026-04-04T15:42:16.82Z</time></trkpt><trkpt lat="43.3549096" lon="11.2483823"><ele>318.71428571428567</ele><time>2026-04-04T15:42:17.82Z</time></trkpt><trkpt lat="43.3549706" lon="11.2484296"><ele>318.1428571428571</ele><time>2026-04-04T15:42:18.82Z</time></trkpt><trkpt lat="43.3550298" lon="11.2484765"><ele>317.57142857142856</ele><time>2026-04-04T15:42:19.821Z</time></trkpt><trkpt lat="43.3550837" lon="11.2485491"><ele>317.0</ele><time>2026-04-04T15:42:20.822Z</time></trkpt><trkpt lat="43.3551329" lon="11.2486238"><ele>317.0</ele><time>2026-04-04T15:42:21.822Z</time></trkpt><trkpt lat="43.3552166" lon="11.2487183"><ele>317.0</ele><time>2026-04-04T15:42:23.821Z</time></trkpt><trkpt lat="43.3552992" lon="11.2488143"><ele>317.0</ele><time>2026-04-04T15:42:25.82Z</time></trkpt><trkpt lat="43.3553819" lon="11.2489054"><ele>317.0</ele><time>2026-04-04T15:42:27.822Z</time></trkpt><trkpt lat="43.3554692" lon="11.2489996"><ele>317.0</ele><time>2026-04-04T15:42:29.821Z</time></trkpt><trkpt lat="43.3555468" lon="11.2491078"><ele>315.8</ele><time>2026-04-04T15:42:31.821Z</time></trkpt><trkpt lat="43.3556123" lon="11.2492167"><ele>314.6</ele><time>2026-04-04T15:42:33.822Z</time></trkpt><trkpt lat="43.3556787" lon="11.2493212"><ele>313.40000000000003</ele><time>2026-04-04T15:42:35.821Z</time></trkpt><trkpt lat="43.3557396" lon="11.2494078"><ele>312.2</ele><time>2026-04-04T15:42:37.822Z</time></trkpt><trkpt lat="43.3558381" lon="11.2494105"><ele>311.0</ele><time>2026-04-04T15:42:39.822Z</time></trkpt><trkpt lat="43.355901" lon="11.2493716"><ele>311.0</ele><time>2026-04-04T15:42:40.822Z</time></trkpt><trkpt lat="43.3559638" lon="11.2493356"><ele>311.0</ele><time>2026-04-04T15:42:41.822Z</time></trkpt><trkpt lat="43.3560245" lon="11.2493033"><ele>311.0</ele><time>2026-04-04T15:42:42.821Z</time></trkpt><trkpt lat="43.3561211" lon="11.2492035"><ele>311.0</ele><time>2026-04-04T15:42:44.822Z</time></trkpt><trkpt lat="43.3561417" lon="11.2490437"><ele>311.0</ele><time>2026-04-04T15:42:46.821Z</time></trkpt><trkpt lat="43.3561292" lon="11.2489244"><ele>312.0</ele><time>2026-04-04T15:42:47.821Z</time></trkpt><trkpt lat="43.3561146" lon="11.2487931"><ele>313.0</ele><time>2026-04-04T15:42:48.821Z</time></trkpt><trkpt lat="43.3561054" lon="11.248652"><ele>314.0</ele><time>2026-04-04T15:42:49.821Z</time></trkpt><trkpt lat="43.3560911" lon="11.2485282"><ele>315.0</ele><time>2026-04-04T15:42:50.822Z</time></trkpt><trkpt lat="43.3560709" lon="11.2484037"><ele>316.0</ele><time>2026-04-04T15:42:51.821Z</time></trkpt><trkpt lat="43.3560549" lon="11.2482895"><ele>316.0</ele><time>2026-04-04T15:42:52.82Z</time></trkpt><trkpt lat="43.3560363" lon="11.2481774"><ele>316.0</ele><time>2026-04-04T15:42:53.822Z</time></trkpt><trkpt lat="43.3560167" lon="11.248067"><ele>316.0</ele><time>2026-04-04T15:42:54.821Z</time></trkpt><trkpt lat="43.3559979" lon="11.2479541"><ele>316.0</ele><time>2026-04-04T15:42:55.821Z</time></trkpt><trkpt lat="43.3559843" lon="11.247843"><ele>316.0</ele><time>2026-04-04T15:42:56.821Z</time></trkpt><trkpt lat="43.3559736" lon="11.2477352"><ele>316.0</ele><time>2026-04-04T15:42:57.821Z</time></trkpt><trkpt lat="43.3559638" lon="11.2476343"><ele>317.0</ele><time>2026-04-04T15:42:58.821Z</time></trkpt><trkpt lat="43.355957" lon="11.2474925"><ele>318.0</ele><time>2026-04-04T15:43:00.822Z</time></trkpt><trkpt lat="43.3560258" lon="11.2473928"><ele>319.0</ele><time>2026-04-04T15:43:02.822Z</time></trkpt><trkpt lat="43.3560846" lon="11.2473522"><ele>320.0</ele><time>2026-04-04T15:43:03.822Z</time></trkpt><trkpt lat="43.356152" lon="11.2473298"><ele>321.0</ele><time>2026-04-04T15:43:04.821Z</time></trkpt><trkpt lat="43.3562169" lon="11.2473182"><ele>322.0</ele><time>2026-04-04T15:43:05.822Z</time></trkpt><trkpt lat="43.35628" lon="11.2473077"><ele>323.40000000000003</ele><time>2026-04-04T15:43:06.822Z</time></trkpt><trkpt lat="43.3563872" lon="11.2472645"><ele>324.8</ele><time>2026-04-04T15:43:08.821Z</time></trkpt><trkpt lat="43.356452" lon="11.2471428"><ele>326.2</ele><time>2026-04-04T15:43:10.821Z</time></trkpt><trkpt lat="43.3564895" lon="11.2470711"><ele>327.6</ele><time>2026-04-04T15:43:11.821Z</time></trkpt><trkpt lat="43.3565644" lon="11.2469756"><ele>329.0</ele><time>2026-04-04T15:43:13.82Z</time></trkpt><trkpt lat="43.3566282" lon="11.2469367"><ele>329.0</ele><time>2026-04-04T15:43:14.822Z</time></trkpt><trkpt lat="43.3567266" lon="11.2468421"><ele>329.0</ele><time>2026-04-04T15:43:16.821Z</time></trkpt><trkpt lat="43.3567902" lon="11.246792"><ele>329.0</ele><time>2026-04-04T15:43:17.821Z</time></trkpt><trkpt lat="43.3568517" lon="11.2467387"><ele>329.0</ele><time>2026-04-04T15:43:18.821Z</time></trkpt><trkpt lat="43.3569143" lon="11.2466889"><ele>329.0</ele><time>2026-04-04T15:43:19.82Z</time></trkpt><trkpt lat="43.3569802" lon="11.2466467"><ele>329.0</ele><time>2026-04-04T15:43:20.821Z</time></trkpt><trkpt lat="43.3570544" lon="11.2466185"><ele>329.0</ele><time>2026-04-04T15:43:21.821Z</time></trkpt><trkpt lat="43.3571614" lon="11.2465316"><ele>329.0</ele><time>2026-04-04T15:43:23.821Z</time></trkpt><trkpt lat="43.3572188" lon="11.2464712"><ele>329.0</ele><time>2026-04-04T15:43:24.821Z</time></trkpt><trkpt lat="43.3572778" lon="11.2464047"><ele>329.0</ele><time>2026-04-04T15:43:25.821Z</time></trkpt><trkpt lat="43.35735" lon="11.2463655"><ele>329.0</ele><time>2026-04-04T15:43:26.821Z</time></trkpt><trkpt lat="43.357423" lon="11.2463508"><ele>329.0</ele><time>2026-04-04T15:43:27.822Z</time></trkpt><trkpt lat="43.3574997" lon="11.2463471"><ele>330.5</ele><time>2026-04-04T15:43:28.821Z</time></trkpt><trkpt lat="43.3575812" lon="11.2463613"><ele>332.0</ele><time>2026-04-04T15:43:29.821Z</time></trkpt><trkpt lat="43.3576499" lon="11.2463411"><ele>333.5</ele><time>2026-04-04T15:43:30.821Z</time></trkpt><trkpt lat="43.3577697" lon="11.2462907"><ele>335.0</ele><time>2026-04-04T15:43:32.821Z</time></trkpt><trkpt lat="43.3578402" lon="11.2462912"><ele>336.5</ele><time>2026-04-04T15:43:33.822Z</time></trkpt><trkpt lat="43.3579113" lon="11.2462823"><ele>338.0</ele><time>2026-04-04T15:43:34.822Z</time></trkpt><trkpt lat="43.3579773" lon="11.2462682"><ele>337.6666666666667</ele><time>2026-04-04T15:43:35.821Z</time></trkpt><trkpt lat="43.3580618" lon="11.2462464"><ele>337.33333333333337</ele><time>2026-04-04T15:43:36.82Z</time></trkpt><trkpt lat="43.3581444" lon="11.2462411"><ele>337.0</ele><time>2026-04-04T15:43:37.822Z</time></trkpt><trkpt lat="43.3582197" lon="11.2462398"><ele>336.6666666666667</ele><time>2026-04-04T15:43:38.821Z</time></trkpt><trkpt lat="43.3583172" lon="11.2462209"><ele>336.3333333333333</ele><time>2026-04-04T15:43:40.821Z</time></trkpt><trkpt lat="43.3584078" lon="11.2461989"><ele>336.0</ele><time>2026-04-04T15:43:42.821Z</time></trkpt><trkpt lat="43.3584915" lon="11.2461584"><ele>336.0</ele><time>2026-04-04T15:43:44.821Z</time></trkpt><trkpt lat="43.3586099" lon="11.2461243"><ele>336.0</ele><time>2026-04-04T15:43:46.821Z</time></trkpt><trkpt lat="43.3587167" lon="11.2461199"><ele>336.0</ele><time>2026-04-04T15:43:48.82Z</time></trkpt><trkpt lat="43.358782" lon="11.2461434"><ele>336.0</ele><time>2026-04-04T15:43:49.821Z</time></trkpt><trkpt lat="43.3589138" lon="11.2461747"><ele>336.0</ele><time>2026-04-04T15:43:51.821Z</time></trkpt><trkpt lat="43.3589803" lon="11.2461814"><ele>336.20000000000005</ele><time>2026-04-04T15:43:52.822Z</time></trkpt><trkpt lat="43.3591088" lon="11.2462073"><ele>336.40000000000003</ele><time>2026-04-04T15:43:54.822Z</time></trkpt><trkpt lat="43.3592308" lon="11.2462251"><ele>336.6</ele><time>2026-04-04T15:43:56.822Z</time></trkpt><trkpt lat="43.3592918" lon="11.246192"><ele>336.8</ele><time>2026-04-04T15:43:57.82Z</time></trkpt><trkpt lat="43.359408" lon="11.246185"><ele>337.0</ele><time>2026-04-04T15:43:59.82Z</time></trkpt><trkpt lat="43.3594748" lon="11.2461786"><ele>337.0</ele><time>2026-04-04T15:44:00.82Z</time></trkpt><trkpt lat="43.3595602" lon="11.2461559"><ele>337.0</ele><time>2026-04-04T15:44:01.822Z</time></trkpt><trkpt lat="43.3596369" lon="11.2461382"><ele>337.0</ele><time>2026-04-04T15:44:02.821Z</time></trkpt><trkpt lat="43.3597121" lon="11.2461116"><ele>337.0</ele><time>2026-04-04T15:44:03.821Z</time></trkpt><trkpt lat="43.3598233" lon="11.246066"><ele>337.0</ele><time>2026-04-04T15:44:05.821Z</time></trkpt><trkpt lat="43.3599247" lon="11.2460384"><ele>336.8</ele><time>2026-04-04T15:44:07.82Z</time></trkpt><trkpt lat="43.3599774" lon="11.246145"><ele>336.6</ele><time>2026-04-04T15:44:08.822Z</time></trkpt><trkpt lat="43.36003" lon="11.2462174"><ele>336.40000000000003</ele><time>2026-04-04T15:44:09.822Z</time></trkpt><trkpt lat="43.3600887" lon="11.2462794"><ele>336.20000000000005</ele><time>2026-04-04T15:44:10.821Z</time></trkpt><trkpt lat="43.3601584" lon="11.2463323"><ele>336.0</ele><time>2026-04-04T15:44:11.821Z</time></trkpt><trkpt lat="43.3602847" lon="11.2463887"><ele>336.0</ele><time>2026-04-04T15:44:13.821Z</time></trkpt><trkpt lat="43.3604155" lon="11.2464273"><ele>336.0</ele><time>2026-04-04T15:44:15.822Z</time></trkpt><trkpt lat="43.3604431" lon="11.2465299"><ele>336.0</ele><time>2026-04-04T15:44:16.821Z</time></trkpt><trkpt lat="43.3605221" lon="11.2466105"><ele>336.0</ele><time>2026-04-04T15:44:18.82Z</time></trkpt><trkpt lat="43.3605656" lon="11.2467403"><ele>336.0</ele><time>2026-04-04T15:44:20.821Z</time></trkpt><trkpt lat="43.3606508" lon="11.2468349"><ele>335.20000000000005</ele><time>2026-04-04T15:44:22.822Z</time></trkpt><trkpt lat="43.3607378" lon="11.2468593"><ele>334.40000000000003</ele><time>2026-04-04T15:44:23.822Z</time></trkpt><trkpt lat="43.3608144" lon="11.2468833"><ele>333.6</ele><time>2026-04-04T15:44:24.82Z</time></trkpt><trkpt lat="43.3608864" lon="11.2468926"><ele>332.8</ele><time>2026-04-04T15:44:25.822Z</time></trkpt><trkpt lat="43.3609958" lon="11.2468656"><ele>332.0</ele><time>2026-04-04T15:44:27.822Z</time></trkpt><trkpt lat="43.3611114" lon="11.2467805"><ele>332.0</ele><time>2026-04-04T15:44:29.821Z</time></trkpt><trkpt lat="43.3611759" lon="11.2467737"><ele>332.0</ele><time>2026-04-04T15:44:30.821Z</time></trkpt><trkpt lat="43.3612408" lon="11.2467902"><ele>332.0</ele><time>2026-04-04T15:44:31.822Z</time></trkpt><trkpt lat="43.3613344" lon="11.246775"><ele>332.0</ele><time>2026-04-04T15:44:33.821Z</time></trkpt><trkpt lat="43.3614056" lon="11.2468069"><ele>332.0</ele><time>2026-04-04T15:44:37.821Z</time></trkpt><trkpt lat="43.3614718" lon="11.2468331"><ele>332.0</ele><time>2026-04-04T15:44:38.821Z</time></trkpt><trkpt lat="43.3615845" lon="11.2468961"><ele>332.0</ele><time>2026-04-04T15:44:40.82Z</time></trkpt><trkpt lat="43.361683" lon="11.246971"><ele>332.0</ele><time>2026-04-04T15:44:42.822Z</time></trkpt><trkpt lat="43.3617946" lon="11.2470359"><ele>332.0</ele><time>2026-04-04T15:44:44.821Z</time></trkpt><trkpt lat="43.3619118" lon="11.2470461"><ele>332.0</ele><time>2026-04-04T15:44:46.821Z</time></trkpt><trkpt lat="43.3619826" lon="11.2470623"><ele>332.0</ele><time>2026-04-04T15:44:47.821Z</time></trkpt><trkpt lat="43.3620482" lon="11.2470652"><ele>332.0</ele><time>2026-04-04T15:44:48.821Z</time></trkpt><trkpt lat="43.3621167" lon="11.2470686"><ele>332.0</ele><time>2026-04-04T15:44:49.82Z</time></trkpt><trkpt lat="43.3621938" lon="11.2470788"><ele>332.0</ele><time>2026-04-04T15:44:50.822Z</time></trkpt><trkpt lat="43.3622673" lon="11.2470463"><ele>332.0</ele><time>2026-04-04T15:44:51.822Z</time></trkpt><trkpt lat="43.3623643" lon="11.2471367"><ele>332.0</ele><time>2026-04-04T15:44:53.822Z</time></trkpt><trkpt lat="43.3624359" lon="11.2472205"><ele>332.0</ele><time>2026-04-04T15:44:54.822Z</time></trkpt><trkpt lat="43.3625594" lon="11.2472338"><ele>332.1428571428571</ele><time>2026-04-04T15:44:56.82Z</time></trkpt><trkpt lat="43.3626246" lon="11.247213"><ele>332.28571428571433</ele><time>2026-04-04T15:44:57.821Z</time></trkpt><trkpt lat="43.3627068" lon="11.2471919"><ele>332.42857142857144</ele><time>2026-04-04T15:44:58.821Z</time></trkpt><trkpt lat="43.3627818" lon="11.2471873"><ele>332.57142857142856</ele><time>2026-04-04T15:44:59.821Z</time></trkpt><trkpt lat="43.3628447" lon="11.2471755"><ele>332.71428571428567</ele><time>2026-04-04T15:45:00.821Z</time></trkpt><trkpt lat="43.3629319" lon="11.2471288"><ele>332.8571428571429</ele><time>2026-04-04T15:45:02.821Z</time></trkpt><trkpt lat="43.3629465" lon="11.2470417"><ele>333.0</ele><time>2026-04-04T15:45:04.822Z</time></trkpt><trkpt lat="43.3629384" lon="11.2468926"><ele>333.0</ele><time>2026-04-04T15:45:06.821Z</time></trkpt><trkpt lat="43.3629337" lon="11.2467955"><ele>333.0</ele><time>2026-04-04T15:45:07.82Z</time></trkpt><trkpt lat="43.3629386" lon="11.2466559"><ele>333.0</ele><time>2026-04-04T15:45:09.82Z</time></trkpt><trkpt lat="43.3630553" lon="11.2465888"><ele>333.0</ele><time>2026-04-04T15:45:11.821Z</time></trkpt><trkpt lat="43.3631319" lon="11.246555"><ele>333.0</ele><time>2026-04-04T15:45:12.821Z</time></trkpt><trkpt lat="43.363199" lon="11.2465168"><ele>331.6666666666667</ele><time>2026-04-04T15:45:13.821Z</time></trkpt><trkpt lat="43.3632663" lon="11.2464859"><ele>330.3333333333333</ele><time>2026-04-04T15:45:14.821Z</time></trkpt><trkpt lat="43.3633295" lon="11.2464442"><ele>329.0</ele><time>2026-04-04T15:45:15.822Z</time></trkpt><trkpt lat="43.3633964" lon="11.2463964"><ele>327.66666666666663</ele><time>2026-04-04T15:45:16.821Z</time></trkpt><trkpt lat="43.363457" lon="11.2463673"><ele>326.3333333333333</ele><time>2026-04-04T15:45:17.821Z</time></trkpt><trkpt lat="43.3636028" lon="11.2463262"><ele>325.0</ele><time>2026-04-04T15:45:19.821Z</time></trkpt><trkpt lat="43.3636866" lon="11.2463115"><ele>326.0</ele><time>2026-04-04T15:45:20.82Z</time></trkpt><trkpt lat="43.3637636" lon="11.2462825"><ele>327.0</ele><time>2026-04-04T15:45:21.82Z</time></trkpt><trkpt lat="43.3638443" lon="11.2462514"><ele>328.0</ele><time>2026-04-04T15:45:22.821Z</time></trkpt><trkpt lat="43.3639355" lon="11.2462065"><ele>329.0</ele><time>2026-04-04T15:45:23.821Z</time></trkpt><trkpt lat="43.3640186" lon="11.2461627"><ele>330.0</ele><time>2026-04-04T15:45:24.821Z</time></trkpt><trkpt lat="43.3640975" lon="11.2461271"><ele>331.0</ele><time>2026-04-04T15:45:25.822Z</time></trkpt><trkpt lat="43.3641786" lon="11.2460891"><ele>331.0</ele><time>2026-04-04T15:45:26.821Z</time></trkpt><trkpt lat="43.364259" lon="11.2460577"><ele>331.0</ele><time>2026-04-04T15:45:27.821Z</time></trkpt><trkpt lat="43.3643426" lon="11.2460193"><ele>331.0</ele><time>2026-04-04T15:45:28.821Z</time></trkpt><trkpt lat="43.3644363" lon="11.2459742"><ele>331.0</ele><time>2026-04-04T15:45:29.822Z</time></trkpt><trkpt lat="43.3645259" lon="11.2459592"><ele>331.0</ele><time>2026-04-04T15:45:30.822Z</time></trkpt><trkpt lat="43.3646126" lon="11.2459039"><ele>331.0</ele><time>2026-04-04T15:45:31.821Z</time></trkpt><trkpt lat="43.3646934" lon="11.2458424"><ele>331.0</ele><time>2026-04-04T15:45:32.821Z</time></trkpt><trkpt lat="43.3647678" lon="11.2457724"><ele>331.0</ele><time>2026-04-04T15:45:33.821Z</time></trkpt><trkpt lat="43.3648531" lon="11.2457122"><ele>331.0</ele><time>2026-04-04T15:45:34.82Z</time></trkpt><trkpt lat="43.3649366" lon="11.2456212"><ele>331.0</ele><time>2026-04-04T15:45:35.821Z</time></trkpt><trkpt lat="43.3650152" lon="11.2455325"><ele>331.5</ele><time>2026-04-04T15:45:36.822Z</time></trkpt><trkpt lat="43.3650827" lon="11.2454629"><ele>332.0</ele><time>2026-04-04T15:45:37.821Z</time></trkpt><trkpt lat="43.3651541" lon="11.2453895"><ele>332.5</ele><time>2026-04-04T15:45:38.82Z</time></trkpt><trkpt lat="43.365212" lon="11.24533"><ele>333.0</ele><time>2026-04-04T15:45:39.821Z</time></trkpt><trkpt lat="43.3652825" lon="11.2452718"><ele>333.5</ele><time>2026-04-04T15:45:40.821Z</time></trkpt><trkpt lat="43.3653814" lon="11.2452198"><ele>334.0</ele><time>2026-04-04T15:45:41.821Z</time></trkpt><trkpt lat="43.3654577" lon="11.24518"><ele>334.0</ele><time>2026-04-04T15:45:42.821Z</time></trkpt><trkpt lat="43.3655246" lon="11.2451597"><ele>334.0</ele><time>2026-04-04T15:45:43.82Z</time></trkpt><trkpt lat="43.3656124" lon="11.245178"><ele>334.0</ele><time>2026-04-04T15:45:44.821Z</time></trkpt><trkpt lat="43.3656916" lon="11.2452008"><ele>334.0</ele><time>2026-04-04T15:45:45.822Z</time></trkpt><trkpt lat="43.3657599" lon="11.2452145"><ele>334.0</ele><time>2026-04-04T15:45:46.822Z</time></trkpt><trkpt lat="43.3658258" lon="11.2452022"><ele>334.0</ele><time>2026-04-04T15:45:47.821Z</time></trkpt><trkpt lat="43.3658977" lon="11.2451724"><ele>334.0</ele><time>2026-04-04T15:45:48.822Z</time></trkpt><trkpt lat="43.3659563" lon="11.2451359"><ele>333.2</ele><time>2026-04-04T15:45:49.821Z</time></trkpt><trkpt lat="43.3660349" lon="11.2451117"><ele>332.4</ele><time>2026-04-04T15:45:50.821Z</time></trkpt><trkpt lat="43.3661348" lon="11.2450919"><ele>331.6</ele><time>2026-04-04T15:45:51.822Z</time></trkpt><trkpt lat="43.3662194" lon="11.2450755"><ele>330.8</ele><time>2026-04-04T15:45:52.82Z</time></trkpt><trkpt lat="43.3663137" lon="11.2450832"><ele>330.0</ele><time>2026-04-04T15:45:53.822Z</time></trkpt><trkpt lat="43.3664048" lon="11.2450809"><ele>330.0</ele><time>2026-04-04T15:45:54.821Z</time></trkpt><trkpt lat="43.3664876" lon="11.2450703"><ele>330.0</ele><time>2026-04-04T15:45:55.822Z</time></trkpt><trkpt lat="43.3665761" lon="11.2450473"><ele>330.0</ele><time>2026-04-04T15:45:56.822Z</time></trkpt><trkpt lat="43.3666919" lon="11.2449563"><ele>330.0</ele><time>2026-04-04T15:45:57.822Z</time></trkpt><trkpt lat="43.3667901" lon="11.2448953"><ele>330.0</ele><time>2026-04-04T15:45:58.82Z</time></trkpt><trkpt lat="43.3668912" lon="11.2448363"><ele>331.4</ele><time>2026-04-04T15:45:59.82Z</time></trkpt><trkpt lat="43.3669947" lon="11.2447733"><ele>332.8</ele><time>2026-04-04T15:46:00.82Z</time></trkpt><trkpt lat="43.3670729" lon="11.2447043"><ele>334.20000000000005</ele><time>2026-04-04T15:46:01.821Z</time></trkpt><trkpt lat="43.3671539" lon="11.2446393"><ele>335.6</ele><time>2026-04-04T15:46:02.821Z</time></trkpt><trkpt lat="43.3672424" lon="11.244556"><ele>337.0</ele><time>2026-04-04T15:46:03.821Z</time></trkpt><trkpt lat="43.3673144" lon="11.2444869"><ele>337.0</ele><time>2026-04-04T15:46:04.822Z</time></trkpt><trkpt lat="43.3673799" lon="11.2444386"><ele>337.0</ele><time>2026-04-04T15:46:05.821Z</time></trkpt><trkpt lat="43.367454" lon="11.2443965"><ele>337.0</ele><time>2026-04-04T15:46:06.821Z</time></trkpt><trkpt lat="43.3675183" lon="11.2443582"><ele>337.0</ele><time>2026-04-04T15:46:07.822Z</time></trkpt><trkpt lat="43.3676159" lon="11.2442756"><ele>337.0</ele><time>2026-04-04T15:46:09.82Z</time></trkpt><trkpt lat="43.367678" lon="11.2441979"><ele>337.0</ele><time>2026-04-04T15:46:10.822Z</time></trkpt><trkpt lat="43.3677379" lon="11.2441182"><ele>337.0</ele><time>2026-04-04T15:46:11.82Z</time></trkpt><trkpt lat="43.3677934" lon="11.2440296"><ele>337.0</ele><time>2026-04-04T15:46:12.822Z</time></trkpt><trkpt lat="43.3678558" lon="11.2439261"><ele>337.0</ele><time>2026-04-04T15:46:13.822Z</time></trkpt><trkpt lat="43.3679101" lon="11.2438294"><ele>337.0</ele><time>2026-04-04T15:46:14.822Z</time></trkpt><trkpt lat="43.3679502" lon="11.2437409"><ele>337.0</ele><time>2026-04-04T15:46:15.821Z</time></trkpt><trkpt lat="43.3679776" lon="11.2436455"><ele>337.0</ele><time>2026-04-04T15:46:16.821Z</time></trkpt><trkpt lat="43.3679852" lon="11.2435552"><ele>337.0</ele><time>2026-04-04T15:46:17.82Z</time></trkpt><trkpt lat="43.3679792" lon="11.2434484"><ele>337.0</ele><time>2026-04-04T15:46:18.821Z</time></trkpt><trkpt lat="43.3679729" lon="11.2433303"><ele>337.0</ele><time>2026-04-04T15:46:19.821Z</time></trkpt><trkpt lat="43.3679701" lon="11.2432272"><ele>337.0</ele><time>2026-04-04T15:46:20.821Z</time></trkpt><trkpt lat="43.3679612" lon="11.2431293"><ele>337.0</ele><time>2026-04-04T15:46:21.821Z</time></trkpt><trkpt lat="43.3680017" lon="11.2429925"><ele>337.0</ele><time>2026-04-04T15:46:23.82Z</time></trkpt><trkpt lat="43.3680475" lon="11.2429181"><ele>337.0</ele><time>2026-04-04T15:46:24.821Z</time></trkpt><trkpt lat="43.3681075" lon="11.2428133"><ele>337.0</ele><time>2026-04-04T15:46:25.821Z</time></trkpt><trkpt lat="43.3681602" lon="11.2427137"><ele>337.0</ele><time>2026-04-04T15:46:26.822Z</time></trkpt><trkpt lat="43.3682179" lon="11.2426185"><ele>337.0</ele><time>2026-04-04T15:46:27.822Z</time></trkpt><trkpt lat="43.3682666" lon="11.2425284"><ele>337.0</ele><time>2026-04-04T15:46:28.822Z</time></trkpt><trkpt lat="43.3683269" lon="11.2424474"><ele>337.0</ele><time>2026-04-04T15:46:29.821Z</time></trkpt><trkpt lat="43.3683987" lon="11.2423783"><ele>337.0</ele><time>2026-04-04T15:46:30.821Z</time></trkpt><trkpt lat="43.3684719" lon="11.2423062"><ele>337.0</ele><time>2026-04-04T15:46:31.821Z</time></trkpt><trkpt lat="43.3685716" lon="11.2422619"><ele>337.0</ele><time>2026-04-04T15:46:32.822Z</time></trkpt><trkpt lat="43.3686503" lon="11.2421838"><ele>337.0</ele><time>2026-04-04T15:46:33.82Z</time></trkpt><trkpt lat="43.3687277" lon="11.242113"><ele>337.0</ele><time>2026-04-04T15:46:34.82Z</time></trkpt><trkpt lat="43.3687872" lon="11.2420403"><ele>336.8</ele><time>2026-04-04T15:46:35.821Z</time></trkpt><trkpt lat="43.3688509" lon="11.2419364"><ele>336.6</ele><time>2026-04-04T15:46:36.82Z</time></trkpt><trkpt lat="43.3689383" lon="11.2419359"><ele>336.40000000000003</ele><time>2026-04-04T15:46:37.82Z</time></trkpt><trkpt lat="43.3690161" lon="11.24186"><ele>336.20000000000005</ele><time>2026-04-04T15:46:38.821Z</time></trkpt><trkpt lat="43.3690979" lon="11.2417834"><ele>336.0</ele><time>2026-04-04T15:46:39.822Z</time></trkpt><trkpt lat="43.3691756" lon="11.2417033"><ele>336.0</ele><time>2026-04-04T15:46:40.821Z</time></trkpt><trkpt lat="43.3692481" lon="11.2416447"><ele>336.0</ele><time>2026-04-04T15:46:41.82Z</time></trkpt><trkpt lat="43.3693099" lon="11.241616"><ele>336.0</ele><time>2026-04-04T15:46:42.822Z</time></trkpt><trkpt lat="43.3693917" lon="11.2415892"><ele>336.0</ele><time>2026-04-04T15:46:43.821Z</time></trkpt><trkpt lat="43.3694741" lon="11.2415766"><ele>336.0</ele><time>2026-04-04T15:46:44.821Z</time></trkpt><trkpt lat="43.3695479" lon="11.2415553"><ele>336.0</ele><time>2026-04-04T15:46:45.822Z</time></trkpt><trkpt lat="43.3696108" lon="11.2415301"><ele>336.0</ele><time>2026-04-04T15:46:46.821Z</time></trkpt><trkpt lat="43.3696675" lon="11.2414759"><ele>336.0</ele><time>2026-04-04T15:46:48.822Z</time></trkpt><trkpt lat="43.3697508" lon="11.241529"><ele>336.0</ele><time>2026-04-04T15:46:51.822Z</time></trkpt><trkpt lat="43.3698247" lon="11.2416649"><ele>336.0</ele><time>2026-04-04T15:46:53.822Z</time></trkpt><trkpt lat="43.3698866" lon="11.2418174"><ele>336.0</ele><time>2026-04-04T15:46:55.821Z</time></trkpt><trkpt lat="43.3699388" lon="11.2419022"><ele>335.1666666666667</ele><time>2026-04-04T15:46:56.82Z</time></trkpt><trkpt lat="43.369984" lon="11.2419918"><ele>334.3333333333333</ele><time>2026-04-04T15:46:57.821Z</time></trkpt><trkpt lat="43.3700159" lon="11.2421001"><ele>333.5</ele><time>2026-04-04T15:46:59.822Z</time></trkpt><trkpt lat="43.3700602" lon="11.2421621"><ele>332.66666666666663</ele><time>2026-04-04T15:47:01.822Z</time></trkpt><trkpt lat="43.370141" lon="11.2421176"><ele>331.8333333333333</ele><time>2026-04-04T15:47:03.821Z</time></trkpt><trkpt lat="43.3702239" lon="11.2420068"><ele>331.0</ele><time>2026-04-04T15:47:05.821Z</time></trkpt><trkpt lat="43.370283" lon="11.241949"><ele>331.0</ele><time>2026-04-04T15:47:06.82Z</time></trkpt><trkpt lat="43.3703721" lon="11.2418074"><ele>331.0</ele><time>2026-04-04T15:47:07.821Z</time></trkpt><trkpt lat="43.3704435" lon="11.241665"><ele>331.0</ele><time>2026-04-04T15:47:08.822Z</time></trkpt><trkpt lat="43.3705246" lon="11.2415219"><ele>331.0</ele><time>2026-04-04T15:47:09.822Z</time></trkpt><trkpt lat="43.370593" lon="11.2414007"><ele>330.0</ele><time>2026-04-04T15:47:10.82Z</time></trkpt><trkpt lat="43.3706562" lon="11.2412654"><ele>329.0</ele><time>2026-04-04T15:47:11.821Z</time></trkpt><trkpt lat="43.370709" lon="11.2411402"><ele>328.0</ele><time>2026-04-04T15:47:12.822Z</time></trkpt><trkpt lat="43.3707586" lon="11.2410003"><ele>327.0</ele><time>2026-04-04T15:47:13.822Z</time></trkpt><trkpt lat="43.3708092" lon="11.2408909"><ele>326.0</ele><time>2026-04-04T15:47:14.821Z</time></trkpt><trkpt lat="43.3708612" lon="11.2407691"><ele>326.0</ele><time>2026-04-04T15:47:15.822Z</time></trkpt><trkpt lat="43.3708886" lon="11.2406548"><ele>326.0</ele><time>2026-04-04T15:47:16.822Z</time></trkpt><trkpt lat="43.3709349" lon="11.2405067"><ele>326.0</ele><time>2026-04-04T15:47:17.821Z</time></trkpt><trkpt lat="43.370955" lon="11.2403672"><ele>326.0</ele><time>2026-04-04T15:47:18.821Z</time></trkpt><trkpt lat="43.3709889" lon="11.2402287"><ele>326.0</ele><time>2026-04-04T15:47:19.82Z</time></trkpt><trkpt lat="43.3710036" lon="11.2401"><ele>327.0</ele><time>2026-04-04T15:47:20.822Z</time></trkpt><trkpt lat="43.3710276" lon="11.2399599"><ele>328.0</ele><time>2026-04-04T15:47:21.822Z</time></trkpt><trkpt lat="43.371051" lon="11.2398254"><ele>329.0</ele><time>2026-04-04T15:47:22.821Z</time></trkpt><trkpt lat="43.3710746" lon="11.2396925"><ele>330.0</ele><time>2026-04-04T15:47:23.821Z</time></trkpt><trkpt lat="43.3711113" lon="11.2395735"><ele>331.0</ele><time>2026-04-04T15:47:24.82Z</time></trkpt><trkpt lat="43.371144" lon="11.2394803"><ele>331.5</ele><time>2026-04-04T15:47:25.821Z</time></trkpt><trkpt lat="43.3711759" lon="11.2393851"><ele>332.0</ele><time>2026-04-04T15:47:26.821Z</time></trkpt><trkpt lat="43.3712432" lon="11.2393174"><ele>332.5</ele><time>2026-04-04T15:47:27.821Z</time></trkpt><trkpt lat="43.371289" lon="11.2392201"><ele>333.0</ele><time>2026-04-04T15:47:28.821Z</time></trkpt><trkpt lat="43.3713354" lon="11.2391196"><ele>333.5</ele><time>2026-04-04T15:47:29.821Z</time></trkpt><trkpt lat="43.3713941" lon="11.2390165"><ele>334.0</ele><time>2026-04-04T15:47:30.821Z</time></trkpt><trkpt lat="43.3714381" lon="11.2389112"><ele>332.3333333333333</ele><time>2026-04-04T15:47:31.821Z</time></trkpt><trkpt lat="43.3714955" lon="11.2388115"><ele>330.66666666666663</ele><time>2026-04-04T15:47:32.821Z</time></trkpt><trkpt lat="43.371548" lon="11.238713"><ele>329.0</ele><time>2026-04-04T15:47:33.822Z</time></trkpt><trkpt lat="43.371592" lon="11.238632"><ele>327.3333333333333</ele><time>2026-04-04T15:47:34.822Z</time></trkpt><trkpt lat="43.371635" lon="11.2385388"><ele>325.6666666666667</ele><time>2026-04-04T15:47:35.82Z</time></trkpt><trkpt lat="43.3716805" lon="11.2384508"><ele>324.0</ele><time>2026-04-04T15:47:36.822Z</time></trkpt><trkpt lat="43.3717274" lon="11.2383447"><ele>324.0</ele><time>2026-04-04T15:47:37.821Z</time></trkpt><trkpt lat="43.3717698" lon="11.2382429"><ele>324.0</ele><time>2026-04-04T15:47:38.822Z</time></trkpt><trkpt lat="43.3718067" lon="11.2381469"><ele>324.0</ele><time>2026-04-04T15:47:39.821Z</time></trkpt><trkpt lat="43.3718474" lon="11.238076"><ele>324.0</ele><time>2026-04-04T15:47:40.821Z</time></trkpt><trkpt lat="43.3718821" lon="11.237995"><ele>324.0</ele><time>2026-04-04T15:47:41.821Z</time></trkpt><trkpt lat="43.3719205" lon="11.2379075"><ele>324.0</ele><time>2026-04-04T15:47:42.82Z</time></trkpt><trkpt lat="43.3719579" lon="11.2378292"><ele>324.0</ele><time>2026-04-04T15:47:43.821Z</time></trkpt><trkpt lat="43.3720163" lon="11.2376871"><ele>324.6666666666667</ele><time>2026-04-04T15:47:45.82Z</time></trkpt><trkpt lat="43.3720473" lon="11.2376073"><ele>325.3333333333333</ele><time>2026-04-04T15:47:46.821Z</time></trkpt><trkpt lat="43.3720699" lon="11.2375054"><ele>326.0</ele><time>2026-04-04T15:47:47.822Z</time></trkpt><trkpt lat="43.3721054" lon="11.2374267"><ele>326.66666666666663</ele><time>2026-04-04T15:47:48.82Z</time></trkpt><trkpt lat="43.3721318" lon="11.2373396"><ele>327.3333333333333</ele><time>2026-04-04T15:47:49.82Z</time></trkpt><trkpt lat="43.3721794" lon="11.2372586"><ele>328.0</ele><time>2026-04-04T15:47:50.82Z</time></trkpt><trkpt lat="43.3722539" lon="11.2371313"><ele>324.4</ele><time>2026-04-04T15:47:52.822Z</time></trkpt><trkpt lat="43.3723038" lon="11.2369877"><ele>320.79999999999995</ele><time>2026-04-04T15:47:54.821Z</time></trkpt><trkpt lat="43.372358" lon="11.2368904"><ele>317.2</ele><time>2026-04-04T15:47:55.822Z</time></trkpt><trkpt lat="43.3724144" lon="11.2367754"><ele>313.6</ele><time>2026-04-04T15:47:56.82Z</time></trkpt><trkpt lat="43.3724593" lon="11.2366735"><ele>310.0</ele><time>2026-04-04T15:47:57.822Z</time></trkpt><trkpt lat="43.3725094" lon="11.2365719"><ele>310.0</ele><time>2026-04-04T15:47:58.82Z</time></trkpt><trkpt lat="43.3725942" lon="11.2364786"><ele>310.0</ele><time>2026-04-04T15:47:59.821Z</time></trkpt><trkpt lat="43.3726721" lon="11.2363971"><ele>310.0</ele><time>2026-04-04T15:48:00.82Z</time></trkpt><trkpt lat="43.3727478" lon="11.2363206"><ele>310.0</ele><time>2026-04-04T15:48:01.82Z</time></trkpt><trkpt lat="43.3728029" lon="11.2362732"><ele>310.0</ele><time>2026-04-04T15:48:02.821Z</time></trkpt><trkpt lat="43.3728638" lon="11.2361979"><ele>310.0</ele><time>2026-04-04T15:48:03.822Z</time></trkpt><trkpt lat="43.3729197" lon="11.2361407"><ele>309.8</ele><time>2026-04-04T15:48:04.821Z</time></trkpt><trkpt lat="43.3729754" lon="11.236093"><ele>309.6</ele><time>2026-04-04T15:48:05.822Z</time></trkpt><trkpt lat="43.3730513" lon="11.2360145"><ele>309.4</ele><time>2026-04-04T15:48:06.82Z</time></trkpt><trkpt lat="43.3731225" lon="11.2359726"><ele>309.2</ele><time>2026-04-04T15:48:07.82Z</time></trkpt><trkpt lat="43.373207" lon="11.235826"><ele>309.0</ele><time>2026-04-04T15:48:09.821Z</time></trkpt><trkpt lat="43.3733102" lon="11.2357475"><ele>307.14285714285717</ele><time>2026-04-04T15:48:11.821Z</time></trkpt><trkpt lat="43.3733729" lon="11.2356839"><ele>305.2857142857143</ele><time>2026-04-04T15:48:12.82Z</time></trkpt><trkpt lat="43.3734333" lon="11.2356386"><ele>303.42857142857144</ele><time>2026-04-04T15:48:13.822Z</time></trkpt><trkpt lat="43.373491" lon="11.2355926"><ele>301.57142857142856</ele><time>2026-04-04T15:48:14.822Z</time></trkpt><trkpt lat="43.3735486" lon="11.235546"><ele>299.7142857142857</ele><time>2026-04-04T15:48:15.821Z</time></trkpt><trkpt lat="43.3736053" lon="11.2354938"><ele>297.8571428571429</ele><time>2026-04-04T15:48:16.822Z</time></trkpt><trkpt lat="43.373661" lon="11.2354449"><ele>296.0</ele><time>2026-04-04T15:48:17.822Z</time></trkpt><trkpt lat="43.3737192" lon="11.2353983"><ele>295.7142857142857</ele><time>2026-04-04T15:48:18.821Z</time></trkpt><trkpt lat="43.3737744" lon="11.2353427"><ele>295.42857142857144</ele><time>2026-04-04T15:48:19.821Z</time></trkpt><trkpt lat="43.3738344" lon="11.2352804"><ele>295.1428571428571</ele><time>2026-04-04T15:48:20.822Z</time></trkpt><trkpt lat="43.3738938" lon="11.2352213"><ele>294.8571428571429</ele><time>2026-04-04T15:48:21.822Z</time></trkpt><trkpt lat="43.3739565" lon="11.2351777"><ele>294.57142857142856</ele><time>2026-04-04T15:48:22.821Z</time></trkpt><trkpt lat="43.3740179" lon="11.2351318"><ele>294.2857142857143</ele><time>2026-04-04T15:48:23.822Z</time></trkpt><trkpt lat="43.3740858" lon="11.235084"><ele>294.0</ele><time>2026-04-04T15:48:24.822Z</time></trkpt><trkpt lat="43.3741542" lon="11.2350319"><ele>292.8333333333333</ele><time>2026-04-04T15:48:25.822Z</time></trkpt><trkpt lat="43.3742217" lon="11.2349824"><ele>291.6666666666667</ele><time>2026-04-04T15:48:26.821Z</time></trkpt><trkpt lat="43.3742973" lon="11.2349288"><ele>290.5</ele><time>2026-04-04T15:48:27.82Z</time></trkpt><trkpt lat="43.3743757" lon="11.234869"><ele>289.33333333333337</ele><time>2026-04-04T15:48:28.82Z</time></trkpt><trkpt lat="43.3744489" lon="11.2348092"><ele>288.1666666666667</ele><time>2026-04-04T15:48:29.821Z</time></trkpt><trkpt lat="43.3745341" lon="11.234747"><ele>287.0</ele><time>2026-04-04T15:48:30.821Z</time></trkpt><trkpt lat="43.3746113" lon="11.2346476"><ele>286.8</ele><time>2026-04-04T15:48:31.822Z</time></trkpt><trkpt lat="43.3746866" lon="11.2345505"><ele>286.6</ele><time>2026-04-04T15:48:32.822Z</time></trkpt><trkpt lat="43.3747598" lon="11.234458"><ele>286.40000000000003</ele><time>2026-04-04T15:48:33.821Z</time></trkpt><trkpt lat="43.3748376" lon="11.2343586"><ele>286.2</ele><time>2026-04-04T15:48:34.822Z</time></trkpt><trkpt lat="43.3749105" lon="11.2342508"><ele>286.0</ele><time>2026-04-04T15:48:35.822Z</time></trkpt><trkpt lat="43.374985" lon="11.2341599"><ele>285.5</ele><time>2026-04-04T15:48:36.82Z</time></trkpt><trkpt lat="43.3750522" lon="11.2340693"><ele>285.0</ele><time>2026-04-04T15:48:37.82Z</time></trkpt><trkpt lat="43.3751207" lon="11.233979"><ele>284.5</ele><time>2026-04-04T15:48:38.822Z</time></trkpt><trkpt lat="43.3751827" lon="11.2339054"><ele>284.0</ele><time>2026-04-04T15:48:39.822Z</time></trkpt><trkpt lat="43.375237" lon="11.2338321"><ele>283.5</ele><time>2026-04-04T15:48:40.82Z</time></trkpt><trkpt lat="43.3752863" lon="11.2337745"><ele>283.0</ele><time>2026-04-04T15:48:41.821Z</time></trkpt><trkpt lat="43.3753761" lon="11.2337391"><ele>282.2</ele><time>2026-04-04T15:48:43.821Z</time></trkpt><trkpt lat="43.3754986" lon="11.2338074"><ele>281.4</ele><time>2026-04-04T15:48:45.822Z</time></trkpt><trkpt lat="43.3755718" lon="11.2338461"><ele>280.59999999999997</ele><time>2026-04-04T15:48:46.822Z</time></trkpt><trkpt lat="43.3756399" lon="11.2338618"><ele>279.8</ele><time>2026-04-04T15:48:47.821Z</time></trkpt><trkpt lat="43.3757117" lon="11.2338891"><ele>279.0</ele><time>2026-04-04T15:48:48.821Z</time></trkpt><trkpt lat="43.3758408" lon="11.2338645"><ele>278.2</ele><time>2026-04-04T15:48:50.822Z</time></trkpt><trkpt lat="43.3758941" lon="11.2338103"><ele>277.4</ele><time>2026-04-04T15:48:51.821Z</time></trkpt><trkpt lat="43.3760072" lon="11.2337675"><ele>276.6</ele><time>2026-04-04T15:48:53.821Z</time></trkpt><trkpt lat="43.3761006" lon="11.2337388"><ele>275.8</ele><time>2026-04-04T15:48:54.822Z</time></trkpt><trkpt lat="43.3761968" lon="11.2335932"><ele>275.0</ele><time>2026-04-04T15:48:55.822Z</time></trkpt><trkpt lat="43.3762447" lon="11.2335225"><ele>275.0</ele><time>2026-04-04T15:48:56.821Z</time></trkpt><trkpt lat="43.3763063" lon="11.2334443"><ele>275.0</ele><time>2026-04-04T15:48:57.822Z</time></trkpt><trkpt lat="43.3763697" lon="11.2333717"><ele>275.0</ele><time>2026-04-04T15:48:58.822Z</time></trkpt><trkpt lat="43.3764334" lon="11.233307"><ele>275.0</ele><time>2026-04-04T15:48:59.821Z</time></trkpt><trkpt lat="43.3764939" lon="11.2332478"><ele>275.0</ele><time>2026-04-04T15:49:00.82Z</time></trkpt><trkpt lat="43.3765551" lon="11.2331893"><ele>275.0</ele><time>2026-04-04T15:49:01.822Z</time></trkpt><trkpt lat="43.3766085" lon="11.2331225"><ele>273.83333333333337</ele><time>2026-04-04T15:49:02.821Z</time></trkpt><trkpt lat="43.3766562" lon="11.2330616"><ele>272.6666666666667</ele><time>2026-04-04T15:49:03.822Z</time></trkpt><trkpt lat="43.3767" lon="11.2329991"><ele>271.5</ele><time>2026-04-04T15:49:04.82Z</time></trkpt><trkpt lat="43.3767878" lon="11.2328869"><ele>270.3333333333333</ele><time>2026-04-04T15:49:06.82Z</time></trkpt><trkpt lat="43.3768615" lon="11.2328371"><ele>269.16666666666663</ele><time>2026-04-04T15:49:07.821Z</time></trkpt><trkpt lat="43.3769176" lon="11.232781"><ele>268.0</ele><time>2026-04-04T15:49:08.821Z</time></trkpt><trkpt lat="43.3769741" lon="11.2326723"><ele>268.0</ele><time>2026-04-04T15:49:10.821Z</time></trkpt><trkpt lat="43.3769589" lon="11.232547"><ele>268.0</ele><time>2026-04-04T15:49:12.821Z</time></trkpt><trkpt lat="43.37694" lon="11.2324167"><ele>268.0</ele><time>2026-04-04T15:49:14.821Z</time></trkpt><trkpt lat="43.3770154" lon="11.2323519"><ele>268.0</ele><time>2026-04-04T15:49:15.821Z</time></trkpt><trkpt lat="43.3770847" lon="11.2323142"><ele>268.0</ele><time>2026-04-04T15:49:16.821Z</time></trkpt><trkpt lat="43.3771906" lon="11.2322239"><ele>266.66666666666663</ele><time>2026-04-04T15:49:17.82Z</time></trkpt><trkpt lat="43.3772662" lon="11.2321208"><ele>265.3333333333333</ele><time>2026-04-04T15:49:18.822Z</time></trkpt><trkpt lat="43.3773319" lon="11.2320554"><ele>264.0</ele><time>2026-04-04T15:49:19.822Z</time></trkpt><trkpt lat="43.3774015" lon="11.2319899"><ele>262.6666666666667</ele><time>2026-04-04T15:49:20.821Z</time></trkpt><trkpt lat="43.3774782" lon="11.231946"><ele>261.33333333333337</ele><time>2026-04-04T15:49:21.821Z</time></trkpt><trkpt lat="43.3775427" lon="11.2318711"><ele>260.0</ele><time>2026-04-04T15:49:22.821Z</time></trkpt><trkpt lat="43.3775631" lon="11.2317313"><ele>260.0</ele><time>2026-04-04T15:49:24.821Z</time></trkpt><trkpt lat="43.3776199" lon="11.2316438"><ele>260.0</ele><time>2026-04-04T15:49:25.822Z</time></trkpt><trkpt lat="43.3776585" lon="11.2315547"><ele>260.0</ele><time>2026-04-04T15:49:26.821Z</time></trkpt><trkpt lat="43.3777117" lon="11.2314738"><ele>260.0</ele><time>2026-04-04T15:49:27.822Z</time></trkpt><trkpt lat="43.3778182" lon="11.2313957"><ele>260.0</ele><time>2026-04-04T15:49:29.82Z</time></trkpt><trkpt lat="43.3778972" lon="11.2313484"><ele>260.0</ele><time>2026-04-04T15:49:30.822Z</time></trkpt><trkpt lat="43.377976" lon="11.2313066"><ele>260.33333333333337</ele><time>2026-04-04T15:49:31.822Z</time></trkpt><trkpt lat="43.3780362" lon="11.2312554"><ele>260.6666666666667</ele><time>2026-04-04T15:49:32.821Z</time></trkpt><trkpt lat="43.3781008" lon="11.2311836"><ele>261.0</ele><time>2026-04-04T15:49:33.822Z</time></trkpt><trkpt lat="43.3781596" lon="11.2311092"><ele>261.3333333333333</ele><time>2026-04-04T15:49:34.821Z</time></trkpt><trkpt lat="43.3782162" lon="11.2310204"><ele>261.66666666666663</ele><time>2026-04-04T15:49:35.822Z</time></trkpt><trkpt lat="43.3782832" lon="11.2309449"><ele>262.0</ele><time>2026-04-04T15:49:36.822Z</time></trkpt><trkpt lat="43.37835" lon="11.2308788"><ele>262.0</ele><time>2026-04-04T15:49:37.821Z</time></trkpt><trkpt lat="43.3784035" lon="11.2308165"><ele>262.0</ele><time>2026-04-04T15:49:38.822Z</time></trkpt><trkpt lat="43.3784712" lon="11.230761"><ele>262.0</ele><time>2026-04-04T15:49:39.82Z</time></trkpt><trkpt lat="43.3785427" lon="11.2306774"><ele>262.0</ele><time>2026-04-04T15:49:40.822Z</time></trkpt><trkpt lat="43.3786215" lon="11.2305616"><ele>262.0</ele><time>2026-04-04T15:49:41.821Z</time></trkpt><trkpt lat="43.3786882" lon="11.2304535"><ele>262.2</ele><time>2026-04-04T15:49:42.82Z</time></trkpt><trkpt lat="43.3787519" lon="11.2303485"><ele>262.4</ele><time>2026-04-04T15:49:43.822Z</time></trkpt><trkpt lat="43.3788178" lon="11.2302343"><ele>262.6</ele><time>2026-04-04T15:49:44.821Z</time></trkpt><trkpt lat="43.378878" lon="11.2301243"><ele>262.8</ele><time>2026-04-04T15:49:45.821Z</time></trkpt><trkpt lat="43.3789242" lon="11.2300048"><ele>263.0</ele><time>2026-04-04T15:49:46.822Z</time></trkpt><trkpt lat="43.3789748" lon="11.2298886"><ele>264.8</ele><time>2026-04-04T15:49:47.821Z</time></trkpt><trkpt lat="43.3790198" lon="11.2298013"><ele>266.6</ele><time>2026-04-04T15:49:48.82Z</time></trkpt><trkpt lat="43.3790959" lon="11.2296161"><ele>268.4</ele><time>2026-04-04T15:49:50.82Z</time></trkpt><trkpt lat="43.3791376" lon="11.2295094"><ele>270.2</ele><time>2026-04-04T15:49:51.821Z</time></trkpt><trkpt lat="43.3791785" lon="11.229383"><ele>272.0</ele><time>2026-04-04T15:49:52.821Z</time></trkpt><trkpt lat="43.3792152" lon="11.2292424"><ele>272.0</ele><time>2026-04-04T15:49:53.822Z</time></trkpt><trkpt lat="43.3792582" lon="11.2291229"><ele>272.0</ele><time>2026-04-04T15:49:54.822Z</time></trkpt><trkpt lat="43.3792942" lon="11.2290022"><ele>272.0</ele><time>2026-04-04T15:49:55.82Z</time></trkpt><trkpt lat="43.3793419" lon="11.2288829"><ele>272.0</ele><time>2026-04-04T15:49:56.821Z</time></trkpt><trkpt lat="43.3793921" lon="11.2288066"><ele>272.0</ele><time>2026-04-04T15:49:57.82Z</time></trkpt><trkpt lat="43.3794137" lon="11.2287057"><ele>272.0</ele><time>2026-04-04T15:49:58.82Z</time></trkpt><trkpt lat="43.3794302" lon="11.2285981"><ele>272.71428571428567</ele><time>2026-04-04T15:49:59.82Z</time></trkpt><trkpt lat="43.3794451" lon="11.2285085"><ele>273.42857142857144</ele><time>2026-04-04T15:50:00.822Z</time></trkpt><trkpt lat="43.3794538" lon="11.2284076"><ele>274.1428571428571</ele><time>2026-04-04T15:50:01.82Z</time></trkpt><trkpt lat="43.3794737" lon="11.2283"><ele>274.85714285714283</ele><time>2026-04-04T15:50:02.821Z</time></trkpt><trkpt lat="43.3795085" lon="11.2282024"><ele>275.57142857142856</ele><time>2026-04-04T15:50:03.821Z</time></trkpt><trkpt lat="43.3795391" lon="11.2281123"><ele>276.2857142857143</ele><time>2026-04-04T15:50:04.821Z</time></trkpt><trkpt lat="43.3795815" lon="11.2280311"><ele>277.0</ele><time>2026-04-04T15:50:05.82Z</time></trkpt><trkpt lat="43.3796747" lon="11.228008"><ele>276.8</ele><time>2026-04-04T15:50:06.822Z</time></trkpt><trkpt lat="43.3797593" lon="11.2279106"><ele>276.6</ele><time>2026-04-04T15:50:08.821Z</time></trkpt><trkpt lat="43.3798173" lon="11.227833"><ele>276.40000000000003</ele><time>2026-04-04T15:50:09.821Z</time></trkpt><trkpt lat="43.3798396" lon="11.2276956"><ele>276.2</ele><time>2026-04-04T15:50:10.821Z</time></trkpt><trkpt lat="43.3798905" lon="11.2276103"><ele>276.0</ele><time>2026-04-04T15:50:11.822Z</time></trkpt><trkpt lat="43.379945" lon="11.2275322"><ele>276.0</ele><time>2026-04-04T15:50:12.821Z</time></trkpt><trkpt lat="43.380003" lon="11.2274462"><ele>276.0</ele><time>2026-04-04T15:50:13.82Z</time></trkpt><trkpt lat="43.3800758" lon="11.2272981"><ele>276.0</ele><time>2026-04-04T15:50:15.822Z</time></trkpt><trkpt lat="43.380109" lon="11.2271973"><ele>276.0</ele><time>2026-04-04T15:50:16.822Z</time></trkpt><trkpt lat="43.3801442" lon="11.227093"><ele>276.0</ele><time>2026-04-04T15:50:17.822Z</time></trkpt><trkpt lat="43.3801972" lon="11.2269155"><ele>276.5</ele><time>2026-04-04T15:50:19.821Z</time></trkpt><trkpt lat="43.380218" lon="11.2267846"><ele>277.0</ele><time>2026-04-04T15:50:20.821Z</time></trkpt><trkpt lat="43.3802371" lon="11.2266622"><ele>277.5</ele><time>2026-04-04T15:50:21.821Z</time></trkpt><trkpt lat="43.3802554" lon="11.2265476"><ele>278.0</ele><time>2026-04-04T15:50:22.821Z</time></trkpt><trkpt lat="43.3802792" lon="11.2264397"><ele>278.5</ele><time>2026-04-04T15:50:23.821Z</time></trkpt><trkpt lat="43.3803203" lon="11.2263504"><ele>279.0</ele><time>2026-04-04T15:50:24.821Z</time></trkpt><trkpt lat="43.3803768" lon="11.2262516"><ele>278.59999999999997</ele><time>2026-04-04T15:50:25.822Z</time></trkpt><trkpt lat="43.380454" lon="11.2261691"><ele>278.2</ele><time>2026-04-04T15:50:26.822Z</time></trkpt><trkpt lat="43.3805378" lon="11.2260647"><ele>277.79999999999995</ele><time>2026-04-04T15:50:27.82Z</time></trkpt><trkpt lat="43.3806437" lon="11.2259588"><ele>277.4</ele><time>2026-04-04T15:50:28.821Z</time></trkpt><trkpt lat="43.3806976" lon="11.2259048"><ele>277.0</ele><time>2026-04-04T15:50:29.821Z</time></trkpt><trkpt lat="43.3807604" lon="11.2258046"><ele>277.0</ele><time>2026-04-04T15:50:30.82Z</time></trkpt><trkpt lat="43.3808174" lon="11.2257076"><ele>277.0</ele><time>2026-04-04T15:50:31.822Z</time></trkpt><trkpt lat="43.3808668" lon="11.2256109"><ele>277.0</ele><time>2026-04-04T15:50:32.822Z</time></trkpt><trkpt lat="43.3809223" lon="11.2254638"><ele>277.0</ele><time>2026-04-04T15:50:33.821Z</time></trkpt><trkpt lat="43.380973" lon="11.2253182"><ele>277.0</ele><time>2026-04-04T15:50:34.821Z</time></trkpt><trkpt lat="43.3810321" lon="11.2251834"><ele>277.0</ele><time>2026-04-04T15:50:35.82Z</time></trkpt><trkpt lat="43.3810802" lon="11.2250468"><ele>277.0</ele><time>2026-04-04T15:50:36.821Z</time></trkpt><trkpt lat="43.3811411" lon="11.2249152"><ele>277.0</ele><time>2026-04-04T15:50:37.822Z</time></trkpt><trkpt lat="43.3811984" lon="11.2247944"><ele>277.0</ele><time>2026-04-04T15:50:38.822Z</time></trkpt><trkpt lat="43.3812438" lon="11.224708"><ele>277.0</ele><time>2026-04-04T15:50:39.821Z</time></trkpt><trkpt lat="43.3813023" lon="11.2246064"><ele>278.3333333333333</ele><time>2026-04-04T15:50:40.821Z</time></trkpt><trkpt lat="43.3813565" lon="11.2245046"><ele>279.66666666666663</ele><time>2026-04-04T15:50:41.821Z</time></trkpt><trkpt lat="43.3814018" lon="11.2244127"><ele>281.0</ele><time>2026-04-04T15:50:42.822Z</time></trkpt><trkpt lat="43.3814238" lon="11.2243217"><ele>282.3333333333333</ele><time>2026-04-04T15:50:43.82Z</time></trkpt><trkpt lat="43.3814438" lon="11.224234"><ele>283.6666666666667</ele><time>2026-04-04T15:50:44.821Z</time></trkpt><trkpt lat="43.3815166" lon="11.2243087"><ele>285.0</ele><time>2026-04-04T15:50:46.82Z</time></trkpt><trkpt lat="43.3815766" lon="11.2244099"><ele>285.0</ele><time>2026-04-04T15:50:48.821Z</time></trkpt><trkpt lat="43.3816362" lon="11.224547"><ele>285.0</ele><time>2026-04-04T15:50:50.82Z</time></trkpt><trkpt lat="43.3816937" lon="11.2246313"><ele>285.0</ele><time>2026-04-04T15:50:52.82Z</time></trkpt><trkpt lat="43.3818104" lon="11.2246955"><ele>285.0</ele><time>2026-04-04T15:50:54.82Z</time></trkpt><trkpt lat="43.381873" lon="11.224723"><ele>285.0</ele><time>2026-04-04T15:50:55.82Z</time></trkpt><trkpt lat="43.3819586" lon="11.2247153"><ele>285.0</ele><time>2026-04-04T15:50:56.822Z</time></trkpt><trkpt lat="43.3820416" lon="11.2246732"><ele>285.0</ele><time>2026-04-04T15:50:58.822Z</time></trkpt><trkpt lat="43.3821299" lon="11.2246495"><ele>285.0</ele><time>2026-04-04T15:51:00.821Z</time></trkpt><trkpt lat="43.3822392" lon="11.2246149"><ele>285.0</ele><time>2026-04-04T15:51:02.82Z</time></trkpt><trkpt lat="43.3823065" lon="11.2245694"><ele>285.0</ele><time>2026-04-04T15:51:04.822Z</time></trkpt><trkpt lat="43.3823712" lon="11.2245599"><ele>285.0</ele><time>2026-04-04T15:51:06.822Z</time></trkpt><trkpt lat="43.3824066" lon="11.2246645"><ele>284.0</ele><time>2026-04-04T15:51:08.821Z</time></trkpt><trkpt lat="43.3824112" lon="11.2247954"><ele>283.0</ele><time>2026-04-04T15:51:10.821Z</time></trkpt><trkpt lat="43.3824259" lon="11.224922"><ele>282.0</ele><time>2026-04-04T15:51:12.821Z</time></trkpt><trkpt lat="43.3824804" lon="11.2250347"><ele>281.0</ele><time>2026-04-04T15:51:14.822Z</time></trkpt><trkpt lat="43.3825279" lon="11.2250926"><ele>280.0</ele><time>2026-04-04T15:51:15.822Z</time></trkpt><trkpt lat="43.3826238" lon="11.2252002"><ele>279.16666666666663</ele><time>2026-04-04T15:51:17.821Z</time></trkpt><trkpt lat="43.3826766" lon="11.2252532"><ele>278.3333333333333</ele><time>2026-04-04T15:51:18.821Z</time></trkpt><trkpt lat="43.3827274" lon="11.2253073"><ele>277.5</ele><time>2026-04-04T15:51:19.822Z</time></trkpt><trkpt lat="43.3827824" lon="11.2253602"><ele>276.6666666666667</ele><time>2026-04-04T15:51:20.821Z</time></trkpt><trkpt lat="43.3828768" lon="11.2254558"><ele>275.83333333333337</ele><time>2026-04-04T15:51:22.82Z</time></trkpt><trkpt lat="43.3829792" lon="11.2255473"><ele>275.0</ele><time>2026-04-04T15:51:24.822Z</time></trkpt><trkpt lat="43.3830445" lon="11.2256094"><ele>272.5</ele><time>2026-04-04T15:51:26.821Z</time></trkpt><trkpt lat="43.3831185" lon="11.2256398"><ele>270.0</ele><time>2026-04-04T15:51:29.822Z</time></trkpt><trkpt lat="43.3831735" lon="11.2255221"><ele>267.5</ele><time>2026-04-04T15:51:33.82Z</time></trkpt><trkpt lat="43.3831871" lon="11.2254141"><ele>265.0</ele><time>2026-04-04T15:51:34.822Z</time></trkpt><trkpt lat="43.3832085" lon="11.2252983"><ele>262.5</ele><time>2026-04-04T15:51:35.821Z</time></trkpt><trkpt lat="43.3832322" lon="11.2251621"><ele>260.0</ele><time>2026-04-04T15:51:36.82Z</time></trkpt><trkpt lat="43.3832532" lon="11.2250468"><ele>260.0</ele><time>2026-04-04T15:51:37.821Z</time></trkpt><trkpt lat="43.383272" lon="11.2249324"><ele>260.0</ele><time>2026-04-04T15:51:38.821Z</time></trkpt><trkpt lat="43.3832983" lon="11.2248264"><ele>260.0</ele><time>2026-04-04T15:51:39.821Z</time></trkpt><trkpt lat="43.3833398" lon="11.2247394"><ele>260.0</ele><time>2026-04-04T15:51:40.82Z</time></trkpt><trkpt lat="43.383402" lon="11.2246553"><ele>260.0</ele><time>2026-04-04T15:51:41.821Z</time></trkpt><trkpt lat="43.3834774" lon="11.2245748"><ele>260.0</ele><time>2026-04-04T15:51:42.82Z</time></trkpt><trkpt lat="43.3835408" lon="11.2245023"><ele>259.0</ele><time>2026-04-04T15:51:43.822Z</time></trkpt><trkpt lat="43.3836118" lon="11.224456"><ele>258.0</ele><time>2026-04-04T15:51:44.821Z</time></trkpt><trkpt lat="43.3836988" lon="11.2244186"><ele>257.0</ele><time>2026-04-04T15:51:45.822Z</time></trkpt><trkpt lat="43.3837795" lon="11.2243856"><ele>256.0</ele><time>2026-04-04T15:51:46.822Z</time></trkpt><trkpt lat="43.3838601" lon="11.2243553"><ele>255.00000000000003</ele><time>2026-04-04T15:51:47.822Z</time></trkpt><trkpt lat="43.3839514" lon="11.2243079"><ele>254.0</ele><time>2026-04-04T15:51:48.821Z</time></trkpt><trkpt lat="43.3840402" lon="11.2242549"><ele>254.00000000000003</ele><time>2026-04-04T15:51:49.82Z</time></trkpt><trkpt lat="43.3841117" lon="11.2242094"><ele>254.0</ele><time>2026-04-04T15:51:50.821Z</time></trkpt><trkpt lat="43.384173" lon="11.2241608"><ele>254.0</ele><time>2026-04-04T15:51:51.822Z</time></trkpt><trkpt lat="43.3842204" lon="11.2240946"><ele>254.0</ele><time>2026-04-04T15:51:52.82Z</time></trkpt><trkpt lat="43.3842801" lon="11.2239519"><ele>254.00000000000003</ele><time>2026-04-04T15:51:54.821Z</time></trkpt><trkpt lat="43.384304" lon="11.2238495"><ele>254.0</ele><time>2026-04-04T15:51:55.821Z</time></trkpt><trkpt lat="43.384351" lon="11.2237355"><ele>256.1666666666667</ele><time>2026-04-04T15:51:56.821Z</time></trkpt><trkpt lat="43.3843762" lon="11.2236393"><ele>258.33333333333337</ele><time>2026-04-04T15:51:57.821Z</time></trkpt><trkpt lat="43.3843645" lon="11.2235249"><ele>260.5</ele><time>2026-04-04T15:51:58.822Z</time></trkpt><trkpt lat="43.3843659" lon="11.2234156"><ele>262.6666666666667</ele><time>2026-04-04T15:51:59.821Z</time></trkpt><trkpt lat="43.384376" lon="11.2232931"><ele>264.8333333333333</ele><time>2026-04-04T15:52:00.822Z</time></trkpt><trkpt lat="43.3843444" lon="11.2231461"><ele>267.0</ele><time>2026-04-04T15:52:02.821Z</time></trkpt><trkpt lat="43.3843687" lon="11.2230096"><ele>269.2</ele><time>2026-04-04T15:52:04.821Z</time></trkpt><trkpt lat="43.3843994" lon="11.2229272"><ele>271.4</ele><time>2026-04-04T15:52:05.821Z</time></trkpt><trkpt lat="43.3844579" lon="11.2228433"><ele>273.6</ele><time>2026-04-04T15:52:06.821Z</time></trkpt><trkpt lat="43.3844833" lon="11.2226701"><ele>275.8</ele><time>2026-04-04T15:52:08.821Z</time></trkpt><trkpt lat="43.3844926" lon="11.2225832"><ele>278.0</ele><time>2026-04-04T15:52:09.82Z</time></trkpt><trkpt lat="43.3845086" lon="11.2223894"><ele>278.8</ele><time>2026-04-04T15:52:11.822Z</time></trkpt><trkpt lat="43.3844714" lon="11.2222818"><ele>279.6</ele><time>2026-04-04T15:52:12.821Z</time></trkpt><trkpt lat="43.3845125" lon="11.2220993"><ele>280.4</ele><time>2026-04-04T15:52:13.822Z</time></trkpt><trkpt lat="43.3845198" lon="11.2219957"><ele>281.2</ele><time>2026-04-04T15:52:14.822Z</time></trkpt><trkpt lat="43.3845518" lon="11.2218385"><ele>282.0</ele><time>2026-04-04T15:52:16.82Z</time></trkpt><trkpt lat="43.3845534" lon="11.2216954"><ele>282.0</ele><time>2026-04-04T15:52:18.822Z</time></trkpt><trkpt lat="43.3845592" lon="11.2216082"><ele>282.0</ele><time>2026-04-04T15:52:19.821Z</time></trkpt><trkpt lat="43.3845606" lon="11.2215193"><ele>282.0</ele><time>2026-04-04T15:52:20.822Z</time></trkpt><trkpt lat="43.3846007" lon="11.2213259"><ele>282.0</ele><time>2026-04-04T15:52:22.822Z</time></trkpt><trkpt lat="43.3846869" lon="11.221282"><ele>282.0</ele><time>2026-04-04T15:52:23.821Z</time></trkpt><trkpt lat="43.3847682" lon="11.2212389"><ele>280.6</ele><time>2026-04-04T15:52:24.822Z</time></trkpt><trkpt lat="43.3848437" lon="11.2211879"><ele>279.2</ele><time>2026-04-04T15:52:25.82Z</time></trkpt><trkpt lat="43.3849116" lon="11.2211297"><ele>277.8</ele><time>2026-04-04T15:52:26.82Z</time></trkpt><trkpt lat="43.3849251" lon="11.2209919"><ele>276.4</ele><time>2026-04-04T15:52:28.821Z</time></trkpt><trkpt lat="43.3848902" lon="11.2207942"><ele>275.0</ele><time>2026-04-04T15:52:30.821Z</time></trkpt><trkpt lat="43.3848602" lon="11.2206759"><ele>274.6</ele><time>2026-04-04T15:52:31.821Z</time></trkpt><trkpt lat="43.3848432" lon="11.2205606"><ele>274.2</ele><time>2026-04-04T15:52:32.821Z</time></trkpt><trkpt lat="43.3848323" lon="11.2204702"><ele>273.8</ele><time>2026-04-04T15:52:33.82Z</time></trkpt><trkpt lat="43.3848581" lon="11.220337"><ele>273.4</ele><time>2026-04-04T15:52:35.822Z</time></trkpt><trkpt lat="43.384843" lon="11.220163"><ele>273.0</ele><time>2026-04-04T15:52:37.822Z</time></trkpt><trkpt lat="43.3848384" lon="11.2200647"><ele>273.0</ele><time>2026-04-04T15:52:38.821Z</time></trkpt><trkpt lat="43.3848434" lon="11.2199644"><ele>273.0</ele><time>2026-04-04T15:52:39.82Z</time></trkpt><trkpt lat="43.3848657" lon="11.2198004"><ele>273.0</ele><time>2026-04-04T15:52:41.821Z</time></trkpt><trkpt lat="43.3849036" lon="11.2197293"><ele>273.0</ele><time>2026-04-04T15:52:42.821Z</time></trkpt><trkpt lat="43.3849408" lon="11.2196424"><ele>273.0</ele><time>2026-04-04T15:52:43.821Z</time></trkpt><trkpt lat="43.3849887" lon="11.2195746"><ele>273.0</ele><time>2026-04-04T15:52:45.82Z</time></trkpt><trkpt lat="43.385027" lon="11.2195052"><ele>272.4</ele><time>2026-04-04T15:52:46.82Z</time></trkpt><trkpt lat="43.3851393" lon="11.2194502"><ele>271.8</ele><time>2026-04-04T15:52:48.821Z</time></trkpt><trkpt lat="43.3852182" lon="11.219421"><ele>271.2</ele><time>2026-04-04T15:52:49.821Z</time></trkpt><trkpt lat="43.3853043" lon="11.2193597"><ele>270.6</ele><time>2026-04-04T15:52:50.822Z</time></trkpt><trkpt lat="43.3853778" lon="11.2193176"><ele>270.0</ele><time>2026-04-04T15:52:51.822Z</time></trkpt><trkpt lat="43.3854607" lon="11.2192877"><ele>269.0</ele><time>2026-04-04T15:52:52.822Z</time></trkpt><trkpt lat="43.3855406" lon="11.2192641"><ele>268.0</ele><time>2026-04-04T15:52:53.82Z</time></trkpt><trkpt lat="43.3855991" lon="11.21923"><ele>267.0</ele><time>2026-04-04T15:52:54.82Z</time></trkpt><trkpt lat="43.385688" lon="11.2191643"><ele>266.0</ele><time>2026-04-04T15:52:56.82Z</time></trkpt><trkpt lat="43.3857054" lon="11.21898"><ele>265.0</ele><time>2026-04-04T15:52:58.822Z</time></trkpt><trkpt lat="43.3857513" lon="11.2188267"><ele>265.0</ele><time>2026-04-04T15:53:00.822Z</time></trkpt><trkpt lat="43.3857665" lon="11.2187412"><ele>265.0</ele><time>2026-04-04T15:53:01.82Z</time></trkpt><trkpt lat="43.3857629" lon="11.2185676"><ele>265.0</ele><time>2026-04-04T15:53:03.82Z</time></trkpt><trkpt lat="43.3858024" lon="11.218426"><ele>265.0</ele><time>2026-04-04T15:53:05.82Z</time></trkpt><trkpt lat="43.3858" lon="11.2183374"><ele>265.0</ele><time>2026-04-04T15:53:06.821Z</time></trkpt><trkpt lat="43.385838" lon="11.2181264"><ele>264.3333333333333</ele><time>2026-04-04T15:53:08.82Z</time></trkpt><trkpt lat="43.3858499" lon="11.2180249"><ele>263.66666666666663</ele><time>2026-04-04T15:53:09.821Z</time></trkpt><trkpt lat="43.3858658" lon="11.2179139"><ele>263.0</ele><time>2026-04-04T15:53:10.821Z</time></trkpt><trkpt lat="43.3858868" lon="11.2177804"><ele>262.3333333333333</ele><time>2026-04-04T15:53:11.821Z</time></trkpt><trkpt lat="43.3859041" lon="11.2176551"><ele>261.6666666666667</ele><time>2026-04-04T15:53:12.822Z</time></trkpt><trkpt lat="43.3859137" lon="11.2175212"><ele>261.0</ele><time>2026-04-04T15:53:13.821Z</time></trkpt><trkpt lat="43.3859279" lon="11.2173958"><ele>260.1666666666667</ele><time>2026-04-04T15:53:14.822Z</time></trkpt><trkpt lat="43.3859365" lon="11.2172666"><ele>259.3333333333333</ele><time>2026-04-04T15:53:15.821Z</time></trkpt><trkpt lat="43.3859632" lon="11.2171752"><ele>258.5</ele><time>2026-04-04T15:53:16.82Z</time></trkpt><trkpt lat="43.3859788" lon="11.2170336"><ele>257.66666666666663</ele><time>2026-04-04T15:53:17.82Z</time></trkpt><trkpt lat="43.3859873" lon="11.2169361"><ele>256.8333333333333</ele><time>2026-04-04T15:53:18.822Z</time></trkpt><trkpt lat="43.3860292" lon="11.2168631"><ele>256.0</ele><time>2026-04-04T15:53:20.822Z</time></trkpt><trkpt lat="43.3860044" lon="11.2167511"><ele>256.0</ele><time>2026-04-04T15:53:36.821Z</time></trkpt><trkpt lat="43.3859359" lon="11.2166853"><ele>256.0</ele><time>2026-04-04T15:53:41.821Z</time></trkpt><trkpt lat="43.3858757" lon="11.2166337"><ele>256.0</ele><time>2026-04-04T15:53:43.822Z</time></trkpt><trkpt lat="43.3857823" lon="11.2165577"><ele>256.0</ele><time>2026-04-04T15:53:45.82Z</time></trkpt><trkpt lat="43.3857351" lon="11.2164949"><ele>256.0</ele><time>2026-04-04T15:53:46.821Z</time></trkpt><trkpt lat="43.3857128" lon="11.2163281"><ele>255.0</ele><time>2026-04-04T15:53:47.822Z</time></trkpt><trkpt lat="43.3857106" lon="11.2162372"><ele>254.00000000000003</ele><time>2026-04-04T15:53:48.821Z</time></trkpt><trkpt lat="43.3857266" lon="11.2161495"><ele>253.00000000000003</ele><time>2026-04-04T15:53:49.822Z</time></trkpt><trkpt lat="43.3857612" lon="11.2159897"><ele>252.0</ele><time>2026-04-04T15:53:51.821Z</time></trkpt><trkpt lat="43.385832" lon="11.2158892"><ele>251.0</ele><time>2026-04-04T15:53:53.821Z</time></trkpt><trkpt lat="43.385833" lon="11.2157148"><ele>250.16666666666669</ele><time>2026-04-04T15:53:55.822Z</time></trkpt><trkpt lat="43.3858317" lon="11.2156257"><ele>249.33333333333334</ele><time>2026-04-04T15:53:56.822Z</time></trkpt><trkpt lat="43.385787" lon="11.2154501"><ele>248.5</ele><time>2026-04-04T15:53:58.822Z</time></trkpt><trkpt lat="43.3857484" lon="11.2153727"><ele>247.66666666666669</ele><time>2026-04-04T15:53:59.82Z</time></trkpt><trkpt lat="43.3857127" lon="11.2152997"><ele>246.83333333333334</ele><time>2026-04-04T15:54:00.821Z</time></trkpt><trkpt lat="43.3856682" lon="11.2152177"><ele>246.0</ele><time>2026-04-04T15:54:01.822Z</time></trkpt><trkpt lat="43.3856249" lon="11.2151459"><ele>246.0</ele><time>2026-04-04T15:54:02.822Z</time></trkpt><trkpt lat="43.3855859" lon="11.2149859"><ele>246.00000000000003</ele><time>2026-04-04T15:54:04.821Z</time></trkpt><trkpt lat="43.3855238" lon="11.2148633"><ele>246.00000000000003</ele><time>2026-04-04T15:54:06.82Z</time></trkpt><trkpt lat="43.3854446" lon="11.2147489"><ele>246.0</ele><time>2026-04-04T15:54:08.82Z</time></trkpt><trkpt lat="43.3853693" lon="11.2147135"><ele>246.0</ele><time>2026-04-04T15:54:10.822Z</time></trkpt><trkpt lat="43.3853029" lon="11.2147529"><ele>245.60000000000002</ele><time>2026-04-04T15:54:12.82Z</time></trkpt><trkpt lat="43.3852258" lon="11.2148711"><ele>245.20000000000002</ele><time>2026-04-04T15:54:14.821Z</time></trkpt><trkpt lat="43.3851139" lon="11.2149559"><ele>244.79999999999998</ele><time>2026-04-04T15:54:16.821Z</time></trkpt><trkpt lat="43.3850441" lon="11.2149864"><ele>244.39999999999998</ele><time>2026-04-04T15:54:17.82Z</time></trkpt><trkpt lat="43.3849681" lon="11.2150109"><ele>244.0</ele><time>2026-04-04T15:54:18.822Z</time></trkpt><trkpt lat="43.3848466" lon="11.2149871"><ele>243.99999999999997</ele><time>2026-04-04T15:54:20.822Z</time></trkpt><trkpt lat="43.3847829" lon="11.2149232"><ele>244.0</ele><time>2026-04-04T15:54:21.82Z</time></trkpt><trkpt lat="43.3847336" lon="11.2148346"><ele>244.0</ele><time>2026-04-04T15:54:22.822Z</time></trkpt><trkpt lat="43.3846853" lon="11.2147651"><ele>244.0</ele><time>2026-04-04T15:54:23.82Z</time></trkpt><trkpt lat="43.3846383" lon="11.2146983"><ele>243.99999999999997</ele><time>2026-04-04T15:54:24.822Z</time></trkpt><trkpt lat="43.3845262" lon="11.2146742"><ele>244.0</ele><time>2026-04-04T15:54:26.82Z</time></trkpt><trkpt lat="43.3844058" lon="11.2147106"><ele>243.83333333333331</ele><time>2026-04-04T15:54:28.821Z</time></trkpt><trkpt lat="43.3843295" lon="11.2147763"><ele>243.66666666666666</ele><time>2026-04-04T15:54:29.82Z</time></trkpt><trkpt lat="43.3842651" lon="11.2148232"><ele>243.5</ele><time>2026-04-04T15:54:30.822Z</time></trkpt><trkpt lat="43.3841976" lon="11.2148549"><ele>243.33333333333331</ele><time>2026-04-04T15:54:31.821Z</time></trkpt><trkpt lat="43.384132" lon="11.2148906"><ele>243.16666666666666</ele><time>2026-04-04T15:54:32.821Z</time></trkpt><trkpt lat="43.3840671" lon="11.2149473"><ele>243.0</ele><time>2026-04-04T15:54:33.821Z</time></trkpt><trkpt lat="43.3840004" lon="11.2149951"><ele>243.0</ele><time>2026-04-04T15:54:34.821Z</time></trkpt><trkpt lat="43.3839371" lon="11.2150463"><ele>243.0</ele><time>2026-04-04T15:54:35.821Z</time></trkpt><trkpt lat="43.3838572" lon="11.2150243"><ele>243.0</ele><time>2026-04-04T15:54:36.82Z</time></trkpt><trkpt lat="43.3837458" lon="11.2149965"><ele>243.0</ele><time>2026-04-04T15:54:37.821Z</time></trkpt><trkpt lat="43.3836601" lon="11.2149951"><ele>243.0</ele><time>2026-04-04T15:54:38.821Z</time></trkpt><trkpt lat="43.3835766" lon="11.2150079"><ele>243.0</ele><time>2026-04-04T15:54:39.822Z</time></trkpt><trkpt lat="43.3835083" lon="11.2150117"><ele>242.0</ele><time>2026-04-04T15:54:40.82Z</time></trkpt><trkpt lat="43.3834263" lon="11.2150228"><ele>241.0</ele><time>2026-04-04T15:54:41.822Z</time></trkpt><trkpt lat="43.3833455" lon="11.2150364"><ele>240.0</ele><time>2026-04-04T15:54:42.822Z</time></trkpt><trkpt lat="43.3832759" lon="11.2150594"><ele>239.0</ele><time>2026-04-04T15:54:43.821Z</time></trkpt><trkpt lat="43.3831977" lon="11.215067"><ele>238.0</ele><time>2026-04-04T15:54:44.821Z</time></trkpt><trkpt lat="43.3831287" lon="11.2150994"><ele>237.0</ele><time>2026-04-04T15:54:46.821Z</time></trkpt><trkpt lat="43.3830396" lon="11.2151546"><ele>235.66666666666666</ele><time>2026-04-04T15:54:47.821Z</time></trkpt><trkpt lat="43.382978" lon="11.215192"><ele>234.33333333333331</ele><time>2026-04-04T15:54:48.821Z</time></trkpt><trkpt lat="43.382911" lon="11.2152459"><ele>233.0</ele><time>2026-04-04T15:54:49.822Z</time></trkpt><trkpt lat="43.3828094" lon="11.2152917"><ele>231.66666666666666</ele><time>2026-04-04T15:54:50.822Z</time></trkpt><trkpt lat="43.3827571" lon="11.2153738"><ele>230.33333333333331</ele><time>2026-04-04T15:54:52.821Z</time></trkpt><trkpt lat="43.3827153" lon="11.215495"><ele>229.0</ele><time>2026-04-04T15:54:54.822Z</time></trkpt><trkpt lat="43.382656" lon="11.2156167"><ele>230.33333333333331</ele><time>2026-04-04T15:54:56.822Z</time></trkpt><trkpt lat="43.3826118" lon="11.2156829"><ele>231.66666666666666</ele><time>2026-04-04T15:54:57.822Z</time></trkpt><trkpt lat="43.3825436" lon="11.2157595"><ele>233.0</ele><time>2026-04-04T15:54:59.82Z</time></trkpt><trkpt lat="43.3824817" lon="11.2158091"><ele>234.33333333333331</ele><time>2026-04-04T15:55:00.822Z</time></trkpt><trkpt lat="43.3823462" lon="11.2158877"><ele>235.66666666666666</ele><time>2026-04-04T15:55:02.821Z</time></trkpt><trkpt lat="43.3822883" lon="11.2159395"><ele>237.0</ele><time>2026-04-04T15:55:03.821Z</time></trkpt><trkpt lat="43.3822239" lon="11.2159851"><ele>234.5</ele><time>2026-04-04T15:55:04.821Z</time></trkpt><trkpt lat="43.3821608" lon="11.2160338"><ele>232.0</ele><time>2026-04-04T15:55:05.82Z</time></trkpt><trkpt lat="43.3821085" lon="11.2160974"><ele>229.5</ele><time>2026-04-04T15:55:06.821Z</time></trkpt><trkpt lat="43.3820158" lon="11.2161829"><ele>227.0</ele><time>2026-04-04T15:55:08.821Z</time></trkpt><trkpt lat="43.3819768" lon="11.2161115"><ele>224.5</ele><time>2026-04-04T15:55:10.821Z</time></trkpt><trkpt lat="43.3818936" lon="11.2160249"><ele>222.0</ele><time>2026-04-04T15:55:12.821Z</time></trkpt><trkpt lat="43.3818167" lon="11.2159106"><ele>222.0</ele><time>2026-04-04T15:55:14.821Z</time></trkpt><trkpt lat="43.3817761" lon="11.215839"><ele>222.0</ele><time>2026-04-04T15:55:15.821Z</time></trkpt><trkpt lat="43.3817449" lon="11.2157371"><ele>222.0</ele><time>2026-04-04T15:55:17.822Z</time></trkpt><trkpt lat="43.3817412" lon="11.2155798"><ele>222.0</ele><time>2026-04-04T15:55:19.821Z</time></trkpt><trkpt lat="43.3817404" lon="11.2154391"><ele>222.0</ele><time>2026-04-04T15:55:21.822Z</time></trkpt><trkpt lat="43.3816896" lon="11.215375"><ele>222.0</ele><time>2026-04-04T15:55:23.822Z</time></trkpt><trkpt lat="43.3815936" lon="11.2153958"><ele>222.0</ele><time>2026-04-04T15:55:26.821Z</time></trkpt><trkpt lat="43.3814775" lon="11.2154616"><ele>222.0</ele><time>2026-04-04T15:55:28.821Z</time></trkpt><trkpt lat="43.3814268" lon="11.2155481"><ele>222.0</ele><time>2026-04-04T15:55:29.821Z</time></trkpt><trkpt lat="43.3813499" lon="11.215655"><ele>222.0</ele><time>2026-04-04T15:55:31.82Z</time></trkpt><trkpt lat="43.3812612" lon="11.2156294"><ele>222.0</ele><time>2026-04-04T15:55:34.822Z</time></trkpt><trkpt lat="43.3812249" lon="11.2154999"><ele>219.2</ele><time>2026-04-04T15:55:36.821Z</time></trkpt><trkpt lat="43.3811752" lon="11.2153542"><ele>216.39999999999998</ele><time>2026-04-04T15:55:37.821Z</time></trkpt><trkpt lat="43.3811482" lon="11.2152659"><ele>213.60000000000002</ele><time>2026-04-04T15:55:38.821Z</time></trkpt><trkpt lat="43.3811298" lon="11.2151636"><ele>210.8</ele><time>2026-04-04T15:55:39.82Z</time></trkpt><trkpt lat="43.3811177" lon="11.2150753"><ele>208.0</ele><time>2026-04-04T15:55:40.82Z</time></trkpt><trkpt lat="43.3811003" lon="11.2148988"><ele>207.83333333333331</ele><time>2026-04-04T15:55:42.822Z</time></trkpt><trkpt lat="43.3810963" lon="11.2148115"><ele>207.66666666666666</ele><time>2026-04-04T15:55:43.82Z</time></trkpt><trkpt lat="43.38108" lon="11.2147015"><ele>207.5</ele><time>2026-04-04T15:55:44.822Z</time></trkpt><trkpt lat="43.3810747" lon="11.2145902"><ele>207.33333333333331</ele><time>2026-04-04T15:55:45.821Z</time></trkpt><trkpt lat="43.3810702" lon="11.2144073"><ele>207.16666666666666</ele><time>2026-04-04T15:55:47.821Z</time></trkpt><trkpt lat="43.3810602" lon="11.2142975"><ele>207.0</ele><time>2026-04-04T15:55:48.821Z</time></trkpt><trkpt lat="43.3810383" lon="11.2141487"><ele>207.0</ele><time>2026-04-04T15:55:50.821Z</time></trkpt><trkpt lat="43.3811127" lon="11.2139973"><ele>207.0</ele><time>2026-04-04T15:55:52.822Z</time></trkpt><trkpt lat="43.3811697" lon="11.2139019"><ele>207.0</ele><time>2026-04-04T15:55:53.822Z</time></trkpt><trkpt lat="43.3812283" lon="11.2138004"><ele>207.0</ele><time>2026-04-04T15:55:54.822Z</time></trkpt><trkpt lat="43.3812945" lon="11.2136997"><ele>207.0</ele><time>2026-04-04T15:55:55.821Z</time></trkpt><trkpt lat="43.3813705" lon="11.2135995"><ele>207.0</ele><time>2026-04-04T15:55:56.822Z</time></trkpt><trkpt lat="43.3814387" lon="11.2134937"><ele>207.0</ele><time>2026-04-04T15:55:57.821Z</time></trkpt><trkpt lat="43.3815112" lon="11.2134102"><ele>207.0</ele><time>2026-04-04T15:55:58.822Z</time></trkpt><trkpt lat="43.3815999" lon="11.2133449"><ele>207.0</ele><time>2026-04-04T15:55:59.821Z</time></trkpt><trkpt lat="43.3816936" lon="11.213264"><ele>207.0</ele><time>2026-04-04T15:56:00.821Z</time></trkpt><trkpt lat="43.3817925" lon="11.2132039"><ele>207.0</ele><time>2026-04-04T15:56:01.821Z</time></trkpt><trkpt lat="43.3819021" lon="11.2131682"><ele>207.0</ele><time>2026-04-04T15:56:02.822Z</time></trkpt><trkpt lat="43.3819948" lon="11.2131243"><ele>207.0</ele><time>2026-04-04T15:56:03.821Z</time></trkpt><trkpt lat="43.3820972" lon="11.2130814"><ele>207.0</ele><time>2026-04-04T15:56:04.82Z</time></trkpt><trkpt lat="43.3822597" lon="11.2130316"><ele>205.6</ele><time>2026-04-04T15:56:05.821Z</time></trkpt><trkpt lat="43.3823807" lon="11.213003"><ele>204.2</ele><time>2026-04-04T15:56:06.82Z</time></trkpt><trkpt lat="43.3824809" lon="11.2129584"><ele>202.8</ele><time>2026-04-04T15:56:07.822Z</time></trkpt><trkpt lat="43.3825879" lon="11.2129306"><ele>201.4</ele><time>2026-04-04T15:56:08.821Z</time></trkpt><trkpt lat="43.3826911" lon="11.2129221"><ele>200.0</ele><time>2026-04-04T15:56:09.822Z</time></trkpt><trkpt lat="43.3827628" lon="11.2129391"><ele>200.00000000000003</ele><time>2026-04-04T15:56:10.82Z</time></trkpt><trkpt lat="43.3828493" lon="11.2129404"><ele>200.0</ele><time>2026-04-04T15:56:11.822Z</time></trkpt><trkpt lat="43.3829379" lon="11.2129821"><ele>200.0</ele><time>2026-04-04T15:56:12.82Z</time></trkpt><trkpt lat="43.3830146" lon="11.2130096"><ele>200.0</ele><time>2026-04-04T15:56:13.821Z</time></trkpt><trkpt lat="43.3830831" lon="11.213035"><ele>200.00000000000003</ele><time>2026-04-04T15:56:14.821Z</time></trkpt><trkpt lat="43.383157" lon="11.2130606"><ele>200.0</ele><time>2026-04-04T15:56:15.822Z</time></trkpt><trkpt lat="43.383234" lon="11.2130591"><ele>199.66666666666669</ele><time>2026-04-04T15:56:17.82Z</time></trkpt><trkpt lat="43.383315" lon="11.2130094"><ele>199.33333333333334</ele><time>2026-04-04T15:56:19.822Z</time></trkpt><trkpt lat="43.3833793" lon="11.2129604"><ele>199.0</ele><time>2026-04-04T15:56:21.821Z</time></trkpt><trkpt lat="43.3834242" lon="11.212859"><ele>198.66666666666669</ele><time>2026-04-04T15:57:45.822Z</time></trkpt><trkpt lat="43.3834159" lon="11.2126862"><ele>198.33333333333334</ele><time>2026-04-04T15:57:47.821Z</time></trkpt><trkpt lat="43.3834113" lon="11.212584"><ele>198.0</ele><time>2026-04-04T15:57:48.821Z</time></trkpt><trkpt lat="43.3834178" lon="11.212479"><ele>198.0</ele><time>2026-04-04T15:57:49.821Z</time></trkpt><trkpt lat="43.3834253" lon="11.212368"><ele>198.0</ele><time>2026-04-04T15:57:50.821Z</time></trkpt><trkpt lat="43.3834345" lon="11.2122635"><ele>198.0</ele><time>2026-04-04T15:57:51.82Z</time></trkpt><trkpt lat="43.3834435" lon="11.2121571"><ele>198.0</ele><time>2026-04-04T15:57:52.82Z</time></trkpt><trkpt lat="43.3834536" lon="11.2120604"><ele>198.0</ele><time>2026-04-04T15:57:53.822Z</time></trkpt><trkpt lat="43.38346" lon="11.2119724"><ele>198.0</ele><time>2026-04-04T15:57:54.822Z</time></trkpt><trkpt lat="43.383468" lon="11.2118845"><ele>198.0</ele><time>2026-04-04T15:57:55.822Z</time></trkpt><trkpt lat="43.38348" lon="11.2117941"><ele>197.4</ele><time>2026-04-04T15:57:56.821Z</time></trkpt><trkpt lat="43.3834985" lon="11.2116287"><ele>196.8</ele><time>2026-04-04T15:57:58.821Z</time></trkpt><trkpt lat="43.3835167" lon="11.2114707"><ele>196.2</ele><time>2026-04-04T15:58:00.821Z</time></trkpt><trkpt lat="43.3835374" lon="11.2113046"><ele>195.6</ele><time>2026-04-04T15:58:02.82Z</time></trkpt><trkpt lat="43.383546" lon="11.2112171"><ele>195.0</ele><time>2026-04-04T15:58:03.822Z</time></trkpt><trkpt lat="43.3835569" lon="11.2111281"><ele>195.0</ele><time>2026-04-04T15:58:04.822Z</time></trkpt><trkpt lat="43.3835673" lon="11.2110359"><ele>195.0</ele><time>2026-04-04T15:58:05.82Z</time></trkpt><trkpt lat="43.3835787" lon="11.2109485"><ele>195.0</ele><time>2026-04-04T15:58:06.82Z</time></trkpt><trkpt lat="43.3835868" lon="11.2108613"><ele>195.0</ele><time>2026-04-04T15:58:07.822Z</time></trkpt><trkpt lat="43.3835969" lon="11.2107733"><ele>195.0</ele><time>2026-04-04T15:58:08.821Z</time></trkpt><trkpt lat="43.383606" lon="11.2106838"><ele>195.0</ele><time>2026-04-04T15:58:09.821Z</time></trkpt><trkpt lat="43.383616" lon="11.2105947"><ele>195.0</ele><time>2026-04-04T15:58:10.822Z</time></trkpt><trkpt lat="43.3836344" lon="11.2104292"><ele>194.8</ele><time>2026-04-04T15:58:12.821Z</time></trkpt><trkpt lat="43.3836552" lon="11.2102793"><ele>194.6</ele><time>2026-04-04T15:58:14.821Z</time></trkpt><trkpt lat="43.3836719" lon="11.2101358"><ele>194.39999999999998</ele><time>2026-04-04T15:58:16.822Z</time></trkpt><trkpt lat="43.3836904" lon="11.2099994"><ele>194.2</ele><time>2026-04-04T15:58:18.821Z</time></trkpt><trkpt lat="43.3837045" lon="11.2098928"><ele>194.0</ele><time>2026-04-04T15:58:20.821Z</time></trkpt><trkpt lat="43.3837089" lon="11.2097796"><ele>194.00000000000003</ele><time>2026-04-04T15:58:23.82Z</time></trkpt><trkpt lat="43.3837199" lon="11.2096839"><ele>194.0</ele><time>2026-04-04T15:58:27.821Z</time></trkpt><trkpt lat="43.3837387" lon="11.2095889"><ele>194.0</ele><time>2026-04-04T15:58:30.821Z</time></trkpt><trkpt lat="43.3837495" lon="11.2094884"><ele>194.0</ele><time>2026-04-04T15:58:32.821Z</time></trkpt><trkpt lat="43.3837707" lon="11.2093546"><ele>194.00000000000003</ele><time>2026-04-04T15:58:34.821Z</time></trkpt><trkpt lat="43.3837948" lon="11.2091896"><ele>194.0</ele><time>2026-04-04T15:58:36.821Z</time></trkpt><trkpt lat="43.3838059" lon="11.2091035"><ele>194.0</ele><time>2026-04-04T15:58:37.821Z</time></trkpt><trkpt lat="43.3838175" lon="11.2090064"><ele>194.0</ele><time>2026-04-04T15:58:38.82Z</time></trkpt><trkpt lat="43.3838339" lon="11.2089129"><ele>194.0</ele><time>2026-04-04T15:58:39.82Z</time></trkpt><trkpt lat="43.3838501" lon="11.208812"><ele>194.0</ele><time>2026-04-04T15:58:40.82Z</time></trkpt><trkpt lat="43.3838612" lon="11.208705"><ele>194.0</ele><time>2026-04-04T15:58:41.82Z</time></trkpt><trkpt lat="43.3838742" lon="11.2085974"><ele>194.0</ele><time>2026-04-04T15:58:42.821Z</time></trkpt><trkpt lat="43.3838874" lon="11.2084977"><ele>194.0</ele><time>2026-04-04T15:58:43.821Z</time></trkpt><trkpt lat="43.3839009" lon="11.2083936"><ele>193.83333333333334</ele><time>2026-04-04T15:58:44.821Z</time></trkpt><trkpt lat="43.3839155" lon="11.2082744"><ele>193.66666666666669</ele><time>2026-04-04T15:58:45.82Z</time></trkpt><trkpt lat="43.383927" lon="11.2081631"><ele>193.5</ele><time>2026-04-04T15:58:46.822Z</time></trkpt><trkpt lat="43.3839393" lon="11.2080468"><ele>193.33333333333331</ele><time>2026-04-04T15:58:47.822Z</time></trkpt><trkpt lat="43.3839569" lon="11.2079357"><ele>193.16666666666666</ele><time>2026-04-04T15:58:48.822Z</time></trkpt><trkpt lat="43.3839702" lon="11.207818"><ele>193.0</ele><time>2026-04-04T15:58:49.821Z</time></trkpt><trkpt lat="43.3839852" lon="11.2077034"><ele>192.99999999999997</ele><time>2026-04-04T15:58:50.82Z</time></trkpt><trkpt lat="43.3840029" lon="11.2075909"><ele>193.0</ele><time>2026-04-04T15:58:51.821Z</time></trkpt><trkpt lat="43.3840176" lon="11.2074826"><ele>193.0</ele><time>2026-04-04T15:58:52.82Z</time></trkpt><trkpt lat="43.3840288" lon="11.2073709"><ele>193.0</ele><time>2026-04-04T15:58:53.82Z</time></trkpt><trkpt lat="43.384045" lon="11.2072671"><ele>192.99999999999997</ele><time>2026-04-04T15:58:54.82Z</time></trkpt><trkpt lat="43.38406" lon="11.2071668"><ele>193.0</ele><time>2026-04-04T15:58:55.82Z</time></trkpt><trkpt lat="43.3840755" lon="11.207064"><ele>192.99999999999997</ele><time>2026-04-04T15:58:56.822Z</time></trkpt><trkpt lat="43.3840889" lon="11.2069563"><ele>193.0</ele><time>2026-04-04T15:58:57.821Z</time></trkpt><trkpt lat="43.3840983" lon="11.2068469"><ele>193.0</ele><time>2026-04-04T15:58:58.82Z</time></trkpt><trkpt lat="43.384112" lon="11.206746"><ele>193.0</ele><time>2026-04-04T15:58:59.821Z</time></trkpt><trkpt lat="43.3841198" lon="11.2066412"><ele>192.99999999999997</ele><time>2026-04-04T15:59:00.821Z</time></trkpt><trkpt lat="43.3841323" lon="11.206535"><ele>193.0</ele><time>2026-04-04T15:59:01.822Z</time></trkpt><trkpt lat="43.3841483" lon="11.2064347"><ele>193.16666666666666</ele><time>2026-04-04T15:59:02.822Z</time></trkpt><trkpt lat="43.3841613" lon="11.2063226"><ele>193.33333333333331</ele><time>2026-04-04T15:59:03.822Z</time></trkpt><trkpt lat="43.3841736" lon="11.2062074"><ele>193.5</ele><time>2026-04-04T15:59:04.821Z</time></trkpt><trkpt lat="43.3841942" lon="11.2060881"><ele>193.66666666666669</ele><time>2026-04-04T15:59:05.82Z</time></trkpt><trkpt lat="43.3842083" lon="11.2059903"><ele>193.83333333333334</ele><time>2026-04-04T15:59:06.821Z</time></trkpt><trkpt lat="43.3842317" lon="11.2059004"><ele>194.0</ele><time>2026-04-04T15:59:07.82Z</time></trkpt><trkpt lat="43.384262" lon="11.2058191"><ele>194.0</ele><time>2026-04-04T15:59:08.821Z</time></trkpt><trkpt lat="43.3843015" lon="11.2057364"><ele>194.0</ele><time>2026-04-04T15:59:09.82Z</time></trkpt><trkpt lat="43.3843417" lon="11.2056632"><ele>194.0</ele><time>2026-04-04T15:59:10.821Z</time></trkpt><trkpt lat="43.3843769" lon="11.2055892"><ele>194.0</ele><time>2026-04-04T15:59:11.822Z</time></trkpt><trkpt lat="43.3844149" lon="11.2055153"><ele>194.0</ele><time>2026-04-04T15:59:12.822Z</time></trkpt><trkpt lat="43.3844515" lon="11.2054425"><ele>194.0</ele><time>2026-04-04T15:59:13.821Z</time></trkpt><trkpt lat="43.3844873" lon="11.2053672"><ele>194.0</ele><time>2026-04-04T15:59:14.82Z</time></trkpt><trkpt lat="43.3845225" lon="11.2052945"><ele>194.0</ele><time>2026-04-04T15:59:15.821Z</time></trkpt><trkpt lat="43.3845596" lon="11.2052233"><ele>194.0</ele><time>2026-04-04T15:59:16.821Z</time></trkpt><trkpt lat="43.3845959" lon="11.2051504"><ele>194.0</ele><time>2026-04-04T15:59:17.821Z</time></trkpt><trkpt lat="43.3846707" lon="11.2050048"><ele>194.0</ele><time>2026-04-04T15:59:19.821Z</time></trkpt><trkpt lat="43.3847432" lon="11.2048739"><ele>194.0</ele><time>2026-04-04T15:59:21.821Z</time></trkpt><trkpt lat="43.3848215" lon="11.2047437"><ele>194.0</ele><time>2026-04-04T15:59:23.822Z</time></trkpt><trkpt lat="43.3848955" lon="11.2045972"><ele>194.0</ele><time>2026-04-04T15:59:25.822Z</time></trkpt><trkpt lat="43.3849717" lon="11.2044563"><ele>194.0</ele><time>2026-04-04T15:59:27.822Z</time></trkpt><trkpt lat="43.3850093" lon="11.2043843"><ele>194.0</ele><time>2026-04-04T15:59:28.821Z</time></trkpt><trkpt lat="43.3850509" lon="11.2043097"><ele>194.0</ele><time>2026-04-04T15:59:29.821Z</time></trkpt><trkpt lat="43.3850961" lon="11.2042308"><ele>194.0</ele><time>2026-04-04T15:59:30.822Z</time></trkpt><trkpt lat="43.3851394" lon="11.2041507"><ele>194.0</ele><time>2026-04-04T15:59:31.822Z</time></trkpt><trkpt lat="43.3851814" lon="11.2040795"><ele>194.0</ele><time>2026-04-04T15:59:32.821Z</time></trkpt><trkpt lat="43.3852203" lon="11.2040032"><ele>194.0</ele><time>2026-04-04T15:59:33.821Z</time></trkpt><trkpt lat="43.3852617" lon="11.2039293"><ele>194.0</ele><time>2026-04-04T15:59:34.822Z</time></trkpt><trkpt lat="43.3853019" lon="11.2038521"><ele>194.0</ele><time>2026-04-04T15:59:35.82Z</time></trkpt><trkpt lat="43.3853468" lon="11.2037749"><ele>194.0</ele><time>2026-04-04T15:59:36.821Z</time></trkpt><trkpt lat="43.3853855" lon="11.2036994"><ele>194.14285714285714</ele><time>2026-04-04T15:59:37.82Z</time></trkpt><trkpt lat="43.3854241" lon="11.2036174"><ele>194.2857142857143</ele><time>2026-04-04T15:59:38.822Z</time></trkpt><trkpt lat="43.3854647" lon="11.2035439"><ele>194.42857142857144</ele><time>2026-04-04T15:59:39.82Z</time></trkpt><trkpt lat="43.3855051" lon="11.2034612"><ele>194.57142857142856</ele><time>2026-04-04T15:59:40.82Z</time></trkpt><trkpt lat="43.3855492" lon="11.2033819"><ele>194.71428571428572</ele><time>2026-04-04T15:59:41.821Z</time></trkpt><trkpt lat="43.38559" lon="11.2033067"><ele>194.85714285714286</ele><time>2026-04-04T15:59:42.82Z</time></trkpt><trkpt lat="43.3856288" lon="11.2032293"><ele>195.0</ele><time>2026-04-04T15:59:43.821Z</time></trkpt><trkpt lat="43.3856718" lon="11.2031517"><ele>195.0</ele><time>2026-04-04T15:59:44.822Z</time></trkpt><trkpt lat="43.3857125" lon="11.2030672"><ele>195.0</ele><time>2026-04-04T15:59:45.821Z</time></trkpt><trkpt lat="43.3857578" lon="11.2029783"><ele>195.0</ele><time>2026-04-04T15:59:46.821Z</time></trkpt><trkpt lat="43.385801" lon="11.2028911"><ele>195.0</ele><time>2026-04-04T15:59:47.821Z</time></trkpt><trkpt lat="43.3858476" lon="11.2028085"><ele>195.0</ele><time>2026-04-04T15:59:48.821Z</time></trkpt><trkpt lat="43.3858951" lon="11.2027185"><ele>195.0</ele><time>2026-04-04T15:59:49.822Z</time></trkpt><trkpt lat="43.3859405" lon="11.2026309"><ele>195.0</ele><time>2026-04-04T15:59:50.822Z</time></trkpt><trkpt lat="43.3859849" lon="11.2025441"><ele>195.0</ele><time>2026-04-04T15:59:51.82Z</time></trkpt><trkpt lat="43.386029" lon="11.2024601"><ele>195.0</ele><time>2026-04-04T15:59:52.822Z</time></trkpt><trkpt lat="43.3860645" lon="11.2023883"><ele>195.0</ele><time>2026-04-04T15:59:53.822Z</time></trkpt><trkpt lat="43.3861324" lon="11.202287"><ele>195.0</ele><time>2026-04-04T15:59:55.82Z</time></trkpt><trkpt lat="43.386239" lon="11.2022834"><ele>195.0</ele><time>2026-04-04T15:59:57.82Z</time></trkpt><trkpt lat="43.3863201" lon="11.2023238"><ele>194.75</ele><time>2026-04-04T15:59:58.821Z</time></trkpt><trkpt lat="43.3864189" lon="11.202377"><ele>194.5</ele><time>2026-04-04T15:59:59.82Z</time></trkpt><trkpt lat="43.386532" lon="11.2024475"><ele>194.25</ele><time>2026-04-04T16:00:00.82Z</time></trkpt><trkpt lat="43.3866585" lon="11.2025221"><ele>194.0</ele><time>2026-04-04T16:00:01.821Z</time></trkpt><trkpt lat="43.3867925" lon="11.2026029"><ele>194.0</ele><time>2026-04-04T16:00:02.822Z</time></trkpt><trkpt lat="43.386917" lon="11.2026792"><ele>194.0</ele><time>2026-04-04T16:00:03.821Z</time></trkpt><trkpt lat="43.38704" lon="11.2027419"><ele>194.0</ele><time>2026-04-04T16:00:04.822Z</time></trkpt><trkpt lat="43.3871652" lon="11.2027795"><ele>194.0</ele><time>2026-04-04T16:00:05.821Z</time></trkpt><trkpt lat="43.387314" lon="11.2027933"><ele>194.5</ele><time>2026-04-04T16:00:06.82Z</time></trkpt><trkpt lat="43.3874727" lon="11.202793"><ele>195.0</ele><time>2026-04-04T16:00:07.822Z</time></trkpt><trkpt lat="43.3875922" lon="11.202813"><ele>195.5</ele><time>2026-04-04T16:00:08.822Z</time></trkpt><trkpt lat="43.3877496" lon="11.2028861"><ele>196.0</ele><time>2026-04-04T16:00:09.821Z</time></trkpt><trkpt lat="43.3879277" lon="11.2029737"><ele>196.0</ele><time>2026-04-04T16:00:10.82Z</time></trkpt><trkpt lat="43.3881118" lon="11.2030545"><ele>196.0</ele><time>2026-04-04T16:00:11.822Z</time></trkpt><trkpt lat="43.3882553" lon="11.2031204"><ele>196.0</ele><time>2026-04-04T16:00:12.822Z</time></trkpt><trkpt lat="43.3883786" lon="11.2031759"><ele>195.4</ele><time>2026-04-04T16:00:13.822Z</time></trkpt><trkpt lat="43.3884861" lon="11.2032267"><ele>194.8</ele><time>2026-04-04T16:00:14.821Z</time></trkpt><trkpt lat="43.38856" lon="11.2032753"><ele>194.20000000000002</ele><time>2026-04-04T16:00:15.821Z</time></trkpt><trkpt lat="43.3886277" lon="11.2034234"><ele>193.60000000000002</ele><time>2026-04-04T16:00:17.821Z</time></trkpt><trkpt lat="43.3886287" lon="11.2035688"><ele>193.0</ele><time>2026-04-04T16:00:18.82Z</time></trkpt><trkpt lat="43.3886276" lon="11.2037651"><ele>193.0</ele><time>2026-04-04T16:00:19.821Z</time></trkpt><trkpt lat="43.388628" lon="11.2040126"><ele>193.0</ele><time>2026-04-04T16:00:20.82Z</time></trkpt><trkpt lat="43.3886196" lon="11.2042715"><ele>193.0</ele><time>2026-04-04T16:00:21.822Z</time></trkpt><trkpt lat="43.388615" lon="11.2046202"><ele>192.66666666666666</ele><time>2026-04-04T16:00:22.821Z</time></trkpt><trkpt lat="43.3886067" lon="11.2048902"><ele>192.33333333333331</ele><time>2026-04-04T16:00:23.821Z</time></trkpt><trkpt lat="43.3886017" lon="11.2051647"><ele>192.0</ele><time>2026-04-04T16:00:24.821Z</time></trkpt><trkpt lat="43.3885956" lon="11.2053851"><ele>192.0</ele><time>2026-04-04T16:00:25.822Z</time></trkpt><trkpt lat="43.3885904" lon="11.205608"><ele>192.0</ele><time>2026-04-04T16:00:26.82Z</time></trkpt><trkpt lat="43.3885792" lon="11.2057922"><ele>192.0</ele><time>2026-04-04T16:00:27.822Z</time></trkpt><trkpt lat="43.3885769" lon="11.2059595"><ele>192.0</ele><time>2026-04-04T16:00:28.822Z</time></trkpt><trkpt lat="43.3885754" lon="11.2060909"><ele>192.0</ele><time>2026-04-04T16:00:29.822Z</time></trkpt><trkpt lat="43.3885666" lon="11.2062039"><ele>192.0</ele><time>2026-04-04T16:00:30.821Z</time></trkpt><trkpt lat="43.3885627" lon="11.2062917"><ele>192.0</ele><time>2026-04-04T16:00:31.821Z</time></trkpt><trkpt lat="43.3886069" lon="11.2063937"><ele>192.0</ele><time>2026-04-04T16:00:33.822Z</time></trkpt><trkpt lat="43.3886682" lon="11.2064228"><ele>192.0</ele><time>2026-04-04T16:00:34.822Z</time></trkpt><trkpt lat="43.3887566" lon="11.2064434"><ele>192.0</ele><time>2026-04-04T16:00:35.822Z</time></trkpt><trkpt lat="43.3888794" lon="11.2064896"><ele>191.66666666666666</ele><time>2026-04-04T16:00:36.822Z</time></trkpt><trkpt lat="43.3890272" lon="11.2065333"><ele>191.33333333333331</ele><time>2026-04-04T16:00:37.821Z</time></trkpt><trkpt lat="43.3891959" lon="11.2065807"><ele>191.0</ele><time>2026-04-04T16:00:38.822Z</time></trkpt><trkpt lat="43.3893855" lon="11.2066401"><ele>191.0</ele><time>2026-04-04T16:00:39.822Z</time></trkpt><trkpt lat="43.3895716" lon="11.2066979"><ele>191.0</ele><time>2026-04-04T16:00:40.82Z</time></trkpt><trkpt lat="43.3897221" lon="11.2067455"><ele>191.0</ele><time>2026-04-04T16:00:41.821Z</time></trkpt><trkpt lat="43.3898781" lon="11.2067963"><ele>191.20000000000002</ele><time>2026-04-04T16:00:42.821Z</time></trkpt><trkpt lat="43.3899913" lon="11.2068514"><ele>191.4</ele><time>2026-04-04T16:00:43.821Z</time></trkpt><trkpt lat="43.3901173" lon="11.2068786"><ele>191.6</ele><time>2026-04-04T16:00:45.82Z</time></trkpt><trkpt lat="43.3902126" lon="11.2069097"><ele>191.8</ele><time>2026-04-04T16:00:46.821Z</time></trkpt><trkpt lat="43.3903022" lon="11.2069398"><ele>192.0</ele><time>2026-04-04T16:00:47.821Z</time></trkpt><trkpt lat="43.3904011" lon="11.2069713"><ele>192.0</ele><time>2026-04-04T16:00:48.82Z</time></trkpt><trkpt lat="43.3904935" lon="11.2069981"><ele>192.0</ele><time>2026-04-04T16:00:49.821Z</time></trkpt><trkpt lat="43.3905812" lon="11.2070252"><ele>192.0</ele><time>2026-04-04T16:00:50.821Z</time></trkpt><trkpt lat="43.3906638" lon="11.2070453"><ele>192.0</ele><time>2026-04-04T16:00:51.822Z</time></trkpt><trkpt lat="43.3907437" lon="11.2070674"><ele>192.0</ele><time>2026-04-04T16:00:52.822Z</time></trkpt><trkpt lat="43.3908221" lon="11.2070906"><ele>192.0</ele><time>2026-04-04T16:00:53.821Z</time></trkpt><trkpt lat="43.3908995" lon="11.2071126"><ele>192.0</ele><time>2026-04-04T16:00:54.821Z</time></trkpt><trkpt lat="43.3909837" lon="11.2071421"><ele>192.0</ele><time>2026-04-04T16:00:55.822Z</time></trkpt><trkpt lat="43.3910795" lon="11.207175"><ele>192.0</ele><time>2026-04-04T16:00:56.822Z</time></trkpt><trkpt lat="43.3911897" lon="11.2072045"><ele>192.0</ele><time>2026-04-04T16:00:57.821Z</time></trkpt><trkpt lat="43.3912869" lon="11.2072359"><ele>192.0</ele><time>2026-04-04T16:00:58.822Z</time></trkpt><trkpt lat="43.3913934" lon="11.2072735"><ele>192.0</ele><time>2026-04-04T16:00:59.821Z</time></trkpt><trkpt lat="43.3915115" lon="11.2073149"><ele>192.0</ele><time>2026-04-04T16:01:00.821Z</time></trkpt><trkpt lat="43.3916293" lon="11.2073463"><ele>192.0</ele><time>2026-04-04T16:01:01.821Z</time></trkpt><trkpt lat="43.3917528" lon="11.2073824"><ele>192.0</ele><time>2026-04-04T16:01:02.822Z</time></trkpt><trkpt lat="43.3918822" lon="11.2074151"><ele>192.25</ele><time>2026-04-04T16:01:03.821Z</time></trkpt><trkpt lat="43.3920103" lon="11.2074507"><ele>192.5</ele><time>2026-04-04T16:01:04.821Z</time></trkpt><trkpt lat="43.3921329" lon="11.2074859"><ele>192.75</ele><time>2026-04-04T16:01:05.82Z</time></trkpt><trkpt lat="43.3922537" lon="11.2075234"><ele>193.0</ele><time>2026-04-04T16:01:06.822Z</time></trkpt><trkpt lat="43.3923772" lon="11.2075572"><ele>193.0</ele><time>2026-04-04T16:01:07.822Z</time></trkpt><trkpt lat="43.392498" lon="11.2075942"><ele>193.0</ele><time>2026-04-04T16:01:08.822Z</time></trkpt><trkpt lat="43.3926067" lon="11.2076286"><ele>193.0</ele><time>2026-04-04T16:01:09.821Z</time></trkpt><trkpt lat="43.3927058" lon="11.2076649"><ele>193.0</ele><time>2026-04-04T16:01:10.822Z</time></trkpt><trkpt lat="43.3927837" lon="11.2076939"><ele>193.0</ele><time>2026-04-04T16:01:11.821Z</time></trkpt><trkpt lat="43.3928459" lon="11.2077099"><ele>193.0</ele><time>2026-04-04T16:01:12.821Z</time></trkpt><trkpt lat="43.3929044" lon="11.2076308"><ele>193.0</ele><time>2026-04-04T16:01:30.82Z</time></trkpt><trkpt lat="43.3929233" lon="11.2074199"><ele>193.0</ele><time>2026-04-04T16:01:32.82Z</time></trkpt><trkpt lat="43.3929288" lon="11.2072952"><ele>193.0</ele><time>2026-04-04T16:01:33.822Z</time></trkpt><trkpt lat="43.3929211" lon="11.2071162"><ele>193.66666666666666</ele><time>2026-04-04T16:01:34.821Z</time></trkpt><trkpt lat="43.3929261" lon="11.2069043"><ele>194.33333333333331</ele><time>2026-04-04T16:01:35.822Z</time></trkpt><trkpt lat="43.3929317" lon="11.2066869"><ele>195.0</ele><time>2026-04-04T16:01:36.822Z</time></trkpt><trkpt lat="43.3929356" lon="11.2064825"><ele>195.0</ele><time>2026-04-04T16:01:37.822Z</time></trkpt><trkpt lat="43.3929348" lon="11.2062834"><ele>195.0</ele><time>2026-04-04T16:01:38.822Z</time></trkpt><trkpt lat="43.39294" lon="11.2060789"><ele>195.0</ele><time>2026-04-04T16:01:39.821Z</time></trkpt><trkpt lat="43.3929429" lon="11.2058817"><ele>195.0</ele><time>2026-04-04T16:01:40.821Z</time></trkpt><trkpt lat="43.3929394" lon="11.205709"><ele>195.5</ele><time>2026-04-04T16:01:41.821Z</time></trkpt><trkpt lat="43.3929379" lon="11.2055162"><ele>196.0</ele><time>2026-04-04T16:01:42.822Z</time></trkpt><trkpt lat="43.392942" lon="11.2053106"><ele>196.5</ele><time>2026-04-04T16:01:43.822Z</time></trkpt><trkpt lat="43.3929415" lon="11.2050989"><ele>197.0</ele><time>2026-04-04T16:01:44.822Z</time></trkpt><trkpt lat="43.3929411" lon="11.2049233"><ele>197.2</ele><time>2026-04-04T16:01:45.822Z</time></trkpt><trkpt lat="43.3929487" lon="11.2047447"><ele>197.39999999999998</ele><time>2026-04-04T16:01:46.821Z</time></trkpt><trkpt lat="43.3929533" lon="11.2046205"><ele>197.60000000000002</ele><time>2026-04-04T16:01:47.822Z</time></trkpt><trkpt lat="43.3929563" lon="11.2044792"><ele>197.8</ele><time>2026-04-04T16:01:48.82Z</time></trkpt><trkpt lat="43.3929574" lon="11.204368"><ele>198.0</ele><time>2026-04-04T16:01:49.82Z</time></trkpt><trkpt lat="43.3929579" lon="11.2042445"><ele>198.0</ele><time>2026-04-04T16:01:50.82Z</time></trkpt><trkpt lat="43.3929614" lon="11.2041048"><ele>198.0</ele><time>2026-04-04T16:01:51.822Z</time></trkpt><trkpt lat="43.3929645" lon="11.2039446"><ele>198.0</ele><time>2026-04-04T16:01:52.822Z</time></trkpt><trkpt lat="43.3929717" lon="11.2037565"><ele>198.0</ele><time>2026-04-04T16:01:53.821Z</time></trkpt><trkpt lat="43.3929773" lon="11.2035493"><ele>197.33333333333331</ele><time>2026-04-04T16:01:54.821Z</time></trkpt><trkpt lat="43.3929868" lon="11.2033372"><ele>196.66666666666666</ele><time>2026-04-04T16:01:55.821Z</time></trkpt><trkpt lat="43.3929963" lon="11.2031168"><ele>196.0</ele><time>2026-04-04T16:01:56.821Z</time></trkpt><trkpt lat="43.3930018" lon="11.202913"><ele>196.5</ele><time>2026-04-04T16:01:57.821Z</time></trkpt><trkpt lat="43.3930064" lon="11.2027127"><ele>197.0</ele><time>2026-04-04T16:01:58.822Z</time></trkpt><trkpt lat="43.3930101" lon="11.2025133"><ele>197.5</ele><time>2026-04-04T16:01:59.821Z</time></trkpt><trkpt lat="43.3930127" lon="11.202306"><ele>198.0</ele><time>2026-04-04T16:02:00.821Z</time></trkpt><trkpt lat="43.3930161" lon="11.202094"><ele>198.75</ele><time>2026-04-04T16:02:01.821Z</time></trkpt><trkpt lat="43.3930192" lon="11.2018882"><ele>199.5</ele><time>2026-04-04T16:02:02.822Z</time></trkpt><trkpt lat="43.3930243" lon="11.2016831"><ele>200.25</ele><time>2026-04-04T16:02:03.822Z</time></trkpt><trkpt lat="43.3930271" lon="11.2014828"><ele>201.0</ele><time>2026-04-04T16:02:04.822Z</time></trkpt><trkpt lat="43.3930311" lon="11.2012787"><ele>201.0</ele><time>2026-04-04T16:02:05.822Z</time></trkpt><trkpt lat="43.3930323" lon="11.2010876"><ele>201.0</ele><time>2026-04-04T16:02:06.82Z</time></trkpt><trkpt lat="43.3930328" lon="11.2008973"><ele>201.0</ele><time>2026-04-04T16:02:07.821Z</time></trkpt><trkpt lat="43.3930335" lon="11.2007201"><ele>201.0</ele><time>2026-04-04T16:02:08.821Z</time></trkpt><trkpt lat="43.3930375" lon="11.2005511"><ele>200.5</ele><time>2026-04-04T16:02:09.82Z</time></trkpt><trkpt lat="43.3930334" lon="11.2004017"><ele>200.0</ele><time>2026-04-04T16:02:10.821Z</time></trkpt><trkpt lat="43.3930167" lon="11.2002777"><ele>199.5</ele><time>2026-04-04T16:02:11.821Z</time></trkpt><trkpt lat="43.3929877" lon="11.2001722"><ele>199.0</ele><time>2026-04-04T16:02:12.822Z</time></trkpt><trkpt lat="43.3929414" lon="11.2000954"><ele>198.5</ele><time>2026-04-04T16:02:13.821Z</time></trkpt><trkpt lat="43.3928762" lon="11.2000335"><ele>198.0</ele><time>2026-04-04T16:02:14.821Z</time></trkpt><trkpt lat="43.3927867" lon="11.1999981"><ele>198.0</ele><time>2026-04-04T16:02:15.82Z</time></trkpt><trkpt lat="43.3926928" lon="11.1999708"><ele>198.0</ele><time>2026-04-04T16:02:16.821Z</time></trkpt><trkpt lat="43.3925867" lon="11.1999386"><ele>198.0</ele><time>2026-04-04T16:02:17.82Z</time></trkpt><trkpt lat="43.3924649" lon="11.1998975"><ele>198.0</ele><time>2026-04-04T16:02:18.822Z</time></trkpt><trkpt lat="43.3923399" lon="11.1998496"><ele>198.33333333333331</ele><time>2026-04-04T16:02:19.821Z</time></trkpt><trkpt lat="43.3921992" lon="11.1997951"><ele>198.66666666666666</ele><time>2026-04-04T16:02:20.82Z</time></trkpt><trkpt lat="43.3920476" lon="11.1997372"><ele>199.0</ele><time>2026-04-04T16:02:21.821Z</time></trkpt><trkpt lat="43.3918846" lon="11.1996746"><ele>199.0</ele><time>2026-04-04T16:02:22.821Z</time></trkpt><trkpt lat="43.3917183" lon="11.1996141"><ele>199.0</ele><time>2026-04-04T16:02:23.822Z</time></trkpt><trkpt lat="43.3915496" lon="11.1995506"><ele>199.0</ele><time>2026-04-04T16:02:24.822Z</time></trkpt><trkpt lat="43.3913729" lon="11.1994834"><ele>200.33333333333331</ele><time>2026-04-04T16:02:25.821Z</time></trkpt><trkpt lat="43.391183" lon="11.199411"><ele>201.66666666666669</ele><time>2026-04-04T16:02:26.82Z</time></trkpt><trkpt lat="43.3909967" lon="11.19934"><ele>203.0</ele><time>2026-04-04T16:02:27.822Z</time></trkpt><trkpt lat="43.3908281" lon="11.1992744"><ele>203.0</ele><time>2026-04-04T16:02:28.821Z</time></trkpt><trkpt lat="43.3906675" lon="11.1992133"><ele>203.0</ele><time>2026-04-04T16:02:29.82Z</time></trkpt><trkpt lat="43.3905153" lon="11.1991553"><ele>203.0</ele><time>2026-04-04T16:02:30.821Z</time></trkpt><trkpt lat="43.3903701" lon="11.1991069"><ele>202.5</ele><time>2026-04-04T16:02:31.822Z</time></trkpt><trkpt lat="43.3902313" lon="11.1990579"><ele>202.0</ele><time>2026-04-04T16:02:32.82Z</time></trkpt><trkpt lat="43.3901004" lon="11.199013"><ele>201.5</ele><time>2026-04-04T16:02:33.822Z</time></trkpt><trkpt lat="43.3899744" lon="11.1989727"><ele>201.0</ele><time>2026-04-04T16:02:34.821Z</time></trkpt><trkpt lat="43.389856" lon="11.1989195"><ele>201.0</ele><time>2026-04-04T16:02:35.822Z</time></trkpt><trkpt lat="43.3897414" lon="11.1988448"><ele>201.0</ele><time>2026-04-04T16:02:36.822Z</time></trkpt><trkpt lat="43.3896465" lon="11.19874"><ele>201.0</ele><time>2026-04-04T16:02:37.82Z</time></trkpt><trkpt lat="43.3895542" lon="11.198622"><ele>201.0</ele><time>2026-04-04T16:02:38.821Z</time></trkpt><trkpt lat="43.3894937" lon="11.1984624"><ele>200.66666666666669</ele><time>2026-04-04T16:02:39.822Z</time></trkpt><trkpt lat="43.3894255" lon="11.1982824"><ele>200.33333333333334</ele><time>2026-04-04T16:02:40.821Z</time></trkpt><trkpt lat="43.3893676" lon="11.1980918"><ele>200.0</ele><time>2026-04-04T16:02:41.82Z</time></trkpt><trkpt lat="43.3893156" lon="11.1978803"><ele>199.66666666666669</ele><time>2026-04-04T16:02:42.822Z</time></trkpt><trkpt lat="43.3892857" lon="11.197659"><ele>199.33333333333331</ele><time>2026-04-04T16:02:43.821Z</time></trkpt><trkpt lat="43.3892728" lon="11.1974358"><ele>199.0</ele><time>2026-04-04T16:02:44.822Z</time></trkpt><trkpt lat="43.3892618" lon="11.197226"><ele>199.0</ele><time>2026-04-04T16:02:45.822Z</time></trkpt><trkpt lat="43.3892494" lon="11.1970294"><ele>199.0</ele><time>2026-04-04T16:02:46.821Z</time></trkpt><trkpt lat="43.3892289" lon="11.1968367"><ele>199.0</ele><time>2026-04-04T16:02:47.821Z</time></trkpt><trkpt lat="43.3891881" lon="11.1966478"><ele>199.0</ele><time>2026-04-04T16:02:48.821Z</time></trkpt><trkpt lat="43.3891266" lon="11.1964631"><ele>199.33333333333331</ele><time>2026-04-04T16:02:49.82Z</time></trkpt><trkpt lat="43.3890471" lon="11.1962775"><ele>199.66666666666669</ele><time>2026-04-04T16:02:50.821Z</time></trkpt><trkpt lat="43.3889603" lon="11.1960954"><ele>200.0</ele><time>2026-04-04T16:02:51.822Z</time></trkpt><trkpt lat="43.3888695" lon="11.1959156"><ele>200.33333333333334</ele><time>2026-04-04T16:02:52.821Z</time></trkpt><trkpt lat="43.3887756" lon="11.1957477"><ele>200.66666666666669</ele><time>2026-04-04T16:02:53.822Z</time></trkpt><trkpt lat="43.3886682" lon="11.1955899"><ele>201.0</ele><time>2026-04-04T16:02:54.822Z</time></trkpt><trkpt lat="43.3885567" lon="11.1954288"><ele>201.0</ele><time>2026-04-04T16:02:55.822Z</time></trkpt><trkpt lat="43.388452" lon="11.1952884"><ele>201.0</ele><time>2026-04-04T16:02:56.822Z</time></trkpt><trkpt lat="43.3883554" lon="11.1951567"><ele>201.0</ele><time>2026-04-04T16:02:57.821Z</time></trkpt><trkpt lat="43.3882675" lon="11.1950367"><ele>201.0</ele><time>2026-04-04T16:02:58.821Z</time></trkpt><trkpt lat="43.388187" lon="11.1949283"><ele>201.16666666666666</ele><time>2026-04-04T16:02:59.821Z</time></trkpt><trkpt lat="43.3881177" lon="11.1948365"><ele>201.33333333333331</ele><time>2026-04-04T16:03:00.821Z</time></trkpt><trkpt lat="43.3880673" lon="11.1947712"><ele>201.5</ele><time>2026-04-04T16:03:01.822Z</time></trkpt><trkpt lat="43.3880216" lon="11.1946803"><ele>201.66666666666666</ele><time>2026-04-04T16:03:03.82Z</time></trkpt><trkpt lat="43.3880499" lon="11.1946016"><ele>201.83333333333331</ele><time>2026-04-04T16:03:05.822Z</time></trkpt><trkpt lat="43.3881278" lon="11.1945303"><ele>202.0</ele><time>2026-04-04T16:03:07.821Z</time></trkpt><trkpt lat="43.3882157" lon="11.1944724"><ele>202.0</ele><time>2026-04-04T16:03:09.821Z</time></trkpt><trkpt lat="43.3883022" lon="11.1944326"><ele>202.0</ele><time>2026-04-04T16:03:11.821Z</time></trkpt><trkpt lat="43.3883639" lon="11.1943726"><ele>202.0</ele><time>2026-04-04T16:04:45.821Z</time></trkpt><trkpt lat="43.3884478" lon="11.1943208"><ele>202.0</ele><time>2026-04-04T16:04:47.821Z</time></trkpt><trkpt lat="43.3885361" lon="11.1942423"><ele>202.0</ele><time>2026-04-04T16:04:49.821Z</time></trkpt><trkpt lat="43.3886173" lon="11.1941529"><ele>202.25</ele><time>2026-04-04T16:04:51.821Z</time></trkpt><trkpt lat="43.3886914" lon="11.1939637"><ele>202.5</ele><time>2026-04-04T16:04:54.82Z</time></trkpt><trkpt lat="43.3886966" lon="11.1938263"><ele>202.75</ele><time>2026-04-04T16:04:56.82Z</time></trkpt><trkpt lat="43.388662" lon="11.1936873"><ele>203.0</ele><time>2026-04-04T16:04:58.821Z</time></trkpt><trkpt lat="43.3885984" lon="11.1935865"><ele>203.0</ele><time>2026-04-04T16:05:00.821Z</time></trkpt><trkpt lat="43.3885379" lon="11.1935293"><ele>203.0</ele><time>2026-04-04T16:05:02.82Z</time></trkpt><trkpt lat="43.3884611" lon="11.1935505"><ele>203.0</ele><time>2026-04-04T16:05:05.821Z</time></trkpt><trkpt lat="43.3883964" lon="11.1935937"><ele>203.0</ele><time>2026-04-04T16:05:26.822Z</time></trkpt><trkpt lat="43.3883344" lon="11.1936297"><ele>203.0</ele><time>2026-04-04T16:05:31.821Z</time></trkpt></trkseg></trk></gpx>